<?xml version='1.0' encoding='UTF-8'?><gpx version="1.1" creator="JPX - https://github.com/jenetics/jpx" xmlns="http://www.topografix.com/GPX/1/1"><trk><trkseg><trkpt lat="45.3347635" lon="8.4035241"><ele>130.0</ele><time>2026-04-04T11:27:11.392Z</time></trkpt><trkpt lat="45.3347415" lon="8.4036367"><ele>130.0</ele><time>2026-04-04T11:27:20.399Z</time></trkpt><trkpt lat="45.3347158" lon="8.4037357"><ele>130.0</ele><time>2026-04-04T11:27:23.397Z</time></trkpt><trkpt lat="45.3347865" lon="8.4038316"><ele>130.0</ele><time>2026-04-04T11:27:26.397Z</time></trkpt><trkpt lat="45.3348617" lon="8.4038611"><ele>130.0</ele><time>2026-04-04T11:27:28.395Z</time></trkpt><trkpt lat="45.3349317" lon="8.4038819"><ele>130.0</ele><time>2026-04-04T11:27:30.392Z</time></trkpt><trkpt lat="45.3349892" lon="8.4039543"><ele>130.4</ele><time>2026-04-04T11:27:32.397Z</time></trkpt><trkpt lat="45.3349823" lon="8.4040816"><ele>130.8</ele><time>2026-04-04T11:27:34.398Z</time></trkpt><trkpt lat="45.3349602" lon="8.4042109"><ele>131.2</ele><time>2026-04-04T11:27:36.411Z</time></trkpt><trkpt lat="45.3349173" lon="8.4043461"><ele>131.6</ele><time>2026-04-04T11:27:38.405Z</time></trkpt><trkpt lat="45.3348749" lon="8.4044898"><ele>132.0</ele><time>2026-04-04T11:27:40.401Z</time></trkpt><trkpt lat="45.334838" lon="8.404643"><ele>131.5</ele><time>2026-04-04T11:27:42.399Z</time></trkpt><trkpt lat="45.3348013" lon="8.4048001"><ele>131.0</ele><time>2026-04-04T11:27:44.396Z</time></trkpt><trkpt lat="45.3347667" lon="8.4049551"><ele>130.5</ele><time>2026-04-04T11:27:46.397Z</time></trkpt><trkpt lat="45.3347278" lon="8.4051115"><ele>130.0</ele><time>2026-04-04T11:27:48.402Z</time></trkpt><trkpt lat="45.3347042" lon="8.4052736"><ele>129.8</ele><time>2026-04-04T11:27:50.392Z</time></trkpt><trkpt lat="45.3346859" lon="8.4054409"><ele>129.6</ele><time>2026-04-04T11:27:52.392Z</time></trkpt><trkpt lat="45.3346786" lon="8.4056073"><ele>129.4</ele><time>2026-04-04T11:27:54.397Z</time></trkpt><trkpt lat="45.3346704" lon="8.4057828"><ele>129.2</ele><time>2026-04-04T11:27:56.406Z</time></trkpt><trkpt lat="45.334668" lon="8.4058749"><ele>129.0</ele><time>2026-04-04T11:27:57.398Z</time></trkpt><trkpt lat="45.3346626" lon="8.4059683"><ele>128.99999999999997</ele><time>2026-04-04T11:27:58.401Z</time></trkpt><trkpt lat="45.3346599" lon="8.4060598"><ele>129.0</ele><time>2026-04-04T11:27:59.395Z</time></trkpt><trkpt lat="45.3346554" lon="8.406155"><ele>129.0</ele><time>2026-04-04T11:28:00.405Z</time></trkpt><trkpt lat="45.3346546" lon="8.4062497"><ele>129.0</ele><time>2026-04-04T11:28:01.392Z</time></trkpt><trkpt lat="45.3346571" lon="8.4063496"><ele>129.0</ele><time>2026-04-04T11:28:02.396Z</time></trkpt><trkpt lat="45.3346566" lon="8.4064443"><ele>128.99999999999997</ele><time>2026-04-04T11:28:03.395Z</time></trkpt><trkpt lat="45.3346573" lon="8.406538"><ele>129.0</ele><time>2026-04-04T11:28:04.409Z</time></trkpt><trkpt lat="45.3346561" lon="8.4066281"><ele>129.5</ele><time>2026-04-04T11:28:05.406Z</time></trkpt><trkpt lat="45.3346671" lon="8.4068055"><ele>130.0</ele><time>2026-04-04T11:28:07.395Z</time></trkpt><trkpt lat="45.3346627" lon="8.4069006"><ele>130.5</ele><time>2026-04-04T11:28:08.394Z</time></trkpt><trkpt lat="45.3346524" lon="8.4069938"><ele>131.0</ele><time>2026-04-04T11:28:09.399Z</time></trkpt><trkpt lat="45.3346331" lon="8.407087"><ele>131.5</ele><time>2026-04-04T11:28:10.394Z</time></trkpt><trkpt lat="45.334606" lon="8.4071715"><ele>132.0</ele><time>2026-04-04T11:28:11.404Z</time></trkpt><trkpt lat="45.3345717" lon="8.4072481"><ele>132.2</ele><time>2026-04-04T11:28:12.396Z</time></trkpt><trkpt lat="45.3344998" lon="8.4073877"><ele>132.39999999999998</ele><time>2026-04-04T11:28:14.398Z</time></trkpt><trkpt lat="45.3344441" lon="8.407533"><ele>132.60000000000002</ele><time>2026-04-04T11:28:16.399Z</time></trkpt><trkpt lat="45.3344268" lon="8.407623"><ele>132.8</ele><time>2026-04-04T11:28:17.401Z</time></trkpt><trkpt lat="45.3343695" lon="8.4077755"><ele>133.0</ele><time>2026-04-04T11:28:19.403Z</time></trkpt><trkpt lat="45.3343193" lon="8.4078338"><ele>133.0</ele><time>2026-04-04T11:28:20.399Z</time></trkpt><trkpt lat="45.3342613" lon="8.4078748"><ele>133.0</ele><time>2026-04-04T11:28:21.398Z</time></trkpt><trkpt lat="45.3341462" lon="8.4079471"><ele>133.0</ele><time>2026-04-04T11:28:23.396Z</time></trkpt><trkpt lat="45.3340887" lon="8.407986"><ele>133.0</ele><time>2026-04-04T11:28:24.398Z</time></trkpt><trkpt lat="45.333976" lon="8.4080656"><ele>133.0</ele><time>2026-04-04T11:28:26.398Z</time></trkpt><trkpt lat="45.3338682" lon="8.4081373"><ele>132.8</ele><time>2026-04-04T11:28:28.394Z</time></trkpt><trkpt lat="45.3337594" lon="8.4082139"><ele>132.60000000000002</ele><time>2026-04-04T11:28:30.398Z</time></trkpt><trkpt lat="45.3336521" lon="8.4082889"><ele>132.39999999999998</ele><time>2026-04-04T11:28:32.404Z</time></trkpt><trkpt lat="45.3335449" lon="8.4083604"><ele>132.2</ele><time>2026-04-04T11:28:34.405Z</time></trkpt><trkpt lat="45.3334887" lon="8.4084021"><ele>132.0</ele><time>2026-04-04T11:28:35.395Z</time></trkpt><trkpt lat="45.3333825" lon="8.4084805"><ele>132.0</ele><time>2026-04-04T11:28:37.394Z</time></trkpt><trkpt lat="45.3332742" lon="8.408554"><ele>132.0</ele><time>2026-04-04T11:28:39.398Z</time></trkpt><trkpt lat="45.3331714" lon="8.4086341"><ele>132.0</ele><time>2026-04-04T11:28:41.396Z</time></trkpt><trkpt lat="45.3330599" lon="8.408702"><ele>132.0</ele><time>2026-04-04T11:28:43.397Z</time></trkpt><trkpt lat="45.3329498" lon="8.4087766"><ele>131.79999999999998</ele><time>2026-04-04T11:28:45.402Z</time></trkpt><trkpt lat="45.3328436" lon="8.4088508"><ele>131.6</ele><time>2026-04-04T11:28:47.399Z</time></trkpt><trkpt lat="45.3327468" lon="8.408923"><ele>131.39999999999998</ele><time>2026-04-04T11:28:49.395Z</time></trkpt><trkpt lat="45.3326525" lon="8.4089985"><ele>131.2</ele><time>2026-04-04T11:28:51.398Z</time></trkpt><trkpt lat="45.3325643" lon="8.4090692"><ele>131.0</ele><time>2026-04-04T11:28:53.402Z</time></trkpt><trkpt lat="45.3324711" lon="8.409146"><ele>131.0</ele><time>2026-04-04T11:28:55.4Z</time></trkpt><trkpt lat="45.3323803" lon="8.4092211"><ele>131.0</ele><time>2026-04-04T11:28:57.403Z</time></trkpt><trkpt lat="45.332294" lon="8.409294"><ele>131.0</ele><time>2026-04-04T11:28:59.392Z</time></trkpt><trkpt lat="45.3321989" lon="8.4093589"><ele>131.0</ele><time>2026-04-04T11:29:01.4Z</time></trkpt><trkpt lat="45.3321219" lon="8.4094382"><ele>131.0</ele><time>2026-04-04T11:29:03.403Z</time></trkpt><trkpt lat="45.3320538" lon="8.4094944"><ele>131.0</ele><time>2026-04-04T11:29:05.394Z</time></trkpt><trkpt lat="45.3320032" lon="8.4095976"><ele>131.0</ele><time>2026-04-04T11:29:10.396Z</time></trkpt><trkpt lat="45.3320374" lon="8.4097347"><ele>131.0</ele><time>2026-04-04T11:29:12.396Z</time></trkpt><trkpt lat="45.332061" lon="8.4098232"><ele>131.0</ele><time>2026-04-04T11:29:13.396Z</time></trkpt><trkpt lat="45.3321046" lon="8.4099537"><ele>131.0</ele><time>2026-04-04T11:29:15.394Z</time></trkpt><trkpt lat="45.3321415" lon="8.4100938"><ele>131.0</ele><time>2026-04-04T11:29:17.401Z</time></trkpt><trkpt lat="45.3321838" lon="8.4102441"><ele>131.0</ele><time>2026-04-04T11:29:19.395Z</time></trkpt><trkpt lat="45.3322119" lon="8.4103254"><ele>131.0</ele><time>2026-04-04T11:29:20.408Z</time></trkpt><trkpt lat="45.33224" lon="8.410484"><ele>131.0</ele><time>2026-04-04T11:29:22.397Z</time></trkpt><trkpt lat="45.3322755" lon="8.4106439"><ele>131.0</ele><time>2026-04-04T11:29:24.397Z</time></trkpt><trkpt lat="45.3323103" lon="8.4107878"><ele>130.8</ele><time>2026-04-04T11:29:26.395Z</time></trkpt><trkpt lat="45.3323402" lon="8.4109303"><ele>130.6</ele><time>2026-04-04T11:29:28.403Z</time></trkpt><trkpt lat="45.3323818" lon="8.4110785"><ele>130.4</ele><time>2026-04-04T11:29:30.398Z</time></trkpt><trkpt lat="45.3324039" lon="8.411228"><ele>130.2</ele><time>2026-04-04T11:29:32.393Z</time></trkpt><trkpt lat="45.3324286" lon="8.4113778"><ele>130.0</ele><time>2026-04-04T11:29:34.4Z</time></trkpt><trkpt lat="45.3324589" lon="8.4115373"><ele>130.0</ele><time>2026-04-04T11:29:36.392Z</time></trkpt><trkpt lat="45.3324976" lon="8.4116081"><ele>130.0</ele><time>2026-04-04T11:29:37.393Z</time></trkpt><trkpt lat="45.3325496" lon="8.4117625"><ele>130.0</ele><time>2026-04-04T11:29:39.399Z</time></trkpt><trkpt lat="45.3325875" lon="8.4119014"><ele>130.0</ele><time>2026-04-04T11:29:41.39Z</time></trkpt><trkpt lat="45.3326256" lon="8.4120583"><ele>130.0</ele><time>2026-04-04T11:29:43.396Z</time></trkpt><trkpt lat="45.3326566" lon="8.4122196"><ele>129.4</ele><time>2026-04-04T11:29:45.395Z</time></trkpt><trkpt lat="45.332686" lon="8.4123749"><ele>128.8</ele><time>2026-04-04T11:29:47.393Z</time></trkpt><trkpt lat="45.332718" lon="8.4125168"><ele>128.2</ele><time>2026-04-04T11:29:49.396Z</time></trkpt><trkpt lat="45.3327459" lon="8.4126566"><ele>127.6</ele><time>2026-04-04T11:29:51.393Z</time></trkpt><trkpt lat="45.3327775" lon="8.4127882"><ele>127.0</ele><time>2026-04-04T11:29:53.392Z</time></trkpt><trkpt lat="45.3328213" lon="8.4129357"><ele>127.19999999999999</ele><time>2026-04-04T11:29:55.407Z</time></trkpt><trkpt lat="45.3328597" lon="8.4130685"><ele>127.39999999999999</ele><time>2026-04-04T11:29:57.401Z</time></trkpt><trkpt lat="45.332897" lon="8.4132124"><ele>127.60000000000001</ele><time>2026-04-04T11:29:59.393Z</time></trkpt><trkpt lat="45.3329287" lon="8.4133594"><ele>127.80000000000001</ele><time>2026-04-04T11:30:01.398Z</time></trkpt><trkpt lat="45.3329591" lon="8.4135091"><ele>128.0</ele><time>2026-04-04T11:30:03.392Z</time></trkpt><trkpt lat="45.3329929" lon="8.4136644"><ele>127.80000000000001</ele><time>2026-04-04T11:30:05.397Z</time></trkpt><trkpt lat="45.3330286" lon="8.4138252"><ele>127.60000000000001</ele><time>2026-04-04T11:30:07.403Z</time></trkpt><trkpt lat="45.3330719" lon="8.413968"><ele>127.39999999999999</ele><time>2026-04-04T11:30:09.395Z</time></trkpt><trkpt lat="45.3330976" lon="8.4141117"><ele>127.19999999999999</ele><time>2026-04-04T11:30:11.398Z</time></trkpt><trkpt lat="45.3331423" lon="8.4142547"><ele>127.0</ele><time>2026-04-04T11:30:13.397Z</time></trkpt><trkpt lat="45.3331749" lon="8.4144033"><ele>126.75</ele><time>2026-04-04T11:30:15.398Z</time></trkpt><trkpt lat="45.3332019" lon="8.414558"><ele>126.5</ele><time>2026-04-04T11:30:17.392Z</time></trkpt><trkpt lat="45.3332369" lon="8.4147169"><ele>126.25</ele><time>2026-04-04T11:30:19.396Z</time></trkpt><trkpt lat="45.3332693" lon="8.414867"><ele>126.0</ele><time>2026-04-04T11:30:21.395Z</time></trkpt><trkpt lat="45.3333062" lon="8.4150233"><ele>125.8</ele><time>2026-04-04T11:30:23.392Z</time></trkpt><trkpt lat="45.3333361" lon="8.415174"><ele>125.6</ele><time>2026-04-04T11:30:25.397Z</time></trkpt><trkpt lat="45.3333744" lon="8.4152972"><ele>125.4</ele><time>2026-04-04T11:30:27.396Z</time></trkpt><trkpt lat="45.3333728" lon="8.4154019"><ele>125.2</ele><time>2026-04-04T11:30:29.399Z</time></trkpt><trkpt lat="45.3333611" lon="8.4155082"><ele>125.0</ele><time>2026-04-04T11:30:31.4Z</time></trkpt><trkpt lat="45.333367" lon="8.4156563"><ele>124.8</ele><time>2026-04-04T11:30:33.393Z</time></trkpt><trkpt lat="45.3333941" lon="8.415805"><ele>124.6</ele><time>2026-04-04T11:30:35.405Z</time></trkpt><trkpt lat="45.3334372" lon="8.4159497"><ele>124.4</ele><time>2026-04-04T11:30:37.408Z</time></trkpt><trkpt lat="45.333477" lon="8.4160951"><ele>124.2</ele><time>2026-04-04T11:30:39.41Z</time></trkpt><trkpt lat="45.3335163" lon="8.4162539"><ele>124.0</ele><time>2026-04-04T11:30:41.4Z</time></trkpt><trkpt lat="45.3335511" lon="8.4164159"><ele>124.5</ele><time>2026-04-04T11:30:43.404Z</time></trkpt><trkpt lat="45.3335908" lon="8.4165746"><ele>125.0</ele><time>2026-04-04T11:30:45.405Z</time></trkpt><trkpt lat="45.3336215" lon="8.4167384"><ele>125.5</ele><time>2026-04-04T11:30:47.397Z</time></trkpt><trkpt lat="45.3336583" lon="8.4169041"><ele>126.0</ele><time>2026-04-04T11:30:49.402Z</time></trkpt><trkpt lat="45.3337039" lon="8.417066"><ele>126.0</ele><time>2026-04-04T11:30:51.4Z</time></trkpt><trkpt lat="45.3337259" lon="8.4171516"><ele>126.0</ele><time>2026-04-04T11:30:52.395Z</time></trkpt><trkpt lat="45.3337631" lon="8.4173165"><ele>126.0</ele><time>2026-04-04T11:30:54.399Z</time></trkpt><trkpt lat="45.3337919" lon="8.4174815"><ele>126.0</ele><time>2026-04-04T11:30:56.401Z</time></trkpt><trkpt lat="45.3338261" lon="8.4176435"><ele>126.0</ele><time>2026-04-04T11:30:58.402Z</time></trkpt><trkpt lat="45.3338616" lon="8.4178085"><ele>126.0</ele><time>2026-04-04T11:31:00.409Z</time></trkpt><trkpt lat="45.3338932" lon="8.4179696"><ele>126.0</ele><time>2026-04-04T11:31:02.404Z</time></trkpt><trkpt lat="45.3339276" lon="8.4181298"><ele>126.0</ele><time>2026-04-04T11:31:04.398Z</time></trkpt><trkpt lat="45.3339638" lon="8.4182961"><ele>126.0</ele><time>2026-04-04T11:31:06.399Z</time></trkpt><trkpt lat="45.3340012" lon="8.418461"><ele>126.6</ele><time>2026-04-04T11:31:08.406Z</time></trkpt><trkpt lat="45.3340271" lon="8.4186101"><ele>127.19999999999999</ele><time>2026-04-04T11:31:10.395Z</time></trkpt><trkpt lat="45.334058" lon="8.4187542"><ele>127.80000000000001</ele><time>2026-04-04T11:31:12.397Z</time></trkpt><trkpt lat="45.3340915" lon="8.4188922"><ele>128.4</ele><time>2026-04-04T11:31:14.395Z</time></trkpt><trkpt lat="45.3341222" lon="8.4190344"><ele>129.0</ele><time>2026-04-04T11:31:16.41Z</time></trkpt><trkpt lat="45.3341576" lon="8.4191754"><ele>129.0</ele><time>2026-04-04T11:31:18.406Z</time></trkpt><trkpt lat="45.3341967" lon="8.4193318"><ele>129.0</ele><time>2026-04-04T11:31:20.393Z</time></trkpt><trkpt lat="45.3342338" lon="8.4194909"><ele>129.0</ele><time>2026-04-04T11:31:22.395Z</time></trkpt><trkpt lat="45.3342694" lon="8.4196472"><ele>129.0</ele><time>2026-04-04T11:31:24.392Z</time></trkpt><trkpt lat="45.3343122" lon="8.4198068"><ele>128.75</ele><time>2026-04-04T11:31:26.399Z</time></trkpt><trkpt lat="45.3343473" lon="8.4199749"><ele>128.5</ele><time>2026-04-04T11:31:28.399Z</time></trkpt><trkpt lat="45.3343791" lon="8.420141"><ele>128.25</ele><time>2026-04-04T11:31:30.394Z</time></trkpt><trkpt lat="45.3344143" lon="8.420306"><ele>128.0</ele><time>2026-04-04T11:31:32.403Z</time></trkpt><trkpt lat="45.3344401" lon="8.4204656"><ele>127.75</ele><time>2026-04-04T11:31:34.403Z</time></trkpt><trkpt lat="45.3344726" lon="8.4206214"><ele>127.5</ele><time>2026-04-04T11:31:36.395Z</time></trkpt><trkpt lat="45.3345059" lon="8.4207773"><ele>127.25</ele><time>2026-04-04T11:31:38.402Z</time></trkpt><trkpt lat="45.3345368" lon="8.4209317"><ele>127.0</ele><time>2026-04-04T11:31:40.401Z</time></trkpt><trkpt lat="45.3345641" lon="8.4210846"><ele>127.0</ele><time>2026-04-04T11:31:42.399Z</time></trkpt><trkpt lat="45.3346041" lon="8.4212385"><ele>126.99999999999999</ele><time>2026-04-04T11:31:44.399Z</time></trkpt><trkpt lat="45.3346359" lon="8.4213892"><ele>126.99999999999999</ele><time>2026-04-04T11:31:46.402Z</time></trkpt><trkpt lat="45.3346708" lon="8.4215376"><ele>127.0</ele><time>2026-04-04T11:31:48.392Z</time></trkpt><trkpt lat="45.334704" lon="8.4216812"><ele>127.0</ele><time>2026-04-04T11:31:50.395Z</time></trkpt><trkpt lat="45.3347383" lon="8.4218347"><ele>127.0</ele><time>2026-04-04T11:31:52.397Z</time></trkpt><trkpt lat="45.3347702" lon="8.4219801"><ele>126.99999999999999</ele><time>2026-04-04T11:31:54.395Z</time></trkpt><trkpt lat="45.334804" lon="8.4221291"><ele>126.99999999999999</ele><time>2026-04-04T11:31:56.402Z</time></trkpt><trkpt lat="45.3348367" lon="8.422275"><ele>127.0</ele><time>2026-04-04T11:31:58.398Z</time></trkpt><trkpt lat="45.3348694" lon="8.4224103"><ele>127.0</ele><time>2026-04-04T11:32:00.396Z</time></trkpt><trkpt lat="45.3348977" lon="8.4225591"><ele>127.0</ele><time>2026-04-04T11:32:02.389Z</time></trkpt><trkpt lat="45.3349295" lon="8.4227099"><ele>126.99999999999999</ele><time>2026-04-04T11:32:04.396Z</time></trkpt><trkpt lat="45.3349674" lon="8.4228502"><ele>126.99999999999999</ele><time>2026-04-04T11:32:06.395Z</time></trkpt><trkpt lat="45.3349997" lon="8.4229971"><ele>127.0</ele><time>2026-04-04T11:32:08.391Z</time></trkpt><trkpt lat="45.3350325" lon="8.423143"><ele>127.0</ele><time>2026-04-04T11:32:10.393Z</time></trkpt><trkpt lat="45.3350652" lon="8.4232854"><ele>127.0</ele><time>2026-04-04T11:32:12.393Z</time></trkpt><trkpt lat="45.3350921" lon="8.4234438"><ele>126.99999999999999</ele><time>2026-04-04T11:32:14.403Z</time></trkpt><trkpt lat="45.3351147" lon="8.423588"><ele>126.99999999999999</ele><time>2026-04-04T11:32:16.396Z</time></trkpt><trkpt lat="45.3351537" lon="8.4237275"><ele>127.0</ele><time>2026-04-04T11:32:18.393Z</time></trkpt><trkpt lat="45.3351823" lon="8.4238767"><ele>127.0</ele><time>2026-04-04T11:32:20.408Z</time></trkpt><trkpt lat="45.335205" lon="8.4240261"><ele>126.6</ele><time>2026-04-04T11:32:22.399Z</time></trkpt><trkpt lat="45.3352392" lon="8.4241665"><ele>126.19999999999999</ele><time>2026-04-04T11:32:24.409Z</time></trkpt><trkpt lat="45.3352746" lon="8.4243174"><ele>125.8</ele><time>2026-04-04T11:32:26.404Z</time></trkpt><trkpt lat="45.3353127" lon="8.4244607"><ele>125.4</ele><time>2026-04-04T11:32:28.403Z</time></trkpt><trkpt lat="45.3353516" lon="8.424596"><ele>125.0</ele><time>2026-04-04T11:32:30.398Z</time></trkpt><trkpt lat="45.3353848" lon="8.4247381"><ele>124.8</ele><time>2026-04-04T11:32:32.401Z</time></trkpt><trkpt lat="45.3354194" lon="8.424878"><ele>124.6</ele><time>2026-04-04T11:32:34.404Z</time></trkpt><trkpt lat="45.3354469" lon="8.4250078"><ele>124.4</ele><time>2026-04-04T11:32:36.41Z</time></trkpt><trkpt lat="45.3354738" lon="8.4251407"><ele>124.2</ele><time>2026-04-04T11:32:38.407Z</time></trkpt><trkpt lat="45.3355067" lon="8.4252787"><ele>124.0</ele><time>2026-04-04T11:32:40.406Z</time></trkpt><trkpt lat="45.3355408" lon="8.4254286"><ele>124.0</ele><time>2026-04-04T11:32:42.397Z</time></trkpt><trkpt lat="45.3355424" lon="8.4256498"><ele>124.0</ele><time>2026-04-04T11:32:45.734Z</time></trkpt><trkpt lat="45.3355887" lon="8.4257898"><ele>124.0</ele><time>2026-04-04T11:32:47.401Z</time></trkpt><trkpt lat="45.3356238" lon="8.4259382"><ele>124.0</ele><time>2026-04-04T11:32:49.391Z</time></trkpt><trkpt lat="45.3356619" lon="8.4260945"><ele>124.4</ele><time>2026-04-04T11:32:51.398Z</time></trkpt><trkpt lat="45.3357058" lon="8.4262257"><ele>124.80000000000001</ele><time>2026-04-04T11:32:53.4Z</time></trkpt><trkpt lat="45.3357389" lon="8.4263697"><ele>125.19999999999999</ele><time>2026-04-04T11:32:55.398Z</time></trkpt><trkpt lat="45.3357874" lon="8.4265167"><ele>125.6</ele><time>2026-04-04T11:32:57.396Z</time></trkpt><trkpt lat="45.3358062" lon="8.4266673"><ele>126.0</ele><time>2026-04-04T11:32:59.393Z</time></trkpt><trkpt lat="45.3358313" lon="8.426816"><ele>126.19999999999999</ele><time>2026-04-04T11:33:01.397Z</time></trkpt><trkpt lat="45.3358595" lon="8.426956"><ele>126.39999999999999</ele><time>2026-04-04T11:33:03.393Z</time></trkpt><trkpt lat="45.3358889" lon="8.4271003"><ele>126.6</ele><time>2026-04-04T11:33:05.408Z</time></trkpt><trkpt lat="45.3359453" lon="8.4272238"><ele>126.8</ele><time>2026-04-04T11:33:07.399Z</time></trkpt><trkpt lat="45.3360465" lon="8.4272788"><ele>127.0</ele><time>2026-04-04T11:33:09.395Z</time></trkpt><trkpt lat="45.3361408" lon="8.4273447"><ele>126.6</ele><time>2026-04-04T11:33:11.4Z</time></trkpt><trkpt lat="45.3362327" lon="8.4274359"><ele>126.19999999999999</ele><time>2026-04-04T11:33:13.405Z</time></trkpt><trkpt lat="45.3363234" lon="8.4275332"><ele>125.8</ele><time>2026-04-04T11:33:15.395Z</time></trkpt><trkpt lat="45.3364144" lon="8.4276267"><ele>125.4</ele><time>2026-04-04T11:33:17.399Z</time></trkpt><trkpt lat="45.3365043" lon="8.4277181"><ele>125.0</ele><time>2026-04-04T11:33:19.401Z</time></trkpt><trkpt lat="45.3365903" lon="8.4278093"><ele>124.8</ele><time>2026-04-04T11:33:21.395Z</time></trkpt><trkpt lat="45.336675" lon="8.4278937"><ele>124.6</ele><time>2026-04-04T11:33:23.4Z</time></trkpt><trkpt lat="45.3367559" lon="8.4279767"><ele>124.4</ele><time>2026-04-04T11:33:25.407Z</time></trkpt><trkpt lat="45.3368317" lon="8.428048"><ele>124.2</ele><time>2026-04-04T11:33:27.403Z</time></trkpt><trkpt lat="45.3369071" lon="8.4281205"><ele>124.0</ele><time>2026-04-04T11:33:29.396Z</time></trkpt><trkpt lat="45.3369753" lon="8.4281927"><ele>124.00000000000001</ele><time>2026-04-04T11:33:31.404Z</time></trkpt><trkpt lat="45.3370444" lon="8.4282658"><ele>124.0</ele><time>2026-04-04T11:33:33.398Z</time></trkpt><trkpt lat="45.3371114" lon="8.4283311"><ele>124.0</ele><time>2026-04-04T11:33:35.399Z</time></trkpt><trkpt lat="45.3371716" lon="8.4284019"><ele>124.0</ele><time>2026-04-04T11:33:37.396Z</time></trkpt><trkpt lat="45.3372201" lon="8.4284798"><ele>124.00000000000001</ele><time>2026-04-04T11:33:39.399Z</time></trkpt><trkpt lat="45.337243" lon="8.4285681"><ele>124.0</ele><time>2026-04-04T11:33:42.395Z</time></trkpt><trkpt lat="45.3372426" lon="8.4286911"><ele>124.0</ele><time>2026-04-04T11:33:47.398Z</time></trkpt><trkpt lat="45.3372565" lon="8.4288026"><ele>124.0</ele><time>2026-04-04T11:33:49.397Z</time></trkpt><trkpt lat="45.3372904" lon="8.4289032"><ele>124.0</ele><time>2026-04-04T11:33:51.399Z</time></trkpt><trkpt lat="45.3372697" lon="8.4290123"><ele>124.0</ele><time>2026-04-04T11:33:53.4Z</time></trkpt><trkpt lat="45.3371921" lon="8.4291103"><ele>124.0</ele><time>2026-04-04T11:33:55.403Z</time></trkpt><trkpt lat="45.3370918" lon="8.4291924"><ele>123.80000000000001</ele><time>2026-04-04T11:33:57.409Z</time></trkpt><trkpt lat="45.3369778" lon="8.4292484"><ele>123.60000000000001</ele><time>2026-04-04T11:33:59.392Z</time></trkpt><trkpt lat="45.3368592" lon="8.4293"><ele>123.4</ele><time>2026-04-04T11:34:01.4Z</time></trkpt><trkpt lat="45.3367963" lon="8.4293158"><ele>123.2</ele><time>2026-04-04T11:34:02.4Z</time></trkpt><trkpt lat="45.3366839" lon="8.4293631"><ele>123.0</ele><time>2026-04-04T11:34:04.396Z</time></trkpt><trkpt lat="45.3366206" lon="8.429377"><ele>123.0</ele><time>2026-04-04T11:34:05.392Z</time></trkpt><trkpt lat="45.3365115" lon="8.4294463"><ele>123.0</ele><time>2026-04-04T11:34:07.406Z</time></trkpt><trkpt lat="45.3364021" lon="8.4295079"><ele>123.0</ele><time>2026-04-04T11:34:09.402Z</time></trkpt><trkpt lat="45.3362952" lon="8.4295654"><ele>123.0</ele><time>2026-04-04T11:34:11.402Z</time></trkpt><trkpt lat="45.3361925" lon="8.4296278"><ele>123.0</ele><time>2026-04-04T11:34:13.4Z</time></trkpt><trkpt lat="45.3360917" lon="8.4296465"><ele>123.00000000000001</ele><time>2026-04-04T11:34:15.398Z</time></trkpt><trkpt lat="45.3359874" lon="8.4296774"><ele>123.00000000000001</ele><time>2026-04-04T11:34:17.404Z</time></trkpt><trkpt lat="45.3358901" lon="8.4297029"><ele>123.0</ele><time>2026-04-04T11:34:19.409Z</time></trkpt><trkpt lat="45.3357986" lon="8.4297454"><ele>123.0</ele><time>2026-04-04T11:34:21.402Z</time></trkpt><trkpt lat="45.3357178" lon="8.4297725"><ele>123.0</ele><time>2026-04-04T11:34:23.394Z</time></trkpt><trkpt lat="45.3356472" lon="8.4297861"><ele>123.00000000000001</ele><time>2026-04-04T11:34:25.403Z</time></trkpt><trkpt lat="45.3355639" lon="8.4298111"><ele>123.00000000000001</ele><time>2026-04-04T11:34:27.4Z</time></trkpt><trkpt lat="45.335473" lon="8.4298434"><ele>123.0</ele><time>2026-04-04T11:34:29.401Z</time></trkpt><trkpt lat="45.3353722" lon="8.4298776"><ele>123.0</ele><time>2026-04-04T11:34:31.407Z</time></trkpt><trkpt lat="45.3352718" lon="8.4299321"><ele>123.4</ele><time>2026-04-04T11:34:33.4Z</time></trkpt><trkpt lat="45.3351674" lon="8.429998"><ele>123.80000000000001</ele><time>2026-04-04T11:34:35.409Z</time></trkpt><trkpt lat="45.3350697" lon="8.4300772"><ele>124.2</ele><time>2026-04-04T11:34:37.405Z</time></trkpt><trkpt lat="45.3350114" lon="8.4301169"><ele>124.6</ele><time>2026-04-04T11:34:38.399Z</time></trkpt><trkpt lat="45.3348941" lon="8.4301971"><ele>125.0</ele><time>2026-04-04T11:34:40.392Z</time></trkpt><trkpt lat="45.3347902" lon="8.4302263"><ele>125.8</ele><time>2026-04-04T11:34:42.405Z</time></trkpt><trkpt lat="45.3347116" lon="8.4301575"><ele>126.6</ele><time>2026-04-04T11:34:44.395Z</time></trkpt><trkpt lat="45.3346646" lon="8.4300474"><ele>127.4</ele><time>2026-04-04T11:34:46.397Z</time></trkpt><trkpt lat="45.3346119" lon="8.4299371"><ele>128.2</ele><time>2026-04-04T11:34:48.398Z</time></trkpt><trkpt lat="45.3345652" lon="8.4298218"><ele>129.0</ele><time>2026-04-04T11:34:50.396Z</time></trkpt><trkpt lat="45.3345215" lon="8.4297227"><ele>129.0</ele><time>2026-04-04T11:34:52.399Z</time></trkpt><trkpt lat="45.3344527" lon="8.4296559"><ele>129.0</ele><time>2026-04-04T11:34:54.397Z</time></trkpt><trkpt lat="45.3343684" lon="8.4296298"><ele>129.0</ele><time>2026-04-04T11:34:56.404Z</time></trkpt><trkpt lat="45.3342762" lon="8.4296"><ele>129.0</ele><time>2026-04-04T11:34:58.4Z</time></trkpt><trkpt lat="45.3341831" lon="8.4295617"><ele>129.0</ele><time>2026-04-04T11:35:00.397Z</time></trkpt><trkpt lat="45.3340906" lon="8.4294922"><ele>128.4</ele><time>2026-04-04T11:35:02.402Z</time></trkpt><trkpt lat="45.3339998" lon="8.4294195"><ele>127.80000000000001</ele><time>2026-04-04T11:35:04.405Z</time></trkpt><trkpt lat="45.3339149" lon="8.4293374"><ele>127.19999999999999</ele><time>2026-04-04T11:35:06.405Z</time></trkpt><trkpt lat="45.3338369" lon="8.4292454"><ele>126.6</ele><time>2026-04-04T11:35:08.393Z</time></trkpt><trkpt lat="45.3337559" lon="8.4291499"><ele>126.0</ele><time>2026-04-04T11:35:10.405Z</time></trkpt><trkpt lat="45.3336709" lon="8.4290692"><ele>126.0</ele><time>2026-04-04T11:35:12.403Z</time></trkpt><trkpt lat="45.3335723" lon="8.4290301"><ele>126.0</ele><time>2026-04-04T11:35:14.395Z</time></trkpt><trkpt lat="45.3334742" lon="8.429015"><ele>126.0</ele><time>2026-04-04T11:35:16.396Z</time></trkpt><trkpt lat="45.3333852" lon="8.4289701"><ele>126.0</ele><time>2026-04-04T11:35:18.403Z</time></trkpt><trkpt lat="45.3333068" lon="8.4288581"><ele>126.0</ele><time>2026-04-04T11:35:20.396Z</time></trkpt><trkpt lat="45.3332256" lon="8.4287526"><ele>126.0</ele><time>2026-04-04T11:35:22.397Z</time></trkpt><trkpt lat="45.3331356" lon="8.4286469"><ele>126.0</ele><time>2026-04-04T11:35:24.396Z</time></trkpt><trkpt lat="45.3330483" lon="8.428518"><ele>126.0</ele><time>2026-04-04T11:35:26.403Z</time></trkpt><trkpt lat="45.3329977" lon="8.4284575"><ele>126.0</ele><time>2026-04-04T11:35:27.402Z</time></trkpt><trkpt lat="45.3329545" lon="8.4283879"><ele>126.0</ele><time>2026-04-04T11:35:28.405Z</time></trkpt><trkpt lat="45.3329026" lon="8.4283239"><ele>126.0</ele><time>2026-04-04T11:35:29.397Z</time></trkpt><trkpt lat="45.332815" lon="8.4282225"><ele>126.0</ele><time>2026-04-04T11:35:31.394Z</time></trkpt><trkpt lat="45.3327286" lon="8.4281087"><ele>126.0</ele><time>2026-04-04T11:35:33.397Z</time></trkpt><trkpt lat="45.3326285" lon="8.4280123"><ele>126.0</ele><time>2026-04-04T11:35:35.396Z</time></trkpt><trkpt lat="45.3325115" lon="8.4280051"><ele>126.0</ele><time>2026-04-04T11:35:37.393Z</time></trkpt><trkpt lat="45.3324006" lon="8.4280468"><ele>126.0</ele><time>2026-04-04T11:35:39.391Z</time></trkpt><trkpt lat="45.3322851" lon="8.4280654"><ele>126.0</ele><time>2026-04-04T11:35:41.404Z</time></trkpt><trkpt lat="45.3321745" lon="8.4280778"><ele>126.0</ele><time>2026-04-04T11:35:43.394Z</time></trkpt><trkpt lat="45.3320731" lon="8.4281252"><ele>126.0</ele><time>2026-04-04T11:35:45.398Z</time></trkpt><trkpt lat="45.3319669" lon="8.428152"><ele>126.0</ele><time>2026-04-04T11:35:47.4Z</time></trkpt><trkpt lat="45.3318706" lon="8.4282263"><ele>126.19999999999999</ele><time>2026-04-04T11:35:49.395Z</time></trkpt><trkpt lat="45.3317832" lon="8.4283134"><ele>126.39999999999999</ele><time>2026-04-04T11:35:51.402Z</time></trkpt><trkpt lat="45.3316932" lon="8.4283979"><ele>126.6</ele><time>2026-04-04T11:35:53.405Z</time></trkpt><trkpt lat="45.3316117" lon="8.4285014"><ele>126.8</ele><time>2026-04-04T11:35:55.398Z</time></trkpt><trkpt lat="45.3315362" lon="8.4286053"><ele>127.0</ele><time>2026-04-04T11:35:57.406Z</time></trkpt><trkpt lat="45.3314928" lon="8.4287049"><ele>127.0</ele><time>2026-04-04T11:35:59.397Z</time></trkpt><trkpt lat="45.3314326" lon="8.4288018"><ele>126.99999999999999</ele><time>2026-04-04T11:36:01.394Z</time></trkpt><trkpt lat="45.3313717" lon="8.4289112"><ele>126.99999999999999</ele><time>2026-04-04T11:36:03.406Z</time></trkpt><trkpt lat="45.3313121" lon="8.4290201"><ele>127.0</ele><time>2026-04-04T11:36:05.394Z</time></trkpt><trkpt lat="45.3312267" lon="8.4291092"><ele>127.0</ele><time>2026-04-04T11:36:07.402Z</time></trkpt><trkpt lat="45.3311661" lon="8.4292199"><ele>126.6</ele><time>2026-04-04T11:36:09.391Z</time></trkpt><trkpt lat="45.3311042" lon="8.4293323"><ele>126.19999999999999</ele><time>2026-04-04T11:36:11.397Z</time></trkpt><trkpt lat="45.3310311" lon="8.4294317"><ele>125.8</ele><time>2026-04-04T11:36:13.402Z</time></trkpt><trkpt lat="45.3309749" lon="8.4295522"><ele>125.4</ele><time>2026-04-04T11:36:15.398Z</time></trkpt><trkpt lat="45.3308954" lon="8.4296628"><ele>125.0</ele><time>2026-04-04T11:36:17.394Z</time></trkpt><trkpt lat="45.3308331" lon="8.4297802"><ele>125.0</ele><time>2026-04-04T11:36:19.403Z</time></trkpt><trkpt lat="45.3307571" lon="8.4298903"><ele>125.0</ele><time>2026-04-04T11:36:21.409Z</time></trkpt><trkpt lat="45.3306945" lon="8.4300034"><ele>125.0</ele><time>2026-04-04T11:36:23.398Z</time></trkpt><trkpt lat="45.3306281" lon="8.4301158"><ele>125.0</ele><time>2026-04-04T11:36:25.396Z</time></trkpt><trkpt lat="45.3305642" lon="8.4302181"><ele>125.0</ele><time>2026-04-04T11:36:27.395Z</time></trkpt><trkpt lat="45.3305163" lon="8.4303438"><ele>125.0</ele><time>2026-04-04T11:36:29.399Z</time></trkpt><trkpt lat="45.3304566" lon="8.4304586"><ele>125.0</ele><time>2026-04-04T11:36:31.409Z</time></trkpt><trkpt lat="45.3303927" lon="8.430574"><ele>125.0</ele><time>2026-04-04T11:36:33.405Z</time></trkpt><trkpt lat="45.3303266" lon="8.4306906"><ele>125.0</ele><time>2026-04-04T11:36:35.391Z</time></trkpt><trkpt lat="45.330265" lon="8.4307953"><ele>125.0</ele><time>2026-04-04T11:36:37.396Z</time></trkpt><trkpt lat="45.3302102" lon="8.4309031"><ele>124.99999999999999</ele><time>2026-04-04T11:36:39.403Z</time></trkpt><trkpt lat="45.3301489" lon="8.4310068"><ele>125.0</ele><time>2026-04-04T11:36:41.4Z</time></trkpt><trkpt lat="45.3300918" lon="8.4311012"><ele>125.0</ele><time>2026-04-04T11:36:43.399Z</time></trkpt><trkpt lat="45.3300375" lon="8.4311899"><ele>125.0</ele><time>2026-04-04T11:36:45.4Z</time></trkpt><trkpt lat="45.3299848" lon="8.4312826"><ele>124.99999999999999</ele><time>2026-04-04T11:36:47.402Z</time></trkpt><trkpt lat="45.3299359" lon="8.4313731"><ele>125.0</ele><time>2026-04-04T11:36:49.396Z</time></trkpt><trkpt lat="45.3298921" lon="8.4314634"><ele>125.14285714285714</ele><time>2026-04-04T11:36:51.398Z</time></trkpt><trkpt lat="45.329841" lon="8.4315621"><ele>125.28571428571429</ele><time>2026-04-04T11:36:53.398Z</time></trkpt><trkpt lat="45.329793" lon="8.431655"><ele>125.42857142857143</ele><time>2026-04-04T11:36:55.393Z</time></trkpt><trkpt lat="45.3297351" lon="8.4317012"><ele>125.57142857142857</ele><time>2026-04-04T11:36:57.393Z</time></trkpt><trkpt lat="45.3296743" lon="8.431677"><ele>125.71428571428572</ele><time>2026-04-04T11:36:59.399Z</time></trkpt><trkpt lat="45.3296092" lon="8.4316644"><ele>125.85714285714286</ele><time>2026-04-04T11:37:01.396Z</time></trkpt><trkpt lat="45.3295498" lon="8.4317233"><ele>126.0</ele><time>2026-04-04T11:37:03.398Z</time></trkpt><trkpt lat="45.3294955" lon="8.4318061"><ele>126.0</ele><time>2026-04-04T11:37:05.392Z</time></trkpt><trkpt lat="45.3294431" lon="8.4319017"><ele>126.0</ele><time>2026-04-04T11:37:07.396Z</time></trkpt><trkpt lat="45.3293911" lon="8.4320034"><ele>126.0</ele><time>2026-04-04T11:37:09.392Z</time></trkpt><trkpt lat="45.3293338" lon="8.4321152"><ele>126.0</ele><time>2026-04-04T11:37:11.396Z</time></trkpt><trkpt lat="45.3292703" lon="8.4322367"><ele>126.0</ele><time>2026-04-04T11:37:13.404Z</time></trkpt><trkpt lat="45.3292153" lon="8.4323339"><ele>126.0</ele><time>2026-04-04T11:37:15.401Z</time></trkpt><trkpt lat="45.3291497" lon="8.4324624"><ele>126.0</ele><time>2026-04-04T11:37:17.4Z</time></trkpt><trkpt lat="45.3290772" lon="8.4325564"><ele>126.0</ele><time>2026-04-04T11:37:19.399Z</time></trkpt><trkpt lat="45.3290037" lon="8.4326603"><ele>126.0</ele><time>2026-04-04T11:37:21.401Z</time></trkpt><trkpt lat="45.328941" lon="8.432764"><ele>126.0</ele><time>2026-04-04T11:37:23.397Z</time></trkpt><trkpt lat="45.3288732" lon="8.4328736"><ele>126.4</ele><time>2026-04-04T11:37:25.399Z</time></trkpt><trkpt lat="45.328819" lon="8.4329882"><ele>126.8</ele><time>2026-04-04T11:37:27.395Z</time></trkpt><trkpt lat="45.3287627" lon="8.4330928"><ele>127.20000000000002</ele><time>2026-04-04T11:37:29.404Z</time></trkpt><trkpt lat="45.3287017" lon="8.4331984"><ele>127.60000000000001</ele><time>2026-04-04T11:37:31.397Z</time></trkpt><trkpt lat="45.3286324" lon="8.4333073"><ele>128.0</ele><time>2026-04-04T11:37:33.393Z</time></trkpt><trkpt lat="45.3285705" lon="8.4334081"><ele>127.99999999999999</ele><time>2026-04-04T11:37:35.402Z</time></trkpt><trkpt lat="45.3285257" lon="8.433507"><ele>128.0</ele><time>2026-04-04T11:37:37.395Z</time></trkpt><trkpt lat="45.3284725" lon="8.4336132"><ele>128.0</ele><time>2026-04-04T11:37:39.397Z</time></trkpt><trkpt lat="45.3284079" lon="8.433716"><ele>128.0</ele><time>2026-04-04T11:37:41.398Z</time></trkpt><trkpt lat="45.3283406" lon="8.4337945"><ele>127.99999999999999</ele><time>2026-04-04T11:37:43.407Z</time></trkpt><trkpt lat="45.3282931" lon="8.4338537"><ele>128.0</ele><time>2026-04-04T11:37:51.4Z</time></trkpt><trkpt lat="45.3282633" lon="8.4339768"><ele>128.16666666666666</ele><time>2026-04-04T11:37:55.395Z</time></trkpt><trkpt lat="45.3282209" lon="8.4340691"><ele>128.33333333333331</ele><time>2026-04-04T11:37:57.399Z</time></trkpt><trkpt lat="45.3281754" lon="8.4341663"><ele>128.5</ele><time>2026-04-04T11:37:59.4Z</time></trkpt><trkpt lat="45.3281175" lon="8.4342687"><ele>128.66666666666666</ele><time>2026-04-04T11:38:01.399Z</time></trkpt><trkpt lat="45.3280565" lon="8.4343769"><ele>128.83333333333334</ele><time>2026-04-04T11:38:03.403Z</time></trkpt><trkpt lat="45.3279973" lon="8.434476"><ele>129.0</ele><time>2026-04-04T11:38:05.399Z</time></trkpt><trkpt lat="45.3279287" lon="8.4345741"><ele>128.2</ele><time>2026-04-04T11:38:07.399Z</time></trkpt><trkpt lat="45.3278371" lon="8.4346421"><ele>127.4</ele><time>2026-04-04T11:38:09.397Z</time></trkpt><trkpt lat="45.3277367" lon="8.434682"><ele>126.6</ele><time>2026-04-04T11:38:11.394Z</time></trkpt><trkpt lat="45.3276383" lon="8.4346953"><ele>125.8</ele><time>2026-04-04T11:38:13.398Z</time></trkpt><trkpt lat="45.3275345" lon="8.4347078"><ele>125.0</ele><time>2026-04-04T11:38:15.403Z</time></trkpt><trkpt lat="45.327427" lon="8.4347145"><ele>125.0</ele><time>2026-04-04T11:38:17.402Z</time></trkpt><trkpt lat="45.32732" lon="8.4347265"><ele>125.0</ele><time>2026-04-04T11:38:19.405Z</time></trkpt><trkpt lat="45.3272146" lon="8.4347291"><ele>125.0</ele><time>2026-04-04T11:38:21.402Z</time></trkpt><trkpt lat="45.327107" lon="8.4347329"><ele>125.0</ele><time>2026-04-04T11:38:23.4Z</time></trkpt><trkpt lat="45.3270035" lon="8.4347324"><ele>125.0</ele><time>2026-04-04T11:38:25.4Z</time></trkpt><trkpt lat="45.3268931" lon="8.4347382"><ele>125.2</ele><time>2026-04-04T11:38:27.398Z</time></trkpt><trkpt lat="45.3267796" lon="8.4347541"><ele>125.4</ele><time>2026-04-04T11:38:29.407Z</time></trkpt><trkpt lat="45.3266672" lon="8.4347752"><ele>125.6</ele><time>2026-04-04T11:38:31.404Z</time></trkpt><trkpt lat="45.3265695" lon="8.4347654"><ele>125.8</ele><time>2026-04-04T11:38:33.392Z</time></trkpt><trkpt lat="45.3264596" lon="8.4347882"><ele>126.0</ele><time>2026-04-04T11:38:35.395Z</time></trkpt><trkpt lat="45.3263474" lon="8.4348127"><ele>126.0</ele><time>2026-04-04T11:38:37.408Z</time></trkpt><trkpt lat="45.3262451" lon="8.4348253"><ele>126.0</ele><time>2026-04-04T11:38:39.395Z</time></trkpt><trkpt lat="45.3261455" lon="8.4348212"><ele>126.0</ele><time>2026-04-04T11:38:41.406Z</time></trkpt><trkpt lat="45.3260463" lon="8.4348346"><ele>126.0</ele><time>2026-04-04T11:38:43.398Z</time></trkpt><trkpt lat="45.3259504" lon="8.4348439"><ele>126.0</ele><time>2026-04-04T11:38:45.4Z</time></trkpt><trkpt lat="45.3258602" lon="8.4348432"><ele>126.0</ele><time>2026-04-04T11:38:47.401Z</time></trkpt><trkpt lat="45.3257712" lon="8.4348531"><ele>126.0</ele><time>2026-04-04T11:38:49.402Z</time></trkpt><trkpt lat="45.3256775" lon="8.4348538"><ele>126.0</ele><time>2026-04-04T11:38:51.393Z</time></trkpt><trkpt lat="45.3255863" lon="8.4348408"><ele>126.0</ele><time>2026-04-04T11:38:53.401Z</time></trkpt><trkpt lat="45.3255098" lon="8.4348015"><ele>126.0</ele><time>2026-04-04T11:38:55.393Z</time></trkpt><trkpt lat="45.3254072" lon="8.4347455"><ele>126.19999999999999</ele><time>2026-04-04T11:38:57.404Z</time></trkpt><trkpt lat="45.3252936" lon="8.434783"><ele>126.39999999999999</ele><time>2026-04-04T11:38:59.393Z</time></trkpt><trkpt lat="45.3252331" lon="8.434813"><ele>126.6</ele><time>2026-04-04T11:39:00.4Z</time></trkpt><trkpt lat="45.3251149" lon="8.4348306"><ele>126.8</ele><time>2026-04-04T11:39:02.397Z</time></trkpt><trkpt lat="45.32499" lon="8.4348384"><ele>127.0</ele><time>2026-04-04T11:39:04.4Z</time></trkpt><trkpt lat="45.3249245" lon="8.4348535"><ele>127.0</ele><time>2026-04-04T11:39:05.402Z</time></trkpt><trkpt lat="45.3247973" lon="8.4348785"><ele>127.0</ele><time>2026-04-04T11:39:07.398Z</time></trkpt><trkpt lat="45.3246796" lon="8.4348823"><ele>127.0</ele><time>2026-04-04T11:39:09.402Z</time></trkpt><trkpt lat="45.3245595" lon="8.4348832"><ele>127.0</ele><time>2026-04-04T11:39:11.399Z</time></trkpt><trkpt lat="45.3244419" lon="8.4348922"><ele>126.25</ele><time>2026-04-04T11:39:13.404Z</time></trkpt><trkpt lat="45.3243238" lon="8.4349019"><ele>125.5</ele><time>2026-04-04T11:39:15.393Z</time></trkpt><trkpt lat="45.3242066" lon="8.4349019"><ele>124.75</ele><time>2026-04-04T11:39:17.398Z</time></trkpt><trkpt lat="45.3240941" lon="8.4349152"><ele>124.0</ele><time>2026-04-04T11:39:19.397Z</time></trkpt><trkpt lat="45.3239767" lon="8.4349244"><ele>124.0</ele><time>2026-04-04T11:39:21.401Z</time></trkpt><trkpt lat="45.3238611" lon="8.4349337"><ele>124.0</ele><time>2026-04-04T11:39:23.396Z</time></trkpt><trkpt lat="45.3237466" lon="8.4349437"><ele>124.0</ele><time>2026-04-04T11:39:25.398Z</time></trkpt><trkpt lat="45.3236355" lon="8.4349472"><ele>124.0</ele><time>2026-04-04T11:39:27.396Z</time></trkpt><trkpt lat="45.3235251" lon="8.4349592"><ele>124.0</ele><time>2026-04-04T11:39:29.391Z</time></trkpt><trkpt lat="45.3234134" lon="8.4349665"><ele>124.0</ele><time>2026-04-04T11:39:31.401Z</time></trkpt><trkpt lat="45.3233021" lon="8.4349764"><ele>124.0</ele><time>2026-04-04T11:39:33.393Z</time></trkpt><trkpt lat="45.3231921" lon="8.4349811"><ele>124.0</ele><time>2026-04-04T11:39:35.407Z</time></trkpt><trkpt lat="45.3230793" lon="8.4349829"><ele>124.0</ele><time>2026-04-04T11:39:37.405Z</time></trkpt><trkpt lat="45.3229725" lon="8.4349954"><ele>124.4</ele><time>2026-04-04T11:39:39.4Z</time></trkpt><trkpt lat="45.3228664" lon="8.4350021"><ele>124.80000000000001</ele><time>2026-04-04T11:39:41.398Z</time></trkpt><trkpt lat="45.322759" lon="8.435005"><ele>125.19999999999999</ele><time>2026-04-04T11:39:43.397Z</time></trkpt><trkpt lat="45.3226526" lon="8.4350122"><ele>125.6</ele><time>2026-04-04T11:39:45.404Z</time></trkpt><trkpt lat="45.3225434" lon="8.4350188"><ele>126.0</ele><time>2026-04-04T11:39:47.403Z</time></trkpt><trkpt lat="45.3224327" lon="8.4350266"><ele>126.0</ele><time>2026-04-04T11:39:49.394Z</time></trkpt><trkpt lat="45.322325" lon="8.4350378"><ele>126.0</ele><time>2026-04-04T11:39:51.394Z</time></trkpt><trkpt lat="45.3222135" lon="8.4350484"><ele>126.0</ele><time>2026-04-04T11:39:53.394Z</time></trkpt><trkpt lat="45.3221045" lon="8.4350537"><ele>126.0</ele><time>2026-04-04T11:39:55.396Z</time></trkpt><trkpt lat="45.3219988" lon="8.4350572"><ele>126.0</ele><time>2026-04-04T11:39:57.4Z</time></trkpt><trkpt lat="45.3218904" lon="8.4350624"><ele>126.19999999999999</ele><time>2026-04-04T11:39:59.41Z</time></trkpt><trkpt lat="45.321782" lon="8.4350655"><ele>126.39999999999999</ele><time>2026-04-04T11:40:01.395Z</time></trkpt><trkpt lat="45.321672" lon="8.4350622"><ele>126.6</ele><time>2026-04-04T11:40:03.395Z</time></trkpt><trkpt lat="45.3215653" lon="8.4350516"><ele>126.8</ele><time>2026-04-04T11:40:05.399Z</time></trkpt><trkpt lat="45.3214579" lon="8.4350277"><ele>127.0</ele><time>2026-04-04T11:40:07.4Z</time></trkpt><trkpt lat="45.321357" lon="8.4350144"><ele>126.39999999999999</ele><time>2026-04-04T11:40:09.394Z</time></trkpt><trkpt lat="45.3212509" lon="8.434992"><ele>125.79999999999998</ele><time>2026-04-04T11:40:11.394Z</time></trkpt><trkpt lat="45.3211596" lon="8.4349583"><ele>125.2</ele><time>2026-04-04T11:40:13.398Z</time></trkpt><trkpt lat="45.3210492" lon="8.4349344"><ele>124.6</ele><time>2026-04-04T11:40:15.392Z</time></trkpt><trkpt lat="45.3209481" lon="8.4348949"><ele>124.0</ele><time>2026-04-04T11:40:17.393Z</time></trkpt><trkpt lat="45.3208424" lon="8.4348533"><ele>124.0</ele><time>2026-04-04T11:40:19.395Z</time></trkpt><trkpt lat="45.3207443" lon="8.4348064"><ele>124.0</ele><time>2026-04-04T11:40:21.407Z</time></trkpt><trkpt lat="45.3206508" lon="8.4347593"><ele>124.0</ele><time>2026-04-04T11:40:23.403Z</time></trkpt><trkpt lat="45.3205503" lon="8.4346958"><ele>124.0</ele><time>2026-04-04T11:40:25.392Z</time></trkpt><trkpt lat="45.3204549" lon="8.4346373"><ele>124.0</ele><time>2026-04-04T11:40:27.395Z</time></trkpt><trkpt lat="45.3203608" lon="8.4345688"><ele>124.0</ele><time>2026-04-04T11:40:29.408Z</time></trkpt><trkpt lat="45.3202743" lon="8.4344953"><ele>124.0</ele><time>2026-04-04T11:40:31.397Z</time></trkpt><trkpt lat="45.3201828" lon="8.4344168"><ele>124.0</ele><time>2026-04-04T11:40:33.392Z</time></trkpt><trkpt lat="45.3200999" lon="8.4343135"><ele>124.0</ele><time>2026-04-04T11:40:35.395Z</time></trkpt><trkpt lat="45.3200125" lon="8.4342343"><ele>124.0</ele><time>2026-04-04T11:40:37.408Z</time></trkpt><trkpt lat="45.3199386" lon="8.4341484"><ele>124.0</ele><time>2026-04-04T11:40:39.4Z</time></trkpt><trkpt lat="45.3198579" lon="8.4340672"><ele>124.0</ele><time>2026-04-04T11:40:41.396Z</time></trkpt><trkpt lat="45.3197839" lon="8.4339855"><ele>124.0</ele><time>2026-04-04T11:40:43.401Z</time></trkpt><trkpt lat="45.3197071" lon="8.4338921"><ele>124.0</ele><time>2026-04-04T11:40:45.392Z</time></trkpt><trkpt lat="45.3196287" lon="8.4338124"><ele>124.0</ele><time>2026-04-04T11:40:47.401Z</time></trkpt><trkpt lat="45.3195515" lon="8.4337276"><ele>124.6</ele><time>2026-04-04T11:40:49.412Z</time></trkpt><trkpt lat="45.3194641" lon="8.4336408"><ele>125.2</ele><time>2026-04-04T11:40:51.399Z</time></trkpt><trkpt lat="45.3193822" lon="8.4335526"><ele>125.79999999999998</ele><time>2026-04-04T11:40:53.394Z</time></trkpt><trkpt lat="45.3193008" lon="8.4334612"><ele>126.39999999999999</ele><time>2026-04-04T11:40:55.404Z</time></trkpt><trkpt lat="45.3192291" lon="8.4333799"><ele>127.0</ele><time>2026-04-04T11:40:57.397Z</time></trkpt><trkpt lat="45.3191647" lon="8.4332991"><ele>127.00000000000001</ele><time>2026-04-04T11:40:59.396Z</time></trkpt><trkpt lat="45.3191234" lon="8.4332092"><ele>127.0</ele><time>2026-04-04T11:41:01.398Z</time></trkpt><trkpt lat="45.319063" lon="8.4331137"><ele>127.0</ele><time>2026-04-04T11:41:04.403Z</time></trkpt><trkpt lat="45.3190113" lon="8.4330387"><ele>127.0</ele><time>2026-04-04T11:41:06.401Z</time></trkpt><trkpt lat="45.3189511" lon="8.4329528"><ele>127.00000000000001</ele><time>2026-04-04T11:41:08.399Z</time></trkpt><trkpt lat="45.3188877" lon="8.4328651"><ele>127.0</ele><time>2026-04-04T11:41:10.394Z</time></trkpt><trkpt lat="45.3188241" lon="8.4327809"><ele>127.00000000000001</ele><time>2026-04-04T11:41:12.395Z</time></trkpt><trkpt lat="45.3187613" lon="8.4326893"><ele>127.0</ele><time>2026-04-04T11:41:14.401Z</time></trkpt><trkpt lat="45.3186969" lon="8.4325944"><ele>127.0</ele><time>2026-04-04T11:41:16.397Z</time></trkpt><trkpt lat="45.318639" lon="8.432495"><ele>127.0</ele><time>2026-04-04T11:41:18.398Z</time></trkpt><trkpt lat="45.318585" lon="8.4324204"><ele>127.00000000000001</ele><time>2026-04-04T11:41:20.396Z</time></trkpt><trkpt lat="45.3185428" lon="8.432332"><ele>127.0</ele><time>2026-04-04T11:41:22.4Z</time></trkpt><trkpt lat="45.3184757" lon="8.4322669"><ele>127.00000000000001</ele><time>2026-04-04T11:41:24.393Z</time></trkpt><trkpt lat="45.3184173" lon="8.4321978"><ele>127.0</ele><time>2026-04-04T11:41:26.4Z</time></trkpt><trkpt lat="45.3183634" lon="8.4321198"><ele>127.0</ele><time>2026-04-04T11:41:28.393Z</time></trkpt><trkpt lat="45.318309" lon="8.4320406"><ele>127.0</ele><time>2026-04-04T11:41:30.403Z</time></trkpt><trkpt lat="45.3182524" lon="8.4319645"><ele>127.00000000000001</ele><time>2026-04-04T11:41:32.405Z</time></trkpt><trkpt lat="45.3181945" lon="8.4318871"><ele>127.0</ele><time>2026-04-04T11:41:34.399Z</time></trkpt><trkpt lat="45.3181323" lon="8.4318073"><ele>127.00000000000001</ele><time>2026-04-04T11:41:36.396Z</time></trkpt><trkpt lat="45.3180756" lon="8.4317272"><ele>127.0</ele><time>2026-04-04T11:41:38.401Z</time></trkpt><trkpt lat="45.3180166" lon="8.4316412"><ele>127.0</ele><time>2026-04-04T11:41:40.402Z</time></trkpt><trkpt lat="45.3179535" lon="8.4315594"><ele>127.0</ele><time>2026-04-04T11:41:42.396Z</time></trkpt><trkpt lat="45.3178886" lon="8.4314914"><ele>127.00000000000001</ele><time>2026-04-04T11:41:44.392Z</time></trkpt><trkpt lat="45.3178299" lon="8.431426"><ele>127.0</ele><time>2026-04-04T11:41:46.391Z</time></trkpt><trkpt lat="45.317766" lon="8.4313737"><ele>127.00000000000001</ele><time>2026-04-04T11:41:48.391Z</time></trkpt><trkpt lat="45.3176856" lon="8.4313475"><ele>127.0</ele><time>2026-04-04T11:41:51.396Z</time></trkpt><trkpt lat="45.3176284" lon="8.4313907"><ele>127.0</ele><time>2026-04-04T11:41:56.401Z</time></trkpt><trkpt lat="45.3175628" lon="8.4313487"><ele>127.0</ele><time>2026-04-04T11:41:59.394Z</time></trkpt><trkpt lat="45.3174675" lon="8.4313467"><ele>127.00000000000001</ele><time>2026-04-04T11:42:02.395Z</time></trkpt><trkpt lat="45.3174082" lon="8.4314073"><ele>127.0</ele><time>2026-04-04T11:42:04.398Z</time></trkpt><trkpt lat="45.3173462" lon="8.4314937"><ele>127.00000000000001</ele><time>2026-04-04T11:42:06.392Z</time></trkpt><trkpt lat="45.3172866" lon="8.4315811"><ele>127.0</ele><time>2026-04-04T11:42:08.397Z</time></trkpt><trkpt lat="45.3172239" lon="8.4316658"><ele>127.0</ele><time>2026-04-04T11:42:10.39Z</time></trkpt><trkpt lat="45.3171589" lon="8.4317495"><ele>127.0</ele><time>2026-04-04T11:42:12.394Z</time></trkpt><trkpt lat="45.3170972" lon="8.4318391"><ele>127.00000000000001</ele><time>2026-04-04T11:42:14.398Z</time></trkpt><trkpt lat="45.3170243" lon="8.4319192"><ele>127.0</ele><time>2026-04-04T11:42:16.398Z</time></trkpt><trkpt lat="45.316958" lon="8.4320041"><ele>126.8</ele><time>2026-04-04T11:42:18.394Z</time></trkpt><trkpt lat="45.3168931" lon="8.4320914"><ele>126.6</ele><time>2026-04-04T11:42:20.394Z</time></trkpt><trkpt lat="45.3168153" lon="8.4321887"><ele>126.39999999999999</ele><time>2026-04-04T11:42:22.399Z</time></trkpt><trkpt lat="45.3167537" lon="8.4322958"><ele>126.19999999999999</ele><time>2026-04-04T11:42:24.398Z</time></trkpt><trkpt lat="45.316683" lon="8.4323805"><ele>126.0</ele><time>2026-04-04T11:42:26.405Z</time></trkpt><trkpt lat="45.3166099" lon="8.4324743"><ele>126.0</ele><time>2026-04-04T11:42:28.394Z</time></trkpt><trkpt lat="45.3165402" lon="8.4325725"><ele>126.0</ele><time>2026-04-04T11:42:30.4Z</time></trkpt><trkpt lat="45.3164673" lon="8.4326544"><ele>126.0</ele><time>2026-04-04T11:42:32.402Z</time></trkpt><trkpt lat="45.3163943" lon="8.4327476"><ele>126.0</ele><time>2026-04-04T11:42:34.397Z</time></trkpt><trkpt lat="45.3163228" lon="8.432857"><ele>126.0</ele><time>2026-04-04T11:42:36.398Z</time></trkpt><trkpt lat="45.316255" lon="8.4329531"><ele>126.0</ele><time>2026-04-04T11:42:38.394Z</time></trkpt><trkpt lat="45.3161846" lon="8.433053"><ele>126.0</ele><time>2026-04-04T11:42:40.411Z</time></trkpt><trkpt lat="45.3161096" lon="8.4331501"><ele>126.0</ele><time>2026-04-04T11:42:42.397Z</time></trkpt><trkpt lat="45.3160389" lon="8.4332433"><ele>126.0</ele><time>2026-04-04T11:42:44.4Z</time></trkpt><trkpt lat="45.3159676" lon="8.4333471"><ele>126.0</ele><time>2026-04-04T11:42:46.407Z</time></trkpt><trkpt lat="45.3158963" lon="8.4334434"><ele>126.0</ele><time>2026-04-04T11:42:48.397Z</time></trkpt><trkpt lat="45.3158271" lon="8.4335406"><ele>126.0</ele><time>2026-04-04T11:42:50.406Z</time></trkpt><trkpt lat="45.3157526" lon="8.4336422"><ele>126.0</ele><time>2026-04-04T11:42:52.399Z</time></trkpt><trkpt lat="45.3156795" lon="8.4337339"><ele>126.0</ele><time>2026-04-04T11:42:54.398Z</time></trkpt><trkpt lat="45.3156006" lon="8.4338443"><ele>126.0</ele><time>2026-04-04T11:42:56.396Z</time></trkpt><trkpt lat="45.3155314" lon="8.4339491"><ele>125.8</ele><time>2026-04-04T11:42:58.392Z</time></trkpt><trkpt lat="45.3154568" lon="8.4340509"><ele>125.6</ele><time>2026-04-04T11:43:00.394Z</time></trkpt><trkpt lat="45.315385" lon="8.434154"><ele>125.4</ele><time>2026-04-04T11:43:02.401Z</time></trkpt><trkpt lat="45.315313" lon="8.434247"><ele>125.2</ele><time>2026-04-04T11:43:04.402Z</time></trkpt><trkpt lat="45.3152386" lon="8.4343422"><ele>125.0</ele><time>2026-04-04T11:43:06.391Z</time></trkpt><trkpt lat="45.3151661" lon="8.4344429"><ele>125.0</ele><time>2026-04-04T11:43:08.398Z</time></trkpt><trkpt lat="45.3151019" lon="8.4345466"><ele>125.0</ele><time>2026-04-04T11:43:10.408Z</time></trkpt><trkpt lat="45.3150282" lon="8.4346496"><ele>125.0</ele><time>2026-04-04T11:43:12.396Z</time></trkpt><trkpt lat="45.3149541" lon="8.4347472"><ele>125.0</ele><time>2026-04-04T11:43:14.4Z</time></trkpt><trkpt lat="45.3148674" lon="8.4348391"><ele>125.0</ele><time>2026-04-04T11:43:16.412Z</time></trkpt><trkpt lat="45.3147997" lon="8.4349267"><ele>125.0</ele><time>2026-04-04T11:43:18.402Z</time></trkpt><trkpt lat="45.3147256" lon="8.4350242"><ele>125.0</ele><time>2026-04-04T11:43:20.42Z</time></trkpt><trkpt lat="45.3146528" lon="8.4351194"><ele>125.0</ele><time>2026-04-04T11:43:22.4Z</time></trkpt><trkpt lat="45.3145839" lon="8.4352166"><ele>125.0</ele><time>2026-04-04T11:43:24.401Z</time></trkpt><trkpt lat="45.3145177" lon="8.4353217"><ele>125.0</ele><time>2026-04-04T11:43:26.397Z</time></trkpt><trkpt lat="45.3144574" lon="8.4354368"><ele>124.6</ele><time>2026-04-04T11:43:28.394Z</time></trkpt><trkpt lat="45.3144007" lon="8.4355304"><ele>124.2</ele><time>2026-04-04T11:43:30.399Z</time></trkpt><trkpt lat="45.3143299" lon="8.4356172"><ele>123.80000000000001</ele><time>2026-04-04T11:43:32.406Z</time></trkpt><trkpt lat="45.3142635" lon="8.4357049"><ele>123.4</ele><time>2026-04-04T11:43:34.421Z</time></trkpt><trkpt lat="45.3141916" lon="8.435803"><ele>123.0</ele><time>2026-04-04T11:43:36.411Z</time></trkpt><trkpt lat="45.3141182" lon="8.4358885"><ele>123.0</ele><time>2026-04-04T11:43:38.399Z</time></trkpt><trkpt lat="45.3140449" lon="8.4359784"><ele>123.00000000000001</ele><time>2026-04-04T11:43:40.406Z</time></trkpt><trkpt lat="45.3139661" lon="8.4360807"><ele>123.00000000000001</ele><time>2026-04-04T11:43:42.401Z</time></trkpt><trkpt lat="45.3138917" lon="8.4361821"><ele>123.0</ele><time>2026-04-04T11:43:44.396Z</time></trkpt><trkpt lat="45.3138198" lon="8.436278"><ele>123.0</ele><time>2026-04-04T11:43:46.398Z</time></trkpt><trkpt lat="45.3137464" lon="8.4363634"><ele>123.2</ele><time>2026-04-04T11:43:48.398Z</time></trkpt><trkpt lat="45.3136761" lon="8.43646"><ele>123.4</ele><time>2026-04-04T11:43:50.404Z</time></trkpt><trkpt lat="45.3136011" lon="8.4365493"><ele>123.60000000000001</ele><time>2026-04-04T11:43:52.402Z</time></trkpt><trkpt lat="45.3135297" lon="8.4366439"><ele>123.80000000000001</ele><time>2026-04-04T11:43:54.394Z</time></trkpt><trkpt lat="45.313456" lon="8.4367314"><ele>124.0</ele><time>2026-04-04T11:43:56.394Z</time></trkpt><trkpt lat="45.3133784" lon="8.4368187"><ele>124.0</ele><time>2026-04-04T11:43:58.403Z</time></trkpt><trkpt lat="45.3133029" lon="8.4369107"><ele>124.0</ele><time>2026-04-04T11:44:00.4Z</time></trkpt><trkpt lat="45.3132356" lon="8.4369973"><ele>124.0</ele><time>2026-04-04T11:44:02.402Z</time></trkpt><trkpt lat="45.3131548" lon="8.4370878"><ele>124.0</ele><time>2026-04-04T11:44:04.396Z</time></trkpt><trkpt lat="45.313087" lon="8.4371835"><ele>124.0</ele><time>2026-04-04T11:44:06.397Z</time></trkpt><trkpt lat="45.3130176" lon="8.4372788"><ele>124.2</ele><time>2026-04-04T11:44:08.397Z</time></trkpt><trkpt lat="45.3129504" lon="8.437377"><ele>124.4</ele><time>2026-04-04T11:44:10.395Z</time></trkpt><trkpt lat="45.3128746" lon="8.4374727"><ele>124.6</ele><time>2026-04-04T11:44:12.392Z</time></trkpt><trkpt lat="45.3128055" lon="8.4375628"><ele>124.8</ele><time>2026-04-04T11:44:14.402Z</time></trkpt><trkpt lat="45.3127382" lon="8.4376563"><ele>125.0</ele><time>2026-04-04T11:44:16.399Z</time></trkpt><trkpt lat="45.3126641" lon="8.4377536"><ele>125.0</ele><time>2026-04-04T11:44:18.391Z</time></trkpt><trkpt lat="45.3125986" lon="8.4378459"><ele>125.0</ele><time>2026-04-04T11:44:20.397Z</time></trkpt><trkpt lat="45.3125228" lon="8.4379334"><ele>125.0</ele><time>2026-04-04T11:44:22.4Z</time></trkpt><trkpt lat="45.3124468" lon="8.4380123"><ele>125.0</ele><time>2026-04-04T11:44:24.404Z</time></trkpt><trkpt lat="45.3123661" lon="8.4380814"><ele>125.0</ele><time>2026-04-04T11:44:26.395Z</time></trkpt><trkpt lat="45.3122892" lon="8.4381701"><ele>125.4</ele><time>2026-04-04T11:44:28.401Z</time></trkpt><trkpt lat="45.3122173" lon="8.438268"><ele>125.8</ele><time>2026-04-04T11:44:30.401Z</time></trkpt><trkpt lat="45.3121396" lon="8.4383617"><ele>126.19999999999999</ele><time>2026-04-04T11:44:32.405Z</time></trkpt><trkpt lat="45.3120615" lon="8.4384587"><ele>126.6</ele><time>2026-04-04T11:44:34.398Z</time></trkpt><trkpt lat="45.3119867" lon="8.4385534"><ele>127.0</ele><time>2026-04-04T11:44:36.395Z</time></trkpt><trkpt lat="45.3119122" lon="8.4386432"><ele>127.0</ele><time>2026-04-04T11:44:38.392Z</time></trkpt><trkpt lat="45.3118313" lon="8.4387337"><ele>126.99999999999999</ele><time>2026-04-04T11:44:40.396Z</time></trkpt><trkpt lat="45.311754" lon="8.4388345"><ele>126.99999999999999</ele><time>2026-04-04T11:44:42.404Z</time></trkpt><trkpt lat="45.3116781" lon="8.438929"><ele>127.0</ele><time>2026-04-04T11:44:44.393Z</time></trkpt><trkpt lat="45.3115997" lon="8.4390196"><ele>127.0</ele><time>2026-04-04T11:44:46.398Z</time></trkpt><trkpt lat="45.3115233" lon="8.4391208"><ele>127.0</ele><time>2026-04-04T11:44:48.399Z</time></trkpt><trkpt lat="45.3114634" lon="8.4392296"><ele>126.99999999999999</ele><time>2026-04-04T11:44:50.395Z</time></trkpt><trkpt lat="45.3113952" lon="8.4393302"><ele>126.99999999999999</ele><time>2026-04-04T11:44:52.402Z</time></trkpt><trkpt lat="45.3113173" lon="8.4394324"><ele>127.0</ele><time>2026-04-04T11:44:54.393Z</time></trkpt><trkpt lat="45.3112442" lon="8.4395408"><ele>127.0</ele><time>2026-04-04T11:44:56.398Z</time></trkpt><trkpt lat="45.3111714" lon="8.4396283"><ele>126.19999999999999</ele><time>2026-04-04T11:44:58.396Z</time></trkpt><trkpt lat="45.3110922" lon="8.4397174"><ele>125.39999999999999</ele><time>2026-04-04T11:45:00.405Z</time></trkpt><trkpt lat="45.3110192" lon="8.439819"><ele>124.60000000000001</ele><time>2026-04-04T11:45:02.396Z</time></trkpt><trkpt lat="45.3109481" lon="8.4399109"><ele>123.80000000000001</ele><time>2026-04-04T11:45:04.394Z</time></trkpt><trkpt lat="45.3108741" lon="8.4399921"><ele>123.0</ele><time>2026-04-04T11:45:06.393Z</time></trkpt><trkpt lat="45.310795" lon="8.4400629"><ele>123.0</ele><time>2026-04-04T11:45:08.396Z</time></trkpt><trkpt lat="45.310715" lon="8.440158"><ele>123.00000000000001</ele><time>2026-04-04T11:45:10.393Z</time></trkpt><trkpt lat="45.3106412" lon="8.4402482"><ele>123.00000000000001</ele><time>2026-04-04T11:45:12.403Z</time></trkpt><trkpt lat="45.3105727" lon="8.4403411"><ele>123.0</ele><time>2026-04-04T11:45:14.394Z</time></trkpt><trkpt lat="45.3104964" lon="8.4404238"><ele>123.0</ele><time>2026-04-04T11:45:16.393Z</time></trkpt><trkpt lat="45.3104172" lon="8.4405062"><ele>123.4</ele><time>2026-04-04T11:45:18.401Z</time></trkpt><trkpt lat="45.310335" lon="8.4405835"><ele>123.80000000000001</ele><time>2026-04-04T11:45:20.398Z</time></trkpt><trkpt lat="45.3102583" lon="8.4406615"><ele>124.2</ele><time>2026-04-04T11:45:22.398Z</time></trkpt><trkpt lat="45.3101761" lon="8.440731"><ele>124.6</ele><time>2026-04-04T11:45:24.397Z</time></trkpt><trkpt lat="45.3100892" lon="8.4408023"><ele>125.0</ele><time>2026-04-04T11:45:26.404Z</time></trkpt><trkpt lat="45.3100063" lon="8.4408862"><ele>125.0</ele><time>2026-04-04T11:45:28.398Z</time></trkpt><trkpt lat="45.3099242" lon="8.4409565"><ele>125.0</ele><time>2026-04-04T11:45:30.396Z</time></trkpt><trkpt lat="45.3098415" lon="8.4410315"><ele>125.0</ele><time>2026-04-04T11:45:32.391Z</time></trkpt><trkpt lat="45.3097606" lon="8.4411003"><ele>125.0</ele><time>2026-04-04T11:45:34.392Z</time></trkpt><trkpt lat="45.3096769" lon="8.4411748"><ele>125.0</ele><time>2026-04-04T11:45:36.401Z</time></trkpt><trkpt lat="45.3095904" lon="8.4412508"><ele>124.6</ele><time>2026-04-04T11:45:38.39Z</time></trkpt><trkpt lat="45.3095072" lon="8.4413271"><ele>124.2</ele><time>2026-04-04T11:45:40.394Z</time></trkpt><trkpt lat="45.3094246" lon="8.4414021"><ele>123.80000000000001</ele><time>2026-04-04T11:45:42.396Z</time></trkpt><trkpt lat="45.3093357" lon="8.4414752"><ele>123.4</ele><time>2026-04-04T11:45:44.396Z</time></trkpt><trkpt lat="45.3092474" lon="8.4415482"><ele>123.0</ele><time>2026-04-04T11:45:46.397Z</time></trkpt><trkpt lat="45.309164" lon="8.4416171"><ele>123.0</ele><time>2026-04-04T11:45:48.393Z</time></trkpt><trkpt lat="45.3090825" lon="8.4416868"><ele>123.0</ele><time>2026-04-04T11:45:50.394Z</time></trkpt><trkpt lat="45.3090083" lon="8.441754"><ele>123.0</ele><time>2026-04-04T11:45:52.394Z</time></trkpt><trkpt lat="45.3089336" lon="8.4418191"><ele>123.0</ele><time>2026-04-04T11:45:54.399Z</time></trkpt><trkpt lat="45.3088575" lon="8.4418887"><ele>123.0</ele><time>2026-04-04T11:45:56.394Z</time></trkpt><trkpt lat="45.3087849" lon="8.4419439"><ele>123.0</ele><time>2026-04-04T11:45:58.399Z</time></trkpt><trkpt lat="45.3087181" lon="8.442002"><ele>123.0</ele><time>2026-04-04T11:46:00.405Z</time></trkpt><trkpt lat="45.3086636" lon="8.4420753"><ele>123.0</ele><time>2026-04-04T11:46:02.399Z</time></trkpt><trkpt lat="45.3086653" lon="8.4421724"><ele>123.0</ele><time>2026-04-04T11:46:04.397Z</time></trkpt><trkpt lat="45.3087036" lon="8.4422498"><ele>123.0</ele><time>2026-04-04T11:46:06.391Z</time></trkpt><trkpt lat="45.3087743" lon="8.4423214"><ele>123.0</ele><time>2026-04-04T11:46:08.391Z</time></trkpt><trkpt lat="45.3088612" lon="8.4423956"><ele>123.0</ele><time>2026-04-04T11:46:10.392Z</time></trkpt><trkpt lat="45.3089474" lon="8.4424713"><ele>123.2</ele><time>2026-04-04T11:46:12.395Z</time></trkpt><trkpt lat="45.3090256" lon="8.4425419"><ele>123.4</ele><time>2026-04-04T11:46:14.396Z</time></trkpt><trkpt lat="45.3091027" lon="8.4426172"><ele>123.60000000000001</ele><time>2026-04-04T11:46:16.393Z</time></trkpt><trkpt lat="45.3091831" lon="8.4426846"><ele>123.80000000000001</ele><time>2026-04-04T11:46:18.393Z</time></trkpt><trkpt lat="45.3092535" lon="8.4427507"><ele>124.0</ele><time>2026-04-04T11:46:20.4Z</time></trkpt><trkpt lat="45.3093289" lon="8.442815"><ele>124.0</ele><time>2026-04-04T11:46:22.394Z</time></trkpt><trkpt lat="45.3093885" lon="8.4428844"><ele>124.0</ele><time>2026-04-04T11:46:24.394Z</time></trkpt><trkpt lat="45.3094559" lon="8.4429706"><ele>124.0</ele><time>2026-04-04T11:46:26.397Z</time></trkpt><trkpt lat="45.3094824" lon="8.4431005"><ele>124.0</ele><time>2026-04-04T11:46:28.392Z</time></trkpt><trkpt lat="45.3094594" lon="8.4432345"><ele>124.0</ele><time>2026-04-04T11:46:30.391Z</time></trkpt><trkpt lat="45.3094332" lon="8.4433641"><ele>124.4</ele><time>2026-04-04T11:46:32.392Z</time></trkpt><trkpt lat="45.3093923" lon="8.4434811"><ele>124.80000000000001</ele><time>2026-04-04T11:46:34.396Z</time></trkpt><trkpt lat="45.3093581" lon="8.4436038"><ele>125.19999999999999</ele><time>2026-04-04T11:46:36.394Z</time></trkpt><trkpt lat="45.3093192" lon="8.4437162"><ele>125.6</ele><time>2026-04-04T11:46:38.397Z</time></trkpt><trkpt lat="45.3092627" lon="8.4438211"><ele>126.0</ele><time>2026-04-04T11:46:40.397Z</time></trkpt><trkpt lat="45.3092048" lon="8.4439114"><ele>126.16666666666667</ele><time>2026-04-04T11:46:42.4Z</time></trkpt><trkpt lat="45.3091432" lon="8.4439857"><ele>126.33333333333334</ele><time>2026-04-04T11:46:44.402Z</time></trkpt><trkpt lat="45.3090747" lon="8.4440525"><ele>126.5</ele><time>2026-04-04T11:46:46.393Z</time></trkpt><trkpt lat="45.3090027" lon="8.4441217"><ele>126.66666666666667</ele><time>2026-04-04T11:46:48.394Z</time></trkpt><trkpt lat="45.3089333" lon="8.4441888"><ele>126.83333333333334</ele><time>2026-04-04T11:46:50.393Z</time></trkpt><trkpt lat="45.3088639" lon="8.4442521"><ele>127.0</ele><time>2026-04-04T11:46:52.398Z</time></trkpt><trkpt lat="45.3087967" lon="8.44432"><ele>127.00000000000001</ele><time>2026-04-04T11:46:54.396Z</time></trkpt><trkpt lat="45.308726" lon="8.4443878"><ele>127.0</ele><time>2026-04-04T11:46:56.394Z</time></trkpt><trkpt lat="45.3086529" lon="8.4444531"><ele>127.0</ele><time>2026-04-04T11:46:58.404Z</time></trkpt><trkpt lat="45.3085827" lon="8.4445219"><ele>127.0</ele><time>2026-04-04T11:47:00.406Z</time></trkpt><trkpt lat="45.308511" lon="8.4445928"><ele>127.00000000000001</ele><time>2026-04-04T11:47:02.396Z</time></trkpt><trkpt lat="45.3084351" lon="8.444665"><ele>127.0</ele><time>2026-04-04T11:47:04.392Z</time></trkpt><trkpt lat="45.3083571" lon="8.444734"><ele>127.00000000000001</ele><time>2026-04-04T11:47:06.407Z</time></trkpt><trkpt lat="45.308291" lon="8.4447843"><ele>127.0</ele><time>2026-04-04T11:47:08.404Z</time></trkpt><trkpt lat="45.3082234" lon="8.4448153"><ele>127.0</ele><time>2026-04-04T11:47:10.398Z</time></trkpt><trkpt lat="45.3081549" lon="8.4448436"><ele>127.0</ele><time>2026-04-04T11:47:12.397Z</time></trkpt><trkpt lat="45.308087" lon="8.4448881"><ele>127.00000000000001</ele><time>2026-04-04T11:47:14.393Z</time></trkpt><trkpt lat="45.3080162" lon="8.444943"><ele>127.0</ele><time>2026-04-04T11:47:16.404Z</time></trkpt><trkpt lat="45.3079417" lon="8.445008"><ele>127.00000000000001</ele><time>2026-04-04T11:47:18.395Z</time></trkpt><trkpt lat="45.307873" lon="8.445074"><ele>127.0</ele><time>2026-04-04T11:47:20.394Z</time></trkpt><trkpt lat="45.3078147" lon="8.4451555"><ele>127.0</ele><time>2026-04-04T11:47:22.394Z</time></trkpt><trkpt lat="45.3077533" lon="8.4452321"><ele>127.0</ele><time>2026-04-04T11:47:24.395Z</time></trkpt><trkpt lat="45.30769" lon="8.4453111"><ele>127.00000000000001</ele><time>2026-04-04T11:47:26.394Z</time></trkpt><trkpt lat="45.3076214" lon="8.4453918"><ele>127.0</ele><time>2026-04-04T11:47:28.402Z</time></trkpt><trkpt lat="45.3075469" lon="8.4454527"><ele>127.0</ele><time>2026-04-04T11:47:30.393Z</time></trkpt><trkpt lat="45.3074853" lon="8.445545"><ele>126.99999999999999</ele><time>2026-04-04T11:47:32.397Z</time></trkpt><trkpt lat="45.3074248" lon="8.4456418"><ele>126.99999999999999</ele><time>2026-04-04T11:47:34.406Z</time></trkpt><trkpt lat="45.3073757" lon="8.4457526"><ele>127.0</ele><time>2026-04-04T11:47:36.397Z</time></trkpt><trkpt lat="45.3073243" lon="8.4458647"><ele>127.0</ele><time>2026-04-04T11:47:38.394Z</time></trkpt><trkpt lat="45.3072718" lon="8.445984"><ele>127.0</ele><time>2026-04-04T11:47:40.398Z</time></trkpt><trkpt lat="45.307211" lon="8.4460931"><ele>126.99999999999999</ele><time>2026-04-04T11:47:42.399Z</time></trkpt><trkpt lat="45.3071544" lon="8.446204"><ele>126.99999999999999</ele><time>2026-04-04T11:47:44.398Z</time></trkpt><trkpt lat="45.3070995" lon="8.4463223"><ele>127.0</ele><time>2026-04-04T11:47:46.401Z</time></trkpt><trkpt lat="45.3070389" lon="8.4464575"><ele>127.0</ele><time>2026-04-04T11:47:48.397Z</time></trkpt><trkpt lat="45.3069799" lon="8.4465808"><ele>126.8</ele><time>2026-04-04T11:47:50.397Z</time></trkpt><trkpt lat="45.3069182" lon="8.4467086"><ele>126.6</ele><time>2026-04-04T11:47:52.398Z</time></trkpt><trkpt lat="45.3068627" lon="8.4468379"><ele>126.39999999999999</ele><time>2026-04-04T11:47:54.411Z</time></trkpt><trkpt lat="45.306803" lon="8.4469723"><ele>126.19999999999999</ele><time>2026-04-04T11:47:56.405Z</time></trkpt><trkpt lat="45.3067451" lon="8.4471163"><ele>126.0</ele><time>2026-04-04T11:47:58.401Z</time></trkpt><trkpt lat="45.30668" lon="8.4472494"><ele>125.8</ele><time>2026-04-04T11:48:00.407Z</time></trkpt><trkpt lat="45.3066178" lon="8.4473787"><ele>125.6</ele><time>2026-04-04T11:48:02.395Z</time></trkpt><trkpt lat="45.3065561" lon="8.4475151"><ele>125.4</ele><time>2026-04-04T11:48:04.404Z</time></trkpt><trkpt lat="45.3064886" lon="8.4476454"><ele>125.2</ele><time>2026-04-04T11:48:06.409Z</time></trkpt><trkpt lat="45.3064302" lon="8.447778"><ele>125.0</ele><time>2026-04-04T11:48:08.404Z</time></trkpt><trkpt lat="45.3063753" lon="8.4479166"><ele>125.0</ele><time>2026-04-04T11:48:10.402Z</time></trkpt><trkpt lat="45.306314" lon="8.4480532"><ele>125.0</ele><time>2026-04-04T11:48:12.415Z</time></trkpt><trkpt lat="45.3062505" lon="8.4481879"><ele>125.0</ele><time>2026-04-04T11:48:14.402Z</time></trkpt><trkpt lat="45.3061911" lon="8.4483194"><ele>125.0</ele><time>2026-04-04T11:48:16.401Z</time></trkpt><trkpt lat="45.3061395" lon="8.4484544"><ele>125.0</ele><time>2026-04-04T11:48:18.399Z</time></trkpt><trkpt lat="45.3060909" lon="8.4485452"><ele>125.0</ele><time>2026-04-04T11:48:20.406Z</time></trkpt><trkpt lat="45.3060435" lon="8.4486685"><ele>125.0</ele><time>2026-04-04T11:48:22.406Z</time></trkpt><trkpt lat="45.3059857" lon="8.4487759"><ele>125.0</ele><time>2026-04-04T11:48:24.404Z</time></trkpt><trkpt lat="45.3059363" lon="8.4489057"><ele>125.0</ele><time>2026-04-04T11:48:26.401Z</time></trkpt><trkpt lat="45.3058848" lon="8.4490325"><ele>125.0</ele><time>2026-04-04T11:48:28.405Z</time></trkpt><trkpt lat="45.3058222" lon="8.4491411"><ele>125.0</ele><time>2026-04-04T11:48:30.402Z</time></trkpt><trkpt lat="45.3057647" lon="8.4492718"><ele>125.0</ele><time>2026-04-04T11:48:32.401Z</time></trkpt><trkpt lat="45.3057312" lon="8.4493552"><ele>125.0</ele><time>2026-04-04T11:48:33.403Z</time></trkpt><trkpt lat="45.3056683" lon="8.4495104"><ele>125.0</ele><time>2026-04-04T11:48:35.394Z</time></trkpt><trkpt lat="45.3056042" lon="8.4496528"><ele>125.0</ele><time>2026-04-04T11:48:37.396Z</time></trkpt><trkpt lat="45.3055331" lon="8.4497714"><ele>124.8</ele><time>2026-04-04T11:48:39.398Z</time></trkpt><trkpt lat="45.3054628" lon="8.4498908"><ele>124.6</ele><time>2026-04-04T11:48:41.412Z</time></trkpt><trkpt lat="45.3053896" lon="8.4499634"><ele>124.4</ele><time>2026-04-04T11:48:43.398Z</time></trkpt><trkpt lat="45.3053286" lon="8.4501242"><ele>124.2</ele><time>2026-04-04T11:48:45.393Z</time></trkpt><trkpt lat="45.3052449" lon="8.4502271"><ele>124.0</ele><time>2026-04-04T11:48:47.406Z</time></trkpt><trkpt lat="45.3051832" lon="8.4503646"><ele>123.80000000000001</ele><time>2026-04-04T11:48:49.395Z</time></trkpt><trkpt lat="45.3051226" lon="8.4505083"><ele>123.60000000000001</ele><time>2026-04-04T11:48:51.391Z</time></trkpt><trkpt lat="45.305063" lon="8.4506294"><ele>123.4</ele><time>2026-04-04T11:48:53.4Z</time></trkpt><trkpt lat="45.3049978" lon="8.4507582"><ele>123.2</ele><time>2026-04-04T11:48:55.398Z</time></trkpt><trkpt lat="45.3049404" lon="8.4508922"><ele>123.0</ele><time>2026-04-04T11:48:57.4Z</time></trkpt><trkpt lat="45.30488" lon="8.451022"><ele>123.0</ele><time>2026-04-04T11:48:59.4Z</time></trkpt><trkpt lat="45.30482" lon="8.4511607"><ele>123.0</ele><time>2026-04-04T11:49:01.398Z</time></trkpt><trkpt lat="45.3047643" lon="8.4513109"><ele>123.0</ele><time>2026-04-04T11:49:03.398Z</time></trkpt><trkpt lat="45.3047075" lon="8.4514411"><ele>123.0</ele><time>2026-04-04T11:49:05.398Z</time></trkpt><trkpt lat="45.3046502" lon="8.4515734"><ele>122.80000000000001</ele><time>2026-04-04T11:49:07.41Z</time></trkpt><trkpt lat="45.3045866" lon="8.4517051"><ele>122.60000000000001</ele><time>2026-04-04T11:49:09.405Z</time></trkpt><trkpt lat="45.3045196" lon="8.4518242"><ele>122.39999999999999</ele><time>2026-04-04T11:49:11.414Z</time></trkpt><trkpt lat="45.3044582" lon="8.4519566"><ele>122.19999999999999</ele><time>2026-04-04T11:49:13.403Z</time></trkpt><trkpt lat="45.3043966" lon="8.4520831"><ele>122.0</ele><time>2026-04-04T11:49:15.404Z</time></trkpt><trkpt lat="45.3043376" lon="8.4522064"><ele>122.0</ele><time>2026-04-04T11:49:17.407Z</time></trkpt><trkpt lat="45.3042772" lon="8.4523351"><ele>121.99999999999999</ele><time>2026-04-04T11:49:19.399Z</time></trkpt><trkpt lat="45.3042176" lon="8.4524618"><ele>121.99999999999999</ele><time>2026-04-04T11:49:21.405Z</time></trkpt><trkpt lat="45.3041564" lon="8.452591"><ele>122.0</ele><time>2026-04-04T11:49:23.394Z</time></trkpt><trkpt lat="45.3040992" lon="8.4527172"><ele>122.0</ele><time>2026-04-04T11:49:25.401Z</time></trkpt><trkpt lat="45.3040366" lon="8.4528468"><ele>121.8</ele><time>2026-04-04T11:49:27.397Z</time></trkpt><trkpt lat="45.3039769" lon="8.4529682"><ele>121.6</ele><time>2026-04-04T11:49:29.398Z</time></trkpt><trkpt lat="45.3039145" lon="8.453086"><ele>121.39999999999999</ele><time>2026-04-04T11:49:31.399Z</time></trkpt><trkpt lat="45.3038555" lon="8.4531971"><ele>121.19999999999999</ele><time>2026-04-04T11:49:33.398Z</time></trkpt><trkpt lat="45.3037954" lon="8.4533108"><ele>121.0</ele><time>2026-04-04T11:49:35.403Z</time></trkpt><trkpt lat="45.3037383" lon="8.4534277"><ele>120.8</ele><time>2026-04-04T11:49:37.393Z</time></trkpt><trkpt lat="45.3036757" lon="8.4535564"><ele>120.6</ele><time>2026-04-04T11:49:39.398Z</time></trkpt><trkpt lat="45.3036179" lon="8.4536756"><ele>120.4</ele><time>2026-04-04T11:49:41.393Z</time></trkpt><trkpt lat="45.3035527" lon="8.4538004"><ele>120.2</ele><time>2026-04-04T11:49:43.392Z</time></trkpt><trkpt lat="45.3034903" lon="8.4539153"><ele>120.0</ele><time>2026-04-04T11:49:45.399Z</time></trkpt><trkpt lat="45.30343" lon="8.4540267"><ele>120.0</ele><time>2026-04-04T11:49:47.397Z</time></trkpt><trkpt lat="45.3033667" lon="8.4541368"><ele>120.0</ele><time>2026-04-04T11:49:49.404Z</time></trkpt><trkpt lat="45.3033074" lon="8.4542584"><ele>120.0</ele><time>2026-04-04T11:49:51.396Z</time></trkpt><trkpt lat="45.3032507" lon="8.4543874"><ele>120.0</ele><time>2026-04-04T11:49:53.396Z</time></trkpt><trkpt lat="45.3031965" lon="8.4545242"><ele>120.0</ele><time>2026-04-04T11:49:55.401Z</time></trkpt><trkpt lat="45.3031357" lon="8.4546484"><ele>120.2</ele><time>2026-04-04T11:49:57.404Z</time></trkpt><trkpt lat="45.3030732" lon="8.4547729"><ele>120.4</ele><time>2026-04-04T11:49:59.399Z</time></trkpt><trkpt lat="45.3030095" lon="8.4549226"><ele>120.6</ele><time>2026-04-04T11:50:01.423Z</time></trkpt><trkpt lat="45.3029476" lon="8.4550453"><ele>120.8</ele><time>2026-04-04T11:50:03.407Z</time></trkpt><trkpt lat="45.3028819" lon="8.4551643"><ele>121.0</ele><time>2026-04-04T11:50:05.398Z</time></trkpt><trkpt lat="45.3028156" lon="8.4552864"><ele>121.0</ele><time>2026-04-04T11:50:07.397Z</time></trkpt><trkpt lat="45.3027476" lon="8.455418"><ele>121.0</ele><time>2026-04-04T11:50:09.404Z</time></trkpt><trkpt lat="45.3026875" lon="8.4555411"><ele>121.0</ele><time>2026-04-04T11:50:11.406Z</time></trkpt><trkpt lat="45.3026229" lon="8.4556747"><ele>121.0</ele><time>2026-04-04T11:50:13.4Z</time></trkpt><trkpt lat="45.3025585" lon="8.4557888"><ele>121.0</ele><time>2026-04-04T11:50:15.401Z</time></trkpt><trkpt lat="45.302505" lon="8.4559167"><ele>121.0</ele><time>2026-04-04T11:50:17.409Z</time></trkpt><trkpt lat="45.3024453" lon="8.4560227"><ele>121.0</ele><time>2026-04-04T11:50:19.394Z</time></trkpt><trkpt lat="45.3023772" lon="8.4561317"><ele>121.0</ele><time>2026-04-04T11:50:21.399Z</time></trkpt><trkpt lat="45.3023197" lon="8.4562481"><ele>121.0</ele><time>2026-04-04T11:50:23.402Z</time></trkpt><trkpt lat="45.3022606" lon="8.4563669"><ele>121.0</ele><time>2026-04-04T11:50:25.402Z</time></trkpt><trkpt lat="45.3021996" lon="8.456479"><ele>120.8</ele><time>2026-04-04T11:50:27.411Z</time></trkpt><trkpt lat="45.3021426" lon="8.4565897"><ele>120.6</ele><time>2026-04-04T11:50:29.405Z</time></trkpt><trkpt lat="45.3020955" lon="8.4567105"><ele>120.4</ele><time>2026-04-04T11:50:31.413Z</time></trkpt><trkpt lat="45.3020397" lon="8.4568344"><ele>120.2</ele><time>2026-04-04T11:50:33.413Z</time></trkpt><trkpt lat="45.3019883" lon="8.4569468"><ele>120.0</ele><time>2026-04-04T11:50:35.402Z</time></trkpt><trkpt lat="45.3019296" lon="8.4570702"><ele>120.2</ele><time>2026-04-04T11:50:37.408Z</time></trkpt><trkpt lat="45.3018689" lon="8.4571877"><ele>120.4</ele><time>2026-04-04T11:50:39.401Z</time></trkpt><trkpt lat="45.3018102" lon="8.4573055"><ele>120.6</ele><time>2026-04-04T11:50:41.395Z</time></trkpt><trkpt lat="45.3017555" lon="8.457437"><ele>120.8</ele><time>2026-04-04T11:50:43.408Z</time></trkpt><trkpt lat="45.3017022" lon="8.4575589"><ele>121.0</ele><time>2026-04-04T11:50:45.415Z</time></trkpt><trkpt lat="45.3016385" lon="8.4576794"><ele>121.0</ele><time>2026-04-04T11:50:47.419Z</time></trkpt><trkpt lat="45.3015829" lon="8.4578058"><ele>121.0</ele><time>2026-04-04T11:50:49.405Z</time></trkpt><trkpt lat="45.3015294" lon="8.4579335"><ele>121.0</ele><time>2026-04-04T11:50:51.404Z</time></trkpt><trkpt lat="45.3014713" lon="8.4580642"><ele>121.0</ele><time>2026-04-04T11:50:53.414Z</time></trkpt><trkpt lat="45.3014118" lon="8.4581887"><ele>121.0</ele><time>2026-04-04T11:50:55.407Z</time></trkpt><trkpt lat="45.301352" lon="8.4583066"><ele>121.0</ele><time>2026-04-04T11:50:57.4Z</time></trkpt><trkpt lat="45.3012872" lon="8.4584349"><ele>121.0</ele><time>2026-04-04T11:50:59.396Z</time></trkpt><trkpt lat="45.301227" lon="8.4585645"><ele>121.0</ele><time>2026-04-04T11:51:01.396Z</time></trkpt><trkpt lat="45.301164" lon="8.4586974"><ele>121.0</ele><time>2026-04-04T11:51:03.405Z</time></trkpt><trkpt lat="45.3011042" lon="8.4588283"><ele>121.0</ele><time>2026-04-04T11:51:05.396Z</time></trkpt><trkpt lat="45.3010412" lon="8.4589545"><ele>120.6</ele><time>2026-04-04T11:51:07.399Z</time></trkpt><trkpt lat="45.3009823" lon="8.4590916"><ele>120.19999999999999</ele><time>2026-04-04T11:51:09.393Z</time></trkpt><trkpt lat="45.3009191" lon="8.4592213"><ele>119.80000000000001</ele><time>2026-04-04T11:51:11.396Z</time></trkpt><trkpt lat="45.3008551" lon="8.4593454"><ele>119.4</ele><time>2026-04-04T11:51:13.402Z</time></trkpt><trkpt lat="45.3007947" lon="8.4594753"><ele>119.0</ele><time>2026-04-04T11:51:15.401Z</time></trkpt><trkpt lat="45.3007362" lon="8.4596057"><ele>119.0</ele><time>2026-04-04T11:51:17.398Z</time></trkpt><trkpt lat="45.3006731" lon="8.459736"><ele>119.0</ele><time>2026-04-04T11:51:19.4Z</time></trkpt><trkpt lat="45.3006115" lon="8.4598606"><ele>119.0</ele><time>2026-04-04T11:51:21.404Z</time></trkpt><trkpt lat="45.3005543" lon="8.4599929"><ele>119.0</ele><time>2026-04-04T11:51:23.398Z</time></trkpt><trkpt lat="45.3004937" lon="8.4601177"><ele>119.0</ele><time>2026-04-04T11:51:25.405Z</time></trkpt><trkpt lat="45.3004325" lon="8.4602596"><ele>119.0</ele><time>2026-04-04T11:51:27.408Z</time></trkpt><trkpt lat="45.300369" lon="8.460376"><ele>119.0</ele><time>2026-04-04T11:51:29.398Z</time></trkpt><trkpt lat="45.3003127" lon="8.4605108"><ele>119.0</ele><time>2026-04-04T11:51:31.408Z</time></trkpt><trkpt lat="45.3002471" lon="8.4606371"><ele>119.0</ele><time>2026-04-04T11:51:33.395Z</time></trkpt><trkpt lat="45.300186" lon="8.4607543"><ele>119.0</ele><time>2026-04-04T11:51:35.401Z</time></trkpt><trkpt lat="45.3001344" lon="8.4608923"><ele>119.0</ele><time>2026-04-04T11:51:37.401Z</time></trkpt><trkpt lat="45.3000717" lon="8.4610171"><ele>119.0</ele><time>2026-04-04T11:51:39.397Z</time></trkpt><trkpt lat="45.3000089" lon="8.4611452"><ele>119.0</ele><time>2026-04-04T11:51:41.4Z</time></trkpt><trkpt lat="45.2999508" lon="8.4612721"><ele>119.0</ele><time>2026-04-04T11:51:43.395Z</time></trkpt><trkpt lat="45.2998869" lon="8.4613904"><ele>119.0</ele><time>2026-04-04T11:51:45.397Z</time></trkpt><trkpt lat="45.2998335" lon="8.4615211"><ele>119.0</ele><time>2026-04-04T11:51:47.398Z</time></trkpt><trkpt lat="45.2997734" lon="8.4616461"><ele>119.0</ele><time>2026-04-04T11:51:49.395Z</time></trkpt><trkpt lat="45.2997176" lon="8.461773"><ele>119.0</ele><time>2026-04-04T11:51:51.394Z</time></trkpt><trkpt lat="45.2996572" lon="8.4618966"><ele>119.0</ele><time>2026-04-04T11:51:53.396Z</time></trkpt><trkpt lat="45.2995992" lon="8.4620237"><ele>119.0</ele><time>2026-04-04T11:51:55.393Z</time></trkpt><trkpt lat="45.299545" lon="8.4621506"><ele>118.80000000000001</ele><time>2026-04-04T11:51:57.398Z</time></trkpt><trkpt lat="45.2994868" lon="8.4622705"><ele>118.60000000000001</ele><time>2026-04-04T11:51:59.395Z</time></trkpt><trkpt lat="45.2994399" lon="8.4624005"><ele>118.4</ele><time>2026-04-04T11:52:01.402Z</time></trkpt><trkpt lat="45.2993946" lon="8.4625387"><ele>118.2</ele><time>2026-04-04T11:52:03.397Z</time></trkpt><trkpt lat="45.2993473" lon="8.4626671"><ele>118.0</ele><time>2026-04-04T11:52:05.405Z</time></trkpt><trkpt lat="45.2992991" lon="8.4627967"><ele>118.0</ele><time>2026-04-04T11:52:07.397Z</time></trkpt><trkpt lat="45.2992457" lon="8.4629277"><ele>118.00000000000001</ele><time>2026-04-04T11:52:09.401Z</time></trkpt><trkpt lat="45.2991943" lon="8.4630571"><ele>118.00000000000001</ele><time>2026-04-04T11:52:11.397Z</time></trkpt><trkpt lat="45.2991395" lon="8.4631788"><ele>118.0</ele><time>2026-04-04T11:52:13.404Z</time></trkpt><trkpt lat="45.2990781" lon="8.4633037"><ele>118.0</ele><time>2026-04-04T11:52:15.4Z</time></trkpt><trkpt lat="45.2990202" lon="8.4634269"><ele>118.0</ele><time>2026-04-04T11:52:17.399Z</time></trkpt><trkpt lat="45.2989622" lon="8.4635434"><ele>118.00000000000001</ele><time>2026-04-04T11:52:19.395Z</time></trkpt><trkpt lat="45.298908" lon="8.4636669"><ele>118.00000000000001</ele><time>2026-04-04T11:52:21.395Z</time></trkpt><trkpt lat="45.2988491" lon="8.4637857"><ele>118.0</ele><time>2026-04-04T11:52:23.394Z</time></trkpt><trkpt lat="45.2987913" lon="8.4638983"><ele>118.0</ele><time>2026-04-04T11:52:25.397Z</time></trkpt><trkpt lat="45.2987316" lon="8.4640169"><ele>117.80000000000001</ele><time>2026-04-04T11:52:27.401Z</time></trkpt><trkpt lat="45.2986783" lon="8.4641384"><ele>117.60000000000001</ele><time>2026-04-04T11:52:29.398Z</time></trkpt><trkpt lat="45.2986175" lon="8.4642572"><ele>117.39999999999999</ele><time>2026-04-04T11:52:31.4Z</time></trkpt><trkpt lat="45.2985599" lon="8.4643738"><ele>117.19999999999999</ele><time>2026-04-04T11:52:33.399Z</time></trkpt><trkpt lat="45.2985051" lon="8.4644965"><ele>117.0</ele><time>2026-04-04T11:52:35.396Z</time></trkpt><trkpt lat="45.298452" lon="8.464614"><ele>117.39999999999999</ele><time>2026-04-04T11:52:37.395Z</time></trkpt><trkpt lat="45.2983899" lon="8.4647239"><ele>117.79999999999998</ele><time>2026-04-04T11:52:39.398Z</time></trkpt><trkpt lat="45.2983339" lon="8.4648419"><ele>118.2</ele><time>2026-04-04T11:52:41.397Z</time></trkpt><trkpt lat="45.2982756" lon="8.4649615"><ele>118.6</ele><time>2026-04-04T11:52:43.395Z</time></trkpt><trkpt lat="45.2982162" lon="8.4650862"><ele>119.0</ele><time>2026-04-04T11:52:45.396Z</time></trkpt><trkpt lat="45.2981596" lon="8.4651984"><ele>119.0</ele><time>2026-04-04T11:52:47.396Z</time></trkpt><trkpt lat="45.2981055" lon="8.4653108"><ele>119.0</ele><time>2026-04-04T11:52:49.393Z</time></trkpt><trkpt lat="45.2980462" lon="8.4654292"><ele>119.0</ele><time>2026-04-04T11:52:51.408Z</time></trkpt><trkpt lat="45.2979863" lon="8.4655459"><ele>119.0</ele><time>2026-04-04T11:52:53.394Z</time></trkpt><trkpt lat="45.2979296" lon="8.4656582"><ele>119.0</ele><time>2026-04-04T11:52:55.393Z</time></trkpt><trkpt lat="45.2978804" lon="8.4657726"><ele>118.80000000000001</ele><time>2026-04-04T11:52:57.393Z</time></trkpt><trkpt lat="45.2978228" lon="8.4658805"><ele>118.60000000000001</ele><time>2026-04-04T11:52:59.393Z</time></trkpt><trkpt lat="45.29776" lon="8.4659843"><ele>118.4</ele><time>2026-04-04T11:53:01.391Z</time></trkpt><trkpt lat="45.2976988" lon="8.4660838"><ele>118.2</ele><time>2026-04-04T11:53:03.396Z</time></trkpt><trkpt lat="45.2976408" lon="8.4661874"><ele>118.0</ele><time>2026-04-04T11:53:05.392Z</time></trkpt><trkpt lat="45.2975756" lon="8.4662938"><ele>117.80000000000001</ele><time>2026-04-04T11:53:07.392Z</time></trkpt><trkpt lat="45.2975082" lon="8.4664015"><ele>117.60000000000001</ele><time>2026-04-04T11:53:09.404Z</time></trkpt><trkpt lat="45.2974436" lon="8.466506"><ele>117.39999999999999</ele><time>2026-04-04T11:53:11.407Z</time></trkpt><trkpt lat="45.2973847" lon="8.4666176"><ele>117.19999999999999</ele><time>2026-04-04T11:53:13.399Z</time></trkpt><trkpt lat="45.2973214" lon="8.4667369"><ele>117.0</ele><time>2026-04-04T11:53:15.396Z</time></trkpt><trkpt lat="45.2972502" lon="8.4668474"><ele>117.0</ele><time>2026-04-04T11:53:17.41Z</time></trkpt><trkpt lat="45.2971826" lon="8.4669621"><ele>116.99999999999999</ele><time>2026-04-04T11:53:19.407Z</time></trkpt><trkpt lat="45.2971131" lon="8.467071"><ele>116.99999999999999</ele><time>2026-04-04T11:53:21.403Z</time></trkpt><trkpt lat="45.297042" lon="8.4671887"><ele>117.0</ele><time>2026-04-04T11:53:23.403Z</time></trkpt><trkpt lat="45.296973" lon="8.467304"><ele>117.0</ele><time>2026-04-04T11:53:25.401Z</time></trkpt><trkpt lat="45.2969055" lon="8.4674253"><ele>117.0</ele><time>2026-04-04T11:53:27.405Z</time></trkpt><trkpt lat="45.2968404" lon="8.4675436"><ele>116.99999999999999</ele><time>2026-04-04T11:53:29.405Z</time></trkpt><trkpt lat="45.2967767" lon="8.467658"><ele>116.99999999999999</ele><time>2026-04-04T11:53:31.401Z</time></trkpt><trkpt lat="45.2967166" lon="8.4677678"><ele>117.0</ele><time>2026-04-04T11:53:33.389Z</time></trkpt><trkpt lat="45.2966575" lon="8.4678709"><ele>117.0</ele><time>2026-04-04T11:53:35.397Z</time></trkpt><trkpt lat="45.2965996" lon="8.4679696"><ele>117.0</ele><time>2026-04-04T11:53:37.393Z</time></trkpt><trkpt lat="45.2965436" lon="8.4680652"><ele>116.99999999999999</ele><time>2026-04-04T11:53:39.395Z</time></trkpt><trkpt lat="45.2964871" lon="8.4681475"><ele>116.99999999999999</ele><time>2026-04-04T11:53:41.395Z</time></trkpt><trkpt lat="45.2964249" lon="8.4682302"><ele>117.0</ele><time>2026-04-04T11:53:43.394Z</time></trkpt><trkpt lat="45.2963551" lon="8.4683261"><ele>117.0</ele><time>2026-04-04T11:53:45.395Z</time></trkpt><trkpt lat="45.2962693" lon="8.4684164"><ele>117.0</ele><time>2026-04-04T11:53:47.401Z</time></trkpt><trkpt lat="45.2961748" lon="8.4685045"><ele>116.99999999999999</ele><time>2026-04-04T11:53:49.407Z</time></trkpt><trkpt lat="45.2960791" lon="8.4685815"><ele>116.99999999999999</ele><time>2026-04-04T11:53:51.394Z</time></trkpt><trkpt lat="45.2959765" lon="8.4686466"><ele>117.0</ele><time>2026-04-04T11:53:53.403Z</time></trkpt><trkpt lat="45.2958771" lon="8.4687164"><ele>117.0</ele><time>2026-04-04T11:53:55.399Z</time></trkpt><trkpt lat="45.2957768" lon="8.468789"><ele>117.25</ele><time>2026-04-04T11:53:57.398Z</time></trkpt><trkpt lat="45.2956746" lon="8.4688606"><ele>117.5</ele><time>2026-04-04T11:53:59.392Z</time></trkpt><trkpt lat="45.2955712" lon="8.4689375"><ele>117.75</ele><time>2026-04-04T11:54:01.407Z</time></trkpt><trkpt lat="45.2954642" lon="8.4690117"><ele>118.0</ele><time>2026-04-04T11:54:03.405Z</time></trkpt><trkpt lat="45.295365" lon="8.4690866"><ele>118.0</ele><time>2026-04-04T11:54:05.398Z</time></trkpt><trkpt lat="45.2952653" lon="8.4691708"><ele>118.0</ele><time>2026-04-04T11:54:07.406Z</time></trkpt><trkpt lat="45.2951679" lon="8.4692563"><ele>118.0</ele><time>2026-04-04T11:54:09.392Z</time></trkpt><trkpt lat="45.2950792" lon="8.469343"><ele>118.0</ele><time>2026-04-04T11:54:11.4Z</time></trkpt><trkpt lat="45.2949842" lon="8.4694282"><ele>118.0</ele><time>2026-04-04T11:54:13.392Z</time></trkpt><trkpt lat="45.2948885" lon="8.4695187"><ele>118.00000000000001</ele><time>2026-04-04T11:54:15.393Z</time></trkpt><trkpt lat="45.2947947" lon="8.4696127"><ele>118.00000000000001</ele><time>2026-04-04T11:54:17.401Z</time></trkpt><trkpt lat="45.2947057" lon="8.4696989"><ele>118.0</ele><time>2026-04-04T11:54:19.394Z</time></trkpt><trkpt lat="45.2946157" lon="8.4697872"><ele>118.0</ele><time>2026-04-04T11:54:21.391Z</time></trkpt><trkpt lat="45.2945277" lon="8.4698756"><ele>117.80000000000001</ele><time>2026-04-04T11:54:23.393Z</time></trkpt><trkpt lat="45.2944394" lon="8.4699605"><ele>117.60000000000001</ele><time>2026-04-04T11:54:25.391Z</time></trkpt><trkpt lat="45.2943521" lon="8.4700449"><ele>117.39999999999999</ele><time>2026-04-04T11:54:27.402Z</time></trkpt><trkpt lat="45.2942616" lon="8.4701299"><ele>117.19999999999999</ele><time>2026-04-04T11:54:29.401Z</time></trkpt><trkpt lat="45.2941707" lon="8.4702136"><ele>117.0</ele><time>2026-04-04T11:54:31.397Z</time></trkpt><trkpt lat="45.2940773" lon="8.4703056"><ele>117.0</ele><time>2026-04-04T11:54:33.399Z</time></trkpt><trkpt lat="45.2939823" lon="8.4703933"><ele>116.99999999999999</ele><time>2026-04-04T11:54:35.396Z</time></trkpt><trkpt lat="45.2938896" lon="8.4704817"><ele>116.99999999999999</ele><time>2026-04-04T11:54:37.399Z</time></trkpt><trkpt lat="45.293795" lon="8.4705615"><ele>117.0</ele><time>2026-04-04T11:54:39.401Z</time></trkpt><trkpt lat="45.2936998" lon="8.4706492"><ele>117.0</ele><time>2026-04-04T11:54:41.392Z</time></trkpt><trkpt lat="45.2936104" lon="8.4707365"><ele>117.39999999999999</ele><time>2026-04-04T11:54:43.394Z</time></trkpt><trkpt lat="45.2935207" lon="8.4708194"><ele>117.79999999999998</ele><time>2026-04-04T11:54:45.401Z</time></trkpt><trkpt lat="45.2934273" lon="8.4709118"><ele>118.2</ele><time>2026-04-04T11:54:47.401Z</time></trkpt><trkpt lat="45.2933419" lon="8.4710068"><ele>118.6</ele><time>2026-04-04T11:54:49.394Z</time></trkpt><trkpt lat="45.2932462" lon="8.4711008"><ele>119.0</ele><time>2026-04-04T11:54:51.405Z</time></trkpt><trkpt lat="45.2931585" lon="8.4711865"><ele>118.80000000000001</ele><time>2026-04-04T11:54:53.407Z</time></trkpt><trkpt lat="45.2930708" lon="8.4712801"><ele>118.60000000000001</ele><time>2026-04-04T11:54:55.404Z</time></trkpt><trkpt lat="45.292976" lon="8.4713508"><ele>118.4</ele><time>2026-04-04T11:54:57.392Z</time></trkpt><trkpt lat="45.2928849" lon="8.4714361"><ele>118.2</ele><time>2026-04-04T11:54:59.414Z</time></trkpt><trkpt lat="45.2927877" lon="8.4715129"><ele>118.0</ele><time>2026-04-04T11:55:01.396Z</time></trkpt><trkpt lat="45.2926944" lon="8.4715985"><ele>118.0</ele><time>2026-04-04T11:55:03.401Z</time></trkpt><trkpt lat="45.2926013" lon="8.4716887"><ele>118.0</ele><time>2026-04-04T11:55:05.393Z</time></trkpt><trkpt lat="45.2925069" lon="8.47178"><ele>118.0</ele><time>2026-04-04T11:55:07.401Z</time></trkpt><trkpt lat="45.2924111" lon="8.4718667"><ele>118.0</ele><time>2026-04-04T11:55:09.397Z</time></trkpt><trkpt lat="45.2923147" lon="8.4719564"><ele>117.75</ele><time>2026-04-04T11:55:11.401Z</time></trkpt><trkpt lat="45.2922189" lon="8.47205"><ele>117.5</ele><time>2026-04-04T11:55:13.392Z</time></trkpt><trkpt lat="45.2921244" lon="8.4721392"><ele>117.25</ele><time>2026-04-04T11:55:15.399Z</time></trkpt><trkpt lat="45.2920301" lon="8.4722306"><ele>117.0</ele><time>2026-04-04T11:55:17.394Z</time></trkpt><trkpt lat="45.2919371" lon="8.4723147"><ele>116.8</ele><time>2026-04-04T11:55:19.397Z</time></trkpt><trkpt lat="45.2918452" lon="8.4723987"><ele>116.6</ele><time>2026-04-04T11:55:21.396Z</time></trkpt><trkpt lat="45.2917557" lon="8.4724842"><ele>116.39999999999999</ele><time>2026-04-04T11:55:23.394Z</time></trkpt><trkpt lat="45.2916656" lon="8.4725715"><ele>116.19999999999999</ele><time>2026-04-04T11:55:25.396Z</time></trkpt><trkpt lat="45.2915773" lon="8.4726599"><ele>116.0</ele><time>2026-04-04T11:55:27.399Z</time></trkpt><trkpt lat="45.2914822" lon="8.4727448"><ele>115.5</ele><time>2026-04-04T11:55:29.4Z</time></trkpt><trkpt lat="45.2913867" lon="8.4728349"><ele>115.0</ele><time>2026-04-04T11:55:31.396Z</time></trkpt><trkpt lat="45.2912923" lon="8.4729222"><ele>114.5</ele><time>2026-04-04T11:55:33.396Z</time></trkpt><trkpt lat="45.2911964" lon="8.4730093"><ele>114.0</ele><time>2026-04-04T11:55:35.393Z</time></trkpt><trkpt lat="45.2911009" lon="8.4730968"><ele>114.0</ele><time>2026-04-04T11:55:37.396Z</time></trkpt><trkpt lat="45.2910077" lon="8.4731809"><ele>114.0</ele><time>2026-04-04T11:55:39.397Z</time></trkpt><trkpt lat="45.2909157" lon="8.4732688"><ele>114.0</ele><time>2026-04-04T11:55:41.395Z</time></trkpt><trkpt lat="45.2908239" lon="8.4733545"><ele>114.0</ele><time>2026-04-04T11:55:43.392Z</time></trkpt><trkpt lat="45.290733" lon="8.473438"><ele>114.0</ele><time>2026-04-04T11:55:45.399Z</time></trkpt><trkpt lat="45.2906386" lon="8.4735283"><ele>114.25</ele><time>2026-04-04T11:55:47.392Z</time></trkpt><trkpt lat="45.2905441" lon="8.4736162"><ele>114.5</ele><time>2026-04-04T11:55:49.398Z</time></trkpt><trkpt lat="45.2904523" lon="8.473705"><ele>114.75</ele><time>2026-04-04T11:55:51.395Z</time></trkpt><trkpt lat="45.2903542" lon="8.4737872"><ele>115.0</ele><time>2026-04-04T11:55:53.393Z</time></trkpt><trkpt lat="45.2902586" lon="8.4738746"><ele>115.2</ele><time>2026-04-04T11:55:55.395Z</time></trkpt><trkpt lat="45.2901651" lon="8.4739662"><ele>115.4</ele><time>2026-04-04T11:55:57.397Z</time></trkpt><trkpt lat="45.29007" lon="8.4740537"><ele>115.6</ele><time>2026-04-04T11:55:59.396Z</time></trkpt><trkpt lat="45.2899795" lon="8.47414"><ele>115.8</ele><time>2026-04-04T11:56:01.397Z</time></trkpt><trkpt lat="45.2898901" lon="8.4742238"><ele>116.0</ele><time>2026-04-04T11:56:03.391Z</time></trkpt><trkpt lat="45.2898057" lon="8.4743059"><ele>116.0</ele><time>2026-04-04T11:56:05.397Z</time></trkpt><trkpt lat="45.2897152" lon="8.4743892"><ele>116.0</ele><time>2026-04-04T11:56:07.399Z</time></trkpt><trkpt lat="45.2896243" lon="8.4744734"><ele>116.0</ele><time>2026-04-04T11:56:09.398Z</time></trkpt><trkpt lat="45.289538" lon="8.4745566"><ele>116.0</ele><time>2026-04-04T11:56:11.397Z</time></trkpt><trkpt lat="45.289448" lon="8.4746432"><ele>116.0</ele><time>2026-04-04T11:56:13.402Z</time></trkpt><trkpt lat="45.2893592" lon="8.4747204"><ele>116.0</ele><time>2026-04-04T11:56:15.418Z</time></trkpt><trkpt lat="45.2892716" lon="8.4747966"><ele>116.0</ele><time>2026-04-04T11:56:17.402Z</time></trkpt><trkpt lat="45.2891844" lon="8.474882"><ele>116.0</ele><time>2026-04-04T11:56:19.395Z</time></trkpt><trkpt lat="45.2890993" lon="8.474961"><ele>116.0</ele><time>2026-04-04T11:56:21.397Z</time></trkpt><trkpt lat="45.2890169" lon="8.4750466"><ele>116.0</ele><time>2026-04-04T11:56:23.398Z</time></trkpt><trkpt lat="45.288932" lon="8.47513"><ele>116.0</ele><time>2026-04-04T11:56:25.401Z</time></trkpt><trkpt lat="45.2888512" lon="8.4752154"><ele>116.0</ele><time>2026-04-04T11:56:27.397Z</time></trkpt><trkpt lat="45.2887644" lon="8.4752991"><ele>116.0</ele><time>2026-04-04T11:56:29.405Z</time></trkpt><trkpt lat="45.2886786" lon="8.4753797"><ele>116.0</ele><time>2026-04-04T11:56:31.401Z</time></trkpt><trkpt lat="45.2885928" lon="8.4754595"><ele>116.0</ele><time>2026-04-04T11:56:33.395Z</time></trkpt><trkpt lat="45.2885059" lon="8.4755445"><ele>116.0</ele><time>2026-04-04T11:56:35.396Z</time></trkpt><trkpt lat="45.2884219" lon="8.4756292"><ele>116.0</ele><time>2026-04-04T11:56:37.394Z</time></trkpt><trkpt lat="45.2883362" lon="8.4757132"><ele>116.0</ele><time>2026-04-04T11:56:39.392Z</time></trkpt><trkpt lat="45.2882518" lon="8.475797"><ele>116.0</ele><time>2026-04-04T11:56:41.404Z</time></trkpt><trkpt lat="45.2881672" lon="8.4758827"><ele>116.0</ele><time>2026-04-04T11:56:43.401Z</time></trkpt><trkpt lat="45.288076" lon="8.4759717"><ele>116.0</ele><time>2026-04-04T11:56:45.396Z</time></trkpt><trkpt lat="45.2879883" lon="8.4760581"><ele>116.0</ele><time>2026-04-04T11:56:47.393Z</time></trkpt><trkpt lat="45.287894" lon="8.4761373"><ele>116.0</ele><time>2026-04-04T11:56:49.394Z</time></trkpt><trkpt lat="45.287801" lon="8.4762071"><ele>116.0</ele><time>2026-04-04T11:56:51.406Z</time></trkpt><trkpt lat="45.2877061" lon="8.4762719"><ele>116.0</ele><time>2026-04-04T11:56:53.393Z</time></trkpt><trkpt lat="45.2876109" lon="8.4763196"><ele>115.8</ele><time>2026-04-04T11:56:55.401Z</time></trkpt><trkpt lat="45.2875123" lon="8.4763604"><ele>115.6</ele><time>2026-04-04T11:56:57.398Z</time></trkpt><trkpt lat="45.287409" lon="8.4763929"><ele>115.4</ele><time>2026-04-04T11:56:59.398Z</time></trkpt><trkpt lat="45.2873048" lon="8.4764199"><ele>115.2</ele><time>2026-04-04T11:57:01.395Z</time></trkpt><trkpt lat="45.2872025" lon="8.4764428"><ele>115.0</ele><time>2026-04-04T11:57:03.396Z</time></trkpt><trkpt lat="45.2871035" lon="8.4764668"><ele>114.6</ele><time>2026-04-04T11:57:05.399Z</time></trkpt><trkpt lat="45.2870034" lon="8.4764887"><ele>114.2</ele><time>2026-04-04T11:57:07.411Z</time></trkpt><trkpt lat="45.2869019" lon="8.4765128"><ele>113.80000000000001</ele><time>2026-04-04T11:57:09.394Z</time></trkpt><trkpt lat="45.2867991" lon="8.4765381"><ele>113.4</ele><time>2026-04-04T11:57:11.4Z</time></trkpt><trkpt lat="45.2867003" lon="8.476554"><ele>113.0</ele><time>2026-04-04T11:57:13.392Z</time></trkpt><trkpt lat="45.2865982" lon="8.47658"><ele>113.0</ele><time>2026-04-04T11:57:15.403Z</time></trkpt><trkpt lat="45.2864998" lon="8.4765967"><ele>113.00000000000001</ele><time>2026-04-04T11:57:17.399Z</time></trkpt><trkpt lat="45.2863954" lon="8.4766134"><ele>113.00000000000001</ele><time>2026-04-04T11:57:19.398Z</time></trkpt><trkpt lat="45.2862948" lon="8.4766378"><ele>113.0</ele><time>2026-04-04T11:57:21.397Z</time></trkpt><trkpt lat="45.2861944" lon="8.4766554"><ele>113.0</ele><time>2026-04-04T11:57:23.398Z</time></trkpt><trkpt lat="45.2860964" lon="8.4766714"><ele>113.2</ele><time>2026-04-04T11:57:25.399Z</time></trkpt><trkpt lat="45.2859956" lon="8.476686"><ele>113.4</ele><time>2026-04-04T11:57:27.397Z</time></trkpt><trkpt lat="45.2858919" lon="8.4767043"><ele>113.60000000000001</ele><time>2026-04-04T11:57:29.395Z</time></trkpt><trkpt lat="45.2857927" lon="8.4767268"><ele>113.80000000000001</ele><time>2026-04-04T11:57:31.394Z</time></trkpt><trkpt lat="45.28569" lon="8.4767459"><ele>114.0</ele><time>2026-04-04T11:57:33.395Z</time></trkpt><trkpt lat="45.2855939" lon="8.4767707"><ele>114.2</ele><time>2026-04-04T11:57:35.394Z</time></trkpt><trkpt lat="45.2854916" lon="8.4767878"><ele>114.4</ele><time>2026-04-04T11:57:37.397Z</time></trkpt><trkpt lat="45.2853888" lon="8.4768136"><ele>114.6</ele><time>2026-04-04T11:57:39.391Z</time></trkpt><trkpt lat="45.2852903" lon="8.476838"><ele>114.8</ele><time>2026-04-04T11:57:41.397Z</time></trkpt><trkpt lat="45.285193" lon="8.4768677"><ele>115.0</ele><time>2026-04-04T11:57:43.395Z</time></trkpt><trkpt lat="45.2850887" lon="8.4768955"><ele>115.0</ele><time>2026-04-04T11:57:45.398Z</time></trkpt><trkpt lat="45.284983" lon="8.4769257"><ele>115.0</ele><time>2026-04-04T11:57:47.398Z</time></trkpt><trkpt lat="45.2848802" lon="8.476959"><ele>115.0</ele><time>2026-04-04T11:57:49.393Z</time></trkpt><trkpt lat="45.2847768" lon="8.4769931"><ele>115.0</ele><time>2026-04-04T11:57:51.389Z</time></trkpt><trkpt lat="45.2846724" lon="8.4770139"><ele>115.0</ele><time>2026-04-04T11:57:53.401Z</time></trkpt><trkpt lat="45.2845683" lon="8.4770352"><ele>115.0</ele><time>2026-04-04T11:57:55.395Z</time></trkpt><trkpt lat="45.2844628" lon="8.4770538"><ele>115.0</ele><time>2026-04-04T11:57:57.394Z</time></trkpt><trkpt lat="45.2843567" lon="8.4770745"><ele>115.0</ele><time>2026-04-04T11:57:59.391Z</time></trkpt><trkpt lat="45.2842528" lon="8.4771013"><ele>115.0</ele><time>2026-04-04T11:58:01.395Z</time></trkpt><trkpt lat="45.2841457" lon="8.4771212"><ele>115.0</ele><time>2026-04-04T11:58:03.401Z</time></trkpt><trkpt lat="45.28404" lon="8.4771446"><ele>115.4</ele><time>2026-04-04T11:58:05.398Z</time></trkpt><trkpt lat="45.2839293" lon="8.4771605"><ele>115.8</ele><time>2026-04-04T11:58:07.393Z</time></trkpt><trkpt lat="45.2838198" lon="8.4771811"><ele>116.19999999999999</ele><time>2026-04-04T11:58:09.391Z</time></trkpt><trkpt lat="45.2837091" lon="8.4772012"><ele>116.6</ele><time>2026-04-04T11:58:11.397Z</time></trkpt><trkpt lat="45.2835944" lon="8.4772199"><ele>117.0</ele><time>2026-04-04T11:58:13.4Z</time></trkpt><trkpt lat="45.2834868" lon="8.4772504"><ele>117.0</ele><time>2026-04-04T11:58:15.391Z</time></trkpt><trkpt lat="45.2833812" lon="8.4772789"><ele>116.99999999999999</ele><time>2026-04-04T11:58:17.404Z</time></trkpt><trkpt lat="45.2832744" lon="8.4773028"><ele>116.99999999999999</ele><time>2026-04-04T11:58:19.402Z</time></trkpt><trkpt lat="45.2831641" lon="8.4773309"><ele>117.0</ele><time>2026-04-04T11:58:21.395Z</time></trkpt><trkpt lat="45.2830547" lon="8.4773555"><ele>117.0</ele><time>2026-04-04T11:58:23.414Z</time></trkpt><trkpt lat="45.2829437" lon="8.4773674"><ele>117.39999999999999</ele><time>2026-04-04T11:58:25.396Z</time></trkpt><trkpt lat="45.2828422" lon="8.4773816"><ele>117.79999999999998</ele><time>2026-04-04T11:58:27.395Z</time></trkpt><trkpt lat="45.2827369" lon="8.4774037"><ele>118.2</ele><time>2026-04-04T11:58:29.404Z</time></trkpt><trkpt lat="45.2826423" lon="8.477421"><ele>118.6</ele><time>2026-04-04T11:58:31.398Z</time></trkpt><trkpt lat="45.2825407" lon="8.4774365"><ele>119.0</ele><time>2026-04-04T11:58:33.395Z</time></trkpt><trkpt lat="45.2824317" lon="8.4774548"><ele>119.0</ele><time>2026-04-04T11:58:35.398Z</time></trkpt><trkpt lat="45.2823313" lon="8.4774883"><ele>119.0</ele><time>2026-04-04T11:58:37.392Z</time></trkpt><trkpt lat="45.2822315" lon="8.4775181"><ele>119.0</ele><time>2026-04-04T11:58:39.395Z</time></trkpt><trkpt lat="45.2821344" lon="8.4775531"><ele>119.0</ele><time>2026-04-04T11:58:41.403Z</time></trkpt><trkpt lat="45.282042" lon="8.477573"><ele>119.0</ele><time>2026-04-04T11:58:43.396Z</time></trkpt><trkpt lat="45.2819559" lon="8.4776062"><ele>118.99999999999999</ele><time>2026-04-04T11:58:45.392Z</time></trkpt><trkpt lat="45.2818814" lon="8.477669"><ele>119.0</ele><time>2026-04-04T11:58:47.396Z</time></trkpt><trkpt lat="45.2818534" lon="8.4777753"><ele>119.0</ele><time>2026-04-04T11:58:49.399Z</time></trkpt><trkpt lat="45.2818812" lon="8.477893"><ele>119.0</ele><time>2026-04-04T11:58:51.397Z</time></trkpt><trkpt lat="45.2819007" lon="8.4780168"><ele>118.99999999999999</ele><time>2026-04-04T11:58:53.397Z</time></trkpt><trkpt lat="45.2819174" lon="8.4781498"><ele>119.0</ele><time>2026-04-04T11:58:55.402Z</time></trkpt><trkpt lat="45.2819358" lon="8.4782867"><ele>119.0</ele><time>2026-04-04T11:58:57.395Z</time></trkpt><trkpt lat="45.2819556" lon="8.4784333"><ele>119.0</ele><time>2026-04-04T11:58:59.397Z</time></trkpt><trkpt lat="45.2819848" lon="8.4785742"><ele>119.0</ele><time>2026-04-04T11:59:01.397Z</time></trkpt><trkpt lat="45.2819913" lon="8.4787192"><ele>119.0</ele><time>2026-04-04T11:59:03.406Z</time></trkpt><trkpt lat="45.2819954" lon="8.4788662"><ele>119.0</ele><time>2026-04-04T11:59:05.394Z</time></trkpt><trkpt lat="45.281992" lon="8.4790156"><ele>118.6</ele><time>2026-04-04T11:59:07.406Z</time></trkpt><trkpt lat="45.281984" lon="8.4791544"><ele>118.2</ele><time>2026-04-04T11:59:09.404Z</time></trkpt><trkpt lat="45.2819871" lon="8.479296"><ele>117.79999999999998</ele><time>2026-04-04T11:59:11.4Z</time></trkpt><trkpt lat="45.281971" lon="8.4794297"><ele>117.39999999999999</ele><time>2026-04-04T11:59:13.4Z</time></trkpt><trkpt lat="45.2819106" lon="8.4795365"><ele>117.0</ele><time>2026-04-04T11:59:15.409Z</time></trkpt><trkpt lat="45.2818212" lon="8.4795939"><ele>116.8</ele><time>2026-04-04T11:59:17.394Z</time></trkpt><trkpt lat="45.2817256" lon="8.4796759"><ele>116.6</ele><time>2026-04-04T11:59:19.39Z</time></trkpt><trkpt lat="45.2816361" lon="8.479766"><ele>116.39999999999999</ele><time>2026-04-04T11:59:21.396Z</time></trkpt><trkpt lat="45.2815643" lon="8.4798762"><ele>116.19999999999999</ele><time>2026-04-04T11:59:23.394Z</time></trkpt><trkpt lat="45.2814847" lon="8.4799946"><ele>116.0</ele><time>2026-04-04T11:59:25.393Z</time></trkpt><trkpt lat="45.2814008" lon="8.4800916"><ele>115.8</ele><time>2026-04-04T11:59:27.398Z</time></trkpt><trkpt lat="45.2813112" lon="8.4801754"><ele>115.6</ele><time>2026-04-04T11:59:29.398Z</time></trkpt><trkpt lat="45.2812262" lon="8.480262"><ele>115.4</ele><time>2026-04-04T11:59:31.401Z</time></trkpt><trkpt lat="45.2811424" lon="8.4803513"><ele>115.2</ele><time>2026-04-04T11:59:33.395Z</time></trkpt><trkpt lat="45.2810579" lon="8.4804336"><ele>115.0</ele><time>2026-04-04T11:59:35.402Z</time></trkpt><trkpt lat="45.2809792" lon="8.4805173"><ele>115.0</ele><time>2026-04-04T11:59:37.397Z</time></trkpt><trkpt lat="45.2809023" lon="8.4806009"><ele>115.0</ele><time>2026-04-04T11:59:39.395Z</time></trkpt><trkpt lat="45.280817" lon="8.4806849"><ele>115.0</ele><time>2026-04-04T11:59:41.396Z</time></trkpt><trkpt lat="45.2807366" lon="8.4807605"><ele>115.0</ele><time>2026-04-04T11:59:43.411Z</time></trkpt><trkpt lat="45.2806619" lon="8.4808467"><ele>115.0</ele><time>2026-04-04T11:59:45.4Z</time></trkpt><trkpt lat="45.2805896" lon="8.4809251"><ele>115.2</ele><time>2026-04-04T11:59:47.391Z</time></trkpt><trkpt lat="45.2805209" lon="8.4809974"><ele>115.4</ele><time>2026-04-04T11:59:49.395Z</time></trkpt><trkpt lat="45.2804494" lon="8.4810634"><ele>115.6</ele><time>2026-04-04T11:59:51.393Z</time></trkpt><trkpt lat="45.2803737" lon="8.4811447"><ele>115.8</ele><time>2026-04-04T11:59:53.392Z</time></trkpt><trkpt lat="45.2802951" lon="8.4812418"><ele>116.0</ele><time>2026-04-04T11:59:55.401Z</time></trkpt><trkpt lat="45.2802237" lon="8.4813413"><ele>116.0</ele><time>2026-04-04T11:59:57.403Z</time></trkpt><trkpt lat="45.2801557" lon="8.4814489"><ele>116.0</ele><time>2026-04-04T11:59:59.399Z</time></trkpt><trkpt lat="45.280083" lon="8.481559"><ele>116.0</ele><time>2026-04-04T12:00:01.397Z</time></trkpt><trkpt lat="45.2800132" lon="8.4816683"><ele>116.0</ele><time>2026-04-04T12:00:03.399Z</time></trkpt><trkpt lat="45.279947" lon="8.4817801"><ele>116.0</ele><time>2026-04-04T12:00:05.395Z</time></trkpt><trkpt lat="45.2798784" lon="8.4818889"><ele>116.0</ele><time>2026-04-04T12:00:07.402Z</time></trkpt><trkpt lat="45.279809" lon="8.4819992"><ele>116.0</ele><time>2026-04-04T12:00:09.399Z</time></trkpt><trkpt lat="45.2797458" lon="8.4821097"><ele>116.0</ele><time>2026-04-04T12:00:11.39Z</time></trkpt><trkpt lat="45.2796637" lon="8.4822089"><ele>116.0</ele><time>2026-04-04T12:00:13.402Z</time></trkpt><trkpt lat="45.2795701" lon="8.4822811"><ele>116.0</ele><time>2026-04-04T12:00:15.399Z</time></trkpt><trkpt lat="45.2794696" lon="8.4823296"><ele>115.6</ele><time>2026-04-04T12:00:17.399Z</time></trkpt><trkpt lat="45.2793691" lon="8.482354"><ele>115.19999999999999</ele><time>2026-04-04T12:00:19.398Z</time></trkpt><trkpt lat="45.2792706" lon="8.4823676"><ele>114.80000000000001</ele><time>2026-04-04T12:00:21.396Z</time></trkpt><trkpt lat="45.2791752" lon="8.4823839"><ele>114.4</ele><time>2026-04-04T12:00:23.393Z</time></trkpt><trkpt lat="45.2790788" lon="8.4824024"><ele>114.0</ele><time>2026-04-04T12:00:25.394Z</time></trkpt><trkpt lat="45.2789855" lon="8.4824385"><ele>114.0</ele><time>2026-04-04T12:00:27.393Z</time></trkpt><trkpt lat="45.278896" lon="8.4824501"><ele>114.0</ele><time>2026-04-04T12:00:29.408Z</time></trkpt><trkpt lat="45.2788168" lon="8.4824439"><ele>114.0</ele><time>2026-04-04T12:00:31.395Z</time></trkpt><trkpt lat="45.2787416" lon="8.4824439"><ele>114.0</ele><time>2026-04-04T12:00:34.4Z</time></trkpt><trkpt lat="45.2786745" lon="8.4824712"><ele>114.0</ele><time>2026-04-04T12:00:39.401Z</time></trkpt><trkpt lat="45.2786202" lon="8.4825329"><ele>114.0</ele><time>2026-04-04T12:00:41.395Z</time></trkpt><trkpt lat="45.278568" lon="8.4826133"><ele>114.0</ele><time>2026-04-04T12:00:43.394Z</time></trkpt><trkpt lat="45.2784948" lon="8.4826766"><ele>114.0</ele><time>2026-04-04T12:00:45.399Z</time></trkpt><trkpt lat="45.2784169" lon="8.4827599"><ele>114.0</ele><time>2026-04-04T12:00:47.406Z</time></trkpt><trkpt lat="45.2783354" lon="8.4828391"><ele>114.0</ele><time>2026-04-04T12:00:49.393Z</time></trkpt><trkpt lat="45.2782475" lon="8.4829155"><ele>114.0</ele><time>2026-04-04T12:00:51.397Z</time></trkpt><trkpt lat="45.2781613" lon="8.4829998"><ele>114.0</ele><time>2026-04-04T12:00:53.393Z</time></trkpt><trkpt lat="45.2780701" lon="8.483081"><ele>114.0</ele><time>2026-04-04T12:00:55.392Z</time></trkpt><trkpt lat="45.277974" lon="8.4831595"><ele>114.0</ele><time>2026-04-04T12:00:57.401Z</time></trkpt><trkpt lat="45.2778794" lon="8.483218"><ele>114.0</ele><time>2026-04-04T12:00:59.392Z</time></trkpt><trkpt lat="45.2777772" lon="8.4832756"><ele>114.0</ele><time>2026-04-04T12:01:01.398Z</time></trkpt><trkpt lat="45.2776708" lon="8.4833208"><ele>114.0</ele><time>2026-04-04T12:01:03.408Z</time></trkpt><trkpt lat="45.2775678" lon="8.4833674"><ele>114.0</ele><time>2026-04-04T12:01:05.396Z</time></trkpt><trkpt lat="45.2774656" lon="8.4834116"><ele>114.0</ele><time>2026-04-04T12:01:07.397Z</time></trkpt><trkpt lat="45.2773612" lon="8.4834467"><ele>114.0</ele><time>2026-04-04T12:01:09.405Z</time></trkpt><trkpt lat="45.2772508" lon="8.4834633"><ele>114.0</ele><time>2026-04-04T12:01:11.394Z</time></trkpt><trkpt lat="45.2771367" lon="8.4834547"><ele>113.80000000000001</ele><time>2026-04-04T12:01:13.401Z</time></trkpt><trkpt lat="45.2770287" lon="8.4834239"><ele>113.60000000000001</ele><time>2026-04-04T12:01:15.409Z</time></trkpt><trkpt lat="45.2769254" lon="8.4833633"><ele>113.4</ele><time>2026-04-04T12:01:17.402Z</time></trkpt><trkpt lat="45.2768213" lon="8.4833024"><ele>113.2</ele><time>2026-04-04T12:01:19.399Z</time></trkpt><trkpt lat="45.2767184" lon="8.4832478"><ele>113.0</ele><time>2026-04-04T12:01:21.398Z</time></trkpt><trkpt lat="45.2766157" lon="8.4831949"><ele>113.0</ele><time>2026-04-04T12:01:23.395Z</time></trkpt><trkpt lat="45.2765063" lon="8.4831548"><ele>113.0</ele><time>2026-04-04T12:01:25.402Z</time></trkpt><trkpt lat="45.2763936" lon="8.483132"><ele>113.0</ele><time>2026-04-04T12:01:27.402Z</time></trkpt><trkpt lat="45.2762781" lon="8.4831263"><ele>113.0</ele><time>2026-04-04T12:01:29.399Z</time></trkpt><trkpt lat="45.2761672" lon="8.4831208"><ele>113.0</ele><time>2026-04-04T12:01:31.398Z</time></trkpt><trkpt lat="45.2760542" lon="8.4831182"><ele>113.00000000000001</ele><time>2026-04-04T12:01:33.398Z</time></trkpt><trkpt lat="45.2759401" lon="8.4831159"><ele>113.00000000000001</ele><time>2026-04-04T12:01:35.409Z</time></trkpt><trkpt lat="45.2758322" lon="8.4831103"><ele>113.0</ele><time>2026-04-04T12:01:37.397Z</time></trkpt><trkpt lat="45.2757211" lon="8.483104"><ele>113.0</ele><time>2026-04-04T12:01:39.404Z</time></trkpt><trkpt lat="45.275614" lon="8.4830984"><ele>113.2</ele><time>2026-04-04T12:01:41.394Z</time></trkpt><trkpt lat="45.2755021" lon="8.483091"><ele>113.4</ele><time>2026-04-04T12:01:43.394Z</time></trkpt><trkpt lat="45.2753905" lon="8.4830832"><ele>113.60000000000001</ele><time>2026-04-04T12:01:45.396Z</time></trkpt><trkpt lat="45.2752798" lon="8.4830777"><ele>113.80000000000001</ele><time>2026-04-04T12:01:47.406Z</time></trkpt><trkpt lat="45.2751732" lon="8.4830653"><ele>114.0</ele><time>2026-04-04T12:01:49.407Z</time></trkpt><trkpt lat="45.2750681" lon="8.4830427"><ele>114.0</ele><time>2026-04-04T12:01:51.399Z</time></trkpt><trkpt lat="45.2749632" lon="8.4830142"><ele>114.0</ele><time>2026-04-04T12:01:53.402Z</time></trkpt><trkpt lat="45.274856" lon="8.4829818"><ele>114.0</ele><time>2026-04-04T12:01:55.393Z</time></trkpt><trkpt lat="45.2747523" lon="8.4829414"><ele>114.0</ele><time>2026-04-04T12:01:57.405Z</time></trkpt><trkpt lat="45.2746495" lon="8.4829066"><ele>114.0</ele><time>2026-04-04T12:01:59.393Z</time></trkpt><trkpt lat="45.2745462" lon="8.482877"><ele>114.0</ele><time>2026-04-04T12:02:01.406Z</time></trkpt><trkpt lat="45.2744386" lon="8.4828552"><ele>114.0</ele><time>2026-04-04T12:02:03.395Z</time></trkpt><trkpt lat="45.2743273" lon="8.4828494"><ele>114.0</ele><time>2026-04-04T12:02:05.397Z</time></trkpt><trkpt lat="45.2742147" lon="8.482843"><ele>114.0</ele><time>2026-04-04T12:02:07.407Z</time></trkpt><trkpt lat="45.2741101" lon="8.4828404"><ele>114.0</ele><time>2026-04-04T12:02:09.4Z</time></trkpt><trkpt lat="45.2740052" lon="8.4828339"><ele>114.2</ele><time>2026-04-04T12:02:11.409Z</time></trkpt><trkpt lat="45.2738976" lon="8.4828236"><ele>114.4</ele><time>2026-04-04T12:02:13.405Z</time></trkpt><trkpt lat="45.2737971" lon="8.4828187"><ele>114.6</ele><time>2026-04-04T12:02:15.409Z</time></trkpt><trkpt lat="45.2736918" lon="8.4828147"><ele>114.8</ele><time>2026-04-04T12:02:17.404Z</time></trkpt><trkpt lat="45.2735851" lon="8.4828077"><ele>115.0</ele><time>2026-04-04T12:02:19.395Z</time></trkpt><trkpt lat="45.2734766" lon="8.4828049"><ele>115.0</ele><time>2026-04-04T12:02:21.406Z</time></trkpt><trkpt lat="45.2733706" lon="8.4828016"><ele>115.0</ele><time>2026-04-04T12:02:23.403Z</time></trkpt><trkpt lat="45.2732715" lon="8.4827969"><ele>115.0</ele><time>2026-04-04T12:02:25.408Z</time></trkpt><trkpt lat="45.2731705" lon="8.4827894"><ele>115.0</ele><time>2026-04-04T12:02:27.398Z</time></trkpt><trkpt lat="45.273068" lon="8.482784"><ele>115.0</ele><time>2026-04-04T12:02:29.398Z</time></trkpt><trkpt lat="45.2729675" lon="8.4827793"><ele>114.6</ele><time>2026-04-04T12:02:31.407Z</time></trkpt><trkpt lat="45.2728642" lon="8.4827691"><ele>114.2</ele><time>2026-04-04T12:02:33.396Z</time></trkpt><trkpt lat="45.272756" lon="8.482765"><ele>113.80000000000001</ele><time>2026-04-04T12:02:35.405Z</time></trkpt><trkpt lat="45.2726503" lon="8.4827568"><ele>113.4</ele><time>2026-04-04T12:02:37.393Z</time></trkpt><trkpt lat="45.2725437" lon="8.4827539"><ele>113.0</ele><time>2026-04-04T12:02:39.397Z</time></trkpt><trkpt lat="45.2724367" lon="8.4827482"><ele>113.0</ele><time>2026-04-04T12:02:41.393Z</time></trkpt><trkpt lat="45.2723311" lon="8.4827459"><ele>113.00000000000001</ele><time>2026-04-04T12:02:43.399Z</time></trkpt><trkpt lat="45.2722183" lon="8.4827459"><ele>113.00000000000001</ele><time>2026-04-04T12:02:45.4Z</time></trkpt><trkpt lat="45.2721055" lon="8.4827402"><ele>113.0</ele><time>2026-04-04T12:02:47.4Z</time></trkpt><trkpt lat="45.2719949" lon="8.4827366"><ele>113.0</ele><time>2026-04-04T12:02:49.403Z</time></trkpt><trkpt lat="45.2718815" lon="8.4827275"><ele>113.0</ele><time>2026-04-04T12:02:51.395Z</time></trkpt><trkpt lat="45.2717674" lon="8.4827152"><ele>113.00000000000001</ele><time>2026-04-04T12:02:53.398Z</time></trkpt><trkpt lat="45.2716545" lon="8.4827105"><ele>113.00000000000001</ele><time>2026-04-04T12:02:55.399Z</time></trkpt><trkpt lat="45.2715478" lon="8.4827053"><ele>113.0</ele><time>2026-04-04T12:02:57.404Z</time></trkpt><trkpt lat="45.2714333" lon="8.4827002"><ele>113.0</ele><time>2026-04-04T12:02:59.395Z</time></trkpt><trkpt lat="45.2713224" lon="8.4827009"><ele>113.2</ele><time>2026-04-04T12:03:01.404Z</time></trkpt><trkpt lat="45.2712121" lon="8.4827024"><ele>113.4</ele><time>2026-04-04T12:03:03.394Z</time></trkpt><trkpt lat="45.2711058" lon="8.4827065"><ele>113.60000000000001</ele><time>2026-04-04T12:03:05.396Z</time></trkpt><trkpt lat="45.270998" lon="8.4827009"><ele>113.80000000000001</ele><time>2026-04-04T12:03:07.393Z</time></trkpt><trkpt lat="45.2708921" lon="8.4826992"><ele>114.0</ele><time>2026-04-04T12:03:09.404Z</time></trkpt><trkpt lat="45.2707846" lon="8.482684"><ele>114.0</ele><time>2026-04-04T12:03:11.395Z</time></trkpt><trkpt lat="45.2706783" lon="8.4826797"><ele>114.0</ele><time>2026-04-04T12:03:13.41Z</time></trkpt><trkpt lat="45.2705755" lon="8.4826682"><ele>114.0</ele><time>2026-04-04T12:03:15.392Z</time></trkpt><trkpt lat="45.270467" lon="8.4826617"><ele>114.0</ele><time>2026-04-04T12:03:17.397Z</time></trkpt><trkpt lat="45.2703613" lon="8.482646"><ele>114.0</ele><time>2026-04-04T12:03:19.395Z</time></trkpt><trkpt lat="45.270254" lon="8.4826245"><ele>114.0</ele><time>2026-04-04T12:03:21.405Z</time></trkpt><trkpt lat="45.2701393" lon="8.4826049"><ele>114.0</ele><time>2026-04-04T12:03:23.404Z</time></trkpt><trkpt lat="45.2700301" lon="8.482579"><ele>114.0</ele><time>2026-04-04T12:03:25.401Z</time></trkpt><trkpt lat="45.2699235" lon="8.4825582"><ele>114.0</ele><time>2026-04-04T12:03:27.397Z</time></trkpt><trkpt lat="45.2698246" lon="8.4825321"><ele>114.0</ele><time>2026-04-04T12:03:29.394Z</time></trkpt><trkpt lat="45.269722" lon="8.4825213"><ele>114.0</ele><time>2026-04-04T12:03:31.393Z</time></trkpt><trkpt lat="45.2696195" lon="8.4825286"><ele>114.0</ele><time>2026-04-04T12:03:33.403Z</time></trkpt><trkpt lat="45.269518" lon="8.4825491"><ele>114.0</ele><time>2026-04-04T12:03:35.397Z</time></trkpt><trkpt lat="45.2694227" lon="8.4825833"><ele>114.0</ele><time>2026-04-04T12:03:37.398Z</time></trkpt><trkpt lat="45.2693265" lon="8.4826212"><ele>114.0</ele><time>2026-04-04T12:03:39.399Z</time></trkpt><trkpt lat="45.2692301" lon="8.4826667"><ele>114.0</ele><time>2026-04-04T12:03:41.395Z</time></trkpt><trkpt lat="45.2691325" lon="8.4827184"><ele>114.0</ele><time>2026-04-04T12:03:43.395Z</time></trkpt><trkpt lat="45.2690315" lon="8.4827626"><ele>114.0</ele><time>2026-04-04T12:03:45.398Z</time></trkpt><trkpt lat="45.268928" lon="8.4828069"><ele>114.0</ele><time>2026-04-04T12:03:47.397Z</time></trkpt><trkpt lat="45.268825" lon="8.4828476"><ele>114.0</ele><time>2026-04-04T12:03:49.396Z</time></trkpt><trkpt lat="45.2687216" lon="8.4828848"><ele>113.80000000000001</ele><time>2026-04-04T12:03:51.4Z</time></trkpt><trkpt lat="45.2686203" lon="8.482937"><ele>113.60000000000001</ele><time>2026-04-04T12:03:53.394Z</time></trkpt><trkpt lat="45.2685186" lon="8.4829852"><ele>113.4</ele><time>2026-04-04T12:03:55.402Z</time></trkpt><trkpt lat="45.2684202" lon="8.4830515"><ele>113.2</ele><time>2026-04-04T12:03:57.397Z</time></trkpt><trkpt lat="45.2683245" lon="8.4831272"><ele>113.0</ele><time>2026-04-04T12:03:59.397Z</time></trkpt><trkpt lat="45.2682285" lon="8.483205"><ele>113.0</ele><time>2026-04-04T12:04:01.399Z</time></trkpt><trkpt lat="45.2681371" lon="8.483287"><ele>113.00000000000001</ele><time>2026-04-04T12:04:03.401Z</time></trkpt><trkpt lat="45.2680415" lon="8.4833649"><ele>113.00000000000001</ele><time>2026-04-04T12:04:05.394Z</time></trkpt><trkpt lat="45.2679496" lon="8.4834444"><ele>113.0</ele><time>2026-04-04T12:04:07.393Z</time></trkpt><trkpt lat="45.267858" lon="8.4835273"><ele>113.0</ele><time>2026-04-04T12:04:09.403Z</time></trkpt><trkpt lat="45.2677692" lon="8.4836092"><ele>113.2</ele><time>2026-04-04T12:04:11.401Z</time></trkpt><trkpt lat="45.2676818" lon="8.4836975"><ele>113.4</ele><time>2026-04-04T12:04:13.396Z</time></trkpt><trkpt lat="45.267603" lon="8.483806"><ele>113.60000000000001</ele><time>2026-04-04T12:04:15.392Z</time></trkpt><trkpt lat="45.267525" lon="8.4839146"><ele>113.80000000000001</ele><time>2026-04-04T12:04:17.4Z</time></trkpt><trkpt lat="45.2674441" lon="8.484027"><ele>114.0</ele><time>2026-04-04T12:04:19.408Z</time></trkpt><trkpt lat="45.2673631" lon="8.4841392"><ele>114.0</ele><time>2026-04-04T12:04:21.398Z</time></trkpt><trkpt lat="45.2672841" lon="8.4842505"><ele>114.0</ele><time>2026-04-04T12:04:23.398Z</time></trkpt><trkpt lat="45.267202" lon="8.4843587"><ele>114.0</ele><time>2026-04-04T12:04:25.408Z</time></trkpt><trkpt lat="45.2671179" lon="8.4844498"><ele>114.0</ele><time>2026-04-04T12:04:27.404Z</time></trkpt><trkpt lat="45.2670281" lon="8.4845381"><ele>114.0</ele><time>2026-04-04T12:04:29.396Z</time></trkpt><trkpt lat="45.2669587" lon="8.4846428"><ele>114.2</ele><time>2026-04-04T12:04:31.41Z</time></trkpt><trkpt lat="45.2668759" lon="8.4847366"><ele>114.4</ele><time>2026-04-04T12:04:33.403Z</time></trkpt><trkpt lat="45.2667973" lon="8.4848352"><ele>114.6</ele><time>2026-04-04T12:04:35.408Z</time></trkpt><trkpt lat="45.2667156" lon="8.4849435"><ele>114.8</ele><time>2026-04-04T12:04:37.41Z</time></trkpt><trkpt lat="45.2666349" lon="8.4850604"><ele>115.0</ele><time>2026-04-04T12:04:39.4Z</time></trkpt><trkpt lat="45.2665587" lon="8.4851743"><ele>115.0</ele><time>2026-04-04T12:04:41.395Z</time></trkpt><trkpt lat="45.2664744" lon="8.4852908"><ele>115.0</ele><time>2026-04-04T12:04:43.407Z</time></trkpt><trkpt lat="45.2663961" lon="8.4854024"><ele>115.0</ele><time>2026-04-04T12:04:45.393Z</time></trkpt><trkpt lat="45.2663109" lon="8.4855119"><ele>115.0</ele><time>2026-04-04T12:04:47.398Z</time></trkpt><trkpt lat="45.2662259" lon="8.4856109"><ele>115.0</ele><time>2026-04-04T12:04:49.397Z</time></trkpt><trkpt lat="45.2661356" lon="8.4857014"><ele>115.0</ele><time>2026-04-04T12:04:51.404Z</time></trkpt><trkpt lat="45.2660454" lon="8.4857953"><ele>115.0</ele><time>2026-04-04T12:04:53.394Z</time></trkpt><trkpt lat="45.265956" lon="8.4858854"><ele>115.0</ele><time>2026-04-04T12:04:55.398Z</time></trkpt><trkpt lat="45.2658546" lon="8.4859695"><ele>115.0</ele><time>2026-04-04T12:04:57.392Z</time></trkpt><trkpt lat="45.2657483" lon="8.4860457"><ele>115.0</ele><time>2026-04-04T12:04:59.401Z</time></trkpt><trkpt lat="45.2656455" lon="8.4861239"><ele>115.0</ele><time>2026-04-04T12:05:01.397Z</time></trkpt><trkpt lat="45.2655435" lon="8.4861979"><ele>115.0</ele><time>2026-04-04T12:05:03.4Z</time></trkpt><trkpt lat="45.2654393" lon="8.4862779"><ele>115.0</ele><time>2026-04-04T12:05:05.398Z</time></trkpt><trkpt lat="45.2653331" lon="8.4863662"><ele>115.0</ele><time>2026-04-04T12:05:07.399Z</time></trkpt><trkpt lat="45.2652301" lon="8.4864449"><ele>115.0</ele><time>2026-04-04T12:05:09.402Z</time></trkpt><trkpt lat="45.265125" lon="8.4865301"><ele>115.0</ele><time>2026-04-04T12:05:11.397Z</time></trkpt><trkpt lat="45.2650235" lon="8.4866107"><ele>115.0</ele><time>2026-04-04T12:05:13.398Z</time></trkpt><trkpt lat="45.2649251" lon="8.4866818"><ele>115.0</ele><time>2026-04-04T12:05:15.4Z</time></trkpt><trkpt lat="45.2648267" lon="8.4867612"><ele>115.0</ele><time>2026-04-04T12:05:17.399Z</time></trkpt><trkpt lat="45.2647233" lon="8.486838"><ele>115.0</ele><time>2026-04-04T12:05:19.399Z</time></trkpt><trkpt lat="45.2646249" lon="8.4869127"><ele>115.0</ele><time>2026-04-04T12:05:21.406Z</time></trkpt><trkpt lat="45.2645246" lon="8.4869785"><ele>115.0</ele><time>2026-04-04T12:05:23.407Z</time></trkpt><trkpt lat="45.2644303" lon="8.4870489"><ele>115.0</ele><time>2026-04-04T12:05:25.394Z</time></trkpt><trkpt lat="45.2643344" lon="8.4871226"><ele>115.0</ele><time>2026-04-04T12:05:27.405Z</time></trkpt><trkpt lat="45.2642411" lon="8.4872008"><ele>115.0</ele><time>2026-04-04T12:05:29.395Z</time></trkpt><trkpt lat="45.2641519" lon="8.4872807"><ele>115.0</ele><time>2026-04-04T12:05:31.399Z</time></trkpt><trkpt lat="45.2640642" lon="8.4873697"><ele>115.0</ele><time>2026-04-04T12:05:33.394Z</time></trkpt><trkpt lat="45.2639855" lon="8.4874685"><ele>115.0</ele><time>2026-04-04T12:05:35.402Z</time></trkpt><trkpt lat="45.2639074" lon="8.487567"><ele>115.0</ele><time>2026-04-04T12:05:37.395Z</time></trkpt><trkpt lat="45.2638269" lon="8.4876707"><ele>115.0</ele><time>2026-04-04T12:05:39.404Z</time></trkpt><trkpt lat="45.2637421" lon="8.4877601"><ele>115.0</ele><time>2026-04-04T12:05:41.4Z</time></trkpt><trkpt lat="45.2636691" lon="8.4878764"><ele>115.0</ele><time>2026-04-04T12:05:43.395Z</time></trkpt><trkpt lat="45.2636002" lon="8.4879923"><ele>115.0</ele><time>2026-04-04T12:05:45.393Z</time></trkpt><trkpt lat="45.2635299" lon="8.4881051"><ele>115.0</ele><time>2026-04-04T12:05:47.395Z</time></trkpt><trkpt lat="45.2634731" lon="8.4882208"><ele>115.0</ele><time>2026-04-04T12:05:49.391Z</time></trkpt><trkpt lat="45.2634015" lon="8.4883305"><ele>115.0</ele><time>2026-04-04T12:05:51.397Z</time></trkpt><trkpt lat="45.263334" lon="8.4884334"><ele>115.0</ele><time>2026-04-04T12:05:53.399Z</time></trkpt><trkpt lat="45.2632583" lon="8.4885524"><ele>115.0</ele><time>2026-04-04T12:05:55.398Z</time></trkpt><trkpt lat="45.263178" lon="8.4886656"><ele>115.0</ele><time>2026-04-04T12:05:57.396Z</time></trkpt><trkpt lat="45.2630969" lon="8.4887718"><ele>115.0</ele><time>2026-04-04T12:05:59.402Z</time></trkpt><trkpt lat="45.2630175" lon="8.4888772"><ele>115.0</ele><time>2026-04-04T12:06:01.405Z</time></trkpt><trkpt lat="45.2629539" lon="8.4889582"><ele>115.0</ele><time>2026-04-04T12:06:03.404Z</time></trkpt><trkpt lat="45.2628814" lon="8.4889215"><ele>115.0</ele><time>2026-04-04T12:06:06.404Z</time></trkpt><trkpt lat="45.262831" lon="8.4888236"><ele>115.0</ele><time>2026-04-04T12:06:08.397Z</time></trkpt><trkpt lat="45.2627743" lon="8.4887278"><ele>115.0</ele><time>2026-04-04T12:06:10.39Z</time></trkpt><trkpt lat="45.2627074" lon="8.4886185"><ele>115.0</ele><time>2026-04-04T12:06:12.402Z</time></trkpt><trkpt lat="45.262638" lon="8.4885105"><ele>115.0</ele><time>2026-04-04T12:06:14.397Z</time></trkpt><trkpt lat="45.26257" lon="8.4883915"><ele>115.0</ele><time>2026-04-04T12:06:16.396Z</time></trkpt><trkpt lat="45.2624966" lon="8.4882762"><ele>115.0</ele><time>2026-04-04T12:06:18.395Z</time></trkpt><trkpt lat="45.2624288" lon="8.4881534"><ele>115.0</ele><time>2026-04-04T12:06:20.395Z</time></trkpt><trkpt lat="45.2623653" lon="8.488035"><ele>115.0</ele><time>2026-04-04T12:06:22.394Z</time></trkpt><trkpt lat="45.2623179" lon="8.4878972"><ele>115.0</ele><time>2026-04-04T12:06:24.396Z</time></trkpt><trkpt lat="45.2622841" lon="8.4877614"><ele>115.0</ele><time>2026-04-04T12:06:26.401Z</time></trkpt><trkpt lat="45.2622729" lon="8.4876242"><ele>115.0</ele><time>2026-04-04T12:06:28.395Z</time></trkpt><trkpt lat="45.2622703" lon="8.4874791"><ele>115.0</ele><time>2026-04-04T12:06:30.395Z</time></trkpt><trkpt lat="45.2623017" lon="8.4873383"><ele>115.0</ele><time>2026-04-04T12:06:32.398Z</time></trkpt><trkpt lat="45.2623586" lon="8.4872328"><ele>115.0</ele><time>2026-04-04T12:06:34.393Z</time></trkpt><trkpt lat="45.2624434" lon="8.4871451"><ele>115.0</ele><time>2026-04-04T12:06:36.396Z</time></trkpt><trkpt lat="45.2625242" lon="8.487057"><ele>115.0</ele><time>2026-04-04T12:06:38.395Z</time></trkpt><trkpt lat="45.2625506" lon="8.4869208"><ele>115.0</ele><time>2026-04-04T12:06:40.392Z</time></trkpt><trkpt lat="45.2625197" lon="8.4867861"><ele>115.0</ele><time>2026-04-04T12:06:42.396Z</time></trkpt><trkpt lat="45.2624583" lon="8.4866584"><ele>115.0</ele><time>2026-04-04T12:06:44.391Z</time></trkpt><trkpt lat="45.2624052" lon="8.4865337"><ele>115.0</ele><time>2026-04-04T12:06:46.4Z</time></trkpt><trkpt lat="45.2623487" lon="8.4864029"><ele>115.0</ele><time>2026-04-04T12:06:48.396Z</time></trkpt><trkpt lat="45.2623015" lon="8.486279"><ele>115.0</ele><time>2026-04-04T12:06:50.395Z</time></trkpt><trkpt lat="45.2622538" lon="8.486145"><ele>115.0</ele><time>2026-04-04T12:06:52.392Z</time></trkpt><trkpt lat="45.262224" lon="8.4860103"><ele>115.0</ele><time>2026-04-04T12:06:54.39Z</time></trkpt><trkpt lat="45.2622059" lon="8.4858582"><ele>115.0</ele><time>2026-04-04T12:06:56.401Z</time></trkpt><trkpt lat="45.2621885" lon="8.4857049"><ele>115.0</ele><time>2026-04-04T12:06:58.397Z</time></trkpt><trkpt lat="45.2621702" lon="8.485568"><ele>115.0</ele><time>2026-04-04T12:07:00.392Z</time></trkpt><trkpt lat="45.2621536" lon="8.4854339"><ele>115.0</ele><time>2026-04-04T12:07:02.399Z</time></trkpt><trkpt lat="45.2621353" lon="8.4852965"><ele>115.2</ele><time>2026-04-04T12:07:04.391Z</time></trkpt><trkpt lat="45.2621172" lon="8.4851672"><ele>115.4</ele><time>2026-04-04T12:07:06.399Z</time></trkpt><trkpt lat="45.2620958" lon="8.4850376"><ele>115.6</ele><time>2026-04-04T12:07:08.4Z</time></trkpt><trkpt lat="45.2620711" lon="8.4849051"><ele>115.8</ele><time>2026-04-04T12:07:10.393Z</time></trkpt><trkpt lat="45.2620488" lon="8.484775"><ele>116.0</ele><time>2026-04-04T12:07:12.405Z</time></trkpt><trkpt lat="45.2620148" lon="8.4846333"><ele>116.19999999999999</ele><time>2026-04-04T12:07:14.408Z</time></trkpt><trkpt lat="45.2619814" lon="8.4844859"><ele>116.39999999999999</ele><time>2026-04-04T12:07:16.397Z</time></trkpt><trkpt lat="45.2619354" lon="8.4843338"><ele>116.6</ele><time>2026-04-04T12:07:18.402Z</time></trkpt><trkpt lat="45.2618993" lon="8.484196"><ele>116.8</ele><time>2026-04-04T12:07:20.409Z</time></trkpt><trkpt lat="45.2618631" lon="8.4840605"><ele>117.0</ele><time>2026-04-04T12:07:22.397Z</time></trkpt><trkpt lat="45.261826" lon="8.4839223"><ele>117.0</ele><time>2026-04-04T12:07:24.402Z</time></trkpt><trkpt lat="45.2617906" lon="8.4837956"><ele>116.99999999999999</ele><time>2026-04-04T12:07:26.395Z</time></trkpt><trkpt lat="45.2617491" lon="8.4836672"><ele>116.99999999999999</ele><time>2026-04-04T12:07:28.389Z</time></trkpt><trkpt lat="45.2617052" lon="8.4835385"><ele>117.0</ele><time>2026-04-04T12:07:30.394Z</time></trkpt><trkpt lat="45.2616543" lon="8.4834098"><ele>117.0</ele><time>2026-04-04T12:07:32.394Z</time></trkpt><trkpt lat="45.2615987" lon="8.4833014"><ele>117.16666666666667</ele><time>2026-04-04T12:07:34.394Z</time></trkpt><trkpt lat="45.261559" lon="8.4831999"><ele>117.33333333333334</ele><time>2026-04-04T12:07:36.398Z</time></trkpt><trkpt lat="45.2615213" lon="8.483088"><ele>117.5</ele><time>2026-04-04T12:07:38.394Z</time></trkpt><trkpt lat="45.2614803" lon="8.4829857"><ele>117.66666666666667</ele><time>2026-04-04T12:07:40.391Z</time></trkpt><trkpt lat="45.261439" lon="8.4828904"><ele>117.83333333333334</ele><time>2026-04-04T12:07:42.39Z</time></trkpt><trkpt lat="45.2613944" lon="8.4828063"><ele>118.0</ele><time>2026-04-04T12:07:44.401Z</time></trkpt><trkpt lat="45.2613516" lon="8.4827234"><ele>118.42857142857142</ele><time>2026-04-04T12:07:46.394Z</time></trkpt><trkpt lat="45.2613144" lon="8.4826391"><ele>118.85714285714286</ele><time>2026-04-04T12:07:48.394Z</time></trkpt><trkpt lat="45.2612876" lon="8.482557"><ele>119.28571428571428</ele><time>2026-04-04T12:07:50.397Z</time></trkpt><trkpt lat="45.261266" lon="8.4824694"><ele>119.71428571428571</ele><time>2026-04-04T12:07:52.4Z</time></trkpt><trkpt lat="45.2612486" lon="8.4823833"><ele>120.14285714285714</ele><time>2026-04-04T12:07:54.391Z</time></trkpt><trkpt lat="45.2612359" lon="8.4822784"><ele>120.57142857142857</ele><time>2026-04-04T12:07:56.395Z</time></trkpt><trkpt lat="45.261228" lon="8.4821607"><ele>121.0</ele><time>2026-04-04T12:07:58.392Z</time></trkpt><trkpt lat="45.2612266" lon="8.4820452"><ele>121.00000000000001</ele><time>2026-04-04T12:08:00.392Z</time></trkpt><trkpt lat="45.261232" lon="8.4819331"><ele>121.0</ele><time>2026-04-04T12:08:02.401Z</time></trkpt><trkpt lat="45.261238" lon="8.48183"><ele>121.0</ele><time>2026-04-04T12:08:04.395Z</time></trkpt><trkpt lat="45.2612365" lon="8.4817104"><ele>121.0</ele><time>2026-04-04T12:08:06.398Z</time></trkpt><trkpt lat="45.2612351" lon="8.4815952"><ele>121.00000000000001</ele><time>2026-04-04T12:08:08.391Z</time></trkpt><trkpt lat="45.2612305" lon="8.481479"><ele>121.0</ele><time>2026-04-04T12:08:10.393Z</time></trkpt><trkpt lat="45.2612245" lon="8.4813595"><ele>121.19999999999999</ele><time>2026-04-04T12:08:12.396Z</time></trkpt><trkpt lat="45.2612177" lon="8.481238"><ele>121.39999999999999</ele><time>2026-04-04T12:08:14.392Z</time></trkpt><trkpt lat="45.2612123" lon="8.4811081"><ele>121.6</ele><time>2026-04-04T12:08:16.396Z</time></trkpt><trkpt lat="45.2611968" lon="8.4809713"><ele>121.8</ele><time>2026-04-04T12:08:18.404Z</time></trkpt><trkpt lat="45.261186" lon="8.4808424"><ele>122.0</ele><time>2026-04-04T12:08:20.398Z</time></trkpt><trkpt lat="45.2611832" lon="8.4807141"><ele>122.0</ele><time>2026-04-04T12:08:22.392Z</time></trkpt><trkpt lat="45.2611729" lon="8.4805696"><ele>121.99999999999999</ele><time>2026-04-04T12:08:24.398Z</time></trkpt><trkpt lat="45.2611576" lon="8.4804417"><ele>121.99999999999999</ele><time>2026-04-04T12:08:26.401Z</time></trkpt><trkpt lat="45.2611414" lon="8.4803151"><ele>122.0</ele><time>2026-04-04T12:08:28.405Z</time></trkpt><trkpt lat="45.2611172" lon="8.4801798"><ele>122.0</ele><time>2026-04-04T12:08:30.402Z</time></trkpt><trkpt lat="45.2610995" lon="8.4800449"><ele>122.0</ele><time>2026-04-04T12:08:32.397Z</time></trkpt><trkpt lat="45.2610768" lon="8.4799138"><ele>121.99999999999999</ele><time>2026-04-04T12:08:34.399Z</time></trkpt><trkpt lat="45.2610567" lon="8.4797801"><ele>121.99999999999999</ele><time>2026-04-04T12:08:36.398Z</time></trkpt><trkpt lat="45.2610354" lon="8.4796557"><ele>122.0</ele><time>2026-04-04T12:08:38.403Z</time></trkpt><trkpt lat="45.2610137" lon="8.4795259"><ele>122.0</ele><time>2026-04-04T12:08:40.393Z</time></trkpt><trkpt lat="45.2609875" lon="8.4793972"><ele>122.0</ele><time>2026-04-04T12:08:42.399Z</time></trkpt><trkpt lat="45.2609599" lon="8.4792652"><ele>121.99999999999999</ele><time>2026-04-04T12:08:44.402Z</time></trkpt><trkpt lat="45.2609316" lon="8.4791347"><ele>121.99999999999999</ele><time>2026-04-04T12:08:46.397Z</time></trkpt><trkpt lat="45.2609078" lon="8.4790139"><ele>122.0</ele><time>2026-04-04T12:08:48.402Z</time></trkpt><trkpt lat="45.2608782" lon="8.4788953"><ele>122.0</ele><time>2026-04-04T12:08:50.4Z</time></trkpt><trkpt lat="45.2608517" lon="8.4787714"><ele>121.8</ele><time>2026-04-04T12:08:52.393Z</time></trkpt><trkpt lat="45.2608195" lon="8.4786476"><ele>121.6</ele><time>2026-04-04T12:08:54.394Z</time></trkpt><trkpt lat="45.260757" lon="8.4785599"><ele>121.39999999999999</ele><time>2026-04-04T12:08:56.398Z</time></trkpt><trkpt lat="45.2606574" lon="8.4785604"><ele>121.19999999999999</ele><time>2026-04-04T12:08:58.394Z</time></trkpt><trkpt lat="45.2605654" lon="8.4785591"><ele>121.0</ele><time>2026-04-04T12:09:00.401Z</time></trkpt><trkpt lat="45.2604737" lon="8.4785687"><ele>121.4</ele><time>2026-04-04T12:09:02.395Z</time></trkpt><trkpt lat="45.2603795" lon="8.478587"><ele>121.8</ele><time>2026-04-04T12:09:04.394Z</time></trkpt><trkpt lat="45.2602864" lon="8.4786067"><ele>122.20000000000002</ele><time>2026-04-04T12:09:06.391Z</time></trkpt><trkpt lat="45.2601888" lon="8.4786297"><ele>122.60000000000001</ele><time>2026-04-04T12:09:08.396Z</time></trkpt><trkpt lat="45.2600922" lon="8.4786504"><ele>123.0</ele><time>2026-04-04T12:09:10.399Z</time></trkpt><trkpt lat="45.2599958" lon="8.478669"><ele>123.0</ele><time>2026-04-04T12:09:12.404Z</time></trkpt><trkpt lat="45.2598969" lon="8.4786893"><ele>123.00000000000001</ele><time>2026-04-04T12:09:14.405Z</time></trkpt><trkpt lat="45.259801" lon="8.4787066"><ele>123.00000000000001</ele><time>2026-04-04T12:09:16.394Z</time></trkpt><trkpt lat="45.2597026" lon="8.4787277"><ele>123.0</ele><time>2026-04-04T12:09:18.391Z</time></trkpt><trkpt lat="45.2596042" lon="8.4787366"><ele>123.0</ele><time>2026-04-04T12:09:20.392Z</time></trkpt><trkpt lat="45.2595053" lon="8.4787552"><ele>122.80000000000001</ele><time>2026-04-04T12:09:22.396Z</time></trkpt><trkpt lat="45.2594105" lon="8.4787743"><ele>122.60000000000001</ele><time>2026-04-04T12:09:24.402Z</time></trkpt><trkpt lat="45.2593152" lon="8.4788098"><ele>122.39999999999999</ele><time>2026-04-04T12:09:26.4Z</time></trkpt><trkpt lat="45.2592209" lon="8.4788558"><ele>122.19999999999999</ele><time>2026-04-04T12:09:28.397Z</time></trkpt><trkpt lat="45.2591324" lon="8.4788958"><ele>122.0</ele><time>2026-04-04T12:09:30.403Z</time></trkpt><trkpt lat="45.2590405" lon="8.4789585"><ele>122.0</ele><time>2026-04-04T12:09:32.391Z</time></trkpt><trkpt lat="45.2589523" lon="8.4790242"><ele>121.99999999999999</ele><time>2026-04-04T12:09:34.392Z</time></trkpt><trkpt lat="45.2588619" lon="8.4790929"><ele>121.99999999999999</ele><time>2026-04-04T12:09:36.397Z</time></trkpt><trkpt lat="45.258769" lon="8.479163"><ele>122.0</ele><time>2026-04-04T12:09:38.399Z</time></trkpt><trkpt lat="45.2586761" lon="8.4792293"><ele>122.0</ele><time>2026-04-04T12:09:40.398Z</time></trkpt><trkpt lat="45.2585815" lon="8.4792912"><ele>121.39999999999999</ele><time>2026-04-04T12:09:42.389Z</time></trkpt><trkpt lat="45.2584873" lon="8.4793641"><ele>120.79999999999998</ele><time>2026-04-04T12:09:44.401Z</time></trkpt><trkpt lat="45.2583933" lon="8.4794255"><ele>120.2</ele><time>2026-04-04T12:09:46.413Z</time></trkpt><trkpt lat="45.258302" lon="8.4794895"><ele>119.6</ele><time>2026-04-04T12:09:48.394Z</time></trkpt><trkpt lat="45.2582136" lon="8.4795524"><ele>119.0</ele><time>2026-04-04T12:09:50.397Z</time></trkpt><trkpt lat="45.258137" lon="8.4795977"><ele>118.99999999999999</ele><time>2026-04-04T12:09:52.393Z</time></trkpt><trkpt lat="45.2580633" lon="8.4795807"><ele>119.0</ele><time>2026-04-04T12:09:55.4Z</time></trkpt><trkpt lat="45.2580573" lon="8.4794845"><ele>119.0</ele><time>2026-04-04T12:09:58.396Z</time></trkpt><trkpt lat="45.2580673" lon="8.4793818"><ele>119.0</ele><time>2026-04-04T12:10:00.398Z</time></trkpt><trkpt lat="45.2581003" lon="8.479254"><ele>118.99999999999999</ele><time>2026-04-04T12:10:02.394Z</time></trkpt><trkpt lat="45.2581218" lon="8.4791292"><ele>119.0</ele><time>2026-04-04T12:10:04.393Z</time></trkpt><trkpt lat="45.258144" lon="8.4789968"><ele>119.0</ele><time>2026-04-04T12:10:06.4Z</time></trkpt><trkpt lat="45.2581673" lon="8.4788618"><ele>119.0</ele><time>2026-04-04T12:10:08.4Z</time></trkpt><trkpt lat="45.2581904" lon="8.4787311"><ele>119.0</ele><time>2026-04-04T12:10:10.395Z</time></trkpt><trkpt lat="45.2582131" lon="8.4785911"><ele>119.0</ele><time>2026-04-04T12:10:12.394Z</time></trkpt><trkpt lat="45.2582379" lon="8.4784548"><ele>119.0</ele><time>2026-04-04T12:10:14.393Z</time></trkpt><trkpt lat="45.2582583" lon="8.4783191"><ele>119.0</ele><time>2026-04-04T12:10:16.397Z</time></trkpt><trkpt lat="45.2582854" lon="8.4781828"><ele>119.0</ele><time>2026-04-04T12:10:18.389Z</time></trkpt><trkpt lat="45.2583081" lon="8.4780502"><ele>119.0</ele><time>2026-04-04T12:10:20.421Z</time></trkpt><trkpt lat="45.2583341" lon="8.4779157"><ele>119.0</ele><time>2026-04-04T12:10:22.398Z</time></trkpt><trkpt lat="45.2583604" lon="8.4777915"><ele>119.0</ele><time>2026-04-04T12:10:24.4Z</time></trkpt><trkpt lat="45.2583822" lon="8.4776759"><ele>119.0</ele><time>2026-04-04T12:10:26.396Z</time></trkpt><trkpt lat="45.2584003" lon="8.4775706"><ele>119.0</ele><time>2026-04-04T12:10:28.395Z</time></trkpt><trkpt lat="45.2584192" lon="8.4774674"><ele>119.0</ele><time>2026-04-04T12:10:30.396Z</time></trkpt><trkpt lat="45.2584461" lon="8.477353"><ele>119.0</ele><time>2026-04-04T12:10:33.401Z</time></trkpt><trkpt lat="45.2583942" lon="8.477405"><ele>119.0</ele><time>2026-04-04T12:10:40.401Z</time></trkpt><trkpt lat="45.2583786" lon="8.477497"><ele>119.0</ele><time>2026-04-04T12:10:44.399Z</time></trkpt><trkpt lat="45.2583657" lon="8.4775982"><ele>119.0</ele><time>2026-04-04T12:10:47.416Z</time></trkpt><trkpt lat="45.2583461" lon="8.4777088"><ele>119.0</ele><time>2026-04-04T12:10:49.391Z</time></trkpt><trkpt lat="45.2583121" lon="8.4778337"><ele>119.0</ele><time>2026-04-04T12:10:51.393Z</time></trkpt><trkpt lat="45.2582872" lon="8.4779637"><ele>119.0</ele><time>2026-04-04T12:10:53.399Z</time></trkpt><trkpt lat="45.2582627" lon="8.4780951"><ele>119.0</ele><time>2026-04-04T12:10:55.4Z</time></trkpt><trkpt lat="45.2582395" lon="8.4782414"><ele>119.0</ele><time>2026-04-04T12:10:57.399Z</time></trkpt><trkpt lat="45.2582103" lon="8.4783899"><ele>119.0</ele><time>2026-04-04T12:10:59.396Z</time></trkpt><trkpt lat="45.2581871" lon="8.4785386"><ele>119.0</ele><time>2026-04-04T12:11:01.4Z</time></trkpt><trkpt lat="45.2581606" lon="8.4786932"><ele>119.0</ele><time>2026-04-04T12:11:03.403Z</time></trkpt><trkpt lat="45.2581325" lon="8.4788413"><ele>119.0</ele><time>2026-04-04T12:11:05.405Z</time></trkpt><trkpt lat="45.258104" lon="8.4789933"><ele>119.0</ele><time>2026-04-04T12:11:07.393Z</time></trkpt><trkpt lat="45.2580813" lon="8.4791493"><ele>119.2</ele><time>2026-04-04T12:11:09.4Z</time></trkpt><trkpt lat="45.2580554" lon="8.4792973"><ele>119.4</ele><time>2026-04-04T12:11:11.392Z</time></trkpt><trkpt lat="45.2580268" lon="8.4794546"><ele>119.6</ele><time>2026-04-04T12:11:13.391Z</time></trkpt><trkpt lat="45.2580009" lon="8.4796073"><ele>119.8</ele><time>2026-04-04T12:11:15.398Z</time></trkpt><trkpt lat="45.2579597" lon="8.4797381"><ele>120.0</ele><time>2026-04-04T12:11:17.402Z</time></trkpt><trkpt lat="45.2578753" lon="8.4798294"><ele>120.0</ele><time>2026-04-04T12:11:19.405Z</time></trkpt><trkpt lat="45.2577646" lon="8.4798438"><ele>120.0</ele><time>2026-04-04T12:11:21.396Z</time></trkpt><trkpt lat="45.2576635" lon="8.4797836"><ele>120.0</ele><time>2026-04-04T12:11:23.402Z</time></trkpt><trkpt lat="45.2575588" lon="8.4797016"><ele>120.0</ele><time>2026-04-04T12:11:25.393Z</time></trkpt><trkpt lat="45.257458" lon="8.4796284"><ele>120.0</ele><time>2026-04-04T12:11:27.397Z</time></trkpt><trkpt lat="45.2573657" lon="8.4795509"><ele>120.0</ele><time>2026-04-04T12:11:29.394Z</time></trkpt><trkpt lat="45.2572689" lon="8.4794726"><ele>120.0</ele><time>2026-04-04T12:11:31.396Z</time></trkpt><trkpt lat="45.2571748" lon="8.4794012"><ele>120.0</ele><time>2026-04-04T12:11:33.399Z</time></trkpt><trkpt lat="45.2570732" lon="8.4793241"><ele>120.0</ele><time>2026-04-04T12:11:35.403Z</time></trkpt><trkpt lat="45.2569778" lon="8.4792487"><ele>120.0</ele><time>2026-04-04T12:11:37.393Z</time></trkpt><trkpt lat="45.2568766" lon="8.4791719"><ele>120.0</ele><time>2026-04-04T12:11:39.394Z</time></trkpt><trkpt lat="45.2567793" lon="8.4791063"><ele>120.0</ele><time>2026-04-04T12:11:41.39Z</time></trkpt><trkpt lat="45.2566863" lon="8.4790372"><ele>120.0</ele><time>2026-04-04T12:11:43.393Z</time></trkpt><trkpt lat="45.256593" lon="8.4789823"><ele>120.0</ele><time>2026-04-04T12:11:45.397Z</time></trkpt><trkpt lat="45.2564938" lon="8.4789195"><ele>120.2</ele><time>2026-04-04T12:11:47.395Z</time></trkpt><trkpt lat="45.2563994" lon="8.4788578"><ele>120.4</ele><time>2026-04-04T12:11:49.394Z</time></trkpt><trkpt lat="45.2563025" lon="8.4788036"><ele>120.6</ele><time>2026-04-04T12:11:51.397Z</time></trkpt><trkpt lat="45.2562058" lon="8.4787424"><ele>120.8</ele><time>2026-04-04T12:11:53.397Z</time></trkpt><trkpt lat="45.2561208" lon="8.4786853"><ele>121.0</ele><time>2026-04-04T12:11:55.395Z</time></trkpt><trkpt lat="45.2560304" lon="8.4786302"><ele>121.0</ele><time>2026-04-04T12:11:57.392Z</time></trkpt><trkpt lat="45.2559364" lon="8.4785641"><ele>121.0</ele><time>2026-04-04T12:11:59.394Z</time></trkpt><trkpt lat="45.2558498" lon="8.4784935"><ele>121.0</ele><time>2026-04-04T12:12:01.392Z</time></trkpt><trkpt lat="45.255761" lon="8.4784316"><ele>121.0</ele><time>2026-04-04T12:12:03.395Z</time></trkpt><trkpt lat="45.2556702" lon="8.4783786"><ele>121.0</ele><time>2026-04-04T12:12:05.395Z</time></trkpt><trkpt lat="45.2555765" lon="8.4783216"><ele>120.8</ele><time>2026-04-04T12:12:07.393Z</time></trkpt><trkpt lat="45.2554783" lon="8.4782663"><ele>120.6</ele><time>2026-04-04T12:12:09.389Z</time></trkpt><trkpt lat="45.2553857" lon="8.4782118"><ele>120.4</ele><time>2026-04-04T12:12:11.395Z</time></trkpt><trkpt lat="45.2552864" lon="8.47817"><ele>120.2</ele><time>2026-04-04T12:12:13.4Z</time></trkpt><trkpt lat="45.2551912" lon="8.4781202"><ele>120.0</ele><time>2026-04-04T12:12:15.396Z</time></trkpt><trkpt lat="45.2550916" lon="8.4780647"><ele>120.0</ele><time>2026-04-04T12:12:17.396Z</time></trkpt><trkpt lat="45.2549926" lon="8.4780191"><ele>120.0</ele><time>2026-04-04T12:12:19.397Z</time></trkpt><trkpt lat="45.2548969" lon="8.4779707"><ele>120.0</ele><time>2026-04-04T12:12:21.402Z</time></trkpt><trkpt lat="45.254799" lon="8.4779247"><ele>120.0</ele><time>2026-04-04T12:12:23.404Z</time></trkpt><trkpt lat="45.2547035" lon="8.4778841"><ele>120.0</ele><time>2026-04-04T12:12:25.395Z</time></trkpt><trkpt lat="45.254603" lon="8.4778366"><ele>119.2</ele><time>2026-04-04T12:12:27.394Z</time></trkpt><trkpt lat="45.2545028" lon="8.4777891"><ele>118.4</ele><time>2026-04-04T12:12:29.391Z</time></trkpt><trkpt lat="45.254399" lon="8.4777421"><ele>117.6</ele><time>2026-04-04T12:12:31.396Z</time></trkpt><trkpt lat="45.2542906" lon="8.4776944"><ele>116.8</ele><time>2026-04-04T12:12:33.401Z</time></trkpt><trkpt lat="45.2541873" lon="8.4776477"><ele>116.0</ele><time>2026-04-04T12:12:35.397Z</time></trkpt><trkpt lat="45.2540838" lon="8.4776037"><ele>116.0</ele><time>2026-04-04T12:12:37.395Z</time></trkpt><trkpt lat="45.2539732" lon="8.4775772"><ele>116.0</ele><time>2026-04-04T12:12:39.399Z</time></trkpt><trkpt lat="45.253865" lon="8.4775539"><ele>116.0</ele><time>2026-04-04T12:12:41.398Z</time></trkpt><trkpt lat="45.2537539" lon="8.4775258"><ele>116.0</ele><time>2026-04-04T12:12:43.391Z</time></trkpt><trkpt lat="45.2536555" lon="8.4774715"><ele>116.0</ele><time>2026-04-04T12:12:45.397Z</time></trkpt><trkpt lat="45.2536092" lon="8.4773661"><ele>115.99999999999999</ele><time>2026-04-04T12:12:47.394Z</time></trkpt><trkpt lat="45.2535803" lon="8.4772542"><ele>116.0</ele><time>2026-04-04T12:12:49.393Z</time></trkpt><trkpt lat="45.2535564" lon="8.4771495"><ele>116.0</ele><time>2026-04-04T12:12:51.39Z</time></trkpt><trkpt lat="45.2535349" lon="8.477042"><ele>116.0</ele><time>2026-04-04T12:12:53.394Z</time></trkpt><trkpt lat="45.2535392" lon="8.476917"><ele>115.99999999999999</ele><time>2026-04-04T12:12:55.396Z</time></trkpt><trkpt lat="45.2535404" lon="8.476778"><ele>116.0</ele><time>2026-04-04T12:12:57.39Z</time></trkpt><trkpt lat="45.2535434" lon="8.4766398"><ele>116.0</ele><time>2026-04-04T12:12:59.4Z</time></trkpt><trkpt lat="45.2535504" lon="8.4764992"><ele>116.0</ele><time>2026-04-04T12:13:01.391Z</time></trkpt><trkpt lat="45.2535546" lon="8.4763577"><ele>116.0</ele><time>2026-04-04T12:13:03.403Z</time></trkpt><trkpt lat="45.2535593" lon="8.4762173"><ele>116.0</ele><time>2026-04-04T12:13:05.391Z</time></trkpt><trkpt lat="45.2535654" lon="8.4760719"><ele>116.0</ele><time>2026-04-04T12:13:07.392Z</time></trkpt><trkpt lat="45.2535708" lon="8.4759295"><ele>116.0</ele><time>2026-04-04T12:13:09.396Z</time></trkpt><trkpt lat="45.2535769" lon="8.4757938"><ele>116.0</ele><time>2026-04-04T12:13:11.404Z</time></trkpt><trkpt lat="45.253585" lon="8.4756517"><ele>116.0</ele><time>2026-04-04T12:13:13.39Z</time></trkpt><trkpt lat="45.2535848" lon="8.4755107"><ele>116.0</ele><time>2026-04-04T12:13:15.4Z</time></trkpt><trkpt lat="45.253586" lon="8.4753603"><ele>116.0</ele><time>2026-04-04T12:13:17.396Z</time></trkpt><trkpt lat="45.2535766" lon="8.4752159"><ele>116.0</ele><time>2026-04-04T12:13:19.404Z</time></trkpt><trkpt lat="45.2535607" lon="8.475072"><ele>116.0</ele><time>2026-04-04T12:13:21.391Z</time></trkpt><trkpt lat="45.2535392" lon="8.4749285"><ele>116.0</ele><time>2026-04-04T12:13:23.398Z</time></trkpt><trkpt lat="45.2535249" lon="8.4747878"><ele>116.0</ele><time>2026-04-04T12:13:25.396Z</time></trkpt><trkpt lat="45.2535071" lon="8.4746502"><ele>116.0</ele><time>2026-04-04T12:13:27.399Z</time></trkpt><trkpt lat="45.2534812" lon="8.474505"><ele>116.0</ele><time>2026-04-04T12:13:29.399Z</time></trkpt><trkpt lat="45.2534494" lon="8.4743655"><ele>116.0</ele><time>2026-04-04T12:13:31.393Z</time></trkpt><trkpt lat="45.2534145" lon="8.4742347"><ele>116.0</ele><time>2026-04-04T12:13:33.396Z</time></trkpt><trkpt lat="45.2533624" lon="8.4741075"><ele>116.0</ele><time>2026-04-04T12:13:35.396Z</time></trkpt><trkpt lat="45.2533059" lon="8.4739807"><ele>116.0</ele><time>2026-04-04T12:13:37.402Z</time></trkpt><trkpt lat="45.2532424" lon="8.4738488"><ele>116.0</ele><time>2026-04-04T12:13:39.4Z</time></trkpt><trkpt lat="45.2531805" lon="8.4737264"><ele>116.0</ele><time>2026-04-04T12:13:41.394Z</time></trkpt><trkpt lat="45.2531147" lon="8.4736036"><ele>116.0</ele><time>2026-04-04T12:13:43.396Z</time></trkpt><trkpt lat="45.2530545" lon="8.4734888"><ele>116.0</ele><time>2026-04-04T12:13:45.397Z</time></trkpt><trkpt lat="45.2529946" lon="8.4733688"><ele>116.0</ele><time>2026-04-04T12:13:47.399Z</time></trkpt><trkpt lat="45.2529347" lon="8.4732442"><ele>116.0</ele><time>2026-04-04T12:13:49.399Z</time></trkpt><trkpt lat="45.2528741" lon="8.473124"><ele>116.0</ele><time>2026-04-04T12:13:51.396Z</time></trkpt><trkpt lat="45.2528091" lon="8.4730141"><ele>116.0</ele><time>2026-04-04T12:13:53.398Z</time></trkpt><trkpt lat="45.2527501" lon="8.4728885"><ele>116.0</ele><time>2026-04-04T12:13:55.393Z</time></trkpt><trkpt lat="45.2526939" lon="8.4727771"><ele>116.0</ele><time>2026-04-04T12:13:57.397Z</time></trkpt><trkpt lat="45.2526323" lon="8.4726614"><ele>116.0</ele><time>2026-04-04T12:13:59.394Z</time></trkpt><trkpt lat="45.252575" lon="8.4725524"><ele>116.0</ele><time>2026-04-04T12:14:01.397Z</time></trkpt><trkpt lat="45.2525277" lon="8.472442"><ele>116.0</ele><time>2026-04-04T12:14:03.392Z</time></trkpt><trkpt lat="45.2524908" lon="8.472329"><ele>116.0</ele><time>2026-04-04T12:14:05.404Z</time></trkpt><trkpt lat="45.2524615" lon="8.4721933"><ele>116.0</ele><time>2026-04-04T12:14:07.392Z</time></trkpt><trkpt lat="45.2524432" lon="8.4720438"><ele>116.0</ele><time>2026-04-04T12:14:09.392Z</time></trkpt><trkpt lat="45.2524349" lon="8.4718782"><ele>116.0</ele><time>2026-04-04T12:14:11.393Z</time></trkpt><trkpt lat="45.2524336" lon="8.4717131"><ele>116.0</ele><time>2026-04-04T12:14:13.395Z</time></trkpt><trkpt lat="45.2524282" lon="8.4715425"><ele>116.0</ele><time>2026-04-04T12:14:15.392Z</time></trkpt><trkpt lat="45.2524027" lon="8.4713908"><ele>115.8</ele><time>2026-04-04T12:14:17.4Z</time></trkpt><trkpt lat="45.2523692" lon="8.4712487"><ele>115.6</ele><time>2026-04-04T12:14:19.392Z</time></trkpt><trkpt lat="45.2523341" lon="8.4711133"><ele>115.4</ele><time>2026-04-04T12:14:21.398Z</time></trkpt><trkpt lat="45.2522995" lon="8.4709807"><ele>115.2</ele><time>2026-04-04T12:14:23.399Z</time></trkpt><trkpt lat="45.2522658" lon="8.4708427"><ele>115.0</ele><time>2026-04-04T12:14:25.399Z</time></trkpt><trkpt lat="45.2522506" lon="8.4707007"><ele>115.0</ele><time>2026-04-04T12:14:27.402Z</time></trkpt><trkpt lat="45.252246" lon="8.4705575"><ele>115.0</ele><time>2026-04-04T12:14:29.41Z</time></trkpt><trkpt lat="45.2522401" lon="8.4704115"><ele>115.0</ele><time>2026-04-04T12:14:31.396Z</time></trkpt><trkpt lat="45.2521921" lon="8.4702857"><ele>115.0</ele><time>2026-04-04T12:14:33.395Z</time></trkpt><trkpt lat="45.2521223" lon="8.4701904"><ele>115.0</ele><time>2026-04-04T12:14:35.395Z</time></trkpt><trkpt lat="45.2520574" lon="8.4701116"><ele>114.85714285714283</ele><time>2026-04-04T12:14:37.403Z</time></trkpt><trkpt lat="45.2520099" lon="8.4700352"><ele>114.71428571428571</ele><time>2026-04-04T12:14:39.403Z</time></trkpt><trkpt lat="45.2519443" lon="8.470032"><ele>114.57142857142856</ele><time>2026-04-04T12:14:51.396Z</time></trkpt><trkpt lat="45.251879" lon="8.470038"><ele>114.42857142857142</ele><time>2026-04-04T12:15:00.391Z</time></trkpt><trkpt lat="45.2518189" lon="8.4700848"><ele>114.28571428571428</ele><time>2026-04-04T12:15:12.406Z</time></trkpt><trkpt lat="45.2517689" lon="8.4701393"><ele>114.14285714285714</ele><time>2026-04-04T12:15:20.394Z</time></trkpt><trkpt lat="45.2517124" lon="8.4701896"><ele>114.0</ele><time>2026-04-04T12:15:39.408Z</time></trkpt><trkpt lat="45.2516692" lon="8.4702638"><ele>114.0</ele><time>2026-04-04T12:15:47.398Z</time></trkpt><trkpt lat="45.2516477" lon="8.4703513"><ele>113.99999999999999</ele><time>2026-04-04T12:15:58.393Z</time></trkpt><trkpt lat="45.2516016" lon="8.4704264"><ele>114.0</ele><time>2026-04-04T12:16:04.405Z</time></trkpt><trkpt lat="45.2515796" lon="8.4705228"><ele>114.0</ele><time>2026-04-04T12:16:12.388Z</time></trkpt><trkpt lat="45.2515693" lon="8.4706154"><ele>113.99999999999999</ele><time>2026-04-04T12:16:22.4Z</time></trkpt><trkpt lat="45.2515282" lon="8.470694"><ele>114.0</ele><time>2026-04-04T12:16:28.395Z</time></trkpt><trkpt lat="45.2514914" lon="8.4707673"><ele>114.0</ele><time>2026-04-04T12:17:49.394Z</time></trkpt><trkpt lat="45.2514469" lon="8.4708441"><ele>114.0</ele><time>2026-04-04T12:17:53.396Z</time></trkpt><trkpt lat="45.2513886" lon="8.4709066"><ele>114.0</ele><time>2026-04-04T12:17:55.393Z</time></trkpt><trkpt lat="45.2513116" lon="8.4709272"><ele>114.0</ele><time>2026-04-04T12:17:57.394Z</time></trkpt><trkpt lat="45.2512355" lon="8.4708879"><ele>114.0</ele><time>2026-04-04T12:17:59.403Z</time></trkpt><trkpt lat="45.2511617" lon="8.4708207"><ele>114.0</ele><time>2026-04-04T12:18:01.393Z</time></trkpt><trkpt lat="45.2510757" lon="8.4707416"><ele>114.0</ele><time>2026-04-04T12:18:03.397Z</time></trkpt><trkpt lat="45.250989" lon="8.4707027"><ele>114.0</ele><time>2026-04-04T12:18:05.4Z</time></trkpt><trkpt lat="45.2509084" lon="8.4706744"><ele>114.0</ele><time>2026-04-04T12:18:07.4Z</time></trkpt><trkpt lat="45.2508287" lon="8.4706446"><ele>114.0</ele><time>2026-04-04T12:18:09.399Z</time></trkpt><trkpt lat="45.2507647" lon="8.4706174"><ele>114.0</ele><time>2026-04-04T12:18:11.39Z</time></trkpt><trkpt lat="45.2506877" lon="8.4705996"><ele>114.0</ele><time>2026-04-04T12:18:13.397Z</time></trkpt><trkpt lat="45.2506116" lon="8.4705766"><ele>114.0</ele><time>2026-04-04T12:18:15.396Z</time></trkpt><trkpt lat="45.2505436" lon="8.4705473"><ele>114.33333333333333</ele><time>2026-04-04T12:18:17.391Z</time></trkpt><trkpt lat="45.2504742" lon="8.4705111"><ele>114.66666666666666</ele><time>2026-04-04T12:18:19.389Z</time></trkpt><trkpt lat="45.2504009" lon="8.4704789"><ele>115.0</ele><time>2026-04-04T12:18:21.398Z</time></trkpt><trkpt lat="45.250321" lon="8.4704465"><ele>115.33333333333333</ele><time>2026-04-04T12:18:23.397Z</time></trkpt><trkpt lat="45.2502439" lon="8.4704159"><ele>115.66666666666666</ele><time>2026-04-04T12:18:25.395Z</time></trkpt><trkpt lat="45.2501669" lon="8.470387"><ele>116.0</ele><time>2026-04-04T12:18:27.395Z</time></trkpt><trkpt lat="45.2500923" lon="8.470357"><ele>115.99999999999999</ele><time>2026-04-04T12:18:29.396Z</time></trkpt><trkpt lat="45.2500227" lon="8.4703192"><ele>116.0</ele><time>2026-04-04T12:18:31.392Z</time></trkpt><trkpt lat="45.2499545" lon="8.470271"><ele>116.0</ele><time>2026-04-04T12:18:33.405Z</time></trkpt><trkpt lat="45.249897" lon="8.4702051"><ele>116.0</ele><time>2026-04-04T12:18:35.395Z</time></trkpt><trkpt lat="45.2498457" lon="8.4701228"><ele>115.99999999999999</ele><time>2026-04-04T12:18:37.401Z</time></trkpt><trkpt lat="45.2498039" lon="8.4700296"><ele>116.0</ele><time>2026-04-04T12:18:39.394Z</time></trkpt><trkpt lat="45.249781" lon="8.4699236"><ele>116.16666666666666</ele><time>2026-04-04T12:18:41.394Z</time></trkpt><trkpt lat="45.2497601" lon="8.4698191"><ele>116.33333333333333</ele><time>2026-04-04T12:18:43.395Z</time></trkpt><trkpt lat="45.2497386" lon="8.469713"><ele>116.5</ele><time>2026-04-04T12:18:45.395Z</time></trkpt><trkpt lat="45.2497167" lon="8.4696052"><ele>116.66666666666666</ele><time>2026-04-04T12:18:47.395Z</time></trkpt><trkpt lat="45.2496957" lon="8.4694984"><ele>116.83333333333333</ele><time>2026-04-04T12:18:49.407Z</time></trkpt><trkpt lat="45.2496742" lon="8.4693937"><ele>117.0</ele><time>2026-04-04T12:18:51.392Z</time></trkpt><trkpt lat="45.2496487" lon="8.4692882"><ele>117.0</ele><time>2026-04-04T12:18:53.401Z</time></trkpt><trkpt lat="45.2496154" lon="8.4691768"><ele>117.0</ele><time>2026-04-04T12:18:55.399Z</time></trkpt><trkpt lat="45.2495713" lon="8.4690693"><ele>117.0</ele><time>2026-04-04T12:18:57.405Z</time></trkpt><trkpt lat="45.2495189" lon="8.4689725"><ele>117.0</ele><time>2026-04-04T12:18:59.401Z</time></trkpt><trkpt lat="45.2494549" lon="8.4688864"><ele>117.0</ele><time>2026-04-04T12:19:01.398Z</time></trkpt><trkpt lat="45.2493823" lon="8.4688033"><ele>117.0</ele><time>2026-04-04T12:19:03.404Z</time></trkpt><trkpt lat="45.2493204" lon="8.4687141"><ele>116.83333333333333</ele><time>2026-04-04T12:19:05.405Z</time></trkpt><trkpt lat="45.2492541" lon="8.4686286"><ele>116.66666666666666</ele><time>2026-04-04T12:19:07.407Z</time></trkpt><trkpt lat="45.2491943" lon="8.468536"><ele>116.5</ele><time>2026-04-04T12:19:09.397Z</time></trkpt><trkpt lat="45.249136" lon="8.4684408"><ele>116.33333333333333</ele><time>2026-04-04T12:19:11.397Z</time></trkpt><trkpt lat="45.249084" lon="8.4683377"><ele>116.16666666666666</ele><time>2026-04-04T12:19:13.398Z</time></trkpt><trkpt lat="45.2490397" lon="8.46823"><ele>116.0</ele><time>2026-04-04T12:19:15.393Z</time></trkpt><trkpt lat="45.2490087" lon="8.468114"><ele>115.99999999999999</ele><time>2026-04-04T12:19:17.398Z</time></trkpt><trkpt lat="45.248988" lon="8.4679918"><ele>116.0</ele><time>2026-04-04T12:19:19.4Z</time></trkpt><trkpt lat="45.2489767" lon="8.4678661"><ele>116.0</ele><time>2026-04-04T12:19:21.4Z</time></trkpt><trkpt lat="45.2489692" lon="8.4677466"><ele>116.0</ele><time>2026-04-04T12:19:23.398Z</time></trkpt><trkpt lat="45.2489626" lon="8.4676237"><ele>115.99999999999999</ele><time>2026-04-04T12:19:25.396Z</time></trkpt><trkpt lat="45.2489529" lon="8.4675044"><ele>116.0</ele><time>2026-04-04T12:19:27.391Z</time></trkpt><trkpt lat="45.2489441" lon="8.4673868"><ele>116.19999999999999</ele><time>2026-04-04T12:19:29.405Z</time></trkpt><trkpt lat="45.248932" lon="8.4672672"><ele>116.39999999999999</ele><time>2026-04-04T12:19:31.396Z</time></trkpt><trkpt lat="45.2488884" lon="8.4671542"><ele>116.6</ele><time>2026-04-04T12:19:33.393Z</time></trkpt><trkpt lat="45.2488106" lon="8.4670865"><ele>116.8</ele><time>2026-04-04T12:19:35.41Z</time></trkpt><trkpt lat="45.2487111" lon="8.4670693"><ele>117.0</ele><time>2026-04-04T12:19:37.4Z</time></trkpt><trkpt lat="45.2486112" lon="8.4670591"><ele>117.39999999999999</ele><time>2026-04-04T12:19:39.399Z</time></trkpt><trkpt lat="45.2485207" lon="8.4670597"><ele>117.79999999999998</ele><time>2026-04-04T12:19:41.407Z</time></trkpt><trkpt lat="45.2484324" lon="8.4670616"><ele>118.2</ele><time>2026-04-04T12:19:43.395Z</time></trkpt><trkpt lat="45.2483438" lon="8.467073"><ele>118.6</ele><time>2026-04-04T12:19:45.396Z</time></trkpt><trkpt lat="45.2482489" lon="8.4670679"><ele>119.0</ele><time>2026-04-04T12:19:47.414Z</time></trkpt><trkpt lat="45.2481482" lon="8.4670664"><ele>119.2</ele><time>2026-04-04T12:19:49.398Z</time></trkpt><trkpt lat="45.2480474" lon="8.4670762"><ele>119.4</ele><time>2026-04-04T12:19:51.401Z</time></trkpt><trkpt lat="45.2479493" lon="8.4670799"><ele>119.6</ele><time>2026-04-04T12:19:53.402Z</time></trkpt><trkpt lat="45.247852" lon="8.4670875"><ele>119.8</ele><time>2026-04-04T12:19:55.394Z</time></trkpt><trkpt lat="45.2477487" lon="8.4670842"><ele>120.0</ele><time>2026-04-04T12:19:57.395Z</time></trkpt><trkpt lat="45.2476547" lon="8.4670784"><ele>120.0</ele><time>2026-04-04T12:19:59.396Z</time></trkpt><trkpt lat="45.2475538" lon="8.4670813"><ele>120.0</ele><time>2026-04-04T12:20:01.401Z</time></trkpt><trkpt lat="45.2474541" lon="8.4670862"><ele>120.0</ele><time>2026-04-04T12:20:03.403Z</time></trkpt><trkpt lat="45.2473571" lon="8.4670887"><ele>120.0</ele><time>2026-04-04T12:20:05.406Z</time></trkpt><trkpt lat="45.2472586" lon="8.4670952"><ele>120.0</ele><time>2026-04-04T12:20:07.402Z</time></trkpt><trkpt lat="45.2471646" lon="8.4671056"><ele>119.6</ele><time>2026-04-04T12:20:09.406Z</time></trkpt><trkpt lat="45.247063" lon="8.4671133"><ele>119.2</ele><time>2026-04-04T12:20:11.401Z</time></trkpt><trkpt lat="45.2469674" lon="8.4671157"><ele>118.80000000000001</ele><time>2026-04-04T12:20:13.399Z</time></trkpt><trkpt lat="45.2468692" lon="8.4671217"><ele>118.4</ele><time>2026-04-04T12:20:15.396Z</time></trkpt><trkpt lat="45.2467732" lon="8.4671328"><ele>118.0</ele><time>2026-04-04T12:20:17.402Z</time></trkpt><trkpt lat="45.2466769" lon="8.4671344"><ele>118.0</ele><time>2026-04-04T12:20:19.398Z</time></trkpt><trkpt lat="45.2465801" lon="8.4671416"><ele>118.00000000000001</ele><time>2026-04-04T12:20:21.394Z</time></trkpt><trkpt lat="45.2464826" lon="8.4671491"><ele>118.00000000000001</ele><time>2026-04-04T12:20:23.394Z</time></trkpt><trkpt lat="45.2463896" lon="8.4671625"><ele>118.0</ele><time>2026-04-04T12:20:25.406Z</time></trkpt><trkpt lat="45.2462942" lon="8.4671775"><ele>118.0</ele><time>2026-04-04T12:20:27.399Z</time></trkpt><trkpt lat="45.246202" lon="8.4671859"><ele>118.4</ele><time>2026-04-04T12:20:29.396Z</time></trkpt><trkpt lat="45.246112" lon="8.4671918"><ele>118.80000000000001</ele><time>2026-04-04T12:20:31.401Z</time></trkpt><trkpt lat="45.2460198" lon="8.4672065"><ele>119.2</ele><time>2026-04-04T12:20:33.419Z</time></trkpt><trkpt lat="45.2459292" lon="8.4672359"><ele>119.6</ele><time>2026-04-04T12:20:35.393Z</time></trkpt><trkpt lat="45.245851" lon="8.4673082"><ele>120.0</ele><time>2026-04-04T12:20:37.409Z</time></trkpt><trkpt lat="45.2457925" lon="8.4674186"><ele>120.0</ele><time>2026-04-04T12:20:39.403Z</time></trkpt><trkpt lat="45.2457461" lon="8.467544"><ele>120.0</ele><time>2026-04-04T12:20:41.404Z</time></trkpt><trkpt lat="45.2457072" lon="8.4676671"><ele>120.0</ele><time>2026-04-04T12:20:43.402Z</time></trkpt><trkpt lat="45.2456573" lon="8.4677798"><ele>120.0</ele><time>2026-04-04T12:20:45.405Z</time></trkpt><trkpt lat="45.2456058" lon="8.4678968"><ele>120.0</ele><time>2026-04-04T12:20:47.395Z</time></trkpt><trkpt lat="45.2455493" lon="8.4680082"><ele>120.4</ele><time>2026-04-04T12:20:49.417Z</time></trkpt><trkpt lat="45.2454976" lon="8.4681153"><ele>120.8</ele><time>2026-04-04T12:20:51.406Z</time></trkpt><trkpt lat="45.2454434" lon="8.4682275"><ele>121.19999999999999</ele><time>2026-04-04T12:20:53.401Z</time></trkpt><trkpt lat="45.2453783" lon="8.4683319"><ele>121.6</ele><time>2026-04-04T12:20:55.396Z</time></trkpt><trkpt lat="45.2453198" lon="8.4684455"><ele>122.0</ele><time>2026-04-04T12:20:57.41Z</time></trkpt><trkpt lat="45.2452607" lon="8.4685547"><ele>122.0</ele><time>2026-04-04T12:20:59.397Z</time></trkpt><trkpt lat="45.2451934" lon="8.4686491"><ele>121.99999999999999</ele><time>2026-04-04T12:21:01.396Z</time></trkpt><trkpt lat="45.2451327" lon="8.4687487"><ele>121.99999999999999</ele><time>2026-04-04T12:21:03.402Z</time></trkpt><trkpt lat="45.2450586" lon="8.4688407"><ele>122.0</ele><time>2026-04-04T12:21:05.401Z</time></trkpt><trkpt lat="45.2449885" lon="8.468936"><ele>122.0</ele><time>2026-04-04T12:21:07.395Z</time></trkpt><trkpt lat="45.2449203" lon="8.4690398"><ele>121.6</ele><time>2026-04-04T12:21:09.397Z</time></trkpt><trkpt lat="45.2448409" lon="8.4691375"><ele>121.19999999999999</ele><time>2026-04-04T12:21:11.397Z</time></trkpt><trkpt lat="45.244764" lon="8.4692215"><ele>120.8</ele><time>2026-04-04T12:21:13.41Z</time></trkpt><trkpt lat="45.2446825" lon="8.4692871"><ele>120.4</ele><time>2026-04-04T12:21:15.399Z</time></trkpt><trkpt lat="45.2446081" lon="8.4693632"><ele>120.0</ele><time>2026-04-04T12:21:17.402Z</time></trkpt><trkpt lat="45.2445292" lon="8.4694217"><ele>120.0</ele><time>2026-04-04T12:21:19.392Z</time></trkpt><trkpt lat="45.2444481" lon="8.4694547"><ele>120.0</ele><time>2026-04-04T12:21:21.393Z</time></trkpt><trkpt lat="45.2443559" lon="8.4694998"><ele>120.0</ele><time>2026-04-04T12:21:23.397Z</time></trkpt><trkpt lat="45.2442599" lon="8.4695558"><ele>120.0</ele><time>2026-04-04T12:21:25.394Z</time></trkpt><trkpt lat="45.2441581" lon="8.4695973"><ele>120.0</ele><time>2026-04-04T12:21:27.396Z</time></trkpt><trkpt lat="45.2440614" lon="8.469649"><ele>119.6</ele><time>2026-04-04T12:21:29.399Z</time></trkpt><trkpt lat="45.2439653" lon="8.4696873"><ele>119.2</ele><time>2026-04-04T12:21:31.394Z</time></trkpt><trkpt lat="45.2438739" lon="8.4697227"><ele>118.80000000000001</ele><time>2026-04-04T12:21:33.395Z</time></trkpt><trkpt lat="45.2437755" lon="8.4697485"><ele>118.4</ele><time>2026-04-04T12:21:35.392Z</time></trkpt><trkpt lat="45.2436791" lon="8.4697685"><ele>118.0</ele><time>2026-04-04T12:21:37.396Z</time></trkpt><trkpt lat="45.2435775" lon="8.4697831"><ele>118.0</ele><time>2026-04-04T12:21:39.397Z</time></trkpt><trkpt lat="45.2434739" lon="8.469788"><ele>118.00000000000001</ele><time>2026-04-04T12:21:41.393Z</time></trkpt><trkpt lat="45.2433743" lon="8.4697895"><ele>118.00000000000001</ele><time>2026-04-04T12:21:43.395Z</time></trkpt><trkpt lat="45.2432756" lon="8.4697816"><ele>118.0</ele><time>2026-04-04T12:21:45.399Z</time></trkpt><trkpt lat="45.2431752" lon="8.4697713"><ele>118.0</ele><time>2026-04-04T12:21:47.396Z</time></trkpt><trkpt lat="45.2430766" lon="8.4697528"><ele>118.0</ele><time>2026-04-04T12:21:49.393Z</time></trkpt><trkpt lat="45.2429816" lon="8.4697316"><ele>118.00000000000001</ele><time>2026-04-04T12:21:51.395Z</time></trkpt><trkpt lat="45.242881" lon="8.4697067"><ele>118.00000000000001</ele><time>2026-04-04T12:21:53.392Z</time></trkpt><trkpt lat="45.2427793" lon="8.4696721"><ele>118.0</ele><time>2026-04-04T12:21:55.392Z</time></trkpt><trkpt lat="45.2426836" lon="8.4696383"><ele>118.0</ele><time>2026-04-04T12:21:57.392Z</time></trkpt><trkpt lat="45.2425893" lon="8.4695948"><ele>118.0</ele><time>2026-04-04T12:21:59.395Z</time></trkpt><trkpt lat="45.242488" lon="8.4695551"><ele>118.00000000000001</ele><time>2026-04-04T12:22:01.394Z</time></trkpt><trkpt lat="45.2423869" lon="8.4695131"><ele>118.00000000000001</ele><time>2026-04-04T12:22:03.39Z</time></trkpt><trkpt lat="45.2422843" lon="8.4694658"><ele>118.0</ele><time>2026-04-04T12:22:05.398Z</time></trkpt><trkpt lat="45.2421835" lon="8.4694267"><ele>118.0</ele><time>2026-04-04T12:22:07.399Z</time></trkpt><trkpt lat="45.2420861" lon="8.46939"><ele>118.0</ele><time>2026-04-04T12:22:09.392Z</time></trkpt><trkpt lat="45.241988" lon="8.4693608"><ele>118.00000000000001</ele><time>2026-04-04T12:22:11.396Z</time></trkpt><trkpt lat="45.2418849" lon="8.4693293"><ele>118.00000000000001</ele><time>2026-04-04T12:22:13.391Z</time></trkpt><trkpt lat="45.2417882" lon="8.4693043"><ele>118.0</ele><time>2026-04-04T12:22:15.391Z</time></trkpt><trkpt lat="45.2416865" lon="8.4692834"><ele>118.0</ele><time>2026-04-04T12:22:17.392Z</time></trkpt><trkpt lat="45.2415866" lon="8.4692668"><ele>118.0</ele><time>2026-04-04T12:22:19.392Z</time></trkpt><trkpt lat="45.2414834" lon="8.4692562"><ele>118.00000000000001</ele><time>2026-04-04T12:22:21.406Z</time></trkpt><trkpt lat="45.2413811" lon="8.4692555"><ele>118.00000000000001</ele><time>2026-04-04T12:22:23.397Z</time></trkpt><trkpt lat="45.2412782" lon="8.4692528"><ele>118.0</ele><time>2026-04-04T12:22:25.399Z</time></trkpt><trkpt lat="45.2411793" lon="8.4692621"><ele>118.0</ele><time>2026-04-04T12:22:27.394Z</time></trkpt><trkpt lat="45.2410808" lon="8.4692684"><ele>118.2</ele><time>2026-04-04T12:22:29.391Z</time></trkpt><trkpt lat="45.2409821" lon="8.4692791"><ele>118.4</ele><time>2026-04-04T12:22:31.399Z</time></trkpt><trkpt lat="45.2408843" lon="8.4693002"><ele>118.60000000000001</ele><time>2026-04-04T12:22:33.39Z</time></trkpt><trkpt lat="45.2407856" lon="8.4693185"><ele>118.80000000000001</ele><time>2026-04-04T12:22:35.39Z</time></trkpt><trkpt lat="45.2406834" lon="8.4693323"><ele>119.0</ele><time>2026-04-04T12:22:37.392Z</time></trkpt><trkpt lat="45.2405861" lon="8.4693514"><ele>118.4</ele><time>2026-04-04T12:22:39.393Z</time></trkpt><trkpt lat="45.2404898" lon="8.4693695"><ele>117.80000000000001</ele><time>2026-04-04T12:22:41.393Z</time></trkpt><trkpt lat="45.2403922" lon="8.4693895"><ele>117.19999999999999</ele><time>2026-04-04T12:22:43.392Z</time></trkpt><trkpt lat="45.2402929" lon="8.4694116"><ele>116.6</ele><time>2026-04-04T12:22:45.393Z</time></trkpt><trkpt lat="45.2401937" lon="8.4694448"><ele>116.0</ele><time>2026-04-04T12:22:47.401Z</time></trkpt><trkpt lat="45.2401037" lon="8.4694856"><ele>116.0</ele><time>2026-04-04T12:22:49.39Z</time></trkpt><trkpt lat="45.2400147" lon="8.4695295"><ele>116.0</ele><time>2026-04-04T12:22:51.393Z</time></trkpt><trkpt lat="45.2399248" lon="8.4695776"><ele>116.0</ele><time>2026-04-04T12:22:53.398Z</time></trkpt><trkpt lat="45.2398358" lon="8.4696284"><ele>116.0</ele><time>2026-04-04T12:22:55.391Z</time></trkpt><trkpt lat="45.2397488" lon="8.4696725"><ele>116.0</ele><time>2026-04-04T12:22:57.4Z</time></trkpt><trkpt lat="45.239657" lon="8.4697196"><ele>116.4</ele><time>2026-04-04T12:22:59.398Z</time></trkpt><trkpt lat="45.2395618" lon="8.4697604"><ele>116.8</ele><time>2026-04-04T12:23:01.394Z</time></trkpt><trkpt lat="45.2394655" lon="8.4698006"><ele>117.20000000000002</ele><time>2026-04-04T12:23:03.393Z</time></trkpt><trkpt lat="45.239377" lon="8.4698644"><ele>117.60000000000001</ele><time>2026-04-04T12:23:05.398Z</time></trkpt><trkpt lat="45.2393337" lon="8.469986"><ele>118.0</ele><time>2026-04-04T12:23:07.39Z</time></trkpt><trkpt lat="45.2393492" lon="8.4701229"><ele>118.0</ele><time>2026-04-04T12:23:09.399Z</time></trkpt><trkpt lat="45.2393779" lon="8.4702606"><ele>118.00000000000001</ele><time>2026-04-04T12:23:11.398Z</time></trkpt><trkpt lat="45.2394107" lon="8.4703943"><ele>118.00000000000001</ele><time>2026-04-04T12:23:13.399Z</time></trkpt><trkpt lat="45.2394424" lon="8.470532"><ele>118.0</ele><time>2026-04-04T12:23:15.398Z</time></trkpt><trkpt lat="45.239471" lon="8.4706632"><ele>118.0</ele><time>2026-04-04T12:23:17.398Z</time></trkpt><trkpt lat="45.2395034" lon="8.4707897"><ele>118.0</ele><time>2026-04-04T12:23:19.408Z</time></trkpt><trkpt lat="45.2395365" lon="8.4709185"><ele>118.00000000000001</ele><time>2026-04-04T12:23:21.4Z</time></trkpt><trkpt lat="45.2395555" lon="8.4710494"><ele>118.00000000000001</ele><time>2026-04-04T12:23:23.394Z</time></trkpt><trkpt lat="45.2395776" lon="8.4711861"><ele>118.0</ele><time>2026-04-04T12:23:25.396Z</time></trkpt><trkpt lat="45.2395986" lon="8.4713195"><ele>118.0</ele><time>2026-04-04T12:23:27.402Z</time></trkpt><trkpt lat="45.2396242" lon="8.4714544"><ele>117.80000000000001</ele><time>2026-04-04T12:23:29.397Z</time></trkpt><trkpt lat="45.2396465" lon="8.4715843"><ele>117.60000000000001</ele><time>2026-04-04T12:23:31.396Z</time></trkpt><trkpt lat="45.2396706" lon="8.4717228"><ele>117.39999999999999</ele><time>2026-04-04T12:23:33.397Z</time></trkpt><trkpt lat="45.2396919" lon="8.4718593"><ele>117.19999999999999</ele><time>2026-04-04T12:23:35.395Z</time></trkpt><trkpt lat="45.2397203" lon="8.4719987"><ele>117.0</ele><time>2026-04-04T12:23:37.401Z</time></trkpt><trkpt lat="45.2397472" lon="8.4721315"><ele>117.0</ele><time>2026-04-04T12:23:39.401Z</time></trkpt><trkpt lat="45.2397835" lon="8.4722415"><ele>117.00000000000001</ele><time>2026-04-04T12:23:41.4Z</time></trkpt><trkpt lat="45.2398135" lon="8.4723423"><ele>117.0</ele><time>2026-04-04T12:23:43.397Z</time></trkpt><trkpt lat="45.2398214" lon="8.4724355"><ele>117.0</ele><time>2026-04-04T12:23:45.396Z</time></trkpt><trkpt lat="45.2397604" lon="8.4724713"><ele>117.00000000000001</ele><time>2026-04-04T12:23:48.394Z</time></trkpt><trkpt lat="45.2397371" lon="8.4723661"><ele>117.0</ele><time>2026-04-04T12:23:51.393Z</time></trkpt><trkpt lat="45.2397068" lon="8.4722687"><ele>117.0</ele><time>2026-04-04T12:23:53.397Z</time></trkpt><trkpt lat="45.23968" lon="8.4721641"><ele>117.0</ele><time>2026-04-04T12:23:55.396Z</time></trkpt><trkpt lat="45.2396548" lon="8.4720545"><ele>117.0</ele><time>2026-04-04T12:23:57.406Z</time></trkpt><trkpt lat="45.2396327" lon="8.4719422"><ele>117.0</ele><time>2026-04-04T12:23:59.393Z</time></trkpt><trkpt lat="45.2396071" lon="8.4718329"><ele>117.0</ele><time>2026-04-04T12:24:01.393Z</time></trkpt><trkpt lat="45.2395814" lon="8.4717252"><ele>117.0</ele><time>2026-04-04T12:24:03.393Z</time></trkpt><trkpt lat="45.2395564" lon="8.4716244"><ele>117.0</ele><time>2026-04-04T12:24:05.398Z</time></trkpt><trkpt lat="45.2395303" lon="8.4715223"><ele>117.0</ele><time>2026-04-04T12:24:07.396Z</time></trkpt><trkpt lat="45.2395027" lon="8.4714221"><ele>117.00000000000001</ele><time>2026-04-04T12:24:09.405Z</time></trkpt><trkpt lat="45.2394775" lon="8.4713244"><ele>117.0</ele><time>2026-04-04T12:24:11.391Z</time></trkpt><trkpt lat="45.2394532" lon="8.4712293"><ele>117.0</ele><time>2026-04-04T12:24:13.392Z</time></trkpt><trkpt lat="45.2394309" lon="8.4711366"><ele>117.00000000000001</ele><time>2026-04-04T12:24:15.395Z</time></trkpt><trkpt lat="45.2394048" lon="8.4710455"><ele>117.0</ele><time>2026-04-04T12:24:17.402Z</time></trkpt><trkpt lat="45.2393794" lon="8.470956"><ele>117.0</ele><time>2026-04-04T12:24:19.397Z</time></trkpt><trkpt lat="45.2393574" lon="8.4708654"><ele>117.14285714285715</ele><time>2026-04-04T12:24:21.391Z</time></trkpt><trkpt lat="45.2393359" lon="8.4707743"><ele>117.2857142857143</ele><time>2026-04-04T12:24:23.4Z</time></trkpt><trkpt lat="45.2393111" lon="8.47069"><ele>117.42857142857143</ele><time>2026-04-04T12:24:25.391Z</time></trkpt><trkpt lat="45.2392883" lon="8.4706059"><ele>117.57142857142858</ele><time>2026-04-04T12:24:27.391Z</time></trkpt><trkpt lat="45.2392669" lon="8.4705175"><ele>117.71428571428572</ele><time>2026-04-04T12:24:29.389Z</time></trkpt><trkpt lat="45.2392453" lon="8.4704299"><ele>117.85714285714286</ele><time>2026-04-04T12:24:31.39Z</time></trkpt><trkpt lat="45.2392239" lon="8.4703422"><ele>118.0</ele><time>2026-04-04T12:24:33.4Z</time></trkpt><trkpt lat="45.239199" lon="8.470253"><ele>118.0</ele><time>2026-04-04T12:24:35.405Z</time></trkpt><trkpt lat="45.2391743" lon="8.4701605"><ele>118.0</ele><time>2026-04-04T12:24:37.396Z</time></trkpt><trkpt lat="45.2391529" lon="8.4700691"><ele>118.0</ele><time>2026-04-04T12:24:39.392Z</time></trkpt><trkpt lat="45.2391331" lon="8.4699825"><ele>118.0</ele><time>2026-04-04T12:24:41.396Z</time></trkpt><trkpt lat="45.2391086" lon="8.4698896"><ele>118.0</ele><time>2026-04-04T12:24:43.401Z</time></trkpt><trkpt lat="45.2390871" lon="8.4697909"><ele>118.0</ele><time>2026-04-04T12:24:45.401Z</time></trkpt><trkpt lat="45.2390605" lon="8.4696902"><ele>118.0</ele><time>2026-04-04T12:24:47.4Z</time></trkpt><trkpt lat="45.2390292" lon="8.4695873"><ele>118.00000000000001</ele><time>2026-04-04T12:24:49.395Z</time></trkpt><trkpt lat="45.2390011" lon="8.4694823"><ele>118.0</ele><time>2026-04-04T12:24:51.394Z</time></trkpt><trkpt lat="45.2389703" lon="8.469369"><ele>118.0</ele><time>2026-04-04T12:24:53.391Z</time></trkpt><trkpt lat="45.2389393" lon="8.4692473"><ele>118.0</ele><time>2026-04-04T12:24:55.397Z</time></trkpt><trkpt lat="45.2389075" lon="8.4691272"><ele>118.00000000000001</ele><time>2026-04-04T12:24:57.404Z</time></trkpt><trkpt lat="45.2388719" lon="8.4690053"><ele>118.0</ele><time>2026-04-04T12:24:59.399Z</time></trkpt><trkpt lat="45.2388403" lon="8.4688787"><ele>117.80000000000001</ele><time>2026-04-04T12:25:01.397Z</time></trkpt><trkpt lat="45.2388037" lon="8.4687376"><ele>117.60000000000001</ele><time>2026-04-04T12:25:03.403Z</time></trkpt><trkpt lat="45.2387684" lon="8.4685957"><ele>117.39999999999999</ele><time>2026-04-04T12:25:05.402Z</time></trkpt><trkpt lat="45.2387276" lon="8.4684487"><ele>117.19999999999999</ele><time>2026-04-04T12:25:07.403Z</time></trkpt><trkpt lat="45.2386872" lon="8.4682906"><ele>117.0</ele><time>2026-04-04T12:25:09.403Z</time></trkpt><trkpt lat="45.2386482" lon="8.4681191"><ele>117.0</ele><time>2026-04-04T12:25:11.394Z</time></trkpt><trkpt lat="45.2386235" lon="8.4680281"><ele>117.00000000000001</ele><time>2026-04-04T12:25:12.404Z</time></trkpt><trkpt lat="45.2385961" lon="8.467935"><ele>117.0</ele><time>2026-04-04T12:25:13.396Z</time></trkpt><trkpt lat="45.2385728" lon="8.4678376"><ele>117.0</ele><time>2026-04-04T12:25:14.397Z</time></trkpt><trkpt lat="45.2385475" lon="8.4677481"><ele>117.00000000000001</ele><time>2026-04-04T12:25:15.4Z</time></trkpt><trkpt lat="45.2385175" lon="8.4676558"><ele>117.0</ele><time>2026-04-04T12:25:16.4Z</time></trkpt><trkpt lat="45.2384867" lon="8.4675618"><ele>117.0</ele><time>2026-04-04T12:25:17.399Z</time></trkpt><trkpt lat="45.2384543" lon="8.4674648"><ele>117.16666666666667</ele><time>2026-04-04T12:25:18.397Z</time></trkpt><trkpt lat="45.2384124" lon="8.4673676"><ele>117.33333333333334</ele><time>2026-04-04T12:25:19.393Z</time></trkpt><trkpt lat="45.2383746" lon="8.4672716"><ele>117.5</ele><time>2026-04-04T12:25:20.399Z</time></trkpt><trkpt lat="45.2383346" lon="8.4671763"><ele>117.66666666666667</ele><time>2026-04-04T12:25:21.397Z</time></trkpt><trkpt lat="45.2382932" lon="8.4670846"><ele>117.83333333333334</ele><time>2026-04-04T12:25:22.392Z</time></trkpt><trkpt lat="45.2382465" lon="8.4669885"><ele>118.0</ele><time>2026-04-04T12:25:23.405Z</time></trkpt><trkpt lat="45.2381942" lon="8.4669017"><ele>118.0</ele><time>2026-04-04T12:25:24.396Z</time></trkpt><trkpt lat="45.2381427" lon="8.4668203"><ele>118.0</ele><time>2026-04-04T12:25:25.411Z</time></trkpt><trkpt lat="45.2380941" lon="8.4667374"><ele>118.0</ele><time>2026-04-04T12:25:26.4Z</time></trkpt><trkpt lat="45.2380402" lon="8.4666618"><ele>118.0</ele><time>2026-04-04T12:25:27.415Z</time></trkpt><trkpt lat="45.2379902" lon="8.4665888"><ele>118.0</ele><time>2026-04-04T12:25:28.399Z</time></trkpt><trkpt lat="45.2379445" lon="8.4665129"><ele>118.0</ele><time>2026-04-04T12:25:29.396Z</time></trkpt><trkpt lat="45.2378992" lon="8.4664432"><ele>118.0</ele><time>2026-04-04T12:25:30.396Z</time></trkpt><trkpt lat="45.2378539" lon="8.4663759"><ele>117.80000000000001</ele><time>2026-04-04T12:25:31.407Z</time></trkpt><trkpt lat="45.2378107" lon="8.4663067"><ele>117.60000000000001</ele><time>2026-04-04T12:25:32.394Z</time></trkpt><trkpt lat="45.2377335" lon="8.4661796"><ele>117.39999999999999</ele><time>2026-04-04T12:25:34.394Z</time></trkpt><trkpt lat="45.2376498" lon="8.4660559"><ele>117.19999999999999</ele><time>2026-04-04T12:25:36.401Z</time></trkpt><trkpt lat="45.2375675" lon="8.4659301"><ele>117.0</ele><time>2026-04-04T12:25:38.394Z</time></trkpt><trkpt lat="45.2374861" lon="8.4658117"><ele>117.0</ele><time>2026-04-04T12:25:40.396Z</time></trkpt><trkpt lat="45.2374057" lon="8.4656942"><ele>117.0</ele><time>2026-04-04T12:25:42.399Z</time></trkpt><trkpt lat="45.2373294" lon="8.4655748"><ele>117.0</ele><time>2026-04-04T12:25:44.407Z</time></trkpt><trkpt lat="45.2372612" lon="8.4654412"><ele>117.0</ele><time>2026-04-04T12:25:46.395Z</time></trkpt><trkpt lat="45.2372043" lon="8.4652981"><ele>116.75</ele><time>2026-04-04T12:25:48.398Z</time></trkpt><trkpt lat="45.2371545" lon="8.4651494"><ele>116.5</ele><time>2026-04-04T12:25:50.393Z</time></trkpt><trkpt lat="45.2371098" lon="8.4650075"><ele>116.25</ele><time>2026-04-04T12:25:52.395Z</time></trkpt><trkpt lat="45.2370591" lon="8.4648569"><ele>116.0</ele><time>2026-04-04T12:25:54.393Z</time></trkpt><trkpt lat="45.237004" lon="8.4647086"><ele>116.5</ele><time>2026-04-04T12:25:56.399Z</time></trkpt><trkpt lat="45.2369399" lon="8.4645605"><ele>117.0</ele><time>2026-04-04T12:25:58.394Z</time></trkpt><trkpt lat="45.236872" lon="8.464424"><ele>117.5</ele><time>2026-04-04T12:26:00.4Z</time></trkpt><trkpt lat="45.23681" lon="8.4643009"><ele>118.0</ele><time>2026-04-04T12:26:02.395Z</time></trkpt><trkpt lat="45.2367525" lon="8.4641792"><ele>118.0</ele><time>2026-04-04T12:26:04.392Z</time></trkpt><trkpt lat="45.2366862" lon="8.4640514"><ele>118.00000000000001</ele><time>2026-04-04T12:26:06.393Z</time></trkpt><trkpt lat="45.2366226" lon="8.4639256"><ele>118.00000000000001</ele><time>2026-04-04T12:26:08.39Z</time></trkpt><trkpt lat="45.2365589" lon="8.4638007"><ele>118.0</ele><time>2026-04-04T12:26:10.395Z</time></trkpt><trkpt lat="45.2364986" lon="8.4636772"><ele>118.0</ele><time>2026-04-04T12:26:12.4Z</time></trkpt><trkpt lat="45.2364332" lon="8.4635554"><ele>117.60000000000001</ele><time>2026-04-04T12:26:14.393Z</time></trkpt><trkpt lat="45.2363709" lon="8.4634309"><ele>117.20000000000002</ele><time>2026-04-04T12:26:16.391Z</time></trkpt><trkpt lat="45.2363087" lon="8.4633121"><ele>116.8</ele><time>2026-04-04T12:26:18.394Z</time></trkpt><trkpt lat="45.2362472" lon="8.4631894"><ele>116.4</ele><time>2026-04-04T12:26:20.391Z</time></trkpt><trkpt lat="45.2361842" lon="8.4630663"><ele>116.0</ele><time>2026-04-04T12:26:22.397Z</time></trkpt><trkpt lat="45.236116" lon="8.4629576"><ele>116.19999999999999</ele><time>2026-04-04T12:26:24.396Z</time></trkpt><trkpt lat="45.2360281" lon="8.4628738"><ele>116.39999999999999</ele><time>2026-04-04T12:26:26.403Z</time></trkpt><trkpt lat="45.2359286" lon="8.4628018"><ele>116.6</ele><time>2026-04-04T12:26:28.393Z</time></trkpt><trkpt lat="45.2358271" lon="8.462744"><ele>116.8</ele><time>2026-04-04T12:26:30.404Z</time></trkpt><trkpt lat="45.2357246" lon="8.4626862"><ele>117.0</ele><time>2026-04-04T12:26:32.401Z</time></trkpt><trkpt lat="45.2356242" lon="8.4626342"><ele>117.0</ele><time>2026-04-04T12:26:34.39Z</time></trkpt><trkpt lat="45.2355203" lon="8.4625854"><ele>116.99999999999999</ele><time>2026-04-04T12:26:36.399Z</time></trkpt><trkpt lat="45.2354223" lon="8.4625253"><ele>116.99999999999999</ele><time>2026-04-04T12:26:38.392Z</time></trkpt><trkpt lat="45.23532" lon="8.4624697"><ele>117.0</ele><time>2026-04-04T12:26:40.404Z</time></trkpt><trkpt lat="45.2352179" lon="8.4624098"><ele>117.0</ele><time>2026-04-04T12:26:42.403Z</time></trkpt><trkpt lat="45.2351165" lon="8.4623497"><ele>117.0</ele><time>2026-04-04T12:26:44.405Z</time></trkpt><trkpt lat="45.2350141" lon="8.4622954"><ele>116.99999999999999</ele><time>2026-04-04T12:26:46.393Z</time></trkpt><trkpt lat="45.2349164" lon="8.4622402"><ele>116.99999999999999</ele><time>2026-04-04T12:26:48.393Z</time></trkpt><trkpt lat="45.2348203" lon="8.4621828"><ele>117.0</ele><time>2026-04-04T12:26:50.392Z</time></trkpt><trkpt lat="45.2347204" lon="8.4621253"><ele>117.0</ele><time>2026-04-04T12:26:52.395Z</time></trkpt><trkpt lat="45.234626" lon="8.4620697"><ele>117.19999999999999</ele><time>2026-04-04T12:26:54.393Z</time></trkpt><trkpt lat="45.2345364" lon="8.4620155"><ele>117.39999999999999</ele><time>2026-04-04T12:26:56.405Z</time></trkpt><trkpt lat="45.2344414" lon="8.4619588"><ele>117.60000000000001</ele><time>2026-04-04T12:26:58.395Z</time></trkpt><trkpt lat="45.2343518" lon="8.461906"><ele>117.80000000000001</ele><time>2026-04-04T12:27:00.395Z</time></trkpt><trkpt lat="45.2342674" lon="8.4618524"><ele>118.0</ele><time>2026-04-04T12:27:02.392Z</time></trkpt><trkpt lat="45.2341981" lon="8.4618103"><ele>118.00000000000001</ele><time>2026-04-04T12:27:04.392Z</time></trkpt><trkpt lat="45.234124" lon="8.461728"><ele>118.0</ele><time>2026-04-04T12:27:07.405Z</time></trkpt><trkpt lat="45.2340621" lon="8.46168"><ele>118.0</ele><time>2026-04-04T12:27:09.388Z</time></trkpt><trkpt lat="45.2339924" lon="8.4616344"><ele>118.0</ele><time>2026-04-04T12:27:11.397Z</time></trkpt><trkpt lat="45.233925" lon="8.4615661"><ele>118.00000000000001</ele><time>2026-04-04T12:27:13.391Z</time></trkpt><trkpt lat="45.2338571" lon="8.461483"><ele>118.0</ele><time>2026-04-04T12:27:15.395Z</time></trkpt><trkpt lat="45.2337794" lon="8.4613965"><ele>117.80000000000001</ele><time>2026-04-04T12:27:17.395Z</time></trkpt><trkpt lat="45.2337073" lon="8.4612949"><ele>117.60000000000001</ele><time>2026-04-04T12:27:19.403Z</time></trkpt><trkpt lat="45.2336351" lon="8.4612089"><ele>117.39999999999999</ele><time>2026-04-04T12:27:21.391Z</time></trkpt><trkpt lat="45.2335635" lon="8.4611151"><ele>117.19999999999999</ele><time>2026-04-04T12:27:23.392Z</time></trkpt><trkpt lat="45.2335004" lon="8.4610133"><ele>117.0</ele><time>2026-04-04T12:27:25.393Z</time></trkpt><trkpt lat="45.2334269" lon="8.4609164"><ele>117.0</ele><time>2026-04-04T12:27:27.394Z</time></trkpt><trkpt lat="45.2333622" lon="8.4608221"><ele>116.99999999999999</ele><time>2026-04-04T12:27:29.394Z</time></trkpt><trkpt lat="45.2333005" lon="8.4607126"><ele>116.99999999999999</ele><time>2026-04-04T12:27:31.399Z</time></trkpt><trkpt lat="45.2332403" lon="8.4606146"><ele>117.0</ele><time>2026-04-04T12:27:33.394Z</time></trkpt><trkpt lat="45.233188" lon="8.4605122"><ele>117.0</ele><time>2026-04-04T12:27:35.406Z</time></trkpt><trkpt lat="45.2331322" lon="8.4603972"><ele>117.0</ele><time>2026-04-04T12:27:37.395Z</time></trkpt><trkpt lat="45.2330763" lon="8.4602751"><ele>116.99999999999999</ele><time>2026-04-04T12:27:39.396Z</time></trkpt><trkpt lat="45.2330175" lon="8.460153"><ele>116.99999999999999</ele><time>2026-04-04T12:27:41.393Z</time></trkpt><trkpt lat="45.232959" lon="8.4600357"><ele>117.0</ele><time>2026-04-04T12:27:43.389Z</time></trkpt><trkpt lat="45.2329027" lon="8.4599271"><ele>117.0</ele><time>2026-04-04T12:27:45.393Z</time></trkpt><trkpt lat="45.2328473" lon="8.4598153"><ele>117.0</ele><time>2026-04-04T12:27:47.395Z</time></trkpt><trkpt lat="45.2327908" lon="8.4597063"><ele>116.99999999999999</ele><time>2026-04-04T12:27:49.401Z</time></trkpt><trkpt lat="45.2327418" lon="8.4596087"><ele>116.99999999999999</ele><time>2026-04-04T12:27:51.393Z</time></trkpt><trkpt lat="45.2326844" lon="8.4595099"><ele>117.0</ele><time>2026-04-04T12:27:53.392Z</time></trkpt><trkpt lat="45.2326179" lon="8.4594208"><ele>117.0</ele><time>2026-04-04T12:27:55.406Z</time></trkpt><trkpt lat="45.2325535" lon="8.459329"><ele>117.19999999999999</ele><time>2026-04-04T12:27:57.394Z</time></trkpt><trkpt lat="45.2324814" lon="8.459235"><ele>117.39999999999999</ele><time>2026-04-04T12:27:59.397Z</time></trkpt><trkpt lat="45.232412" lon="8.4591403"><ele>117.60000000000001</ele><time>2026-04-04T12:28:01.397Z</time></trkpt><trkpt lat="45.2323415" lon="8.4590516"><ele>117.80000000000001</ele><time>2026-04-04T12:28:03.401Z</time></trkpt><trkpt lat="45.2322709" lon="8.4589577"><ele>118.0</ele><time>2026-04-04T12:28:05.399Z</time></trkpt><trkpt lat="45.2321989" lon="8.4588623"><ele>118.0</ele><time>2026-04-04T12:28:07.394Z</time></trkpt><trkpt lat="45.2321225" lon="8.4587776"><ele>118.00000000000001</ele><time>2026-04-04T12:28:09.403Z</time></trkpt><trkpt lat="45.2320386" lon="8.4586966"><ele>118.00000000000001</ele><time>2026-04-04T12:28:11.393Z</time></trkpt><trkpt lat="45.2319553" lon="8.4586186"><ele>118.0</ele><time>2026-04-04T12:28:13.392Z</time></trkpt><trkpt lat="45.2318686" lon="8.4585489"><ele>118.0</ele><time>2026-04-04T12:28:15.404Z</time></trkpt><trkpt lat="45.2317787" lon="8.4584802"><ele>118.0</ele><time>2026-04-04T12:28:17.405Z</time></trkpt><trkpt lat="45.2317084" lon="8.4584111"><ele>118.00000000000001</ele><time>2026-04-04T12:28:19.392Z</time></trkpt><trkpt lat="45.231639" lon="8.4583508"><ele>118.00000000000001</ele><time>2026-04-04T12:28:21.39Z</time></trkpt><trkpt lat="45.231558" lon="8.4582829"><ele>118.0</ele><time>2026-04-04T12:28:23.393Z</time></trkpt><trkpt lat="45.2314747" lon="8.4582245"><ele>118.0</ele><time>2026-04-04T12:28:25.395Z</time></trkpt><trkpt lat="45.2313899" lon="8.4581566"><ele>118.00000000000001</ele><time>2026-04-04T12:28:27.394Z</time></trkpt><trkpt lat="45.2313057" lon="8.4580778"><ele>118.0</ele><time>2026-04-04T12:28:29.394Z</time></trkpt><trkpt lat="45.231228" lon="8.4579979"><ele>118.0</ele><time>2026-04-04T12:28:31.396Z</time></trkpt><trkpt lat="45.2311581" lon="8.4579179"><ele>118.0</ele><time>2026-04-04T12:28:33.399Z</time></trkpt><trkpt lat="45.2310833" lon="8.4578402"><ele>118.00000000000001</ele><time>2026-04-04T12:28:35.4Z</time></trkpt><trkpt lat="45.2310325" lon="8.4577799"><ele>118.0</ele><time>2026-04-04T12:28:37.394Z</time></trkpt><trkpt lat="45.23102" lon="8.4576544"><ele>118.0</ele><time>2026-04-04T12:28:40.398Z</time></trkpt><trkpt lat="45.231061" lon="8.4575432"><ele>118.00000000000001</ele><time>2026-04-04T12:28:42.391Z</time></trkpt><trkpt lat="45.2311359" lon="8.4574426"><ele>118.00000000000001</ele><time>2026-04-04T12:28:44.391Z</time></trkpt><trkpt lat="45.2311911" lon="8.4573313"><ele>118.0</ele><time>2026-04-04T12:28:46.391Z</time></trkpt><trkpt lat="45.2312509" lon="8.4572152"><ele>118.0</ele><time>2026-04-04T12:28:48.395Z</time></trkpt><trkpt lat="45.2313068" lon="8.4571015"><ele>118.60000000000001</ele><time>2026-04-04T12:28:50.398Z</time></trkpt><trkpt lat="45.2313507" lon="8.4569713"><ele>119.20000000000002</ele><time>2026-04-04T12:28:52.407Z</time></trkpt><trkpt lat="45.231362" lon="8.4568308"><ele>119.8</ele><time>2026-04-04T12:28:54.4Z</time></trkpt><trkpt lat="45.2313338" lon="8.4566985"><ele>120.4</ele><time>2026-04-04T12:28:56.395Z</time></trkpt><trkpt lat="45.2312832" lon="8.4565815"><ele>121.0</ele><time>2026-04-04T12:28:58.399Z</time></trkpt><trkpt lat="45.2312308" lon="8.456474"><ele>121.0</ele><time>2026-04-04T12:29:00.403Z</time></trkpt><trkpt lat="45.2311922" lon="8.4563603"><ele>121.0</ele><time>2026-04-04T12:29:02.41Z</time></trkpt><trkpt lat="45.2311613" lon="8.456246"><ele>121.0</ele><time>2026-04-04T12:29:04.394Z</time></trkpt><trkpt lat="45.2311591" lon="8.4561179"><ele>121.0</ele><time>2026-04-04T12:29:06.392Z</time></trkpt><trkpt lat="45.2311876" lon="8.4559926"><ele>121.0</ele><time>2026-04-04T12:29:08.397Z</time></trkpt><trkpt lat="45.2312314" lon="8.4558598"><ele>121.19999999999999</ele><time>2026-04-04T12:29:10.388Z</time></trkpt><trkpt lat="45.2312688" lon="8.4557334"><ele>121.39999999999999</ele><time>2026-04-04T12:29:12.398Z</time></trkpt><trkpt lat="45.23131" lon="8.4556097"><ele>121.6</ele><time>2026-04-04T12:29:14.397Z</time></trkpt><trkpt lat="45.2313518" lon="8.4554935"><ele>121.8</ele><time>2026-04-04T12:29:16.401Z</time></trkpt><trkpt lat="45.2313956" lon="8.4553722"><ele>122.0</ele><time>2026-04-04T12:29:18.397Z</time></trkpt><trkpt lat="45.2314371" lon="8.455242"><ele>121.8</ele><time>2026-04-04T12:29:20.406Z</time></trkpt><trkpt lat="45.2314805" lon="8.4551173"><ele>121.6</ele><time>2026-04-04T12:29:22.396Z</time></trkpt><trkpt lat="45.231524" lon="8.4549945"><ele>121.39999999999999</ele><time>2026-04-04T12:29:24.395Z</time></trkpt><trkpt lat="45.2315674" lon="8.4548726"><ele>121.19999999999999</ele><time>2026-04-04T12:29:26.396Z</time></trkpt><trkpt lat="45.2315922" lon="8.4547408"><ele>121.0</ele><time>2026-04-04T12:29:28.397Z</time></trkpt><trkpt lat="45.2315893" lon="8.454604"><ele>121.0</ele><time>2026-04-04T12:29:30.411Z</time></trkpt><trkpt lat="45.2315616" lon="8.4544807"><ele>121.0</ele><time>2026-04-04T12:29:32.408Z</time></trkpt><trkpt lat="45.2315105" lon="8.4543614"><ele>121.0</ele><time>2026-04-04T12:29:34.397Z</time></trkpt><trkpt lat="45.2314517" lon="8.454242"><ele>121.0</ele><time>2026-04-04T12:29:36.409Z</time></trkpt><trkpt lat="45.2313928" lon="8.4541293"><ele>121.0</ele><time>2026-04-04T12:29:38.394Z</time></trkpt><trkpt lat="45.2313142" lon="8.4540224"><ele>120.8</ele><time>2026-04-04T12:29:40.394Z</time></trkpt><trkpt lat="45.2312469" lon="8.45392"><ele>120.6</ele><time>2026-04-04T12:29:42.392Z</time></trkpt><trkpt lat="45.2311703" lon="8.4538166"><ele>120.4</ele><time>2026-04-04T12:29:44.395Z</time></trkpt><trkpt lat="45.2310922" lon="8.4537204"><ele>120.2</ele><time>2026-04-04T12:29:46.394Z</time></trkpt><trkpt lat="45.2310143" lon="8.4536239"><ele>120.0</ele><time>2026-04-04T12:29:48.396Z</time></trkpt><trkpt lat="45.230937" lon="8.4535285"><ele>120.0</ele><time>2026-04-04T12:29:50.399Z</time></trkpt><trkpt lat="45.2308604" lon="8.4534245"><ele>120.0</ele><time>2026-04-04T12:29:52.393Z</time></trkpt><trkpt lat="45.2307897" lon="8.4533354"><ele>120.0</ele><time>2026-04-04T12:29:54.393Z</time></trkpt><trkpt lat="45.2307188" lon="8.4532566"><ele>120.0</ele><time>2026-04-04T12:29:56.39Z</time></trkpt><trkpt lat="45.2306499" lon="8.4531668"><ele>120.0</ele><time>2026-04-04T12:29:58.393Z</time></trkpt><trkpt lat="45.2305787" lon="8.4530783"><ele>119.8</ele><time>2026-04-04T12:30:00.394Z</time></trkpt><trkpt lat="45.2305066" lon="8.4529846"><ele>119.6</ele><time>2026-04-04T12:30:02.398Z</time></trkpt><trkpt lat="45.230436" lon="8.4528955"><ele>119.4</ele><time>2026-04-04T12:30:04.394Z</time></trkpt><trkpt lat="45.2303585" lon="8.4528102"><ele>119.2</ele><time>2026-04-04T12:30:06.395Z</time></trkpt><trkpt lat="45.2302852" lon="8.452721"><ele>119.0</ele><time>2026-04-04T12:30:08.391Z</time></trkpt><trkpt lat="45.2302092" lon="8.4526283"><ele>119.0</ele><time>2026-04-04T12:30:10.397Z</time></trkpt><trkpt lat="45.2301386" lon="8.4525338"><ele>119.0</ele><time>2026-04-04T12:30:12.405Z</time></trkpt><trkpt lat="45.2300733" lon="8.452427"><ele>119.0</ele><time>2026-04-04T12:30:14.398Z</time></trkpt><trkpt lat="45.2300194" lon="8.4523133"><ele>119.0</ele><time>2026-04-04T12:30:16.392Z</time></trkpt><trkpt lat="45.2299593" lon="8.4522042"><ele>119.0</ele><time>2026-04-04T12:30:18.393Z</time></trkpt><trkpt lat="45.2299139" lon="8.4520953"><ele>119.0</ele><time>2026-04-04T12:30:20.39Z</time></trkpt><trkpt lat="45.2299248" lon="8.4519721"><ele>119.0</ele><time>2026-04-04T12:30:22.397Z</time></trkpt><trkpt lat="45.2299537" lon="8.451851"><ele>119.0</ele><time>2026-04-04T12:30:24.401Z</time></trkpt><trkpt lat="45.2299885" lon="8.4517082"><ele>119.0</ele><time>2026-04-04T12:30:26.397Z</time></trkpt><trkpt lat="45.2300274" lon="8.4515653"><ele>119.0</ele><time>2026-04-04T12:30:28.397Z</time></trkpt><trkpt lat="45.2300468" lon="8.4514142"><ele>118.80000000000001</ele><time>2026-04-04T12:30:30.407Z</time></trkpt><trkpt lat="45.2300695" lon="8.4512703"><ele>118.60000000000001</ele><time>2026-04-04T12:30:32.397Z</time></trkpt><trkpt lat="45.2300921" lon="8.451124"><ele>118.4</ele><time>2026-04-04T12:30:34.401Z</time></trkpt><trkpt lat="45.2301141" lon="8.4509743"><ele>118.2</ele><time>2026-04-04T12:30:36.4Z</time></trkpt><trkpt lat="45.2301394" lon="8.4508236"><ele>118.0</ele><time>2026-04-04T12:30:38.4Z</time></trkpt><trkpt lat="45.2301669" lon="8.4506836"><ele>118.0</ele><time>2026-04-04T12:30:40.399Z</time></trkpt><trkpt lat="45.2301933" lon="8.4505367"><ele>118.00000000000001</ele><time>2026-04-04T12:30:42.398Z</time></trkpt><trkpt lat="45.2302147" lon="8.4503869"><ele>118.00000000000001</ele><time>2026-04-04T12:30:44.397Z</time></trkpt><trkpt lat="45.2302348" lon="8.4502289"><ele>118.0</ele><time>2026-04-04T12:30:46.396Z</time></trkpt><trkpt lat="45.2302571" lon="8.4500745"><ele>118.0</ele><time>2026-04-04T12:30:48.394Z</time></trkpt><trkpt lat="45.2302809" lon="8.4499222"><ele>118.0</ele><time>2026-04-04T12:30:50.408Z</time></trkpt><trkpt lat="45.230302" lon="8.4497675"><ele>118.00000000000001</ele><time>2026-04-04T12:30:52.394Z</time></trkpt><trkpt lat="45.2303273" lon="8.4496125"><ele>118.00000000000001</ele><time>2026-04-04T12:30:54.402Z</time></trkpt><trkpt lat="45.2303489" lon="8.4494595"><ele>118.0</ele><time>2026-04-04T12:30:56.39Z</time></trkpt><trkpt lat="45.2303708" lon="8.4493113"><ele>118.0</ele><time>2026-04-04T12:30:58.391Z</time></trkpt><trkpt lat="45.230395" lon="8.4491597"><ele>118.2</ele><time>2026-04-04T12:31:00.395Z</time></trkpt><trkpt lat="45.2304154" lon="8.4490075"><ele>118.4</ele><time>2026-04-04T12:31:02.403Z</time></trkpt><trkpt lat="45.230436" lon="8.4488604"><ele>118.60000000000001</ele><time>2026-04-04T12:31:04.403Z</time></trkpt><trkpt lat="45.2304634" lon="8.4487201"><ele>118.80000000000001</ele><time>2026-04-04T12:31:06.404Z</time></trkpt><trkpt lat="45.2304891" lon="8.4485646"><ele>119.0</ele><time>2026-04-04T12:31:08.399Z</time></trkpt><trkpt lat="45.2305191" lon="8.4484146"><ele>119.0</ele><time>2026-04-04T12:31:10.395Z</time></trkpt><trkpt lat="45.2305438" lon="8.4482677"><ele>119.0</ele><time>2026-04-04T12:31:12.397Z</time></trkpt><trkpt lat="45.2305682" lon="8.4481196"><ele>119.0</ele><time>2026-04-04T12:31:14.4Z</time></trkpt><trkpt lat="45.2305911" lon="8.4479647"><ele>119.0</ele><time>2026-04-04T12:31:16.403Z</time></trkpt><trkpt lat="45.2306177" lon="8.4478147"><ele>119.0</ele><time>2026-04-04T12:31:18.396Z</time></trkpt><trkpt lat="45.2306355" lon="8.4476588"><ele>119.0</ele><time>2026-04-04T12:31:20.403Z</time></trkpt><trkpt lat="45.2306598" lon="8.4475042"><ele>119.0</ele><time>2026-04-04T12:31:22.399Z</time></trkpt><trkpt lat="45.2306853" lon="8.4473555"><ele>119.0</ele><time>2026-04-04T12:31:24.397Z</time></trkpt><trkpt lat="45.2307261" lon="8.4472103"><ele>119.0</ele><time>2026-04-04T12:31:26.406Z</time></trkpt><trkpt lat="45.2307314" lon="8.4470552"><ele>119.0</ele><time>2026-04-04T12:31:28.396Z</time></trkpt><trkpt lat="45.2307545" lon="8.4469055"><ele>119.0</ele><time>2026-04-04T12:31:30.393Z</time></trkpt><trkpt lat="45.2307792" lon="8.4467536"><ele>119.0</ele><time>2026-04-04T12:31:32.39Z</time></trkpt><trkpt lat="45.2308027" lon="8.446605"><ele>119.0</ele><time>2026-04-04T12:31:34.395Z</time></trkpt><trkpt lat="45.2308327" lon="8.446458"><ele>119.0</ele><time>2026-04-04T12:31:36.392Z</time></trkpt><trkpt lat="45.2308582" lon="8.4463175"><ele>119.0</ele><time>2026-04-04T12:31:38.401Z</time></trkpt><trkpt lat="45.2308801" lon="8.4461778"><ele>119.0</ele><time>2026-04-04T12:31:40.399Z</time></trkpt><trkpt lat="45.2309032" lon="8.4460298"><ele>119.0</ele><time>2026-04-04T12:31:42.393Z</time></trkpt><trkpt lat="45.23093" lon="8.4458861"><ele>119.0</ele><time>2026-04-04T12:31:44.399Z</time></trkpt><trkpt lat="45.2309623" lon="8.4457428"><ele>119.0</ele><time>2026-04-04T12:31:46.393Z</time></trkpt><trkpt lat="45.2309876" lon="8.4455949"><ele>119.0</ele><time>2026-04-04T12:31:48.391Z</time></trkpt><trkpt lat="45.2310192" lon="8.4454557"><ele>118.80000000000001</ele><time>2026-04-04T12:31:50.402Z</time></trkpt><trkpt lat="45.2310582" lon="8.4453217"><ele>118.60000000000001</ele><time>2026-04-04T12:31:52.399Z</time></trkpt><trkpt lat="45.2310982" lon="8.4451816"><ele>118.4</ele><time>2026-04-04T12:31:54.396Z</time></trkpt><trkpt lat="45.2311193" lon="8.4450289"><ele>118.2</ele><time>2026-04-04T12:31:56.401Z</time></trkpt><trkpt lat="45.2311392" lon="8.4448789"><ele>118.0</ele><time>2026-04-04T12:31:58.392Z</time></trkpt><trkpt lat="45.2311515" lon="8.4447237"><ele>118.0</ele><time>2026-04-04T12:32:00.401Z</time></trkpt><trkpt lat="45.2311528" lon="8.4445698"><ele>118.00000000000001</ele><time>2026-04-04T12:32:02.396Z</time></trkpt><trkpt lat="45.2311642" lon="8.4444186"><ele>118.00000000000001</ele><time>2026-04-04T12:32:04.403Z</time></trkpt><trkpt lat="45.2311814" lon="8.44427"><ele>118.0</ele><time>2026-04-04T12:32:06.401Z</time></trkpt><trkpt lat="45.2312076" lon="8.4441259"><ele>118.0</ele><time>2026-04-04T12:32:08.397Z</time></trkpt><trkpt lat="45.231231" lon="8.4439752"><ele>118.0</ele><time>2026-04-04T12:32:10.394Z</time></trkpt><trkpt lat="45.2312566" lon="8.4438242"><ele>118.00000000000001</ele><time>2026-04-04T12:32:12.396Z</time></trkpt><trkpt lat="45.2312824" lon="8.4436747"><ele>118.00000000000001</ele><time>2026-04-04T12:32:14.395Z</time></trkpt><trkpt lat="45.2313082" lon="8.4435234"><ele>118.0</ele><time>2026-04-04T12:32:16.393Z</time></trkpt><trkpt lat="45.2313285" lon="8.4433671"><ele>118.0</ele><time>2026-04-04T12:32:18.393Z</time></trkpt><trkpt lat="45.2313498" lon="8.44322"><ele>118.0</ele><time>2026-04-04T12:32:20.392Z</time></trkpt><trkpt lat="45.2313727" lon="8.4430699"><ele>118.00000000000001</ele><time>2026-04-04T12:32:22.392Z</time></trkpt><trkpt lat="45.2313964" lon="8.4429215"><ele>118.00000000000001</ele><time>2026-04-04T12:32:24.395Z</time></trkpt><trkpt lat="45.2314245" lon="8.4427673"><ele>118.0</ele><time>2026-04-04T12:32:26.393Z</time></trkpt><trkpt lat="45.2314449" lon="8.4426199"><ele>118.0</ele><time>2026-04-04T12:32:28.403Z</time></trkpt><trkpt lat="45.2314664" lon="8.4424718"><ele>118.0</ele><time>2026-04-04T12:32:30.394Z</time></trkpt><trkpt lat="45.2314918" lon="8.4423183"><ele>118.00000000000001</ele><time>2026-04-04T12:32:32.401Z</time></trkpt><trkpt lat="45.231518" lon="8.4421656"><ele>118.00000000000001</ele><time>2026-04-04T12:32:34.398Z</time></trkpt><trkpt lat="45.2315413" lon="8.4420194"><ele>118.0</ele><time>2026-04-04T12:32:36.401Z</time></trkpt><trkpt lat="45.2315644" lon="8.4418712"><ele>118.0</ele><time>2026-04-04T12:32:38.393Z</time></trkpt><trkpt lat="45.2315915" lon="8.4417257"><ele>118.0</ele><time>2026-04-04T12:32:40.395Z</time></trkpt><trkpt lat="45.2316162" lon="8.4415823"><ele>118.00000000000001</ele><time>2026-04-04T12:32:42.396Z</time></trkpt><trkpt lat="45.2316364" lon="8.4414398"><ele>118.00000000000001</ele><time>2026-04-04T12:32:44.4Z</time></trkpt><trkpt lat="45.2316606" lon="8.4412923"><ele>118.0</ele><time>2026-04-04T12:32:46.403Z</time></trkpt><trkpt lat="45.2316826" lon="8.4411433"><ele>118.0</ele><time>2026-04-04T12:32:48.4Z</time></trkpt><trkpt lat="45.2317034" lon="8.4409962"><ele>118.2</ele><time>2026-04-04T12:32:50.396Z</time></trkpt><trkpt lat="45.2317281" lon="8.4408518"><ele>118.4</ele><time>2026-04-04T12:32:52.394Z</time></trkpt><trkpt lat="45.2317523" lon="8.4407"><ele>118.60000000000001</ele><time>2026-04-04T12:32:54.395Z</time></trkpt><trkpt lat="45.2317751" lon="8.4405495"><ele>118.80000000000001</ele><time>2026-04-04T12:32:56.403Z</time></trkpt><trkpt lat="45.2317994" lon="8.4403967"><ele>119.0</ele><time>2026-04-04T12:32:58.397Z</time></trkpt><trkpt lat="45.2318236" lon="8.4402463"><ele>119.0</ele><time>2026-04-04T12:33:00.398Z</time></trkpt><trkpt lat="45.2318482" lon="8.4400971"><ele>119.0</ele><time>2026-04-04T12:33:02.391Z</time></trkpt><trkpt lat="45.2318713" lon="8.4399486"><ele>119.0</ele><time>2026-04-04T12:33:04.4Z</time></trkpt><trkpt lat="45.2318968" lon="8.4398049"><ele>119.0</ele><time>2026-04-04T12:33:06.398Z</time></trkpt><trkpt lat="45.2319187" lon="8.4396499"><ele>119.0</ele><time>2026-04-04T12:33:08.396Z</time></trkpt><trkpt lat="45.2319439" lon="8.4395003"><ele>119.0</ele><time>2026-04-04T12:33:10.394Z</time></trkpt><trkpt lat="45.2319643" lon="8.4393472"><ele>119.0</ele><time>2026-04-04T12:33:12.393Z</time></trkpt><trkpt lat="45.2319924" lon="8.4391987"><ele>119.0</ele><time>2026-04-04T12:33:14.4Z</time></trkpt><trkpt lat="45.2320087" lon="8.439044"><ele>119.0</ele><time>2026-04-04T12:33:16.411Z</time></trkpt><trkpt lat="45.2320279" lon="8.4388988"><ele>119.0</ele><time>2026-04-04T12:33:18.406Z</time></trkpt><trkpt lat="45.2320581" lon="8.4387562"><ele>119.0</ele><time>2026-04-04T12:33:20.393Z</time></trkpt><trkpt lat="45.2320785" lon="8.4386062"><ele>119.0</ele><time>2026-04-04T12:33:22.411Z</time></trkpt><trkpt lat="45.2320985" lon="8.4384514"><ele>119.0</ele><time>2026-04-04T12:33:24.409Z</time></trkpt><trkpt lat="45.2321265" lon="8.4383002"><ele>119.0</ele><time>2026-04-04T12:33:26.39Z</time></trkpt><trkpt lat="45.2321481" lon="8.4381482"><ele>119.0</ele><time>2026-04-04T12:33:28.4Z</time></trkpt><trkpt lat="45.2321693" lon="8.4379925"><ele>118.80000000000001</ele><time>2026-04-04T12:33:30.405Z</time></trkpt><trkpt lat="45.2321959" lon="8.43784"><ele>118.60000000000001</ele><time>2026-04-04T12:33:32.395Z</time></trkpt><trkpt lat="45.2322215" lon="8.4376961"><ele>118.4</ele><time>2026-04-04T12:33:34.393Z</time></trkpt><trkpt lat="45.2322467" lon="8.4375446"><ele>118.2</ele><time>2026-04-04T12:33:36.398Z</time></trkpt><trkpt lat="45.2322719" lon="8.4373995"><ele>118.0</ele><time>2026-04-04T12:33:38.394Z</time></trkpt><trkpt lat="45.2322904" lon="8.43725"><ele>118.2</ele><time>2026-04-04T12:33:40.393Z</time></trkpt><trkpt lat="45.2323147" lon="8.4370971"><ele>118.4</ele><time>2026-04-04T12:33:42.391Z</time></trkpt><trkpt lat="45.2323407" lon="8.4369448"><ele>118.60000000000001</ele><time>2026-04-04T12:33:44.395Z</time></trkpt><trkpt lat="45.2323676" lon="8.4368011"><ele>118.80000000000001</ele><time>2026-04-04T12:33:46.391Z</time></trkpt><trkpt lat="45.2323923" lon="8.4366564"><ele>119.0</ele><time>2026-04-04T12:33:48.392Z</time></trkpt><trkpt lat="45.2324157" lon="8.4365028"><ele>119.0</ele><time>2026-04-04T12:33:50.395Z</time></trkpt><trkpt lat="45.2324412" lon="8.4363536"><ele>119.0</ele><time>2026-04-04T12:33:52.396Z</time></trkpt><trkpt lat="45.2324654" lon="8.4362117"><ele>119.0</ele><time>2026-04-04T12:33:54.395Z</time></trkpt><trkpt lat="45.2324865" lon="8.4360707"><ele>119.0</ele><time>2026-04-04T12:33:56.407Z</time></trkpt><trkpt lat="45.2325106" lon="8.435927"><ele>119.0</ele><time>2026-04-04T12:33:58.395Z</time></trkpt><trkpt lat="45.2325307" lon="8.4357905"><ele>119.0</ele><time>2026-04-04T12:34:00.396Z</time></trkpt><trkpt lat="45.2325528" lon="8.4356471"><ele>119.0</ele><time>2026-04-04T12:34:02.408Z</time></trkpt><trkpt lat="45.2325804" lon="8.4355024"><ele>119.0</ele><time>2026-04-04T12:34:04.393Z</time></trkpt><trkpt lat="45.2326037" lon="8.435354"><ele>119.0</ele><time>2026-04-04T12:34:06.395Z</time></trkpt><trkpt lat="45.2326212" lon="8.4352164"><ele>119.0</ele><time>2026-04-04T12:34:08.392Z</time></trkpt><trkpt lat="45.2326433" lon="8.4350736"><ele>119.0</ele><time>2026-04-04T12:34:10.407Z</time></trkpt><trkpt lat="45.232668" lon="8.4349317"><ele>119.0</ele><time>2026-04-04T12:34:12.391Z</time></trkpt><trkpt lat="45.2326866" lon="8.4347982"><ele>119.0</ele><time>2026-04-04T12:34:14.398Z</time></trkpt><trkpt lat="45.2327064" lon="8.4346551"><ele>119.0</ele><time>2026-04-04T12:34:16.404Z</time></trkpt><trkpt lat="45.2327277" lon="8.4345187"><ele>119.0</ele><time>2026-04-04T12:34:18.396Z</time></trkpt><trkpt lat="45.2327509" lon="8.4343788"><ele>119.0</ele><time>2026-04-04T12:34:20.392Z</time></trkpt><trkpt lat="45.232772" lon="8.4342342"><ele>119.0</ele><time>2026-04-04T12:34:22.397Z</time></trkpt><trkpt lat="45.2327974" lon="8.4340965"><ele>119.0</ele><time>2026-04-04T12:34:24.402Z</time></trkpt><trkpt lat="45.2328206" lon="8.4339508"><ele>119.0</ele><time>2026-04-04T12:34:26.396Z</time></trkpt><trkpt lat="45.2328391" lon="8.4338025"><ele>119.0</ele><time>2026-04-04T12:34:28.403Z</time></trkpt><trkpt lat="45.2328684" lon="8.4336579"><ele>119.0</ele><time>2026-04-04T12:34:30.398Z</time></trkpt><trkpt lat="45.2328917" lon="8.4335141"><ele>119.0</ele><time>2026-04-04T12:34:32.398Z</time></trkpt><trkpt lat="45.2329168" lon="8.4333684"><ele>119.0</ele><time>2026-04-04T12:34:34.391Z</time></trkpt><trkpt lat="45.2329448" lon="8.4332269"><ele>119.0</ele><time>2026-04-04T12:34:36.399Z</time></trkpt><trkpt lat="45.232963" lon="8.4330875"><ele>119.0</ele><time>2026-04-04T12:34:38.396Z</time></trkpt><trkpt lat="45.2329878" lon="8.4329428"><ele>119.0</ele><time>2026-04-04T12:34:40.392Z</time></trkpt><trkpt lat="45.2330102" lon="8.4327983"><ele>119.0</ele><time>2026-04-04T12:34:42.403Z</time></trkpt><trkpt lat="45.2330333" lon="8.4326557"><ele>119.0</ele><time>2026-04-04T12:34:44.407Z</time></trkpt><trkpt lat="45.2330544" lon="8.4325141"><ele>119.0</ele><time>2026-04-04T12:34:46.403Z</time></trkpt><trkpt lat="45.2330729" lon="8.4323743"><ele>119.0</ele><time>2026-04-04T12:34:48.407Z</time></trkpt><trkpt lat="45.2330958" lon="8.4322298"><ele>119.0</ele><time>2026-04-04T12:34:50.399Z</time></trkpt><trkpt lat="45.2331186" lon="8.4320925"><ele>119.0</ele><time>2026-04-04T12:34:52.393Z</time></trkpt><trkpt lat="45.2331408" lon="8.4319539"><ele>119.0</ele><time>2026-04-04T12:34:54.398Z</time></trkpt><trkpt lat="45.2331644" lon="8.4318091"><ele>119.0</ele><time>2026-04-04T12:34:56.407Z</time></trkpt><trkpt lat="45.2331882" lon="8.4316697"><ele>119.0</ele><time>2026-04-04T12:34:58.395Z</time></trkpt><trkpt lat="45.2332142" lon="8.4315348"><ele>119.0</ele><time>2026-04-04T12:35:00.393Z</time></trkpt><trkpt lat="45.2332311" lon="8.4313908"><ele>119.0</ele><time>2026-04-04T12:35:02.404Z</time></trkpt><trkpt lat="45.2332549" lon="8.4312471"><ele>119.0</ele><time>2026-04-04T12:35:04.393Z</time></trkpt><trkpt lat="45.2332725" lon="8.4311016"><ele>119.0</ele><time>2026-04-04T12:35:06.397Z</time></trkpt><trkpt lat="45.2332955" lon="8.4309607"><ele>119.0</ele><time>2026-04-04T12:35:08.395Z</time></trkpt><trkpt lat="45.2333167" lon="8.4308162"><ele>119.0</ele><time>2026-04-04T12:35:10.397Z</time></trkpt><trkpt lat="45.2333384" lon="8.4306788"><ele>119.0</ele><time>2026-04-04T12:35:12.401Z</time></trkpt><trkpt lat="45.2333578" lon="8.4305447"><ele>119.0</ele><time>2026-04-04T12:35:14.392Z</time></trkpt><trkpt lat="45.233378" lon="8.4304043"><ele>119.0</ele><time>2026-04-04T12:35:16.404Z</time></trkpt><trkpt lat="45.233402" lon="8.4302644"><ele>119.0</ele><time>2026-04-04T12:35:18.4Z</time></trkpt><trkpt lat="45.2334212" lon="8.4301201"><ele>119.2</ele><time>2026-04-04T12:35:20.398Z</time></trkpt><trkpt lat="45.2334486" lon="8.4299729"><ele>119.4</ele><time>2026-04-04T12:35:22.393Z</time></trkpt><trkpt lat="45.2334712" lon="8.4298263"><ele>119.6</ele><time>2026-04-04T12:35:24.399Z</time></trkpt><trkpt lat="45.233496" lon="8.4296787"><ele>119.8</ele><time>2026-04-04T12:35:26.397Z</time></trkpt><trkpt lat="45.2335254" lon="8.4295407"><ele>120.0</ele><time>2026-04-04T12:35:28.396Z</time></trkpt><trkpt lat="45.233544" lon="8.4293917"><ele>120.0</ele><time>2026-04-04T12:35:30.394Z</time></trkpt><trkpt lat="45.2335722" lon="8.4292463"><ele>120.0</ele><time>2026-04-04T12:35:32.399Z</time></trkpt><trkpt lat="45.2335969" lon="8.4291025"><ele>120.0</ele><time>2026-04-04T12:35:34.395Z</time></trkpt><trkpt lat="45.23362" lon="8.4289618"><ele>120.0</ele><time>2026-04-04T12:35:36.4Z</time></trkpt><trkpt lat="45.2336485" lon="8.4288216"><ele>120.0</ele><time>2026-04-04T12:35:38.402Z</time></trkpt><trkpt lat="45.2336703" lon="8.4286826"><ele>120.2</ele><time>2026-04-04T12:35:40.402Z</time></trkpt><trkpt lat="45.2336952" lon="8.4285422"><ele>120.4</ele><time>2026-04-04T12:35:42.394Z</time></trkpt><trkpt lat="45.2337133" lon="8.4283956"><ele>120.6</ele><time>2026-04-04T12:35:44.401Z</time></trkpt><trkpt lat="45.2337355" lon="8.4282544"><ele>120.8</ele><time>2026-04-04T12:35:46.403Z</time></trkpt><trkpt lat="45.2337534" lon="8.4281111"><ele>121.0</ele><time>2026-04-04T12:35:48.399Z</time></trkpt><trkpt lat="45.2337725" lon="8.4279625"><ele>121.0</ele><time>2026-04-04T12:35:50.398Z</time></trkpt><trkpt lat="45.2337961" lon="8.4278148"><ele>121.0</ele><time>2026-04-04T12:35:52.4Z</time></trkpt><trkpt lat="45.2338161" lon="8.4276682"><ele>121.0</ele><time>2026-04-04T12:35:54.399Z</time></trkpt><trkpt lat="45.2338346" lon="8.4275225"><ele>121.0</ele><time>2026-04-04T12:35:56.404Z</time></trkpt><trkpt lat="45.233857" lon="8.4273774"><ele>121.0</ele><time>2026-04-04T12:35:58.403Z</time></trkpt><trkpt lat="45.2338799" lon="8.4272346"><ele>121.19999999999999</ele><time>2026-04-04T12:36:00.396Z</time></trkpt><trkpt lat="45.2339068" lon="8.4270926"><ele>121.39999999999999</ele><time>2026-04-04T12:36:02.396Z</time></trkpt><trkpt lat="45.233927" lon="8.426955"><ele>121.6</ele><time>2026-04-04T12:36:04.391Z</time></trkpt><trkpt lat="45.2339498" lon="8.4268129"><ele>121.8</ele><time>2026-04-04T12:36:06.403Z</time></trkpt><trkpt lat="45.233975" lon="8.4266717"><ele>122.0</ele><time>2026-04-04T12:36:08.398Z</time></trkpt><trkpt lat="45.2339996" lon="8.4265429"><ele>122.0</ele><time>2026-04-04T12:36:10.4Z</time></trkpt><trkpt lat="45.2340236" lon="8.4264078"><ele>121.99999999999999</ele><time>2026-04-04T12:36:12.393Z</time></trkpt><trkpt lat="45.2340417" lon="8.4262665"><ele>121.99999999999999</ele><time>2026-04-04T12:36:14.397Z</time></trkpt><trkpt lat="45.2340624" lon="8.4261272"><ele>122.0</ele><time>2026-04-04T12:36:16.398Z</time></trkpt><trkpt lat="45.2340847" lon="8.4259891"><ele>122.0</ele><time>2026-04-04T12:36:18.397Z</time></trkpt><trkpt lat="45.2341077" lon="8.425846"><ele>122.19999999999999</ele><time>2026-04-04T12:36:20.397Z</time></trkpt><trkpt lat="45.2341318" lon="8.4256972"><ele>122.39999999999999</ele><time>2026-04-04T12:36:22.397Z</time></trkpt><trkpt lat="45.2341541" lon="8.4255467"><ele>122.60000000000001</ele><time>2026-04-04T12:36:24.393Z</time></trkpt><trkpt lat="45.2341792" lon="8.4254059"><ele>122.80000000000001</ele><time>2026-04-04T12:36:26.396Z</time></trkpt><trkpt lat="45.2342033" lon="8.4252582"><ele>123.0</ele><time>2026-04-04T12:36:28.397Z</time></trkpt><trkpt lat="45.2342249" lon="8.4251112"><ele>122.60000000000001</ele><time>2026-04-04T12:36:30.407Z</time></trkpt><trkpt lat="45.2342466" lon="8.4249583"><ele>122.20000000000002</ele><time>2026-04-04T12:36:32.393Z</time></trkpt><trkpt lat="45.2342646" lon="8.4248161"><ele>121.8</ele><time>2026-04-04T12:36:34.396Z</time></trkpt><trkpt lat="45.2342827" lon="8.4246685"><ele>121.4</ele><time>2026-04-04T12:36:36.407Z</time></trkpt><trkpt lat="45.2343098" lon="8.4245232"><ele>121.0</ele><time>2026-04-04T12:36:38.394Z</time></trkpt><trkpt lat="45.2343369" lon="8.4243787"><ele>121.0</ele><time>2026-04-04T12:36:40.392Z</time></trkpt><trkpt lat="45.2343546" lon="8.4242343"><ele>121.0</ele><time>2026-04-04T12:36:42.389Z</time></trkpt><trkpt lat="45.2343788" lon="8.4240883"><ele>121.0</ele><time>2026-04-04T12:36:44.392Z</time></trkpt><trkpt lat="45.2344014" lon="8.4239489"><ele>121.0</ele><time>2026-04-04T12:36:46.393Z</time></trkpt><trkpt lat="45.2344246" lon="8.423797"><ele>121.0</ele><time>2026-04-04T12:36:48.394Z</time></trkpt><trkpt lat="45.2344494" lon="8.4236472"><ele>121.0</ele><time>2026-04-04T12:36:50.397Z</time></trkpt><trkpt lat="45.2344757" lon="8.4234984"><ele>121.0</ele><time>2026-04-04T12:36:52.403Z</time></trkpt><trkpt lat="45.2344971" lon="8.4233412"><ele>121.0</ele><time>2026-04-04T12:36:54.397Z</time></trkpt><trkpt lat="45.2345217" lon="8.4231912"><ele>121.0</ele><time>2026-04-04T12:36:56.4Z</time></trkpt><trkpt lat="45.2345422" lon="8.4230432"><ele>121.0</ele><time>2026-04-04T12:36:58.391Z</time></trkpt><trkpt lat="45.2345692" lon="8.4228893"><ele>121.0</ele><time>2026-04-04T12:37:00.393Z</time></trkpt><trkpt lat="45.2345907" lon="8.4227396"><ele>121.0</ele><time>2026-04-04T12:37:02.393Z</time></trkpt><trkpt lat="45.2346141" lon="8.4225907"><ele>121.0</ele><time>2026-04-04T12:37:04.398Z</time></trkpt><trkpt lat="45.234635" lon="8.4224405"><ele>121.0</ele><time>2026-04-04T12:37:06.39Z</time></trkpt><trkpt lat="45.234663" lon="8.4222908"><ele>121.0</ele><time>2026-04-04T12:37:08.397Z</time></trkpt><trkpt lat="45.2346882" lon="8.4221493"><ele>121.8</ele><time>2026-04-04T12:37:10.394Z</time></trkpt><trkpt lat="45.2347141" lon="8.4220002"><ele>122.6</ele><time>2026-04-04T12:37:12.397Z</time></trkpt><trkpt lat="45.2347411" lon="8.4218462"><ele>123.4</ele><time>2026-04-04T12:37:14.391Z</time></trkpt><trkpt lat="45.2347626" lon="8.4217001"><ele>124.2</ele><time>2026-04-04T12:37:16.392Z</time></trkpt><trkpt lat="45.2347781" lon="8.4215525"><ele>125.0</ele><time>2026-04-04T12:37:18.394Z</time></trkpt><trkpt lat="45.2347981" lon="8.4214103"><ele>124.8</ele><time>2026-04-04T12:37:20.394Z</time></trkpt><trkpt lat="45.2348122" lon="8.4212674"><ele>124.6</ele><time>2026-04-04T12:37:22.394Z</time></trkpt><trkpt lat="45.2348178" lon="8.4211208"><ele>124.4</ele><time>2026-04-04T12:37:24.404Z</time></trkpt><trkpt lat="45.2348432" lon="8.4209718"><ele>124.2</ele><time>2026-04-04T12:37:26.402Z</time></trkpt><trkpt lat="45.2348606" lon="8.4208272"><ele>124.0</ele><time>2026-04-04T12:37:28.394Z</time></trkpt><trkpt lat="45.2348395" lon="8.4206768"><ele>123.75</ele><time>2026-04-04T12:37:30.398Z</time></trkpt><trkpt lat="45.2347521" lon="8.4205788"><ele>123.5</ele><time>2026-04-04T12:37:32.404Z</time></trkpt><trkpt lat="45.2346444" lon="8.4205521"><ele>123.25</ele><time>2026-04-04T12:37:34.389Z</time></trkpt><trkpt lat="45.2345237" lon="8.4205593"><ele>123.0</ele><time>2026-04-04T12:37:36.393Z</time></trkpt><trkpt lat="45.2344109" lon="8.4205657"><ele>123.0</ele><time>2026-04-04T12:37:38.393Z</time></trkpt><trkpt lat="45.2343002" lon="8.4205687"><ele>123.00000000000001</ele><time>2026-04-04T12:37:40.392Z</time></trkpt><trkpt lat="45.2341935" lon="8.4205655"><ele>123.00000000000001</ele><time>2026-04-04T12:37:42.393Z</time></trkpt><trkpt lat="45.2340856" lon="8.4205583"><ele>123.0</ele><time>2026-04-04T12:37:44.398Z</time></trkpt><trkpt lat="45.233977" lon="8.4205451"><ele>123.0</ele><time>2026-04-04T12:37:46.396Z</time></trkpt><trkpt lat="45.2338676" lon="8.4205329"><ele>122.80000000000001</ele><time>2026-04-04T12:37:48.407Z</time></trkpt><trkpt lat="45.2337541" lon="8.4205203"><ele>122.60000000000001</ele><time>2026-04-04T12:37:50.392Z</time></trkpt><trkpt lat="45.2336484" lon="8.4205018"><ele>122.39999999999999</ele><time>2026-04-04T12:37:52.392Z</time></trkpt><trkpt lat="45.2335421" lon="8.4204733"><ele>122.19999999999999</ele><time>2026-04-04T12:37:54.396Z</time></trkpt><trkpt lat="45.2334329" lon="8.4204555"><ele>122.0</ele><time>2026-04-04T12:37:56.394Z</time></trkpt><trkpt lat="45.2333246" lon="8.4204295"><ele>122.0</ele><time>2026-04-04T12:37:58.391Z</time></trkpt><trkpt lat="45.2332128" lon="8.4204014"><ele>121.99999999999999</ele><time>2026-04-04T12:38:00.39Z</time></trkpt><trkpt lat="45.2331016" lon="8.4203707"><ele>121.99999999999999</ele><time>2026-04-04T12:38:02.398Z</time></trkpt><trkpt lat="45.2329917" lon="8.4203339"><ele>122.0</ele><time>2026-04-04T12:38:04.403Z</time></trkpt><trkpt lat="45.2328885" lon="8.4202869"><ele>122.0</ele><time>2026-04-04T12:38:06.401Z</time></trkpt><trkpt lat="45.2327856" lon="8.4202422"><ele>121.75</ele><time>2026-04-04T12:38:08.397Z</time></trkpt><trkpt lat="45.232682" lon="8.4202061"><ele>121.5</ele><time>2026-04-04T12:38:10.397Z</time></trkpt><trkpt lat="45.232572" lon="8.4201619"><ele>121.25</ele><time>2026-04-04T12:38:12.391Z</time></trkpt><trkpt lat="45.2324634" lon="8.4201173"><ele>121.0</ele><time>2026-04-04T12:38:14.403Z</time></trkpt><trkpt lat="45.2323518" lon="8.4200721"><ele>121.0</ele><time>2026-04-04T12:38:16.397Z</time></trkpt><trkpt lat="45.2322405" lon="8.420024"><ele>121.0</ele><time>2026-04-04T12:38:18.398Z</time></trkpt><trkpt lat="45.2321311" lon="8.4199792"><ele>121.0</ele><time>2026-04-04T12:38:20.405Z</time></trkpt><trkpt lat="45.2320241" lon="8.4199268"><ele>121.0</ele><time>2026-04-04T12:38:22.394Z</time></trkpt><trkpt lat="45.2319201" lon="8.4198777"><ele>121.0</ele><time>2026-04-04T12:38:24.408Z</time></trkpt><trkpt lat="45.2318169" lon="8.419828"><ele>121.0</ele><time>2026-04-04T12:38:26.397Z</time></trkpt><trkpt lat="45.2317045" lon="8.4197805"><ele>121.0</ele><time>2026-04-04T12:38:28.4Z</time></trkpt><trkpt lat="45.2315967" lon="8.4197362"><ele>121.0</ele><time>2026-04-04T12:38:30.408Z</time></trkpt><trkpt lat="45.2314879" lon="8.419694"><ele>120.75</ele><time>2026-04-04T12:38:32.4Z</time></trkpt><trkpt lat="45.2313744" lon="8.4196486"><ele>120.5</ele><time>2026-04-04T12:38:34.41Z</time></trkpt><trkpt lat="45.2312683" lon="8.4195971"><ele>120.25</ele><time>2026-04-04T12:38:36.396Z</time></trkpt><trkpt lat="45.2311622" lon="8.4195547"><ele>120.0</ele><time>2026-04-04T12:38:38.394Z</time></trkpt><trkpt lat="45.2310569" lon="8.4195078"><ele>120.0</ele><time>2026-04-04T12:38:40.397Z</time></trkpt><trkpt lat="45.2309511" lon="8.4194619"><ele>120.0</ele><time>2026-04-04T12:38:42.396Z</time></trkpt><trkpt lat="45.2308459" lon="8.4194142"><ele>120.0</ele><time>2026-04-04T12:38:44.398Z</time></trkpt><trkpt lat="45.2307429" lon="8.4193689"><ele>120.0</ele><time>2026-04-04T12:38:46.394Z</time></trkpt><trkpt lat="45.2306373" lon="8.419329"><ele>120.0</ele><time>2026-04-04T12:38:48.399Z</time></trkpt><trkpt lat="45.23053" lon="8.4192886"><ele>120.0</ele><time>2026-04-04T12:38:50.394Z</time></trkpt><trkpt lat="45.230421" lon="8.4192435"><ele>120.0</ele><time>2026-04-04T12:38:52.391Z</time></trkpt><trkpt lat="45.230314" lon="8.4192"><ele>120.0</ele><time>2026-04-04T12:38:54.394Z</time></trkpt><trkpt lat="45.230205" lon="8.4191525"><ele>120.0</ele><time>2026-04-04T12:38:56.393Z</time></trkpt><trkpt lat="45.2300886" lon="8.4191029"><ele>120.0</ele><time>2026-04-04T12:38:58.399Z</time></trkpt><trkpt lat="45.2299747" lon="8.4190606"><ele>120.0</ele><time>2026-04-04T12:39:00.391Z</time></trkpt><trkpt lat="45.2298641" lon="8.4190151"><ele>120.0</ele><time>2026-04-04T12:39:02.394Z</time></trkpt><trkpt lat="45.2297555" lon="8.4189664"><ele>120.0</ele><time>2026-04-04T12:39:04.393Z</time></trkpt><trkpt lat="45.2296447" lon="8.4189173"><ele>120.0</ele><time>2026-04-04T12:39:06.392Z</time></trkpt><trkpt lat="45.2295327" lon="8.4188634"><ele>120.0</ele><time>2026-04-04T12:39:08.395Z</time></trkpt><trkpt lat="45.2294216" lon="8.4188135"><ele>120.0</ele><time>2026-04-04T12:39:10.396Z</time></trkpt><trkpt lat="45.2293609" lon="8.4187859"><ele>120.0</ele><time>2026-04-04T12:39:11.392Z</time></trkpt><trkpt lat="45.2292434" lon="8.4187344"><ele>120.0</ele><time>2026-04-04T12:39:13.398Z</time></trkpt><trkpt lat="45.2291296" lon="8.4186858"><ele>120.2</ele><time>2026-04-04T12:39:15.396Z</time></trkpt><trkpt lat="45.2290212" lon="8.4186394"><ele>120.4</ele><time>2026-04-04T12:39:17.389Z</time></trkpt><trkpt lat="45.2289077" lon="8.4185907"><ele>120.6</ele><time>2026-04-04T12:39:19.397Z</time></trkpt><trkpt lat="45.2288459" lon="8.4185676"><ele>120.8</ele><time>2026-04-04T12:39:20.397Z</time></trkpt><trkpt lat="45.2287315" lon="8.4185158"><ele>121.0</ele><time>2026-04-04T12:39:22.397Z</time></trkpt><trkpt lat="45.2286195" lon="8.4184769"><ele>120.5</ele><time>2026-04-04T12:39:24.398Z</time></trkpt><trkpt lat="45.2285104" lon="8.4184478"><ele>120.0</ele><time>2026-04-04T12:39:26.392Z</time></trkpt><trkpt lat="45.2283953" lon="8.4184156"><ele>119.5</ele><time>2026-04-04T12:39:28.394Z</time></trkpt><trkpt lat="45.2282854" lon="8.4183853"><ele>119.0</ele><time>2026-04-04T12:39:30.395Z</time></trkpt><trkpt lat="45.2281703" lon="8.4183574"><ele>119.5</ele><time>2026-04-04T12:39:32.394Z</time></trkpt><trkpt lat="45.2280549" lon="8.4183333"><ele>120.0</ele><time>2026-04-04T12:39:34.392Z</time></trkpt><trkpt lat="45.2279418" lon="8.418306"><ele>120.5</ele><time>2026-04-04T12:39:36.391Z</time></trkpt><trkpt lat="45.2278267" lon="8.4182835"><ele>121.0</ele><time>2026-04-04T12:39:38.395Z</time></trkpt><trkpt lat="45.2277109" lon="8.4182625"><ele>121.0</ele><time>2026-04-04T12:39:40.4Z</time></trkpt><trkpt lat="45.2275901" lon="8.4182463"><ele>121.0</ele><time>2026-04-04T12:39:42.402Z</time></trkpt><trkpt lat="45.2274744" lon="8.4182243"><ele>121.0</ele><time>2026-04-04T12:39:44.397Z</time></trkpt><trkpt lat="45.2273586" lon="8.4182009"><ele>121.0</ele><time>2026-04-04T12:39:46.398Z</time></trkpt><trkpt lat="45.2272442" lon="8.4181823"><ele>120.8</ele><time>2026-04-04T12:39:48.416Z</time></trkpt><trkpt lat="45.2271329" lon="8.4181611"><ele>120.6</ele><time>2026-04-04T12:39:50.393Z</time></trkpt><trkpt lat="45.227023" lon="8.4181463"><ele>120.4</ele><time>2026-04-04T12:39:52.4Z</time></trkpt><trkpt lat="45.2269139" lon="8.4181255"><ele>120.2</ele><time>2026-04-04T12:39:54.391Z</time></trkpt><trkpt lat="45.2268045" lon="8.4181093"><ele>120.0</ele><time>2026-04-04T12:39:56.405Z</time></trkpt><trkpt lat="45.2266942" lon="8.4180931"><ele>120.0</ele><time>2026-04-04T12:39:58.396Z</time></trkpt><trkpt lat="45.226584" lon="8.4180674"><ele>120.0</ele><time>2026-04-04T12:40:00.4Z</time></trkpt><trkpt lat="45.2264732" lon="8.4180517"><ele>120.0</ele><time>2026-04-04T12:40:02.404Z</time></trkpt><trkpt lat="45.2263636" lon="8.4180341"><ele>120.0</ele><time>2026-04-04T12:40:04.396Z</time></trkpt><trkpt lat="45.2262612" lon="8.4180141"><ele>120.0</ele><time>2026-04-04T12:40:06.393Z</time></trkpt><trkpt lat="45.2261582" lon="8.4180037"><ele>120.0</ele><time>2026-04-04T12:40:08.405Z</time></trkpt><trkpt lat="45.2260499" lon="8.4180045"><ele>120.0</ele><time>2026-04-04T12:40:10.397Z</time></trkpt><trkpt lat="45.2259458" lon="8.4180099"><ele>120.0</ele><time>2026-04-04T12:40:12.414Z</time></trkpt><trkpt lat="45.2258417" lon="8.4180264"><ele>120.0</ele><time>2026-04-04T12:40:14.396Z</time></trkpt><trkpt lat="45.2257346" lon="8.418035"><ele>120.0</ele><time>2026-04-04T12:40:16.392Z</time></trkpt><trkpt lat="45.2256324" lon="8.4180603"><ele>120.0</ele><time>2026-04-04T12:40:18.401Z</time></trkpt><trkpt lat="45.2255304" lon="8.4180808"><ele>120.0</ele><time>2026-04-04T12:40:20.395Z</time></trkpt><trkpt lat="45.2254275" lon="8.4181062"><ele>120.0</ele><time>2026-04-04T12:40:22.402Z</time></trkpt><trkpt lat="45.2253225" lon="8.4181322"><ele>120.0</ele><time>2026-04-04T12:40:24.406Z</time></trkpt><trkpt lat="45.2252134" lon="8.4181624"><ele>120.0</ele><time>2026-04-04T12:40:26.392Z</time></trkpt><trkpt lat="45.2251113" lon="8.4181854"><ele>120.0</ele><time>2026-04-04T12:40:28.403Z</time></trkpt><trkpt lat="45.2250052" lon="8.4182092"><ele>120.0</ele><time>2026-04-04T12:40:30.397Z</time></trkpt><trkpt lat="45.2249038" lon="8.4182416"><ele>120.0</ele><time>2026-04-04T12:40:32.39Z</time></trkpt><trkpt lat="45.2247995" lon="8.4182686"><ele>120.0</ele><time>2026-04-04T12:40:34.396Z</time></trkpt><trkpt lat="45.224695" lon="8.4182979"><ele>120.0</ele><time>2026-04-04T12:40:36.406Z</time></trkpt><trkpt lat="45.2245812" lon="8.4183265"><ele>120.2</ele><time>2026-04-04T12:40:38.394Z</time></trkpt><trkpt lat="45.2244718" lon="8.4183418"><ele>120.4</ele><time>2026-04-04T12:40:40.398Z</time></trkpt><trkpt lat="45.2243673" lon="8.418373"><ele>120.6</ele><time>2026-04-04T12:40:42.398Z</time></trkpt><trkpt lat="45.2242617" lon="8.4184047"><ele>120.8</ele><time>2026-04-04T12:40:44.401Z</time></trkpt><trkpt lat="45.2241492" lon="8.4184368"><ele>121.0</ele><time>2026-04-04T12:40:46.4Z</time></trkpt><trkpt lat="45.2240395" lon="8.4184682"><ele>120.0</ele><time>2026-04-04T12:40:48.394Z</time></trkpt><trkpt lat="45.2239222" lon="8.4185013"><ele>119.0</ele><time>2026-04-04T12:40:50.405Z</time></trkpt><trkpt lat="45.2238027" lon="8.4185309"><ele>118.0</ele><time>2026-04-04T12:40:52.405Z</time></trkpt><trkpt lat="45.2236848" lon="8.4185559"><ele>117.0</ele><time>2026-04-04T12:40:54.405Z</time></trkpt><trkpt lat="45.2235638" lon="8.4185839"><ele>117.0</ele><time>2026-04-04T12:40:56.388Z</time></trkpt><trkpt lat="45.2234482" lon="8.4186119"><ele>117.0</ele><time>2026-04-04T12:40:58.393Z</time></trkpt><trkpt lat="45.223339" lon="8.4186421"><ele>117.0</ele><time>2026-04-04T12:41:00.395Z</time></trkpt><trkpt lat="45.2232289" lon="8.4186801"><ele>117.0</ele><time>2026-04-04T12:41:02.393Z</time></trkpt><trkpt lat="45.2231191" lon="8.4187094"><ele>116.8</ele><time>2026-04-04T12:41:04.394Z</time></trkpt><trkpt lat="45.2230126" lon="8.4187337"><ele>116.6</ele><time>2026-04-04T12:41:06.39Z</time></trkpt><trkpt lat="45.2229028" lon="8.4187587"><ele>116.39999999999999</ele><time>2026-04-04T12:41:08.39Z</time></trkpt><trkpt lat="45.2227938" lon="8.4187806"><ele>116.19999999999999</ele><time>2026-04-04T12:41:10.392Z</time></trkpt><trkpt lat="45.2226904" lon="8.4187993"><ele>116.0</ele><time>2026-04-04T12:41:12.388Z</time></trkpt><trkpt lat="45.2225862" lon="8.4188225"><ele>116.0</ele><time>2026-04-04T12:41:14.391Z</time></trkpt><trkpt lat="45.2224825" lon="8.4188527"><ele>116.0</ele><time>2026-04-04T12:41:16.4Z</time></trkpt><trkpt lat="45.2223789" lon="8.4188758"><ele>116.0</ele><time>2026-04-04T12:41:18.396Z</time></trkpt><trkpt lat="45.2222709" lon="8.4188991"><ele>116.0</ele><time>2026-04-04T12:41:20.389Z</time></trkpt><trkpt lat="45.2221663" lon="8.4189258"><ele>116.0</ele><time>2026-04-04T12:41:22.387Z</time></trkpt><trkpt lat="45.2220573" lon="8.4189518"><ele>116.6</ele><time>2026-04-04T12:41:24.387Z</time></trkpt><trkpt lat="45.2219537" lon="8.4189812"><ele>117.19999999999999</ele><time>2026-04-04T12:41:26.391Z</time></trkpt><trkpt lat="45.2218467" lon="8.4190005"><ele>117.80000000000001</ele><time>2026-04-04T12:41:28.389Z</time></trkpt><trkpt lat="45.2217412" lon="8.4190292"><ele>118.4</ele><time>2026-04-04T12:41:30.391Z</time></trkpt><trkpt lat="45.2216385" lon="8.4190538"><ele>119.0</ele><time>2026-04-04T12:41:32.397Z</time></trkpt><trkpt lat="45.2215382" lon="8.4190787"><ele>118.80000000000001</ele><time>2026-04-04T12:41:34.389Z</time></trkpt><trkpt lat="45.2214387" lon="8.4191012"><ele>118.60000000000001</ele><time>2026-04-04T12:41:36.391Z</time></trkpt><trkpt lat="45.2213331" lon="8.4191186"><ele>118.4</ele><time>2026-04-04T12:41:38.399Z</time></trkpt><trkpt lat="45.2212284" lon="8.4191497"><ele>118.2</ele><time>2026-04-04T12:41:40.395Z</time></trkpt><trkpt lat="45.2211246" lon="8.4191756"><ele>118.0</ele><time>2026-04-04T12:41:42.397Z</time></trkpt><trkpt lat="45.2210185" lon="8.4192005"><ele>118.0</ele><time>2026-04-04T12:41:44.395Z</time></trkpt><trkpt lat="45.2209173" lon="8.4192262"><ele>118.00000000000001</ele><time>2026-04-04T12:41:46.399Z</time></trkpt><trkpt lat="45.2208131" lon="8.4192479"><ele>118.00000000000001</ele><time>2026-04-04T12:41:48.4Z</time></trkpt><trkpt lat="45.2207107" lon="8.4192753"><ele>118.0</ele><time>2026-04-04T12:41:50.396Z</time></trkpt><trkpt lat="45.2206086" lon="8.4193004"><ele>118.0</ele><time>2026-04-04T12:41:52.393Z</time></trkpt><trkpt lat="45.2205093" lon="8.4193322"><ele>118.80000000000001</ele><time>2026-04-04T12:41:54.398Z</time></trkpt><trkpt lat="45.2204098" lon="8.4193571"><ele>119.60000000000001</ele><time>2026-04-04T12:41:56.39Z</time></trkpt><trkpt lat="45.2203056" lon="8.4193834"><ele>120.39999999999999</ele><time>2026-04-04T12:41:58.4Z</time></trkpt><trkpt lat="45.2202021" lon="8.4194086"><ele>121.19999999999999</ele><time>2026-04-04T12:42:00.396Z</time></trkpt><trkpt lat="45.2200946" lon="8.4194401"><ele>122.0</ele><time>2026-04-04T12:42:02.398Z</time></trkpt><trkpt lat="45.2199849" lon="8.4194709"><ele>122.0</ele><time>2026-04-04T12:42:04.406Z</time></trkpt><trkpt lat="45.219878" lon="8.419493"><ele>121.99999999999999</ele><time>2026-04-04T12:42:06.399Z</time></trkpt><trkpt lat="45.2197696" lon="8.4195137"><ele>121.99999999999999</ele><time>2026-04-04T12:42:08.399Z</time></trkpt><trkpt lat="45.2196639" lon="8.4195391"><ele>122.0</ele><time>2026-04-04T12:42:10.392Z</time></trkpt><trkpt lat="45.2195547" lon="8.419556"><ele>122.0</ele><time>2026-04-04T12:42:12.399Z</time></trkpt><trkpt lat="45.2194448" lon="8.4195798"><ele>121.8</ele><time>2026-04-04T12:42:14.39Z</time></trkpt><trkpt lat="45.2193384" lon="8.4196156"><ele>121.6</ele><time>2026-04-04T12:42:16.392Z</time></trkpt><trkpt lat="45.2192319" lon="8.4196415"><ele>121.39999999999999</ele><time>2026-04-04T12:42:18.395Z</time></trkpt><trkpt lat="45.2191245" lon="8.4196695"><ele>121.19999999999999</ele><time>2026-04-04T12:42:20.392Z</time></trkpt><trkpt lat="45.2190169" lon="8.4196961"><ele>121.0</ele><time>2026-04-04T12:42:22.393Z</time></trkpt><trkpt lat="45.218913" lon="8.4197253"><ele>121.0</ele><time>2026-04-04T12:42:24.394Z</time></trkpt><trkpt lat="45.2188043" lon="8.4197588"><ele>121.0</ele><time>2026-04-04T12:42:26.391Z</time></trkpt><trkpt lat="45.2186996" lon="8.419784"><ele>121.0</ele><time>2026-04-04T12:42:28.4Z</time></trkpt><trkpt lat="45.2186007" lon="8.419819"><ele>121.0</ele><time>2026-04-04T12:42:30.396Z</time></trkpt><trkpt lat="45.2185059" lon="8.4198469"><ele>121.0</ele><time>2026-04-04T12:42:32.394Z</time></trkpt><trkpt lat="45.2184081" lon="8.4198757"><ele>121.0</ele><time>2026-04-04T12:42:34.395Z</time></trkpt><trkpt lat="45.2183116" lon="8.4198995"><ele>121.0</ele><time>2026-04-04T12:42:36.394Z</time></trkpt><trkpt lat="45.2182153" lon="8.4199328"><ele>121.0</ele><time>2026-04-04T12:42:38.389Z</time></trkpt><trkpt lat="45.2181121" lon="8.4199579"><ele>121.0</ele><time>2026-04-04T12:42:40.395Z</time></trkpt><trkpt lat="45.2180084" lon="8.4199828"><ele>121.0</ele><time>2026-04-04T12:42:42.39Z</time></trkpt><trkpt lat="45.217899" lon="8.4199861"><ele>120.5</ele><time>2026-04-04T12:42:44.394Z</time></trkpt><trkpt lat="45.2177918" lon="8.4199619"><ele>120.0</ele><time>2026-04-04T12:42:46.395Z</time></trkpt><trkpt lat="45.2176787" lon="8.419931"><ele>119.5</ele><time>2026-04-04T12:42:48.394Z</time></trkpt><trkpt lat="45.2175726" lon="8.4198716"><ele>119.0</ele><time>2026-04-04T12:42:50.395Z</time></trkpt><trkpt lat="45.2174621" lon="8.4198138"><ele>119.0</ele><time>2026-04-04T12:42:52.394Z</time></trkpt><trkpt lat="45.2173505" lon="8.4197613"><ele>119.0</ele><time>2026-04-04T12:42:54.4Z</time></trkpt><trkpt lat="45.2172471" lon="8.4197098"><ele>119.0</ele><time>2026-04-04T12:42:56.394Z</time></trkpt><trkpt lat="45.2171464" lon="8.419649"><ele>119.0</ele><time>2026-04-04T12:42:58.389Z</time></trkpt><trkpt lat="45.2170459" lon="8.419587"><ele>119.0</ele><time>2026-04-04T12:43:00.393Z</time></trkpt><trkpt lat="45.2169449" lon="8.4195276"><ele>119.2</ele><time>2026-04-04T12:43:02.395Z</time></trkpt><trkpt lat="45.2168447" lon="8.4194656"><ele>119.4</ele><time>2026-04-04T12:43:04.395Z</time></trkpt><trkpt lat="45.2167466" lon="8.4194083"><ele>119.6</ele><time>2026-04-04T12:43:06.4Z</time></trkpt><trkpt lat="45.2166474" lon="8.4193529"><ele>119.8</ele><time>2026-04-04T12:43:08.392Z</time></trkpt><trkpt lat="45.2165481" lon="8.4193127"><ele>120.0</ele><time>2026-04-04T12:43:10.398Z</time></trkpt><trkpt lat="45.2164452" lon="8.4192516"><ele>120.2</ele><time>2026-04-04T12:43:12.389Z</time></trkpt><trkpt lat="45.2163419" lon="8.4192026"><ele>120.4</ele><time>2026-04-04T12:43:14.394Z</time></trkpt><trkpt lat="45.2162412" lon="8.4191454"><ele>120.6</ele><time>2026-04-04T12:43:16.391Z</time></trkpt><trkpt lat="45.2161466" lon="8.4190871"><ele>120.8</ele><time>2026-04-04T12:43:18.394Z</time></trkpt><trkpt lat="45.2160527" lon="8.419032"><ele>121.0</ele><time>2026-04-04T12:43:20.392Z</time></trkpt><trkpt lat="45.2159662" lon="8.4189804"><ele>121.00000000000001</ele><time>2026-04-04T12:43:22.396Z</time></trkpt><trkpt lat="45.2158836" lon="8.4189205"><ele>121.0</ele><time>2026-04-04T12:43:24.4Z</time></trkpt><trkpt lat="45.2158058" lon="8.418875"><ele>121.0</ele><time>2026-04-04T12:43:26.4Z</time></trkpt><trkpt lat="45.2157244" lon="8.4188355"><ele>121.0</ele><time>2026-04-04T12:43:28.399Z</time></trkpt><trkpt lat="45.2156462" lon="8.4187887"><ele>121.00000000000001</ele><time>2026-04-04T12:43:30.406Z</time></trkpt><trkpt lat="45.215573" lon="8.4187474"><ele>121.0</ele><time>2026-04-04T12:43:32.392Z</time></trkpt><trkpt lat="45.2155062" lon="8.4186998"><ele>120.85714285714285</ele><time>2026-04-04T12:43:34.404Z</time></trkpt><trkpt lat="45.2154441" lon="8.4186634"><ele>120.7142857142857</ele><time>2026-04-04T12:43:36.395Z</time></trkpt><trkpt lat="45.2153846" lon="8.4186306"><ele>120.57142857142857</ele><time>2026-04-04T12:43:38.397Z</time></trkpt><trkpt lat="45.2153063" lon="8.4185928"><ele>120.42857142857142</ele><time>2026-04-04T12:43:41.396Z</time></trkpt><trkpt lat="45.215228" lon="8.4185544"><ele>120.28571428571428</ele><time>2026-04-04T12:43:44.395Z</time></trkpt><trkpt lat="45.2151618" lon="8.4185141"><ele>120.14285714285714</ele><time>2026-04-04T12:43:47.399Z</time></trkpt><trkpt lat="45.2151018" lon="8.4184751"><ele>120.0</ele><time>2026-04-04T12:43:50.394Z</time></trkpt><trkpt lat="45.2150267" lon="8.4184457"><ele>120.0</ele><time>2026-04-04T12:43:54.396Z</time></trkpt><trkpt lat="45.214962" lon="8.4184009"><ele>120.0</ele><time>2026-04-04T12:43:57.4Z</time></trkpt><trkpt lat="45.214878" lon="8.4183454"><ele>120.0</ele><time>2026-04-04T12:44:00.39Z</time></trkpt><trkpt lat="45.2147914" lon="8.4183039"><ele>120.0</ele><time>2026-04-04T12:44:03.397Z</time></trkpt><trkpt lat="45.2147277" lon="8.41827"><ele>120.0</ele><time>2026-04-04T12:44:05.394Z</time></trkpt><trkpt lat="45.2146627" lon="8.4182307"><ele>120.0</ele><time>2026-04-04T12:44:07.401Z</time></trkpt><trkpt lat="45.2145953" lon="8.4181991"><ele>120.28571428571429</ele><time>2026-04-04T12:44:09.394Z</time></trkpt><trkpt lat="45.2145325" lon="8.4181648"><ele>120.57142857142856</ele><time>2026-04-04T12:44:11.397Z</time></trkpt><trkpt lat="45.2144733" lon="8.4181291"><ele>120.85714285714285</ele><time>2026-04-04T12:44:13.396Z</time></trkpt><trkpt lat="45.2144127" lon="8.418093"><ele>121.14285714285714</ele><time>2026-04-04T12:44:15.39Z</time></trkpt><trkpt lat="45.2143412" lon="8.4180576"><ele>121.42857142857142</ele><time>2026-04-04T12:44:17.391Z</time></trkpt><trkpt lat="45.214267" lon="8.4180338"><ele>121.7142857142857</ele><time>2026-04-04T12:44:19.421Z</time></trkpt><trkpt lat="45.2142" lon="8.4180349"><ele>121.99999999999999</ele><time>2026-04-04T12:44:21.39Z</time></trkpt><trkpt lat="45.2141212" lon="8.4180146"><ele>121.99999999999999</ele><time>2026-04-04T12:44:24.393Z</time></trkpt><trkpt lat="45.214187" lon="8.4180804"><ele>122.0</ele><time>2026-04-04T12:44:29.404Z</time></trkpt><trkpt lat="45.2142711" lon="8.418067"><ele>121.99999999999999</ele><time>2026-04-04T12:44:32.395Z</time></trkpt><trkpt lat="45.2143239" lon="8.4180094"><ele>121.99999999999999</ele><time>2026-04-04T12:44:34.398Z</time></trkpt><trkpt lat="45.2143536" lon="8.4179279"><ele>122.0</ele><time>2026-04-04T12:44:36.393Z</time></trkpt><trkpt lat="45.2143675" lon="8.4178394"><ele>121.99999999999999</ele><time>2026-04-04T12:44:38.398Z</time></trkpt><trkpt lat="45.2143873" lon="8.4177535"><ele>121.99999999999999</ele><time>2026-04-04T12:44:40.395Z</time></trkpt><trkpt lat="45.2144034" lon="8.4176635"><ele>122.49999999999999</ele><time>2026-04-04T12:44:42.4Z</time></trkpt><trkpt lat="45.2144224" lon="8.4175674"><ele>123.0</ele><time>2026-04-04T12:44:44.392Z</time></trkpt><trkpt lat="45.214445" lon="8.4174669"><ele>123.5</ele><time>2026-04-04T12:44:46.395Z</time></trkpt><trkpt lat="45.2144657" lon="8.4173544"><ele>124.0</ele><time>2026-04-04T12:44:48.399Z</time></trkpt><trkpt lat="45.2144885" lon="8.4172436"><ele>124.49999999999999</ele><time>2026-04-04T12:44:50.392Z</time></trkpt><trkpt lat="45.2145154" lon="8.4171309"><ele>125.0</ele><time>2026-04-04T12:44:52.394Z</time></trkpt><trkpt lat="45.2145504" lon="8.4170108"><ele>125.16666666666666</ele><time>2026-04-04T12:44:54.39Z</time></trkpt><trkpt lat="45.2145792" lon="8.4168958"><ele>125.33333333333333</ele><time>2026-04-04T12:44:56.392Z</time></trkpt><trkpt lat="45.2146177" lon="8.4167943"><ele>125.5</ele><time>2026-04-04T12:44:58.395Z</time></trkpt><trkpt lat="45.2146705" lon="8.4167119"><ele>125.66666666666666</ele><time>2026-04-04T12:45:00.391Z</time></trkpt><trkpt lat="45.2147351" lon="8.4166489"><ele>125.83333333333333</ele><time>2026-04-04T12:45:02.388Z</time></trkpt><trkpt lat="45.2148039" lon="8.4165977"><ele>126.0</ele><time>2026-04-04T12:45:04.399Z</time></trkpt><trkpt lat="45.2148697" lon="8.4165551"><ele>126.0</ele><time>2026-04-04T12:45:06.394Z</time></trkpt><trkpt lat="45.2149364" lon="8.4165214"><ele>126.0</ele><time>2026-04-04T12:45:08.4Z</time></trkpt><trkpt lat="45.2150034" lon="8.4164854"><ele>126.0</ele><time>2026-04-04T12:45:10.391Z</time></trkpt><trkpt lat="45.2150635" lon="8.4164159"><ele>126.0</ele><time>2026-04-04T12:45:12.395Z</time></trkpt><trkpt lat="45.2151148" lon="8.4163238"><ele>126.0</ele><time>2026-04-04T12:45:14.4Z</time></trkpt><trkpt lat="45.2151536" lon="8.4162116"><ele>126.0</ele><time>2026-04-04T12:45:16.392Z</time></trkpt><trkpt lat="45.2151823" lon="8.4160866"><ele>126.0</ele><time>2026-04-04T12:45:18.395Z</time></trkpt><trkpt lat="45.2152043" lon="8.4159504"><ele>126.0</ele><time>2026-04-04T12:45:20.394Z</time></trkpt><trkpt lat="45.2152301" lon="8.4158191"><ele>126.0</ele><time>2026-04-04T12:45:22.396Z</time></trkpt><trkpt lat="45.2152624" lon="8.4156892"><ele>126.0</ele><time>2026-04-04T12:45:24.387Z</time></trkpt><trkpt lat="45.2152951" lon="8.4155586"><ele>126.0</ele><time>2026-04-04T12:45:26.395Z</time></trkpt><trkpt lat="45.2153276" lon="8.4154271"><ele>126.0</ele><time>2026-04-04T12:45:28.397Z</time></trkpt><trkpt lat="45.2153576" lon="8.4152905"><ele>126.0</ele><time>2026-04-04T12:45:30.393Z</time></trkpt><trkpt lat="45.2153859" lon="8.4151551"><ele>126.0</ele><time>2026-04-04T12:45:32.396Z</time></trkpt><trkpt lat="45.215416" lon="8.4150123"><ele>126.0</ele><time>2026-04-04T12:45:34.394Z</time></trkpt><trkpt lat="45.2154526" lon="8.4148748"><ele>126.0</ele><time>2026-04-04T12:45:36.399Z</time></trkpt><trkpt lat="45.2154872" lon="8.414736"><ele>126.19999999999999</ele><time>2026-04-04T12:45:38.395Z</time></trkpt><trkpt lat="45.2155232" lon="8.4145989"><ele>126.39999999999999</ele><time>2026-04-04T12:45:40.392Z</time></trkpt><trkpt lat="45.215559" lon="8.4144623"><ele>126.6</ele><time>2026-04-04T12:45:42.39Z</time></trkpt><trkpt lat="45.2155966" lon="8.4143266"><ele>126.8</ele><time>2026-04-04T12:45:44.391Z</time></trkpt><trkpt lat="45.2156356" lon="8.4141964"><ele>127.0</ele><time>2026-04-04T12:45:46.4Z</time></trkpt><trkpt lat="45.2156693" lon="8.4140567"><ele>126.6</ele><time>2026-04-04T12:45:48.401Z</time></trkpt><trkpt lat="45.2157094" lon="8.4139229"><ele>126.19999999999999</ele><time>2026-04-04T12:45:50.389Z</time></trkpt><trkpt lat="45.2157467" lon="8.4137885"><ele>125.8</ele><time>2026-04-04T12:45:52.399Z</time></trkpt><trkpt lat="45.2157824" lon="8.4136484"><ele>125.4</ele><time>2026-04-04T12:45:54.391Z</time></trkpt><trkpt lat="45.2158148" lon="8.4135078"><ele>125.0</ele><time>2026-04-04T12:45:56.395Z</time></trkpt><trkpt lat="45.2158488" lon="8.4133654"><ele>125.0</ele><time>2026-04-04T12:45:58.39Z</time></trkpt><trkpt lat="45.2158822" lon="8.4132257"><ele>125.0</ele><time>2026-04-04T12:46:00.393Z</time></trkpt><trkpt lat="45.215915" lon="8.4130904"><ele>125.0</ele><time>2026-04-04T12:46:02.394Z</time></trkpt><trkpt lat="45.2159616" lon="8.4129626"><ele>125.0</ele><time>2026-04-04T12:46:04.397Z</time></trkpt><trkpt lat="45.2160068" lon="8.4128325"><ele>125.0</ele><time>2026-04-04T12:46:06.401Z</time></trkpt><trkpt lat="45.2160555" lon="8.4127127"><ele>125.0</ele><time>2026-04-04T12:46:08.396Z</time></trkpt><trkpt lat="45.2161066" lon="8.412589"><ele>125.0</ele><time>2026-04-04T12:46:10.389Z</time></trkpt><trkpt lat="45.2161744" lon="8.4124667"><ele>125.0</ele><time>2026-04-04T12:46:12.387Z</time></trkpt><trkpt lat="45.2162437" lon="8.4123437"><ele>125.0</ele><time>2026-04-04T12:46:14.392Z</time></trkpt><trkpt lat="45.2163116" lon="8.4122116"><ele>125.0</ele><time>2026-04-04T12:46:16.388Z</time></trkpt><trkpt lat="45.2163788" lon="8.4120858"><ele>124.8</ele><time>2026-04-04T12:46:18.388Z</time></trkpt><trkpt lat="45.2164412" lon="8.4119553"><ele>124.6</ele><time>2026-04-04T12:46:20.401Z</time></trkpt><trkpt lat="45.2165042" lon="8.4118268"><ele>124.4</ele><time>2026-04-04T12:46:22.395Z</time></trkpt><trkpt lat="45.2165527" lon="8.4116849"><ele>124.2</ele><time>2026-04-04T12:46:24.393Z</time></trkpt><trkpt lat="45.2165928" lon="8.4115374"><ele>124.0</ele><time>2026-04-04T12:46:26.404Z</time></trkpt><trkpt lat="45.2166386" lon="8.4113938"><ele>124.0</ele><time>2026-04-04T12:46:28.394Z</time></trkpt><trkpt lat="45.2166909" lon="8.4112488"><ele>124.0</ele><time>2026-04-04T12:46:30.398Z</time></trkpt><trkpt lat="45.2167456" lon="8.4111055"><ele>124.0</ele><time>2026-04-04T12:46:32.397Z</time></trkpt><trkpt lat="45.2167983" lon="8.410972"><ele>124.0</ele><time>2026-04-04T12:46:34.401Z</time></trkpt><trkpt lat="45.2168503" lon="8.4108377"><ele>124.0</ele><time>2026-04-04T12:46:36.405Z</time></trkpt><trkpt lat="45.2169036" lon="8.4107082"><ele>124.0</ele><time>2026-04-04T12:46:38.397Z</time></trkpt><trkpt lat="45.2169573" lon="8.4105833"><ele>124.0</ele><time>2026-04-04T12:46:40.395Z</time></trkpt><trkpt lat="45.2170044" lon="8.4104625"><ele>124.0</ele><time>2026-04-04T12:46:42.394Z</time></trkpt><trkpt lat="45.2170401" lon="8.4103394"><ele>124.0</ele><time>2026-04-04T12:46:44.392Z</time></trkpt><trkpt lat="45.2170806" lon="8.4102115"><ele>124.0</ele><time>2026-04-04T12:46:46.403Z</time></trkpt><trkpt lat="45.2171166" lon="8.4100796"><ele>124.0</ele><time>2026-04-04T12:46:48.404Z</time></trkpt><trkpt lat="45.2171531" lon="8.4099413"><ele>124.0</ele><time>2026-04-04T12:46:50.391Z</time></trkpt><trkpt lat="45.2171851" lon="8.4098057"><ele>124.0</ele><time>2026-04-04T12:46:52.399Z</time></trkpt><trkpt lat="45.2172208" lon="8.4096771"><ele>124.0</ele><time>2026-04-04T12:46:54.391Z</time></trkpt><trkpt lat="45.2172504" lon="8.4095409"><ele>124.0</ele><time>2026-04-04T12:46:56.393Z</time></trkpt><trkpt lat="45.2172885" lon="8.4094013"><ele>124.2</ele><time>2026-04-04T12:46:58.388Z</time></trkpt><trkpt lat="45.2173396" lon="8.4092732"><ele>124.4</ele><time>2026-04-04T12:47:00.391Z</time></trkpt><trkpt lat="45.2174065" lon="8.4091786"><ele>124.6</ele><time>2026-04-04T12:47:02.394Z</time></trkpt><trkpt lat="45.2174908" lon="8.4091131"><ele>124.8</ele><time>2026-04-04T12:47:04.395Z</time></trkpt><trkpt lat="45.2175759" lon="8.4090236"><ele>125.0</ele><time>2026-04-04T12:47:06.407Z</time></trkpt><trkpt lat="45.2176303" lon="8.4089044"><ele>124.8</ele><time>2026-04-04T12:47:08.396Z</time></trkpt><trkpt lat="45.2176605" lon="8.4087614"><ele>124.6</ele><time>2026-04-04T12:47:10.401Z</time></trkpt><trkpt lat="45.2176858" lon="8.4086173"><ele>124.4</ele><time>2026-04-04T12:47:12.396Z</time></trkpt><trkpt lat="45.2177059" lon="8.4084786"><ele>124.2</ele><time>2026-04-04T12:47:14.391Z</time></trkpt><trkpt lat="45.2177183" lon="8.4083341"><ele>124.0</ele><time>2026-04-04T12:47:16.391Z</time></trkpt><trkpt lat="45.217732" lon="8.4081957"><ele>124.0</ele><time>2026-04-04T12:47:18.393Z</time></trkpt><trkpt lat="45.2177454" lon="8.4080501"><ele>124.0</ele><time>2026-04-04T12:47:20.391Z</time></trkpt><trkpt lat="45.2177627" lon="8.4079117"><ele>124.0</ele><time>2026-04-04T12:47:22.4Z</time></trkpt><trkpt lat="45.2177748" lon="8.4077519"><ele>124.0</ele><time>2026-04-04T12:47:24.389Z</time></trkpt><trkpt lat="45.2177865" lon="8.4075818"><ele>124.0</ele><time>2026-04-04T12:47:26.395Z</time></trkpt><trkpt lat="45.2177959" lon="8.4074006"><ele>124.0</ele><time>2026-04-04T12:47:28.4Z</time></trkpt><trkpt lat="45.2178039" lon="8.4072301"><ele>124.0</ele><time>2026-04-04T12:47:30.393Z</time></trkpt><trkpt lat="45.2178085" lon="8.4071395"><ele>124.0</ele><time>2026-04-04T12:47:31.396Z</time></trkpt><trkpt lat="45.2178207" lon="8.4069634"><ele>124.0</ele><time>2026-04-04T12:47:33.395Z</time></trkpt><trkpt lat="45.217834" lon="8.4067881"><ele>124.0</ele><time>2026-04-04T12:47:35.394Z</time></trkpt><trkpt lat="45.2178512" lon="8.4066175"><ele>124.0</ele><time>2026-04-04T12:47:37.394Z</time></trkpt><trkpt lat="45.2178597" lon="8.406446"><ele>124.0</ele><time>2026-04-04T12:47:39.395Z</time></trkpt><trkpt lat="45.2178744" lon="8.4062755"><ele>124.0</ele><time>2026-04-04T12:47:41.393Z</time></trkpt><trkpt lat="45.2178791" lon="8.4061038"><ele>124.0</ele><time>2026-04-04T12:47:43.389Z</time></trkpt><trkpt lat="45.2178817" lon="8.4059314"><ele>123.75</ele><time>2026-04-04T12:47:45.396Z</time></trkpt><trkpt lat="45.2178877" lon="8.405764"><ele>123.5</ele><time>2026-04-04T12:47:47.391Z</time></trkpt><trkpt lat="45.2178884" lon="8.4055977"><ele>123.25</ele><time>2026-04-04T12:47:49.392Z</time></trkpt><trkpt lat="45.2178947" lon="8.4054308"><ele>123.0</ele><time>2026-04-04T12:47:51.4Z</time></trkpt><trkpt lat="45.217895" lon="8.4052609"><ele>122.75</ele><time>2026-04-04T12:47:53.394Z</time></trkpt><trkpt lat="45.2178931" lon="8.4050907"><ele>122.5</ele><time>2026-04-04T12:47:55.402Z</time></trkpt><trkpt lat="45.2178968" lon="8.4049242"><ele>122.25</ele><time>2026-04-04T12:47:57.39Z</time></trkpt><trkpt lat="45.2178948" lon="8.4047577"><ele>122.0</ele><time>2026-04-04T12:47:59.396Z</time></trkpt><trkpt lat="45.2178944" lon="8.4045914"><ele>122.0</ele><time>2026-04-04T12:48:01.399Z</time></trkpt><trkpt lat="45.2178984" lon="8.4044235"><ele>122.0</ele><time>2026-04-04T12:48:03.393Z</time></trkpt><trkpt lat="45.2179085" lon="8.404259"><ele>122.0</ele><time>2026-04-04T12:48:05.398Z</time></trkpt><trkpt lat="45.2179212" lon="8.4040925"><ele>122.0</ele><time>2026-04-04T12:48:07.394Z</time></trkpt><trkpt lat="45.2179515" lon="8.4039339"><ele>122.0</ele><time>2026-04-04T12:48:09.389Z</time></trkpt><trkpt lat="45.2179929" lon="8.4037841"><ele>122.0</ele><time>2026-04-04T12:48:11.396Z</time></trkpt><trkpt lat="45.2180351" lon="8.4036316"><ele>122.0</ele><time>2026-04-04T12:48:13.392Z</time></trkpt><trkpt lat="45.21808" lon="8.4034749"><ele>122.0</ele><time>2026-04-04T12:48:15.394Z</time></trkpt><trkpt lat="45.2181264" lon="8.4033176"><ele>121.75</ele><time>2026-04-04T12:48:17.392Z</time></trkpt><trkpt lat="45.2181725" lon="8.4031616"><ele>121.5</ele><time>2026-04-04T12:48:19.39Z</time></trkpt><trkpt lat="45.2182097" lon="8.4030094"><ele>121.25</ele><time>2026-04-04T12:48:21.401Z</time></trkpt><trkpt lat="45.2182528" lon="8.4028627"><ele>121.0</ele><time>2026-04-04T12:48:23.399Z</time></trkpt><trkpt lat="45.2182824" lon="8.4027102"><ele>121.0</ele><time>2026-04-04T12:48:25.396Z</time></trkpt><trkpt lat="45.2183072" lon="8.4025599"><ele>121.0</ele><time>2026-04-04T12:48:27.398Z</time></trkpt><trkpt lat="45.2183336" lon="8.4024032"><ele>121.0</ele><time>2026-04-04T12:48:29.391Z</time></trkpt><trkpt lat="45.2183476" lon="8.4022461"><ele>121.0</ele><time>2026-04-04T12:48:31.391Z</time></trkpt><trkpt lat="45.2183585" lon="8.4020923"><ele>121.0</ele><time>2026-04-04T12:48:33.395Z</time></trkpt><trkpt lat="45.2183548" lon="8.4019257"><ele>121.0</ele><time>2026-04-04T12:48:35.393Z</time></trkpt><trkpt lat="45.2183484" lon="8.4017668"><ele>121.0</ele><time>2026-04-04T12:48:37.393Z</time></trkpt><trkpt lat="45.2183306" lon="8.4016131"><ele>121.0</ele><time>2026-04-04T12:48:39.394Z</time></trkpt><trkpt lat="45.2183062" lon="8.4014586"><ele>121.0</ele><time>2026-04-04T12:48:41.399Z</time></trkpt><trkpt lat="45.2182894" lon="8.401297"><ele>121.0</ele><time>2026-04-04T12:48:43.41Z</time></trkpt><trkpt lat="45.2182907" lon="8.4011443"><ele>121.0</ele><time>2026-04-04T12:48:45.392Z</time></trkpt><trkpt lat="45.2182965" lon="8.400988"><ele>121.0</ele><time>2026-04-04T12:48:47.394Z</time></trkpt><trkpt lat="45.2183066" lon="8.4008378"><ele>121.0</ele><time>2026-04-04T12:48:49.394Z</time></trkpt><trkpt lat="45.2183255" lon="8.4006955"><ele>121.0</ele><time>2026-04-04T12:48:51.395Z</time></trkpt><trkpt lat="45.2183751" lon="8.4005853"><ele>121.0</ele><time>2026-04-04T12:48:53.39Z</time></trkpt><trkpt lat="45.2184656" lon="8.400555"><ele>121.0</ele><time>2026-04-04T12:48:55.397Z</time></trkpt><trkpt lat="45.2185588" lon="8.4005676"><ele>121.0</ele><time>2026-04-04T12:48:57.393Z</time></trkpt><trkpt lat="45.2186577" lon="8.4005833"><ele>121.0</ele><time>2026-04-04T12:48:59.4Z</time></trkpt><trkpt lat="45.2187606" lon="8.4006081"><ele>121.0</ele><time>2026-04-04T12:49:01.399Z</time></trkpt><trkpt lat="45.2188662" lon="8.4006305"><ele>121.0</ele><time>2026-04-04T12:49:03.399Z</time></trkpt><trkpt lat="45.2189713" lon="8.400647"><ele>120.75</ele><time>2026-04-04T12:49:05.396Z</time></trkpt><trkpt lat="45.2190821" lon="8.400679"><ele>120.5</ele><time>2026-04-04T12:49:07.393Z</time></trkpt><trkpt lat="45.2191876" lon="8.4007068"><ele>120.25</ele><time>2026-04-04T12:49:09.397Z</time></trkpt><trkpt lat="45.219301" lon="8.4007294"><ele>120.0</ele><time>2026-04-04T12:49:11.396Z</time></trkpt><trkpt lat="45.2194176" lon="8.4007482"><ele>120.0</ele><time>2026-04-04T12:49:13.396Z</time></trkpt><trkpt lat="45.2195352" lon="8.4007665"><ele>120.0</ele><time>2026-04-04T12:49:15.401Z</time></trkpt><trkpt lat="45.2196481" lon="8.4007933"><ele>120.0</ele><time>2026-04-04T12:49:17.394Z</time></trkpt><trkpt lat="45.2197591" lon="8.4008161"><ele>120.0</ele><time>2026-04-04T12:49:19.401Z</time></trkpt><trkpt lat="45.2198685" lon="8.4008489"><ele>120.0</ele><time>2026-04-04T12:49:21.394Z</time></trkpt><trkpt lat="45.2199801" lon="8.4008762"><ele>120.0</ele><time>2026-04-04T12:49:23.4Z</time></trkpt><trkpt lat="45.2200899" lon="8.4009025"><ele>120.0</ele><time>2026-04-04T12:49:25.393Z</time></trkpt><trkpt lat="45.2201975" lon="8.4009209"><ele>120.0</ele><time>2026-04-04T12:49:27.4Z</time></trkpt><trkpt lat="45.2203035" lon="8.4009509"><ele>120.0</ele><time>2026-04-04T12:49:29.396Z</time></trkpt><trkpt lat="45.2204075" lon="8.4009799"><ele>120.0</ele><time>2026-04-04T12:49:31.401Z</time></trkpt><trkpt lat="45.2205141" lon="8.4010144"><ele>120.0</ele><time>2026-04-04T12:49:33.399Z</time></trkpt><trkpt lat="45.2206224" lon="8.4010324"><ele>120.0</ele><time>2026-04-04T12:49:35.391Z</time></trkpt><trkpt lat="45.2207322" lon="8.4010536"><ele>120.0</ele><time>2026-04-04T12:49:37.399Z</time></trkpt><trkpt lat="45.2208362" lon="8.4010852"><ele>120.0</ele><time>2026-04-04T12:49:39.397Z</time></trkpt><trkpt lat="45.2209366" lon="8.4011121"><ele>120.0</ele><time>2026-04-04T12:49:41.398Z</time></trkpt><trkpt lat="45.2210128" lon="8.4011217"><ele>120.0</ele><time>2026-04-04T12:49:43.394Z</time></trkpt><trkpt lat="45.2211019" lon="8.4011514"><ele>120.0</ele><time>2026-04-04T12:49:45.394Z</time></trkpt><trkpt lat="45.221188" lon="8.401169"><ele>120.0</ele><time>2026-04-04T12:49:47.4Z</time></trkpt><trkpt lat="45.2212706" lon="8.4011899"><ele>120.0</ele><time>2026-04-04T12:49:49.391Z</time></trkpt><trkpt lat="45.2213584" lon="8.4012132"><ele>120.0</ele><time>2026-04-04T12:49:51.393Z</time></trkpt><trkpt lat="45.22145" lon="8.4012319"><ele>120.2</ele><time>2026-04-04T12:49:53.397Z</time></trkpt><trkpt lat="45.2215406" lon="8.4012517"><ele>120.4</ele><time>2026-04-04T12:49:55.399Z</time></trkpt><trkpt lat="45.2216355" lon="8.4012752"><ele>120.6</ele><time>2026-04-04T12:49:57.398Z</time></trkpt><trkpt lat="45.2217267" lon="8.4012983"><ele>120.8</ele><time>2026-04-04T12:49:59.395Z</time></trkpt><trkpt lat="45.2218201" lon="8.4013243"><ele>121.0</ele><time>2026-04-04T12:50:01.398Z</time></trkpt><trkpt lat="45.2219123" lon="8.4013442"><ele>121.0</ele><time>2026-04-04T12:50:03.393Z</time></trkpt><trkpt lat="45.2220098" lon="8.4013699"><ele>121.0</ele><time>2026-04-04T12:50:05.394Z</time></trkpt><trkpt lat="45.2221013" lon="8.4013867"><ele>121.0</ele><time>2026-04-04T12:50:07.406Z</time></trkpt><trkpt lat="45.2221977" lon="8.4013995"><ele>121.0</ele><time>2026-04-04T12:50:09.401Z</time></trkpt><trkpt lat="45.2222915" lon="8.4014306"><ele>121.0</ele><time>2026-04-04T12:50:11.388Z</time></trkpt><trkpt lat="45.2223822" lon="8.4014376"><ele>121.19999999999999</ele><time>2026-04-04T12:50:13.392Z</time></trkpt><trkpt lat="45.2224673" lon="8.4013843"><ele>121.39999999999999</ele><time>2026-04-04T12:50:15.391Z</time></trkpt><trkpt lat="45.2225032" lon="8.4012666"><ele>121.6</ele><time>2026-04-04T12:50:17.393Z</time></trkpt><trkpt lat="45.2225214" lon="8.4011277"><ele>121.8</ele><time>2026-04-04T12:50:19.394Z</time></trkpt><trkpt lat="45.2225473" lon="8.4009845"><ele>122.0</ele><time>2026-04-04T12:50:21.387Z</time></trkpt><trkpt lat="45.2225689" lon="8.4008479"><ele>122.0</ele><time>2026-04-04T12:50:23.39Z</time></trkpt><trkpt lat="45.2225883" lon="8.4007075"><ele>121.99999999999999</ele><time>2026-04-04T12:50:25.389Z</time></trkpt><trkpt lat="45.2226083" lon="8.4005627"><ele>121.99999999999999</ele><time>2026-04-04T12:50:27.39Z</time></trkpt><trkpt lat="45.2226283" lon="8.400421"><ele>122.0</ele><time>2026-04-04T12:50:29.392Z</time></trkpt><trkpt lat="45.22265" lon="8.400281"><ele>122.0</ele><time>2026-04-04T12:50:31.393Z</time></trkpt><trkpt lat="45.2226659" lon="8.4001495"><ele>122.0</ele><time>2026-04-04T12:50:33.406Z</time></trkpt><trkpt lat="45.2226841" lon="8.4000286"><ele>121.99999999999999</ele><time>2026-04-04T12:50:35.395Z</time></trkpt><trkpt lat="45.2227047" lon="8.3998944"><ele>121.99999999999999</ele><time>2026-04-04T12:50:37.4Z</time></trkpt><trkpt lat="45.2227257" lon="8.3997498"><ele>122.0</ele><time>2026-04-04T12:50:39.393Z</time></trkpt><trkpt lat="45.2227464" lon="8.3996003"><ele>122.0</ele><time>2026-04-04T12:50:41.394Z</time></trkpt><trkpt lat="45.2227686" lon="8.3994477"><ele>122.0</ele><time>2026-04-04T12:50:43.39Z</time></trkpt><trkpt lat="45.2227895" lon="8.399301"><ele>121.99999999999999</ele><time>2026-04-04T12:50:45.392Z</time></trkpt><trkpt lat="45.2228093" lon="8.3991483"><ele>121.99999999999999</ele><time>2026-04-04T12:50:47.397Z</time></trkpt><trkpt lat="45.2228331" lon="8.3989915"><ele>122.0</ele><time>2026-04-04T12:50:49.395Z</time></trkpt><trkpt lat="45.2228559" lon="8.3988394"><ele>122.0</ele><time>2026-04-04T12:50:51.389Z</time></trkpt><trkpt lat="45.2228805" lon="8.3986832"><ele>122.0</ele><time>2026-04-04T12:50:53.391Z</time></trkpt><trkpt lat="45.2229098" lon="8.3985383"><ele>121.99999999999999</ele><time>2026-04-04T12:50:55.393Z</time></trkpt><trkpt lat="45.2229315" lon="8.3983909"><ele>121.99999999999999</ele><time>2026-04-04T12:50:57.394Z</time></trkpt><trkpt lat="45.2229576" lon="8.3982476"><ele>122.0</ele><time>2026-04-04T12:50:59.394Z</time></trkpt><trkpt lat="45.2229801" lon="8.3981034"><ele>122.0</ele><time>2026-04-04T12:51:01.397Z</time></trkpt><trkpt lat="45.2230092" lon="8.397956"><ele>121.8</ele><time>2026-04-04T12:51:03.391Z</time></trkpt><trkpt lat="45.2230321" lon="8.3978064"><ele>121.6</ele><time>2026-04-04T12:51:05.389Z</time></trkpt><trkpt lat="45.2230548" lon="8.3976462"><ele>121.39999999999999</ele><time>2026-04-04T12:51:07.395Z</time></trkpt><trkpt lat="45.223081" lon="8.3974983"><ele>121.19999999999999</ele><time>2026-04-04T12:51:09.401Z</time></trkpt><trkpt lat="45.2231091" lon="8.3973566"><ele>121.0</ele><time>2026-04-04T12:51:11.402Z</time></trkpt><trkpt lat="45.2231444" lon="8.3972124"><ele>121.0</ele><time>2026-04-04T12:51:13.388Z</time></trkpt><trkpt lat="45.2231752" lon="8.3970702"><ele>121.0</ele><time>2026-04-04T12:51:15.4Z</time></trkpt><trkpt lat="45.2232043" lon="8.3969314"><ele>121.0</ele><time>2026-04-04T12:51:17.401Z</time></trkpt><trkpt lat="45.2232387" lon="8.3967947"><ele>121.0</ele><time>2026-04-04T12:51:19.394Z</time></trkpt><trkpt lat="45.2232689" lon="8.3966565"><ele>121.0</ele><time>2026-04-04T12:51:21.4Z</time></trkpt><trkpt lat="45.2232961" lon="8.3965245"><ele>121.0</ele><time>2026-04-04T12:51:23.389Z</time></trkpt><trkpt lat="45.223321" lon="8.3963917"><ele>121.0</ele><time>2026-04-04T12:51:25.404Z</time></trkpt><trkpt lat="45.2233497" lon="8.3962564"><ele>121.0</ele><time>2026-04-04T12:51:27.389Z</time></trkpt><trkpt lat="45.2233806" lon="8.3961262"><ele>121.0</ele><time>2026-04-04T12:51:29.394Z</time></trkpt><trkpt lat="45.2234256" lon="8.3960087"><ele>121.0</ele><time>2026-04-04T12:51:31.398Z</time></trkpt><trkpt lat="45.2234862" lon="8.3958999"><ele>120.8</ele><time>2026-04-04T12:51:33.397Z</time></trkpt><trkpt lat="45.223555" lon="8.3957952"><ele>120.6</ele><time>2026-04-04T12:51:35.402Z</time></trkpt><trkpt lat="45.223624" lon="8.3956889"><ele>120.4</ele><time>2026-04-04T12:51:37.392Z</time></trkpt><trkpt lat="45.2236877" lon="8.3955831"><ele>120.2</ele><time>2026-04-04T12:51:39.393Z</time></trkpt><trkpt lat="45.2237615" lon="8.3954759"><ele>120.0</ele><time>2026-04-04T12:51:41.39Z</time></trkpt><trkpt lat="45.2238306" lon="8.3953694"><ele>120.0</ele><time>2026-04-04T12:51:43.413Z</time></trkpt><trkpt lat="45.2238972" lon="8.3952543"><ele>120.0</ele><time>2026-04-04T12:51:45.396Z</time></trkpt><trkpt lat="45.2239628" lon="8.3951444"><ele>120.0</ele><time>2026-04-04T12:51:47.399Z</time></trkpt><trkpt lat="45.2240268" lon="8.3950343"><ele>120.0</ele><time>2026-04-04T12:51:49.392Z</time></trkpt><trkpt lat="45.2240898" lon="8.3949289"><ele>120.0</ele><time>2026-04-04T12:51:51.39Z</time></trkpt><trkpt lat="45.2241582" lon="8.3948268"><ele>120.2</ele><time>2026-04-04T12:51:53.395Z</time></trkpt><trkpt lat="45.2242233" lon="8.3947286"><ele>120.4</ele><time>2026-04-04T12:51:55.39Z</time></trkpt><trkpt lat="45.2242896" lon="8.3946272"><ele>120.6</ele><time>2026-04-04T12:51:57.392Z</time></trkpt><trkpt lat="45.2243537" lon="8.394517"><ele>120.8</ele><time>2026-04-04T12:51:59.395Z</time></trkpt><trkpt lat="45.2244222" lon="8.3944148"><ele>121.0</ele><time>2026-04-04T12:52:01.399Z</time></trkpt><trkpt lat="45.2244811" lon="8.3943114"><ele>121.16666666666667</ele><time>2026-04-04T12:52:03.397Z</time></trkpt><trkpt lat="45.224535" lon="8.394207"><ele>121.33333333333334</ele><time>2026-04-04T12:52:05.41Z</time></trkpt><trkpt lat="45.2245964" lon="8.3941169"><ele>121.5</ele><time>2026-04-04T12:52:07.395Z</time></trkpt><trkpt lat="45.2246469" lon="8.3940182"><ele>121.66666666666666</ele><time>2026-04-04T12:52:09.405Z</time></trkpt><trkpt lat="45.224701" lon="8.3939431"><ele>121.83333333333333</ele><time>2026-04-04T12:52:11.389Z</time></trkpt><trkpt lat="45.2247505" lon="8.3938576"><ele>122.0</ele><time>2026-04-04T12:52:13.397Z</time></trkpt><trkpt lat="45.2247991" lon="8.3937746"><ele>122.57142857142856</ele><time>2026-04-04T12:52:15.403Z</time></trkpt><trkpt lat="45.2248452" lon="8.393703"><ele>123.14285714285714</ele><time>2026-04-04T12:52:17.4Z</time></trkpt><trkpt lat="45.2248937" lon="8.3936331"><ele>123.71428571428571</ele><time>2026-04-04T12:52:19.39Z</time></trkpt><trkpt lat="45.2249503" lon="8.3935583"><ele>124.28571428571428</ele><time>2026-04-04T12:52:21.392Z</time></trkpt><trkpt lat="45.224998" lon="8.393486"><ele>124.85714285714286</ele><time>2026-04-04T12:52:23.391Z</time></trkpt><trkpt lat="45.225039" lon="8.3934141"><ele>125.42857142857143</ele><time>2026-04-04T12:52:25.396Z</time></trkpt><trkpt lat="45.2250759" lon="8.3933011"><ele>126.0</ele><time>2026-04-04T12:52:28.391Z</time></trkpt><trkpt lat="45.2250218" lon="8.3932166"><ele>126.0</ele><time>2026-04-04T12:52:31.389Z</time></trkpt><trkpt lat="45.2249357" lon="8.3931769"><ele>126.0</ele><time>2026-04-04T12:52:34.391Z</time></trkpt><trkpt lat="45.2249084" lon="8.3930832"><ele>126.0</ele><time>2026-04-04T12:52:37.405Z</time></trkpt><trkpt lat="45.2249399" lon="8.3929696"><ele>126.0</ele><time>2026-04-04T12:52:40.395Z</time></trkpt><trkpt lat="45.224964" lon="8.3928726"><ele>126.0</ele><time>2026-04-04T12:52:42.392Z</time></trkpt><trkpt lat="45.2249868" lon="8.392768"><ele>126.0</ele><time>2026-04-04T12:52:44.392Z</time></trkpt><trkpt lat="45.2249915" lon="8.3926525"><ele>126.0</ele><time>2026-04-04T12:52:46.396Z</time></trkpt><trkpt lat="45.2249888" lon="8.3925316"><ele>126.0</ele><time>2026-04-04T12:52:48.388Z</time></trkpt><trkpt lat="45.2249827" lon="8.3923988"><ele>126.0</ele><time>2026-04-04T12:52:50.39Z</time></trkpt><trkpt lat="45.2249815" lon="8.3922724"><ele>126.0</ele><time>2026-04-04T12:52:52.393Z</time></trkpt><trkpt lat="45.2249788" lon="8.3921426"><ele>126.0</ele><time>2026-04-04T12:52:54.392Z</time></trkpt><trkpt lat="45.2249672" lon="8.3920214"><ele>126.0</ele><time>2026-04-04T12:52:56.392Z</time></trkpt><trkpt lat="45.2249663" lon="8.3919002"><ele>126.0</ele><time>2026-04-04T12:52:58.395Z</time></trkpt><trkpt lat="45.2249594" lon="8.3917861"><ele>126.0</ele><time>2026-04-04T12:53:00.39Z</time></trkpt><trkpt lat="45.2249509" lon="8.3916725"><ele>126.0</ele><time>2026-04-04T12:53:02.386Z</time></trkpt><trkpt lat="45.2249462" lon="8.3915564"><ele>126.0</ele><time>2026-04-04T12:53:04.396Z</time></trkpt><trkpt lat="45.2249392" lon="8.3914353"><ele>126.0</ele><time>2026-04-04T12:53:06.388Z</time></trkpt><trkpt lat="45.2249264" lon="8.3913172"><ele>126.0</ele><time>2026-04-04T12:53:08.391Z</time></trkpt><trkpt lat="45.2248669" lon="8.3912258"><ele>126.19999999999999</ele><time>2026-04-04T12:53:10.396Z</time></trkpt><trkpt lat="45.2247844" lon="8.3911767"><ele>126.39999999999999</ele><time>2026-04-04T12:53:12.396Z</time></trkpt><trkpt lat="45.2246885" lon="8.3911472"><ele>126.6</ele><time>2026-04-04T12:53:14.392Z</time></trkpt><trkpt lat="45.2245949" lon="8.3911288"><ele>126.8</ele><time>2026-04-04T12:53:16.39Z</time></trkpt><trkpt lat="45.22451" lon="8.3911096"><ele>127.0</ele><time>2026-04-04T12:53:18.393Z</time></trkpt><trkpt lat="45.2244207" lon="8.3910874"><ele>127.00000000000001</ele><time>2026-04-04T12:53:20.39Z</time></trkpt><trkpt lat="45.2243374" lon="8.3910694"><ele>127.0</ele><time>2026-04-04T12:53:22.39Z</time></trkpt><trkpt lat="45.2242627" lon="8.3910123"><ele>127.0</ele><time>2026-04-04T12:53:24.389Z</time></trkpt><trkpt lat="45.2242431" lon="8.3909062"><ele>127.0</ele><time>2026-04-04T12:53:26.388Z</time></trkpt><trkpt lat="45.224248" lon="8.390793"><ele>127.00000000000001</ele><time>2026-04-04T12:53:28.389Z</time></trkpt><trkpt lat="45.2242577" lon="8.3906702"><ele>127.0</ele><time>2026-04-04T12:53:30.389Z</time></trkpt><trkpt lat="45.224269" lon="8.3905493"><ele>127.19999999999999</ele><time>2026-04-04T12:53:32.4Z</time></trkpt><trkpt lat="45.2242809" lon="8.3904255"><ele>127.39999999999999</ele><time>2026-04-04T12:53:34.389Z</time></trkpt><trkpt lat="45.224296" lon="8.3902996"><ele>127.60000000000001</ele><time>2026-04-04T12:53:36.395Z</time></trkpt><trkpt lat="45.2243075" lon="8.3901681"><ele>127.80000000000001</ele><time>2026-04-04T12:53:38.39Z</time></trkpt><trkpt lat="45.2243202" lon="8.3900379"><ele>128.0</ele><time>2026-04-04T12:53:40.393Z</time></trkpt><trkpt lat="45.2243333" lon="8.3899079"><ele>128.0</ele><time>2026-04-04T12:53:42.401Z</time></trkpt><trkpt lat="45.2243434" lon="8.3897698"><ele>128.0</ele><time>2026-04-04T12:53:44.397Z</time></trkpt><trkpt lat="45.2243591" lon="8.3896347"><ele>128.0</ele><time>2026-04-04T12:53:46.4Z</time></trkpt><trkpt lat="45.224375" lon="8.3894933"><ele>128.0</ele><time>2026-04-04T12:53:48.396Z</time></trkpt><trkpt lat="45.2243877" lon="8.3893502"><ele>128.0</ele><time>2026-04-04T12:53:50.394Z</time></trkpt><trkpt lat="45.2244007" lon="8.3892073"><ele>128.0</ele><time>2026-04-04T12:53:52.395Z</time></trkpt><trkpt lat="45.224417" lon="8.3890723"><ele>128.0</ele><time>2026-04-04T12:53:54.39Z</time></trkpt><trkpt lat="45.2244298" lon="8.3889371"><ele>128.0</ele><time>2026-04-04T12:53:56.386Z</time></trkpt><trkpt lat="45.2244416" lon="8.3888018"><ele>128.0</ele><time>2026-04-04T12:53:58.392Z</time></trkpt><trkpt lat="45.2244569" lon="8.3886755"><ele>128.0</ele><time>2026-04-04T12:54:00.394Z</time></trkpt><trkpt lat="45.2244685" lon="8.3885471"><ele>128.0</ele><time>2026-04-04T12:54:02.404Z</time></trkpt><trkpt lat="45.2244813" lon="8.3884199"><ele>128.0</ele><time>2026-04-04T12:54:04.393Z</time></trkpt><trkpt lat="45.2244944" lon="8.3882912"><ele>128.0</ele><time>2026-04-04T12:54:06.395Z</time></trkpt><trkpt lat="45.2245095" lon="8.3881652"><ele>128.0</ele><time>2026-04-04T12:54:08.395Z</time></trkpt><trkpt lat="45.2245219" lon="8.3880391"><ele>128.0</ele><time>2026-04-04T12:54:10.393Z</time></trkpt><trkpt lat="45.2245349" lon="8.3879131"><ele>128.0</ele><time>2026-04-04T12:54:12.399Z</time></trkpt><trkpt lat="45.2245492" lon="8.3877751"><ele>128.0</ele><time>2026-04-04T12:54:14.388Z</time></trkpt><trkpt lat="45.2245627" lon="8.38763"><ele>128.0</ele><time>2026-04-04T12:54:16.391Z</time></trkpt><trkpt lat="45.2245788" lon="8.3874939"><ele>128.0</ele><time>2026-04-04T12:54:18.391Z</time></trkpt><trkpt lat="45.2245903" lon="8.3873537"><ele>128.0</ele><time>2026-04-04T12:54:20.403Z</time></trkpt><trkpt lat="45.2246063" lon="8.3872122"><ele>128.0</ele><time>2026-04-04T12:54:22.395Z</time></trkpt><trkpt lat="45.2246198" lon="8.3870742"><ele>128.0</ele><time>2026-04-04T12:54:24.391Z</time></trkpt><trkpt lat="45.2246353" lon="8.3869373"><ele>128.0</ele><time>2026-04-04T12:54:26.391Z</time></trkpt><trkpt lat="45.2246484" lon="8.3867953"><ele>128.0</ele><time>2026-04-04T12:54:28.399Z</time></trkpt><trkpt lat="45.2246621" lon="8.3866556"><ele>128.0</ele><time>2026-04-04T12:54:30.391Z</time></trkpt><trkpt lat="45.2246743" lon="8.3865158"><ele>128.0</ele><time>2026-04-04T12:54:32.402Z</time></trkpt><trkpt lat="45.2246885" lon="8.3863757"><ele>128.0</ele><time>2026-04-04T12:54:34.392Z</time></trkpt><trkpt lat="45.2247003" lon="8.3862257"><ele>128.0</ele><time>2026-04-04T12:54:36.388Z</time></trkpt><trkpt lat="45.2247203" lon="8.3860821"><ele>128.0</ele><time>2026-04-04T12:54:38.396Z</time></trkpt><trkpt lat="45.2247332" lon="8.385934"><ele>128.0</ele><time>2026-04-04T12:54:40.395Z</time></trkpt><trkpt lat="45.2247442" lon="8.3857889"><ele>128.0</ele><time>2026-04-04T12:54:42.401Z</time></trkpt><trkpt lat="45.2247592" lon="8.3856371"><ele>128.0</ele><time>2026-04-04T12:54:44.391Z</time></trkpt><trkpt lat="45.2247783" lon="8.3854919"><ele>128.0</ele><time>2026-04-04T12:54:46.388Z</time></trkpt><trkpt lat="45.224794" lon="8.3853419"><ele>128.0</ele><time>2026-04-04T12:54:48.39Z</time></trkpt><trkpt lat="45.2248061" lon="8.3851975"><ele>128.0</ele><time>2026-04-04T12:54:50.39Z</time></trkpt><trkpt lat="45.2248198" lon="8.385053"><ele>128.0</ele><time>2026-04-04T12:54:52.393Z</time></trkpt><trkpt lat="45.2248408" lon="8.384916"><ele>128.0</ele><time>2026-04-04T12:54:54.4Z</time></trkpt><trkpt lat="45.2248563" lon="8.3847772"><ele>128.0</ele><time>2026-04-04T12:54:56.396Z</time></trkpt><trkpt lat="45.2248645" lon="8.3846362"><ele>128.0</ele><time>2026-04-04T12:54:58.397Z</time></trkpt><trkpt lat="45.2248782" lon="8.3844894"><ele>128.0</ele><time>2026-04-04T12:55:00.393Z</time></trkpt><trkpt lat="45.22489" lon="8.3843471"><ele>128.0</ele><time>2026-04-04T12:55:02.407Z</time></trkpt><trkpt lat="45.2249036" lon="8.3842138"><ele>128.0</ele><time>2026-04-04T12:55:04.395Z</time></trkpt><trkpt lat="45.2249174" lon="8.3840762"><ele>128.0</ele><time>2026-04-04T12:55:06.396Z</time></trkpt><trkpt lat="45.2249274" lon="8.3839404"><ele>128.0</ele><time>2026-04-04T12:55:08.398Z</time></trkpt><trkpt lat="45.2249382" lon="8.3838064"><ele>128.0</ele><time>2026-04-04T12:55:10.392Z</time></trkpt><trkpt lat="45.2249529" lon="8.3836775"><ele>128.0</ele><time>2026-04-04T12:55:12.399Z</time></trkpt><trkpt lat="45.2249694" lon="8.3835466"><ele>128.0</ele><time>2026-04-04T12:55:14.392Z</time></trkpt><trkpt lat="45.2249832" lon="8.3834132"><ele>128.0</ele><time>2026-04-04T12:55:16.405Z</time></trkpt><trkpt lat="45.2249971" lon="8.3832779"><ele>128.0</ele><time>2026-04-04T12:55:18.396Z</time></trkpt><trkpt lat="45.2250248" lon="8.3831455"><ele>128.0</ele><time>2026-04-04T12:55:20.394Z</time></trkpt><trkpt lat="45.2250842" lon="8.3830389"><ele>127.83333333333333</ele><time>2026-04-04T12:55:22.392Z</time></trkpt><trkpt lat="45.2251618" lon="8.3829517"><ele>127.66666666666666</ele><time>2026-04-04T12:55:24.396Z</time></trkpt><trkpt lat="45.2252454" lon="8.3828694"><ele>127.5</ele><time>2026-04-04T12:55:26.4Z</time></trkpt><trkpt lat="45.2253373" lon="8.3827794"><ele>127.33333333333334</ele><time>2026-04-04T12:55:28.4Z</time></trkpt><trkpt lat="45.2253888" lon="8.3827276"><ele>127.16666666666667</ele><time>2026-04-04T12:55:29.395Z</time></trkpt><trkpt lat="45.2254415" lon="8.3826734"><ele>127.0</ele><time>2026-04-04T12:55:30.393Z</time></trkpt><trkpt lat="45.2254959" lon="8.3826185"><ele>127.00000000000001</ele><time>2026-04-04T12:55:31.397Z</time></trkpt><trkpt lat="45.2255473" lon="8.3825636"><ele>127.0</ele><time>2026-04-04T12:55:32.386Z</time></trkpt><trkpt lat="45.2256019" lon="8.3825114"><ele>127.0</ele><time>2026-04-04T12:55:33.395Z</time></trkpt><trkpt lat="45.2256541" lon="8.3824557"><ele>127.0</ele><time>2026-04-04T12:55:34.403Z</time></trkpt><trkpt lat="45.2257071" lon="8.3824034"><ele>127.00000000000001</ele><time>2026-04-04T12:55:35.39Z</time></trkpt><trkpt lat="45.225802" lon="8.3822954"><ele>127.0</ele><time>2026-04-04T12:55:37.4Z</time></trkpt><trkpt lat="45.2258992" lon="8.3821884"><ele>126.75</ele><time>2026-04-04T12:55:39.394Z</time></trkpt><trkpt lat="45.226004" lon="8.3820965"><ele>126.5</ele><time>2026-04-04T12:55:41.396Z</time></trkpt><trkpt lat="45.2261087" lon="8.3820043"><ele>126.25</ele><time>2026-04-04T12:55:43.393Z</time></trkpt><trkpt lat="45.2262127" lon="8.3819146"><ele>126.0</ele><time>2026-04-04T12:55:45.397Z</time></trkpt><trkpt lat="45.2263166" lon="8.3818266"><ele>126.0</ele><time>2026-04-04T12:55:47.394Z</time></trkpt><trkpt lat="45.2264162" lon="8.3817495"><ele>126.0</ele><time>2026-04-04T12:55:49.391Z</time></trkpt><trkpt lat="45.2265085" lon="8.3816634"><ele>126.0</ele><time>2026-04-04T12:55:51.39Z</time></trkpt><trkpt lat="45.2266034" lon="8.3815922"><ele>126.0</ele><time>2026-04-04T12:55:53.394Z</time></trkpt><trkpt lat="45.2266933" lon="8.3815149"><ele>126.0</ele><time>2026-04-04T12:55:55.401Z</time></trkpt><trkpt lat="45.2267827" lon="8.3814307"><ele>126.19999999999999</ele><time>2026-04-04T12:55:57.392Z</time></trkpt><trkpt lat="45.2268723" lon="8.3813559"><ele>126.39999999999999</ele><time>2026-04-04T12:55:59.393Z</time></trkpt><trkpt lat="45.2269601" lon="8.3812805"><ele>126.6</ele><time>2026-04-04T12:56:01.404Z</time></trkpt><trkpt lat="45.2270398" lon="8.3812105"><ele>126.8</ele><time>2026-04-04T12:56:03.397Z</time></trkpt><trkpt lat="45.2271214" lon="8.3811429"><ele>127.0</ele><time>2026-04-04T12:56:05.399Z</time></trkpt><trkpt lat="45.2272003" lon="8.3810752"><ele>127.19999999999999</ele><time>2026-04-04T12:56:07.402Z</time></trkpt><trkpt lat="45.2272835" lon="8.3809968"><ele>127.39999999999999</ele><time>2026-04-04T12:56:09.395Z</time></trkpt><trkpt lat="45.2273686" lon="8.3809248"><ele>127.60000000000001</ele><time>2026-04-04T12:56:11.388Z</time></trkpt><trkpt lat="45.2274473" lon="8.3808514"><ele>127.80000000000001</ele><time>2026-04-04T12:56:13.397Z</time></trkpt><trkpt lat="45.2275022" lon="8.3807509"><ele>128.0</ele><time>2026-04-04T12:56:15.391Z</time></trkpt><trkpt lat="45.2274843" lon="8.3806435"><ele>127.99999999999999</ele><time>2026-04-04T12:56:17.389Z</time></trkpt><trkpt lat="45.227423" lon="8.3805677"><ele>128.0</ele><time>2026-04-04T12:56:19.391Z</time></trkpt><trkpt lat="45.2273557" lon="8.3805112"><ele>128.0</ele><time>2026-04-04T12:56:21.392Z</time></trkpt><trkpt lat="45.2272796" lon="8.380449"><ele>128.0</ele><time>2026-04-04T12:56:23.392Z</time></trkpt><trkpt lat="45.2272006" lon="8.3803894"><ele>127.99999999999999</ele><time>2026-04-04T12:56:25.395Z</time></trkpt><trkpt lat="45.2271213" lon="8.380328"><ele>128.0</ele><time>2026-04-04T12:56:27.401Z</time></trkpt><trkpt lat="45.2270437" lon="8.3802641"><ele>127.99999999999999</ele><time>2026-04-04T12:56:29.402Z</time></trkpt><trkpt lat="45.2269676" lon="8.3801972"><ele>128.0</ele><time>2026-04-04T12:56:31.39Z</time></trkpt><trkpt lat="45.2269004" lon="8.3801103"><ele>128.0</ele><time>2026-04-04T12:56:33.391Z</time></trkpt><trkpt lat="45.2268607" lon="8.3799985"><ele>128.0</ele><time>2026-04-04T12:56:35.388Z</time></trkpt><trkpt lat="45.226849" lon="8.3798715"><ele>127.99999999999999</ele><time>2026-04-04T12:56:37.389Z</time></trkpt><trkpt lat="45.2268626" lon="8.3797442"><ele>128.0</ele><time>2026-04-04T12:56:39.398Z</time></trkpt><trkpt lat="45.2268831" lon="8.3796185"><ele>128.0</ele><time>2026-04-04T12:56:41.397Z</time></trkpt><trkpt lat="45.2268993" lon="8.3794867"><ele>128.0</ele><time>2026-04-04T12:56:43.412Z</time></trkpt><trkpt lat="45.2269229" lon="8.3793596"><ele>128.0</ele><time>2026-04-04T12:56:45.396Z</time></trkpt><trkpt lat="45.2269508" lon="8.3792375"><ele>128.0</ele><time>2026-04-04T12:56:47.398Z</time></trkpt><trkpt lat="45.2269778" lon="8.3791149"><ele>128.0</ele><time>2026-04-04T12:56:49.391Z</time></trkpt><trkpt lat="45.2270028" lon="8.3789918"><ele>128.0</ele><time>2026-04-04T12:56:51.391Z</time></trkpt><trkpt lat="45.227031" lon="8.3788637"><ele>128.0</ele><time>2026-04-04T12:56:53.387Z</time></trkpt><trkpt lat="45.2270546" lon="8.3787359"><ele>128.0</ele><time>2026-04-04T12:56:55.39Z</time></trkpt><trkpt lat="45.2270786" lon="8.3786076"><ele>128.0</ele><time>2026-04-04T12:56:57.396Z</time></trkpt><trkpt lat="45.2271051" lon="8.378483"><ele>128.0</ele><time>2026-04-04T12:56:59.404Z</time></trkpt><trkpt lat="45.2271315" lon="8.3783524"><ele>127.80000000000001</ele><time>2026-04-04T12:57:01.4Z</time></trkpt><trkpt lat="45.2271567" lon="8.3782108"><ele>127.60000000000001</ele><time>2026-04-04T12:57:03.392Z</time></trkpt><trkpt lat="45.2271818" lon="8.3780627"><ele>127.39999999999999</ele><time>2026-04-04T12:57:05.391Z</time></trkpt><trkpt lat="45.2272125" lon="8.3779136"><ele>127.19999999999999</ele><time>2026-04-04T12:57:07.395Z</time></trkpt><trkpt lat="45.2272419" lon="8.3777715"><ele>127.0</ele><time>2026-04-04T12:57:09.397Z</time></trkpt><trkpt lat="45.2272674" lon="8.3776367"><ele>127.0</ele><time>2026-04-04T12:57:11.391Z</time></trkpt><trkpt lat="45.2272922" lon="8.3775004"><ele>126.99999999999999</ele><time>2026-04-04T12:57:13.401Z</time></trkpt><trkpt lat="45.2273181" lon="8.3773609"><ele>126.99999999999999</ele><time>2026-04-04T12:57:15.391Z</time></trkpt><trkpt lat="45.2273457" lon="8.3772125"><ele>127.0</ele><time>2026-04-04T12:57:17.398Z</time></trkpt><trkpt lat="45.2273669" lon="8.3770541"><ele>127.0</ele><time>2026-04-04T12:57:19.396Z</time></trkpt><trkpt lat="45.2273948" lon="8.3769071"><ele>126.6</ele><time>2026-04-04T12:57:21.398Z</time></trkpt><trkpt lat="45.227426" lon="8.3767624"><ele>126.19999999999999</ele><time>2026-04-04T12:57:23.4Z</time></trkpt><trkpt lat="45.2274492" lon="8.3766272"><ele>125.8</ele><time>2026-04-04T12:57:25.396Z</time></trkpt><trkpt lat="45.227477" lon="8.3764952"><ele>125.4</ele><time>2026-04-04T12:57:27.397Z</time></trkpt><trkpt lat="45.2275023" lon="8.3763588"><ele>125.0</ele><time>2026-04-04T12:57:29.391Z</time></trkpt><trkpt lat="45.2275284" lon="8.3762216"><ele>125.0</ele><time>2026-04-04T12:57:31.391Z</time></trkpt><trkpt lat="45.2275549" lon="8.3760879"><ele>125.0</ele><time>2026-04-04T12:57:33.393Z</time></trkpt><trkpt lat="45.2275829" lon="8.3759517"><ele>125.0</ele><time>2026-04-04T12:57:35.393Z</time></trkpt><trkpt lat="45.2276046" lon="8.3758141"><ele>125.0</ele><time>2026-04-04T12:57:37.388Z</time></trkpt><trkpt lat="45.227633" lon="8.3756818"><ele>125.0</ele><time>2026-04-04T12:57:39.397Z</time></trkpt><trkpt lat="45.2276659" lon="8.3755488"><ele>125.16666666666666</ele><time>2026-04-04T12:57:41.39Z</time></trkpt><trkpt lat="45.2276941" lon="8.3754194"><ele>125.33333333333333</ele><time>2026-04-04T12:57:43.397Z</time></trkpt><trkpt lat="45.2277211" lon="8.3752972"><ele>125.5</ele><time>2026-04-04T12:57:45.39Z</time></trkpt><trkpt lat="45.2277445" lon="8.3751777"><ele>125.66666666666666</ele><time>2026-04-04T12:57:47.403Z</time></trkpt><trkpt lat="45.2277638" lon="8.3750644"><ele>125.83333333333333</ele><time>2026-04-04T12:57:49.389Z</time></trkpt><trkpt lat="45.2277854" lon="8.3749364"><ele>126.0</ele><time>2026-04-04T12:57:51.394Z</time></trkpt><trkpt lat="45.2278117" lon="8.3748086"><ele>126.0</ele><time>2026-04-04T12:57:53.401Z</time></trkpt><trkpt lat="45.2278361" lon="8.37469"><ele>126.0</ele><time>2026-04-04T12:57:55.396Z</time></trkpt><trkpt lat="45.2278602" lon="8.3745703"><ele>126.0</ele><time>2026-04-04T12:57:57.396Z</time></trkpt><trkpt lat="45.2278845" lon="8.3744499"><ele>126.0</ele><time>2026-04-04T12:57:59.392Z</time></trkpt><trkpt lat="45.2279061" lon="8.3743329"><ele>126.0</ele><time>2026-04-04T12:58:01.408Z</time></trkpt><trkpt lat="45.2279274" lon="8.3742153"><ele>126.0</ele><time>2026-04-04T12:58:03.396Z</time></trkpt><trkpt lat="45.2279495" lon="8.3741004"><ele>126.0</ele><time>2026-04-04T12:58:05.396Z</time></trkpt><trkpt lat="45.227971" lon="8.3739857"><ele>126.0</ele><time>2026-04-04T12:58:07.397Z</time></trkpt><trkpt lat="45.2279898" lon="8.373872"><ele>126.0</ele><time>2026-04-04T12:58:09.394Z</time></trkpt><trkpt lat="45.228009" lon="8.3737603"><ele>126.0</ele><time>2026-04-04T12:58:11.392Z</time></trkpt><trkpt lat="45.2280279" lon="8.3736533"><ele>126.0</ele><time>2026-04-04T12:58:13.397Z</time></trkpt><trkpt lat="45.2280488" lon="8.3735471"><ele>126.0</ele><time>2026-04-04T12:58:15.394Z</time></trkpt><trkpt lat="45.2280642" lon="8.3734369"><ele>126.33333333333333</ele><time>2026-04-04T12:58:17.39Z</time></trkpt><trkpt lat="45.228082" lon="8.3733343"><ele>126.66666666666666</ele><time>2026-04-04T12:58:19.391Z</time></trkpt><trkpt lat="45.2280984" lon="8.3732306"><ele>127.0</ele><time>2026-04-04T12:58:21.387Z</time></trkpt><trkpt lat="45.2281147" lon="8.3731224"><ele>127.33333333333333</ele><time>2026-04-04T12:58:23.388Z</time></trkpt><trkpt lat="45.2281364" lon="8.3730108"><ele>127.66666666666666</ele><time>2026-04-04T12:58:25.393Z</time></trkpt><trkpt lat="45.2281601" lon="8.3728989"><ele>128.0</ele><time>2026-04-04T12:58:27.399Z</time></trkpt><trkpt lat="45.2281805" lon="8.3727822"><ele>127.99999999999999</ele><time>2026-04-04T12:58:29.392Z</time></trkpt><trkpt lat="45.2282047" lon="8.3726648"><ele>128.0</ele><time>2026-04-04T12:58:31.387Z</time></trkpt><trkpt lat="45.2282308" lon="8.3725457"><ele>128.0</ele><time>2026-04-04T12:58:33.402Z</time></trkpt><trkpt lat="45.228254" lon="8.3724243"><ele>128.0</ele><time>2026-04-04T12:58:35.391Z</time></trkpt><trkpt lat="45.2282768" lon="8.3723052"><ele>127.99999999999999</ele><time>2026-04-04T12:58:37.39Z</time></trkpt><trkpt lat="45.2283025" lon="8.3721864"><ele>128.0</ele><time>2026-04-04T12:58:39.389Z</time></trkpt><trkpt lat="45.2283269" lon="8.3720641"><ele>127.99999999999999</ele><time>2026-04-04T12:58:41.398Z</time></trkpt><trkpt lat="45.22835" lon="8.3719417"><ele>128.0</ele><time>2026-04-04T12:58:43.39Z</time></trkpt><trkpt lat="45.2283731" lon="8.3718207"><ele>128.0</ele><time>2026-04-04T12:58:45.388Z</time></trkpt><trkpt lat="45.2283931" lon="8.371706"><ele>128.0</ele><time>2026-04-04T12:58:47.395Z</time></trkpt><trkpt lat="45.2284175" lon="8.3715939"><ele>127.99999999999999</ele><time>2026-04-04T12:58:49.398Z</time></trkpt><trkpt lat="45.2284384" lon="8.3714737"><ele>128.0</ele><time>2026-04-04T12:58:51.391Z</time></trkpt><trkpt lat="45.2284615" lon="8.3713544"><ele>128.33333333333331</ele><time>2026-04-04T12:58:53.396Z</time></trkpt><trkpt lat="45.2284839" lon="8.3712363"><ele>128.66666666666666</ele><time>2026-04-04T12:58:55.397Z</time></trkpt><trkpt lat="45.2285054" lon="8.3711131"><ele>129.0</ele><time>2026-04-04T12:58:57.397Z</time></trkpt><trkpt lat="45.2285294" lon="8.3709906"><ele>129.33333333333334</ele><time>2026-04-04T12:58:59.395Z</time></trkpt><trkpt lat="45.2285513" lon="8.3708709"><ele>129.66666666666669</ele><time>2026-04-04T12:59:01.391Z</time></trkpt><trkpt lat="45.2285748" lon="8.370749"><ele>130.0</ele><time>2026-04-04T12:59:03.392Z</time></trkpt><trkpt lat="45.2285986" lon="8.3706293"><ele>129.83333333333334</ele><time>2026-04-04T12:59:05.388Z</time></trkpt><trkpt lat="45.228623" lon="8.3705107"><ele>129.66666666666669</ele><time>2026-04-04T12:59:07.389Z</time></trkpt><trkpt lat="45.228647" lon="8.3703928"><ele>129.5</ele><time>2026-04-04T12:59:09.39Z</time></trkpt><trkpt lat="45.2286679" lon="8.3702776"><ele>129.33333333333334</ele><time>2026-04-04T12:59:11.39Z</time></trkpt><trkpt lat="45.2286922" lon="8.3701615"><ele>129.16666666666666</ele><time>2026-04-04T12:59:13.39Z</time></trkpt><trkpt lat="45.2287108" lon="8.3700429"><ele>129.0</ele><time>2026-04-04T12:59:15.39Z</time></trkpt><trkpt lat="45.2287317" lon="8.3699246"><ele>129.0</ele><time>2026-04-04T12:59:17.397Z</time></trkpt><trkpt lat="45.2287488" lon="8.3698012"><ele>129.0</ele><time>2026-04-04T12:59:19.398Z</time></trkpt><trkpt lat="45.2287696" lon="8.3696767"><ele>129.0</ele><time>2026-04-04T12:59:21.399Z</time></trkpt><trkpt lat="45.2287893" lon="8.3695536"><ele>129.0</ele><time>2026-04-04T12:59:23.405Z</time></trkpt><trkpt lat="45.2288082" lon="8.3694314"><ele>129.0</ele><time>2026-04-04T12:59:25.391Z</time></trkpt><trkpt lat="45.2288324" lon="8.369311"><ele>129.0</ele><time>2026-04-04T12:59:27.389Z</time></trkpt><trkpt lat="45.2288714" lon="8.3692063"><ele>128.83333333333334</ele><time>2026-04-04T12:59:29.391Z</time></trkpt><trkpt lat="45.2289367" lon="8.3691369"><ele>128.66666666666666</ele><time>2026-04-04T12:59:31.392Z</time></trkpt><trkpt lat="45.2290224" lon="8.3691255"><ele>128.5</ele><time>2026-04-04T12:59:33.394Z</time></trkpt><trkpt lat="45.229104" lon="8.3691308"><ele>128.33333333333331</ele><time>2026-04-04T12:59:35.391Z</time></trkpt><trkpt lat="45.2291954" lon="8.3691507"><ele>128.16666666666666</ele><time>2026-04-04T12:59:37.39Z</time></trkpt><trkpt lat="45.2292889" lon="8.3691636"><ele>128.0</ele><time>2026-04-04T12:59:39.412Z</time></trkpt><trkpt lat="45.2293811" lon="8.3691755"><ele>128.0</ele><time>2026-04-04T12:59:41.392Z</time></trkpt><trkpt lat="45.2294733" lon="8.369185"><ele>128.0</ele><time>2026-04-04T12:59:43.392Z</time></trkpt><trkpt lat="45.2295672" lon="8.3691925"><ele>128.0</ele><time>2026-04-04T12:59:45.393Z</time></trkpt><trkpt lat="45.2296583" lon="8.3692133"><ele>128.0</ele><time>2026-04-04T12:59:47.398Z</time></trkpt><trkpt lat="45.2297542" lon="8.3692212"><ele>128.0</ele><time>2026-04-04T12:59:49.389Z</time></trkpt><trkpt lat="45.2298501" lon="8.3692381"><ele>128.0</ele><time>2026-04-04T12:59:51.396Z</time></trkpt><trkpt lat="45.22995" lon="8.3692499"><ele>128.0</ele><time>2026-04-04T12:59:53.399Z</time></trkpt><trkpt lat="45.230048" lon="8.3692476"><ele>128.0</ele><time>2026-04-04T12:59:55.39Z</time></trkpt><trkpt lat="45.230145" lon="8.3692186"><ele>128.0</ele><time>2026-04-04T12:59:57.396Z</time></trkpt><trkpt lat="45.2302137" lon="8.3691403"><ele>128.0</ele><time>2026-04-04T12:59:59.408Z</time></trkpt><trkpt lat="45.2302755" lon="8.3690581"><ele>128.0</ele><time>2026-04-04T13:00:01.393Z</time></trkpt><trkpt lat="45.2303411" lon="8.3690221"><ele>127.99999999999999</ele><time>2026-04-04T13:00:03.389Z</time></trkpt><trkpt lat="45.230407" lon="8.3690357"><ele>128.0</ele><time>2026-04-04T13:00:05.397Z</time></trkpt><trkpt lat="45.2304647" lon="8.3690779"><ele>128.0</ele><time>2026-04-04T13:00:07.399Z</time></trkpt><trkpt lat="45.2305158" lon="8.3691383"><ele>127.99999999999999</ele><time>2026-04-04T13:00:09.391Z</time></trkpt><trkpt lat="45.2305734" lon="8.3692062"><ele>128.0</ele><time>2026-04-04T13:00:11.408Z</time></trkpt><trkpt lat="45.230642" lon="8.3692783"><ele>128.0</ele><time>2026-04-04T13:00:13.389Z</time></trkpt><trkpt lat="45.2307179" lon="8.3693618"><ele>127.60000000000001</ele><time>2026-04-04T13:00:15.393Z</time></trkpt><trkpt lat="45.2308056" lon="8.3694461"><ele>127.20000000000002</ele><time>2026-04-04T13:00:17.394Z</time></trkpt><trkpt lat="45.2308925" lon="8.3695239"><ele>126.8</ele><time>2026-04-04T13:00:19.394Z</time></trkpt><trkpt lat="45.2309781" lon="8.3696"><ele>126.4</ele><time>2026-04-04T13:00:21.4Z</time></trkpt><trkpt lat="45.2310719" lon="8.3696636"><ele>126.0</ele><time>2026-04-04T13:00:23.396Z</time></trkpt><trkpt lat="45.2311684" lon="8.3697158"><ele>126.0</ele><time>2026-04-04T13:00:25.389Z</time></trkpt><trkpt lat="45.2312735" lon="8.3697647"><ele>126.0</ele><time>2026-04-04T13:00:27.389Z</time></trkpt><trkpt lat="45.2313811" lon="8.3698177"><ele>126.0</ele><time>2026-04-04T13:00:29.389Z</time></trkpt><trkpt lat="45.2314848" lon="8.3698695"><ele>126.0</ele><time>2026-04-04T13:00:31.393Z</time></trkpt><trkpt lat="45.2315893" lon="8.3699194"><ele>126.0</ele><time>2026-04-04T13:00:33.392Z</time></trkpt><trkpt lat="45.2316924" lon="8.3699699"><ele>125.75</ele><time>2026-04-04T13:00:35.388Z</time></trkpt><trkpt lat="45.2318012" lon="8.3700211"><ele>125.5</ele><time>2026-04-04T13:00:37.395Z</time></trkpt><trkpt lat="45.2319072" lon="8.3700692"><ele>125.25</ele><time>2026-04-04T13:00:39.39Z</time></trkpt><trkpt lat="45.2320142" lon="8.3701287"><ele>125.0</ele><time>2026-04-04T13:00:41.391Z</time></trkpt><trkpt lat="45.2321217" lon="8.3701801"><ele>125.0</ele><time>2026-04-04T13:00:43.396Z</time></trkpt><trkpt lat="45.2322243" lon="8.3702301"><ele>125.0</ele><time>2026-04-04T13:00:45.388Z</time></trkpt><trkpt lat="45.2323229" lon="8.3702822"><ele>125.0</ele><time>2026-04-04T13:00:47.387Z</time></trkpt><trkpt lat="45.2324269" lon="8.3703335"><ele>125.0</ele><time>2026-04-04T13:00:49.391Z</time></trkpt><trkpt lat="45.2325358" lon="8.3703834"><ele>125.0</ele><time>2026-04-04T13:00:51.39Z</time></trkpt><trkpt lat="45.2326408" lon="8.3704328"><ele>124.8</ele><time>2026-04-04T13:00:53.395Z</time></trkpt><trkpt lat="45.2327446" lon="8.3704832"><ele>124.6</ele><time>2026-04-04T13:00:55.402Z</time></trkpt><trkpt lat="45.2328482" lon="8.3705244"><ele>124.4</ele><time>2026-04-04T13:00:57.399Z</time></trkpt><trkpt lat="45.232953" lon="8.3705653"><ele>124.2</ele><time>2026-04-04T13:00:59.397Z</time></trkpt><trkpt lat="45.2330605" lon="8.3705855"><ele>124.0</ele><time>2026-04-04T13:01:01.397Z</time></trkpt><trkpt lat="45.2331668" lon="8.370601"><ele>124.4</ele><time>2026-04-04T13:01:03.398Z</time></trkpt><trkpt lat="45.2332747" lon="8.3706138"><ele>124.80000000000001</ele><time>2026-04-04T13:01:05.397Z</time></trkpt><trkpt lat="45.2333855" lon="8.3706265"><ele>125.19999999999999</ele><time>2026-04-04T13:01:07.392Z</time></trkpt><trkpt lat="45.2334992" lon="8.3706241"><ele>125.6</ele><time>2026-04-04T13:01:09.396Z</time></trkpt><trkpt lat="45.23361" lon="8.3706127"><ele>126.0</ele><time>2026-04-04T13:01:11.398Z</time></trkpt><trkpt lat="45.2337152" lon="8.3706028"><ele>126.0</ele><time>2026-04-04T13:01:13.389Z</time></trkpt><trkpt lat="45.2338233" lon="8.3705844"><ele>126.0</ele><time>2026-04-04T13:01:15.385Z</time></trkpt><trkpt lat="45.2339319" lon="8.3705563"><ele>126.0</ele><time>2026-04-04T13:01:17.389Z</time></trkpt><trkpt lat="45.234041" lon="8.3705217"><ele>126.0</ele><time>2026-04-04T13:01:19.389Z</time></trkpt><trkpt lat="45.2341519" lon="8.3704784"><ele>126.0</ele><time>2026-04-04T13:01:21.393Z</time></trkpt><trkpt lat="45.2342576" lon="8.3704405"><ele>126.0</ele><time>2026-04-04T13:01:23.398Z</time></trkpt><trkpt lat="45.2343619" lon="8.370408"><ele>126.0</ele><time>2026-04-04T13:01:25.398Z</time></trkpt><trkpt lat="45.2344643" lon="8.3703725"><ele>126.0</ele><time>2026-04-04T13:01:27.397Z</time></trkpt><trkpt lat="45.23457" lon="8.370332"><ele>126.0</ele><time>2026-04-04T13:01:29.4Z</time></trkpt><trkpt lat="45.2346792" lon="8.3702913"><ele>126.0</ele><time>2026-04-04T13:01:31.399Z</time></trkpt><trkpt lat="45.2347856" lon="8.3702486"><ele>126.4</ele><time>2026-04-04T13:01:33.394Z</time></trkpt><trkpt lat="45.2348848" lon="8.3702084"><ele>126.8</ele><time>2026-04-04T13:01:35.395Z</time></trkpt><trkpt lat="45.2349761" lon="8.3701545"><ele>127.20000000000002</ele><time>2026-04-04T13:01:37.394Z</time></trkpt><trkpt lat="45.2350726" lon="8.370119"><ele>127.60000000000001</ele><time>2026-04-04T13:01:39.394Z</time></trkpt><trkpt lat="45.2351726" lon="8.3701162"><ele>128.0</ele><time>2026-04-04T13:01:41.402Z</time></trkpt><trkpt lat="45.2352729" lon="8.3701159"><ele>128.0</ele><time>2026-04-04T13:01:43.4Z</time></trkpt><trkpt lat="45.2353758" lon="8.3701222"><ele>128.0</ele><time>2026-04-04T13:01:45.394Z</time></trkpt><trkpt lat="45.2354773" lon="8.3701356"><ele>128.0</ele><time>2026-04-04T13:01:47.396Z</time></trkpt><trkpt lat="45.2355711" lon="8.370172"><ele>128.0</ele><time>2026-04-04T13:01:49.389Z</time></trkpt><trkpt lat="45.2356652" lon="8.3701787"><ele>128.0</ele><time>2026-04-04T13:01:51.392Z</time></trkpt><trkpt lat="45.2357589" lon="8.3701306"><ele>128.6</ele><time>2026-04-04T13:01:53.398Z</time></trkpt><trkpt lat="45.2358577" lon="8.3701094"><ele>129.20000000000002</ele><time>2026-04-04T13:01:55.395Z</time></trkpt><trkpt lat="45.2359599" lon="8.3701412"><ele>129.8</ele><time>2026-04-04T13:01:57.403Z</time></trkpt><trkpt lat="45.2360484" lon="8.3701777"><ele>130.4</ele><time>2026-04-04T13:01:59.387Z</time></trkpt><trkpt lat="45.2361486" lon="8.3702205"><ele>131.0</ele><time>2026-04-04T13:02:01.393Z</time></trkpt><trkpt lat="45.2362474" lon="8.3702627"><ele>131.0</ele><time>2026-04-04T13:02:03.396Z</time></trkpt><trkpt lat="45.2363387" lon="8.3703148"><ele>131.0</ele><time>2026-04-04T13:02:05.394Z</time></trkpt><trkpt lat="45.2364302" lon="8.3703712"><ele>131.0</ele><time>2026-04-04T13:02:07.401Z</time></trkpt><trkpt lat="45.2365155" lon="8.3704215"><ele>131.0</ele><time>2026-04-04T13:02:09.402Z</time></trkpt><trkpt lat="45.2366135" lon="8.3704709"><ele>131.0</ele><time>2026-04-04T13:02:11.388Z</time></trkpt><trkpt lat="45.2367089" lon="8.3705244"><ele>130.8</ele><time>2026-04-04T13:02:13.394Z</time></trkpt><trkpt lat="45.2368028" lon="8.3705674"><ele>130.6</ele><time>2026-04-04T13:02:15.388Z</time></trkpt><trkpt lat="45.2368929" lon="8.3706203"><ele>130.4</ele><time>2026-04-04T13:02:17.405Z</time></trkpt><trkpt lat="45.236989" lon="8.370671"><ele>130.2</ele><time>2026-04-04T13:02:19.401Z</time></trkpt><trkpt lat="45.2370821" lon="8.3707334"><ele>130.0</ele><time>2026-04-04T13:02:21.389Z</time></trkpt><trkpt lat="45.2371773" lon="8.3707862"><ele>130.00000000000003</ele><time>2026-04-04T13:02:23.4Z</time></trkpt><trkpt lat="45.2372654" lon="8.370844"><ele>130.0</ele><time>2026-04-04T13:02:25.399Z</time></trkpt><trkpt lat="45.2373457" lon="8.3708908"><ele>130.0</ele><time>2026-04-04T13:02:27.398Z</time></trkpt><trkpt lat="45.2374043" lon="8.3709271"><ele>130.0</ele><time>2026-04-04T13:02:29.4Z</time></trkpt><trkpt lat="45.2374693" lon="8.3709297"><ele>130.0</ele><time>2026-04-04T13:02:33.399Z</time></trkpt><trkpt lat="45.2374989" lon="8.3708467"><ele>130.00000000000003</ele><time>2026-04-04T13:02:43.393Z</time></trkpt><trkpt lat="45.2375196" lon="8.3707582"><ele>130.0</ele><time>2026-04-04T13:02:48.399Z</time></trkpt><trkpt lat="45.2375009" lon="8.3708711"><ele>130.16666666666669</ele><time>2026-04-04T13:04:00.404Z</time></trkpt><trkpt lat="45.2374902" lon="8.3709689"><ele>130.33333333333334</ele><time>2026-04-04T13:04:03.396Z</time></trkpt><trkpt lat="45.2375009" lon="8.3710737"><ele>130.5</ele><time>2026-04-04T13:04:07.395Z</time></trkpt><trkpt lat="45.2374596" lon="8.371173"><ele>130.66666666666666</ele><time>2026-04-04T13:04:12.386Z</time></trkpt><trkpt lat="45.2374376" lon="8.3712646"><ele>130.83333333333331</ele><time>2026-04-04T13:04:16.4Z</time></trkpt><trkpt lat="45.2375131" lon="8.371204"><ele>131.0</ele><time>2026-04-04T13:04:20.397Z</time></trkpt><trkpt lat="45.2375623" lon="8.3711269"><ele>131.0</ele><time>2026-04-04T13:04:23.39Z</time></trkpt><trkpt lat="45.237621" lon="8.3710939"><ele>131.0</ele><time>2026-04-04T13:04:26.396Z</time></trkpt><trkpt lat="45.2376973" lon="8.3711204"><ele>131.0</ele><time>2026-04-04T13:04:30.392Z</time></trkpt><trkpt lat="45.2377676" lon="8.3711445"><ele>131.0</ele><time>2026-04-04T13:04:33.393Z</time></trkpt><trkpt lat="45.2378329" lon="8.3712048"><ele>131.0</ele><time>2026-04-04T13:04:36.387Z</time></trkpt><trkpt lat="45.2379129" lon="8.371243"><ele>131.0</ele><time>2026-04-04T13:04:39.407Z</time></trkpt><trkpt lat="45.2379925" lon="8.3712894"><ele>131.0</ele><time>2026-04-04T13:04:42.389Z</time></trkpt><trkpt lat="45.2380587" lon="8.3713283"><ele>131.0</ele><time>2026-04-04T13:04:44.409Z</time></trkpt><trkpt lat="45.2381398" lon="8.3713771"><ele>131.0</ele><time>2026-04-04T13:04:46.4Z</time></trkpt><trkpt lat="45.2382339" lon="8.3714084"><ele>131.0</ele><time>2026-04-04T13:04:48.396Z</time></trkpt><trkpt lat="45.2383215" lon="8.3714577"><ele>131.0</ele><time>2026-04-04T13:04:50.391Z</time></trkpt><trkpt lat="45.238405" lon="8.371511"><ele>131.0</ele><time>2026-04-04T13:04:52.39Z</time></trkpt><trkpt lat="45.2384788" lon="8.371577"><ele>131.0</ele><time>2026-04-04T13:04:54.392Z</time></trkpt><trkpt lat="45.2385209" lon="8.3716761"><ele>131.0</ele><time>2026-04-04T13:04:56.392Z</time></trkpt><trkpt lat="45.2385393" lon="8.3717906"><ele>131.0</ele><time>2026-04-04T13:04:58.39Z</time></trkpt><trkpt lat="45.238545" lon="8.3719269"><ele>131.0</ele><time>2026-04-04T13:05:00.388Z</time></trkpt><trkpt lat="45.2385587" lon="8.3720606"><ele>131.0</ele><time>2026-04-04T13:05:02.391Z</time></trkpt><trkpt lat="45.2385636" lon="8.3721876"><ele>131.0</ele><time>2026-04-04T13:05:04.397Z</time></trkpt><trkpt lat="45.2385747" lon="8.3723187"><ele>130.8</ele><time>2026-04-04T13:05:06.401Z</time></trkpt><trkpt lat="45.2385794" lon="8.3724555"><ele>130.6</ele><time>2026-04-04T13:05:08.397Z</time></trkpt><trkpt lat="45.2385807" lon="8.3725897"><ele>130.4</ele><time>2026-04-04T13:05:10.39Z</time></trkpt><trkpt lat="45.2385785" lon="8.3727231"><ele>130.2</ele><time>2026-04-04T13:05:12.393Z</time></trkpt><trkpt lat="45.2385821" lon="8.372869"><ele>130.0</ele><time>2026-04-04T13:05:14.399Z</time></trkpt><trkpt lat="45.2385842" lon="8.3730043"><ele>129.8</ele><time>2026-04-04T13:05:16.394Z</time></trkpt><trkpt lat="45.23858" lon="8.3731464"><ele>129.6</ele><time>2026-04-04T13:05:18.396Z</time></trkpt><trkpt lat="45.2385763" lon="8.3732801"><ele>129.4</ele><time>2026-04-04T13:05:20.392Z</time></trkpt><trkpt lat="45.2385797" lon="8.37342"><ele>129.2</ele><time>2026-04-04T13:05:22.388Z</time></trkpt><trkpt lat="45.2385774" lon="8.3735616"><ele>129.0</ele><time>2026-04-04T13:05:24.392Z</time></trkpt><trkpt lat="45.238569" lon="8.3737054"><ele>129.0</ele><time>2026-04-04T13:05:26.389Z</time></trkpt><trkpt lat="45.2385768" lon="8.3738539"><ele>129.0</ele><time>2026-04-04T13:05:28.393Z</time></trkpt><trkpt lat="45.2385899" lon="8.3740013"><ele>129.0</ele><time>2026-04-04T13:05:30.387Z</time></trkpt><trkpt lat="45.2385931" lon="8.3741391"><ele>129.0</ele><time>2026-04-04T13:05:32.387Z</time></trkpt><trkpt lat="45.2386222" lon="8.3742742"><ele>129.0</ele><time>2026-04-04T13:05:34.391Z</time></trkpt><trkpt lat="45.2386823" lon="8.3743934"><ele>129.2</ele><time>2026-04-04T13:05:36.394Z</time></trkpt><trkpt lat="45.2387417" lon="8.374505"><ele>129.4</ele><time>2026-04-04T13:05:38.393Z</time></trkpt><trkpt lat="45.2387741" lon="8.3746368"><ele>129.6</ele><time>2026-04-04T13:05:40.391Z</time></trkpt><trkpt lat="45.2387874" lon="8.3747779"><ele>129.8</ele><time>2026-04-04T13:05:42.392Z</time></trkpt><trkpt lat="45.2387851" lon="8.3749227"><ele>130.0</ele><time>2026-04-04T13:05:44.393Z</time></trkpt><trkpt lat="45.2387851" lon="8.3750658"><ele>130.0</ele><time>2026-04-04T13:05:46.398Z</time></trkpt><trkpt lat="45.2387795" lon="8.3752149"><ele>130.0</ele><time>2026-04-04T13:05:48.395Z</time></trkpt><trkpt lat="45.2387833" lon="8.375367"><ele>130.0</ele><time>2026-04-04T13:05:50.395Z</time></trkpt><trkpt lat="45.2387849" lon="8.3755205"><ele>130.0</ele><time>2026-04-04T13:05:52.392Z</time></trkpt><trkpt lat="45.2387864" lon="8.3756715"><ele>130.0</ele><time>2026-04-04T13:05:54.399Z</time></trkpt><trkpt lat="45.23879" lon="8.3758271"><ele>129.6</ele><time>2026-04-04T13:05:56.39Z</time></trkpt><trkpt lat="45.2387813" lon="8.3759768"><ele>129.2</ele><time>2026-04-04T13:05:58.388Z</time></trkpt><trkpt lat="45.2387813" lon="8.3761274"><ele>128.8</ele><time>2026-04-04T13:06:00.39Z</time></trkpt><trkpt lat="45.2387833" lon="8.3762743"><ele>128.4</ele><time>2026-04-04T13:06:02.389Z</time></trkpt><trkpt lat="45.2387878" lon="8.3764273"><ele>128.0</ele><time>2026-04-04T13:06:04.388Z</time></trkpt><trkpt lat="45.2388018" lon="8.3765792"><ele>128.0</ele><time>2026-04-04T13:06:06.391Z</time></trkpt><trkpt lat="45.2388397" lon="8.3767228"><ele>128.0</ele><time>2026-04-04T13:06:08.398Z</time></trkpt><trkpt lat="45.2389006" lon="8.3768556"><ele>128.0</ele><time>2026-04-04T13:06:10.396Z</time></trkpt><trkpt lat="45.2389707" lon="8.3769698"><ele>128.0</ele><time>2026-04-04T13:06:12.393Z</time></trkpt><trkpt lat="45.2390434" lon="8.3770821"><ele>128.0</ele><time>2026-04-04T13:06:14.399Z</time></trkpt><trkpt lat="45.2391166" lon="8.3771906"><ele>127.60000000000001</ele><time>2026-04-04T13:06:16.402Z</time></trkpt><trkpt lat="45.2391927" lon="8.3773063"><ele>127.20000000000002</ele><time>2026-04-04T13:06:18.392Z</time></trkpt><trkpt lat="45.2392635" lon="8.3774192"><ele>126.8</ele><time>2026-04-04T13:06:20.396Z</time></trkpt><trkpt lat="45.2393415" lon="8.3775263"><ele>126.4</ele><time>2026-04-04T13:06:22.4Z</time></trkpt><trkpt lat="45.239414" lon="8.3776366"><ele>126.0</ele><time>2026-04-04T13:06:24.395Z</time></trkpt><trkpt lat="45.2394851" lon="8.377754"><ele>126.0</ele><time>2026-04-04T13:06:26.39Z</time></trkpt><trkpt lat="45.2395534" lon="8.3778808"><ele>126.0</ele><time>2026-04-04T13:06:28.389Z</time></trkpt><trkpt lat="45.2396164" lon="8.3780077"><ele>126.0</ele><time>2026-04-04T13:06:30.391Z</time></trkpt><trkpt lat="45.2396716" lon="8.3781411"><ele>126.0</ele><time>2026-04-04T13:06:32.399Z</time></trkpt><trkpt lat="45.2397269" lon="8.3782722"><ele>126.0</ele><time>2026-04-04T13:06:34.395Z</time></trkpt><trkpt lat="45.2397813" lon="8.3784081"><ele>126.0</ele><time>2026-04-04T13:06:36.392Z</time></trkpt><trkpt lat="45.2398423" lon="8.3785461"><ele>126.0</ele><time>2026-04-04T13:06:38.398Z</time></trkpt><trkpt lat="45.2399037" lon="8.3786685"><ele>126.0</ele><time>2026-04-04T13:06:40.395Z</time></trkpt><trkpt lat="45.2399696" lon="8.3787839"><ele>126.0</ele><time>2026-04-04T13:06:42.4Z</time></trkpt><trkpt lat="45.2400389" lon="8.3788934"><ele>126.0</ele><time>2026-04-04T13:06:44.397Z</time></trkpt><trkpt lat="45.240101" lon="8.3790039"><ele>126.0</ele><time>2026-04-04T13:06:46.398Z</time></trkpt><trkpt lat="45.2401566" lon="8.3791041"><ele>126.0</ele><time>2026-04-04T13:06:48.389Z</time></trkpt><trkpt lat="45.2401923" lon="8.3792055"><ele>126.0</ele><time>2026-04-04T13:06:50.398Z</time></trkpt><trkpt lat="45.2402418" lon="8.3793002"><ele>126.0</ele><time>2026-04-04T13:06:52.397Z</time></trkpt><trkpt lat="45.2403198" lon="8.3793854"><ele>126.0</ele><time>2026-04-04T13:06:54.396Z</time></trkpt><trkpt lat="45.2404017" lon="8.3794766"><ele>126.0</ele><time>2026-04-04T13:06:56.395Z</time></trkpt><trkpt lat="45.2404856" lon="8.3795677"><ele>126.0</ele><time>2026-04-04T13:06:58.404Z</time></trkpt><trkpt lat="45.2405736" lon="8.379658"><ele>126.0</ele><time>2026-04-04T13:07:00.399Z</time></trkpt><trkpt lat="45.2406603" lon="8.3797384"><ele>126.0</ele><time>2026-04-04T13:07:02.398Z</time></trkpt><trkpt lat="45.2407427" lon="8.3798271"><ele>126.0</ele><time>2026-04-04T13:07:04.391Z</time></trkpt><trkpt lat="45.2408245" lon="8.3799093"><ele>126.19999999999999</ele><time>2026-04-04T13:07:06.401Z</time></trkpt><trkpt lat="45.2409116" lon="8.3799913"><ele>126.39999999999999</ele><time>2026-04-04T13:07:08.396Z</time></trkpt><trkpt lat="45.2409995" lon="8.380071"><ele>126.6</ele><time>2026-04-04T13:07:10.402Z</time></trkpt><trkpt lat="45.2410879" lon="8.380155"><ele>126.8</ele><time>2026-04-04T13:07:12.398Z</time></trkpt><trkpt lat="45.2411725" lon="8.3802351"><ele>127.0</ele><time>2026-04-04T13:07:14.396Z</time></trkpt><trkpt lat="45.2412662" lon="8.3803155"><ele>127.0</ele><time>2026-04-04T13:07:16.396Z</time></trkpt><trkpt lat="45.241354" lon="8.3803934"><ele>126.99999999999999</ele><time>2026-04-04T13:07:18.391Z</time></trkpt><trkpt lat="45.2414438" lon="8.3804637"><ele>126.99999999999999</ele><time>2026-04-04T13:07:20.391Z</time></trkpt><trkpt lat="45.2415407" lon="8.3805338"><ele>127.0</ele><time>2026-04-04T13:07:22.392Z</time></trkpt><trkpt lat="45.2416389" lon="8.3806046"><ele>127.0</ele><time>2026-04-04T13:07:24.397Z</time></trkpt><trkpt lat="45.2417366" lon="8.3806706"><ele>126.6</ele><time>2026-04-04T13:07:26.398Z</time></trkpt><trkpt lat="45.2418262" lon="8.3807294"><ele>126.19999999999999</ele><time>2026-04-04T13:07:28.396Z</time></trkpt><trkpt lat="45.2419256" lon="8.3807999"><ele>125.8</ele><time>2026-04-04T13:07:30.392Z</time></trkpt><trkpt lat="45.2420274" lon="8.3808668"><ele>125.4</ele><time>2026-04-04T13:07:32.394Z</time></trkpt><trkpt lat="45.2421277" lon="8.380935"><ele>125.0</ele><time>2026-04-04T13:07:34.402Z</time></trkpt><trkpt lat="45.2422315" lon="8.3810018"><ele>125.25</ele><time>2026-04-04T13:07:36.396Z</time></trkpt><trkpt lat="45.2423355" lon="8.3810749"><ele>125.5</ele><time>2026-04-04T13:07:38.395Z</time></trkpt><trkpt lat="45.2424415" lon="8.381147"><ele>125.75</ele><time>2026-04-04T13:07:40.394Z</time></trkpt><trkpt lat="45.2425474" lon="8.3812267"><ele>126.0</ele><time>2026-04-04T13:07:42.392Z</time></trkpt><trkpt lat="45.2426482" lon="8.3813097"><ele>125.75</ele><time>2026-04-04T13:07:44.398Z</time></trkpt><trkpt lat="45.2427447" lon="8.3813976"><ele>125.5</ele><time>2026-04-04T13:07:46.402Z</time></trkpt><trkpt lat="45.2428454" lon="8.3814832"><ele>125.25</ele><time>2026-04-04T13:07:48.392Z</time></trkpt><trkpt lat="45.2429386" lon="8.381586"><ele>125.0</ele><time>2026-04-04T13:07:50.394Z</time></trkpt><trkpt lat="45.2430222" lon="8.3816944"><ele>125.0</ele><time>2026-04-04T13:07:52.399Z</time></trkpt><trkpt lat="45.2431065" lon="8.3818017"><ele>125.0</ele><time>2026-04-04T13:07:54.392Z</time></trkpt><trkpt lat="45.2431917" lon="8.3819126"><ele>125.0</ele><time>2026-04-04T13:07:56.405Z</time></trkpt><trkpt lat="45.2432699" lon="8.382025"><ele>125.0</ele><time>2026-04-04T13:07:58.401Z</time></trkpt><trkpt lat="45.2433523" lon="8.3821399"><ele>125.25</ele><time>2026-04-04T13:08:00.392Z</time></trkpt><trkpt lat="45.2434281" lon="8.3822589"><ele>125.5</ele><time>2026-04-04T13:08:02.394Z</time></trkpt><trkpt lat="45.2434983" lon="8.3823858"><ele>125.75</ele><time>2026-04-04T13:08:04.391Z</time></trkpt><trkpt lat="45.2435619" lon="8.3825156"><ele>126.0</ele><time>2026-04-04T13:08:06.391Z</time></trkpt><trkpt lat="45.2436274" lon="8.3826472"><ele>126.0</ele><time>2026-04-04T13:08:08.398Z</time></trkpt><trkpt lat="45.2436886" lon="8.3827809"><ele>126.0</ele><time>2026-04-04T13:08:10.387Z</time></trkpt><trkpt lat="45.2437499" lon="8.3829097"><ele>126.0</ele><time>2026-04-04T13:08:12.399Z</time></trkpt><trkpt lat="45.2438064" lon="8.3830457"><ele>126.0</ele><time>2026-04-04T13:08:14.398Z</time></trkpt><trkpt lat="45.2438704" lon="8.3831742"><ele>126.0</ele><time>2026-04-04T13:08:16.394Z</time></trkpt><trkpt lat="45.2439396" lon="8.3833127"><ele>126.25</ele><time>2026-04-04T13:08:18.397Z</time></trkpt><trkpt lat="45.2440047" lon="8.3834503"><ele>126.5</ele><time>2026-04-04T13:08:20.396Z</time></trkpt><trkpt lat="45.2440701" lon="8.3835806"><ele>126.75</ele><time>2026-04-04T13:08:22.391Z</time></trkpt><trkpt lat="45.2441395" lon="8.3837049"><ele>127.0</ele><time>2026-04-04T13:08:24.398Z</time></trkpt><trkpt lat="45.2442056" lon="8.3838374"><ele>126.5</ele><time>2026-04-04T13:08:26.395Z</time></trkpt><trkpt lat="45.2442731" lon="8.383966"><ele>126.0</ele><time>2026-04-04T13:08:28.397Z</time></trkpt><trkpt lat="45.2443378" lon="8.3841029"><ele>125.5</ele><time>2026-04-04T13:08:30.39Z</time></trkpt><trkpt lat="45.2443981" lon="8.3842327"><ele>125.0</ele><time>2026-04-04T13:08:32.391Z</time></trkpt><trkpt lat="45.2444557" lon="8.3843687"><ele>125.0</ele><time>2026-04-04T13:08:34.396Z</time></trkpt><trkpt lat="45.2445187" lon="8.3845032"><ele>125.0</ele><time>2026-04-04T13:08:36.396Z</time></trkpt><trkpt lat="45.2445826" lon="8.3846368"><ele>125.0</ele><time>2026-04-04T13:08:38.392Z</time></trkpt><trkpt lat="45.2446482" lon="8.3847662"><ele>125.0</ele><time>2026-04-04T13:08:40.397Z</time></trkpt><trkpt lat="45.2447098" lon="8.3848988"><ele>125.0</ele><time>2026-04-04T13:08:42.395Z</time></trkpt><trkpt lat="45.244772" lon="8.3850319"><ele>125.0</ele><time>2026-04-04T13:08:44.398Z</time></trkpt><trkpt lat="45.244834" lon="8.3851666"><ele>125.0</ele><time>2026-04-04T13:08:46.392Z</time></trkpt><trkpt lat="45.2448962" lon="8.3852996"><ele>125.0</ele><time>2026-04-04T13:08:48.396Z</time></trkpt><trkpt lat="45.2449616" lon="8.3854313"><ele>125.0</ele><time>2026-04-04T13:08:50.393Z</time></trkpt><trkpt lat="45.2450235" lon="8.3855586"><ele>125.0</ele><time>2026-04-04T13:08:52.399Z</time></trkpt><trkpt lat="45.2450871" lon="8.3856919"><ele>125.0</ele><time>2026-04-04T13:08:54.395Z</time></trkpt><trkpt lat="45.2451496" lon="8.3858186"><ele>125.0</ele><time>2026-04-04T13:08:56.406Z</time></trkpt><trkpt lat="45.2452091" lon="8.3859469"><ele>125.0</ele><time>2026-04-04T13:08:58.401Z</time></trkpt><trkpt lat="45.2452691" lon="8.3860759"><ele>125.0</ele><time>2026-04-04T13:09:00.391Z</time></trkpt><trkpt lat="45.245333" lon="8.3862026"><ele>125.0</ele><time>2026-04-04T13:09:02.394Z</time></trkpt><trkpt lat="45.245393" lon="8.3863312"><ele>125.0</ele><time>2026-04-04T13:09:04.393Z</time></trkpt><trkpt lat="45.2454514" lon="8.3864541"><ele>125.0</ele><time>2026-04-04T13:09:06.4Z</time></trkpt><trkpt lat="45.2455127" lon="8.3865825"><ele>125.0</ele><time>2026-04-04T13:09:08.41Z</time></trkpt><trkpt lat="45.2455716" lon="8.386706"><ele>125.0</ele><time>2026-04-04T13:09:10.402Z</time></trkpt><trkpt lat="45.2456273" lon="8.3868321"><ele>125.0</ele><time>2026-04-04T13:09:12.391Z</time></trkpt><trkpt lat="45.2456895" lon="8.3869593"><ele>125.0</ele><time>2026-04-04T13:09:14.397Z</time></trkpt><trkpt lat="45.2457504" lon="8.3870835"><ele>125.0</ele><time>2026-04-04T13:09:16.394Z</time></trkpt><trkpt lat="45.2458151" lon="8.3872077"><ele>125.0</ele><time>2026-04-04T13:09:18.393Z</time></trkpt><trkpt lat="45.2458798" lon="8.3873256"><ele>125.0</ele><time>2026-04-04T13:09:20.394Z</time></trkpt><trkpt lat="45.2459508" lon="8.3874336"><ele>125.0</ele><time>2026-04-04T13:09:22.394Z</time></trkpt><trkpt lat="45.2460181" lon="8.3875475"><ele>125.0</ele><time>2026-04-04T13:09:24.393Z</time></trkpt><trkpt lat="45.2460917" lon="8.387661"><ele>125.0</ele><time>2026-04-04T13:09:26.405Z</time></trkpt><trkpt lat="45.2461622" lon="8.387771"><ele>125.0</ele><time>2026-04-04T13:09:28.393Z</time></trkpt><trkpt lat="45.2462377" lon="8.3878717"><ele>125.0</ele><time>2026-04-04T13:09:30.385Z</time></trkpt><trkpt lat="45.2463152" lon="8.387972"><ele>125.0</ele><time>2026-04-04T13:09:32.406Z</time></trkpt><trkpt lat="45.2463919" lon="8.3880761"><ele>125.0</ele><time>2026-04-04T13:09:34.394Z</time></trkpt><trkpt lat="45.2464687" lon="8.3881792"><ele>125.0</ele><time>2026-04-04T13:09:36.396Z</time></trkpt><trkpt lat="45.2465414" lon="8.3882802"><ele>125.0</ele><time>2026-04-04T13:09:38.396Z</time></trkpt><trkpt lat="45.2466177" lon="8.3883725"><ele>125.0</ele><time>2026-04-04T13:09:40.393Z</time></trkpt><trkpt lat="45.2466901" lon="8.3884744"><ele>125.0</ele><time>2026-04-04T13:09:42.4Z</time></trkpt><trkpt lat="45.2467678" lon="8.388571"><ele>125.0</ele><time>2026-04-04T13:09:44.392Z</time></trkpt><trkpt lat="45.2468489" lon="8.3886674"><ele>125.0</ele><time>2026-04-04T13:09:46.396Z</time></trkpt><trkpt lat="45.2469244" lon="8.3887674"><ele>125.0</ele><time>2026-04-04T13:09:48.394Z</time></trkpt><trkpt lat="45.2469993" lon="8.3888658"><ele>125.0</ele><time>2026-04-04T13:09:50.387Z</time></trkpt><trkpt lat="45.2470784" lon="8.3889731"><ele>125.0</ele><time>2026-04-04T13:09:52.39Z</time></trkpt><trkpt lat="45.2471549" lon="8.3890717"><ele>125.0</ele><time>2026-04-04T13:09:54.394Z</time></trkpt><trkpt lat="45.2472261" lon="8.3891696"><ele>125.0</ele><time>2026-04-04T13:09:56.391Z</time></trkpt><trkpt lat="45.2473" lon="8.3892749"><ele>125.0</ele><time>2026-04-04T13:09:58.393Z</time></trkpt><trkpt lat="45.2473723" lon="8.3893813"><ele>125.0</ele><time>2026-04-04T13:10:00.392Z</time></trkpt><trkpt lat="45.2474417" lon="8.3894928"><ele>125.0</ele><time>2026-04-04T13:10:02.393Z</time></trkpt><trkpt lat="45.2475097" lon="8.3896106"><ele>125.0</ele><time>2026-04-04T13:10:04.387Z</time></trkpt><trkpt lat="45.2475678" lon="8.3897286"><ele>125.0</ele><time>2026-04-04T13:10:06.392Z</time></trkpt><trkpt lat="45.2476279" lon="8.3898449"><ele>125.0</ele><time>2026-04-04T13:10:08.391Z</time></trkpt><trkpt lat="45.2476906" lon="8.3899642"><ele>125.0</ele><time>2026-04-04T13:10:10.397Z</time></trkpt><trkpt lat="45.2477467" lon="8.3900886"><ele>125.0</ele><time>2026-04-04T13:10:12.394Z</time></trkpt><trkpt lat="45.2478093" lon="8.3902109"><ele>125.0</ele><time>2026-04-04T13:10:14.392Z</time></trkpt><trkpt lat="45.2478698" lon="8.3903365"><ele>125.0</ele><time>2026-04-04T13:10:16.396Z</time></trkpt><trkpt lat="45.2479333" lon="8.3904547"><ele>125.0</ele><time>2026-04-04T13:10:18.392Z</time></trkpt><trkpt lat="45.2479989" lon="8.3905789"><ele>125.0</ele><time>2026-04-04T13:10:20.392Z</time></trkpt><trkpt lat="45.2480603" lon="8.3907045"><ele>125.0</ele><time>2026-04-04T13:10:22.393Z</time></trkpt><trkpt lat="45.2481213" lon="8.3908311"><ele>125.0</ele><time>2026-04-04T13:10:24.389Z</time></trkpt><trkpt lat="45.2481878" lon="8.3909534"><ele>125.0</ele><time>2026-04-04T13:10:26.392Z</time></trkpt><trkpt lat="45.2482496" lon="8.391073"><ele>125.0</ele><time>2026-04-04T13:10:28.392Z</time></trkpt><trkpt lat="45.2483148" lon="8.3911938"><ele>125.0</ele><time>2026-04-04T13:10:30.39Z</time></trkpt><trkpt lat="45.2483834" lon="8.3913144"><ele>125.0</ele><time>2026-04-04T13:10:32.394Z</time></trkpt><trkpt lat="45.2484512" lon="8.3914385"><ele>125.0</ele><time>2026-04-04T13:10:34.396Z</time></trkpt><trkpt lat="45.2485196" lon="8.3915547"><ele>125.0</ele><time>2026-04-04T13:10:36.387Z</time></trkpt><trkpt lat="45.2485984" lon="8.3916634"><ele>125.0</ele><time>2026-04-04T13:10:38.386Z</time></trkpt><trkpt lat="45.2486886" lon="8.3917554"><ele>125.0</ele><time>2026-04-04T13:10:40.389Z</time></trkpt><trkpt lat="45.248786" lon="8.3918388"><ele>125.0</ele><time>2026-04-04T13:10:42.387Z</time></trkpt><trkpt lat="45.2488745" lon="8.3919271"><ele>125.0</ele><time>2026-04-04T13:10:44.389Z</time></trkpt><trkpt lat="45.2489699" lon="8.3920046"><ele>125.0</ele><time>2026-04-04T13:10:46.394Z</time></trkpt><trkpt lat="45.2490623" lon="8.3920862"><ele>125.0</ele><time>2026-04-04T13:10:48.389Z</time></trkpt><trkpt lat="45.2491556" lon="8.3921715"><ele>125.2</ele><time>2026-04-04T13:10:50.394Z</time></trkpt><trkpt lat="45.2492464" lon="8.392254"><ele>125.4</ele><time>2026-04-04T13:10:52.389Z</time></trkpt><trkpt lat="45.2493401" lon="8.3923356"><ele>125.6</ele><time>2026-04-04T13:10:54.394Z</time></trkpt><trkpt lat="45.2494315" lon="8.3924098"><ele>125.8</ele><time>2026-04-04T13:10:56.392Z</time></trkpt><trkpt lat="45.2495218" lon="8.3924901"><ele>126.0</ele><time>2026-04-04T13:10:58.388Z</time></trkpt><trkpt lat="45.2496139" lon="8.3925721"><ele>126.0</ele><time>2026-04-04T13:11:00.397Z</time></trkpt><trkpt lat="45.2497015" lon="8.3926548"><ele>126.0</ele><time>2026-04-04T13:11:02.392Z</time></trkpt><trkpt lat="45.2497948" lon="8.3927349"><ele>126.0</ele><time>2026-04-04T13:11:04.392Z</time></trkpt><trkpt lat="45.2498926" lon="8.3928116"><ele>126.0</ele><time>2026-04-04T13:11:06.396Z</time></trkpt><trkpt lat="45.2499866" lon="8.3928907"><ele>126.0</ele><time>2026-04-04T13:11:08.394Z</time></trkpt><trkpt lat="45.2500773" lon="8.3929689"><ele>126.0</ele><time>2026-04-04T13:11:10.393Z</time></trkpt><trkpt lat="45.2501742" lon="8.3930447"><ele>126.0</ele><time>2026-04-04T13:11:12.397Z</time></trkpt><trkpt lat="45.2502707" lon="8.3931089"><ele>126.0</ele><time>2026-04-04T13:11:14.399Z</time></trkpt><trkpt lat="45.2503763" lon="8.3931748"><ele>126.0</ele><time>2026-04-04T13:11:16.387Z</time></trkpt><trkpt lat="45.2504757" lon="8.3932335"><ele>126.0</ele><time>2026-04-04T13:11:18.387Z</time></trkpt><trkpt lat="45.2505827" lon="8.3932816"><ele>125.75</ele><time>2026-04-04T13:11:20.389Z</time></trkpt><trkpt lat="45.250695" lon="8.3933137"><ele>125.5</ele><time>2026-04-04T13:11:22.391Z</time></trkpt><trkpt lat="45.2508081" lon="8.3933326"><ele>125.25</ele><time>2026-04-04T13:11:24.391Z</time></trkpt><trkpt lat="45.2509168" lon="8.3933425"><ele>125.0</ele><time>2026-04-04T13:11:26.385Z</time></trkpt><trkpt lat="45.2510326" lon="8.3933513"><ele>125.0</ele><time>2026-04-04T13:11:28.397Z</time></trkpt><trkpt lat="45.2511428" lon="8.3933559"><ele>125.0</ele><time>2026-04-04T13:11:30.389Z</time></trkpt><trkpt lat="45.2512558" lon="8.3933599"><ele>125.0</ele><time>2026-04-04T13:11:32.386Z</time></trkpt><trkpt lat="45.2513728" lon="8.3933593"><ele>125.0</ele><time>2026-04-04T13:11:34.386Z</time></trkpt><trkpt lat="45.2514816" lon="8.3933544"><ele>125.0</ele><time>2026-04-04T13:11:36.39Z</time></trkpt><trkpt lat="45.2515908" lon="8.393357"><ele>125.2</ele><time>2026-04-04T13:11:38.392Z</time></trkpt><trkpt lat="45.2517037" lon="8.3933625"><ele>125.4</ele><time>2026-04-04T13:11:40.388Z</time></trkpt><trkpt lat="45.2518141" lon="8.3933624"><ele>125.6</ele><time>2026-04-04T13:11:42.391Z</time></trkpt><trkpt lat="45.2519236" lon="8.3933671"><ele>125.8</ele><time>2026-04-04T13:11:44.395Z</time></trkpt><trkpt lat="45.2520306" lon="8.3933647"><ele>126.0</ele><time>2026-04-04T13:11:46.394Z</time></trkpt><trkpt lat="45.2521513" lon="8.3933606"><ele>126.0</ele><time>2026-04-04T13:11:48.388Z</time></trkpt><trkpt lat="45.2522668" lon="8.3933547"><ele>126.0</ele><time>2026-04-04T13:11:50.393Z</time></trkpt><trkpt lat="45.2523743" lon="8.3933557"><ele>126.0</ele><time>2026-04-04T13:11:52.399Z</time></trkpt><trkpt lat="45.2524833" lon="8.3933649"><ele>126.0</ele><time>2026-04-04T13:11:54.394Z</time></trkpt><trkpt lat="45.2525982" lon="8.3933882"><ele>126.0</ele><time>2026-04-04T13:11:56.389Z</time></trkpt><trkpt lat="45.2527071" lon="8.3934139"><ele>126.0</ele><time>2026-04-04T13:11:58.394Z</time></trkpt><trkpt lat="45.2528173" lon="8.3934514"><ele>126.0</ele><time>2026-04-04T13:12:00.389Z</time></trkpt><trkpt lat="45.2529277" lon="8.3934982"><ele>126.0</ele><time>2026-04-04T13:12:02.389Z</time></trkpt><trkpt lat="45.2530314" lon="8.3935594"><ele>126.0</ele><time>2026-04-04T13:12:04.39Z</time></trkpt><trkpt lat="45.2531317" lon="8.3936191"><ele>125.75</ele><time>2026-04-04T13:12:06.392Z</time></trkpt><trkpt lat="45.2532333" lon="8.3936937"><ele>125.5</ele><time>2026-04-04T13:12:08.389Z</time></trkpt><trkpt lat="45.253324" lon="8.3937915"><ele>125.25</ele><time>2026-04-04T13:12:10.393Z</time></trkpt><trkpt lat="45.253396" lon="8.3939086"><ele>125.0</ele><time>2026-04-04T13:12:12.398Z</time></trkpt><trkpt lat="45.2534564" lon="8.394048"><ele>125.0</ele><time>2026-04-04T13:12:14.389Z</time></trkpt><trkpt lat="45.2534896" lon="8.3942011"><ele>125.0</ele><time>2026-04-04T13:12:16.394Z</time></trkpt><trkpt lat="45.2535093" lon="8.3943604"><ele>125.0</ele><time>2026-04-04T13:12:18.388Z</time></trkpt><trkpt lat="45.253516" lon="8.3945183"><ele>125.0</ele><time>2026-04-04T13:12:20.392Z</time></trkpt><trkpt lat="45.2535138" lon="8.3946759"><ele>125.0</ele><time>2026-04-04T13:12:22.385Z</time></trkpt><trkpt lat="45.2535099" lon="8.3948361"><ele>125.2</ele><time>2026-04-04T13:12:24.394Z</time></trkpt><trkpt lat="45.2535089" lon="8.3949934"><ele>125.4</ele><time>2026-04-04T13:12:26.401Z</time></trkpt><trkpt lat="45.2535191" lon="8.3951485"><ele>125.6</ele><time>2026-04-04T13:12:28.388Z</time></trkpt><trkpt lat="45.2535271" lon="8.3952984"><ele>125.8</ele><time>2026-04-04T13:12:30.397Z</time></trkpt><trkpt lat="45.2535451" lon="8.3954551"><ele>126.0</ele><time>2026-04-04T13:12:32.386Z</time></trkpt><trkpt lat="45.2535606" lon="8.3956093"><ele>126.0</ele><time>2026-04-04T13:12:34.39Z</time></trkpt><trkpt lat="45.2535802" lon="8.3957609"><ele>126.0</ele><time>2026-04-04T13:12:36.393Z</time></trkpt><trkpt lat="45.2536064" lon="8.3959104"><ele>126.0</ele><time>2026-04-04T13:12:38.394Z</time></trkpt><trkpt lat="45.253639" lon="8.3960655"><ele>126.0</ele><time>2026-04-04T13:12:40.397Z</time></trkpt><trkpt lat="45.2536701" lon="8.3962208"><ele>126.0</ele><time>2026-04-04T13:12:42.397Z</time></trkpt><trkpt lat="45.2537066" lon="8.3963712"><ele>125.8</ele><time>2026-04-04T13:12:44.39Z</time></trkpt><trkpt lat="45.2537456" lon="8.3965193"><ele>125.6</ele><time>2026-04-04T13:12:46.39Z</time></trkpt><trkpt lat="45.253795" lon="8.3966728"><ele>125.4</ele><time>2026-04-04T13:12:48.389Z</time></trkpt><trkpt lat="45.2538368" lon="8.3968168"><ele>125.2</ele><time>2026-04-04T13:12:50.391Z</time></trkpt><trkpt lat="45.2538837" lon="8.3969574"><ele>125.0</ele><time>2026-04-04T13:12:52.39Z</time></trkpt><trkpt lat="45.2539439" lon="8.3970937"><ele>125.0</ele><time>2026-04-04T13:12:54.388Z</time></trkpt><trkpt lat="45.253993" lon="8.3972375"><ele>125.0</ele><time>2026-04-04T13:12:56.392Z</time></trkpt><trkpt lat="45.254054" lon="8.3973727"><ele>125.0</ele><time>2026-04-04T13:12:58.393Z</time></trkpt><trkpt lat="45.2541383" lon="8.3974899"><ele>125.0</ele><time>2026-04-04T13:13:00.393Z</time></trkpt><trkpt lat="45.2542366" lon="8.3975794"><ele>125.0</ele><time>2026-04-04T13:13:02.389Z</time></trkpt><trkpt lat="45.2543382" lon="8.3976601"><ele>125.0</ele><time>2026-04-04T13:13:04.391Z</time></trkpt><trkpt lat="45.2544415" lon="8.3977185"><ele>125.0</ele><time>2026-04-04T13:13:06.395Z</time></trkpt><trkpt lat="45.2545463" lon="8.3977796"><ele>125.0</ele><time>2026-04-04T13:13:08.389Z</time></trkpt><trkpt lat="45.2546548" lon="8.3978201"><ele>125.0</ele><time>2026-04-04T13:13:10.389Z</time></trkpt><trkpt lat="45.2547631" lon="8.3978487"><ele>125.0</ele><time>2026-04-04T13:13:12.388Z</time></trkpt><trkpt lat="45.2548766" lon="8.3978702"><ele>125.0</ele><time>2026-04-04T13:13:14.391Z</time></trkpt><trkpt lat="45.2549915" lon="8.3978945"><ele>125.0</ele><time>2026-04-04T13:13:16.397Z</time></trkpt><trkpt lat="45.2551076" lon="8.3979142"><ele>124.75</ele><time>2026-04-04T13:13:18.39Z</time></trkpt><trkpt lat="45.2552234" lon="8.3979247"><ele>124.5</ele><time>2026-04-04T13:13:20.395Z</time></trkpt><trkpt lat="45.2553357" lon="8.3979368"><ele>124.25</ele><time>2026-04-04T13:13:22.394Z</time></trkpt><trkpt lat="45.2554491" lon="8.397952"><ele>124.0</ele><time>2026-04-04T13:13:24.394Z</time></trkpt><trkpt lat="45.2555609" lon="8.3979711"><ele>124.0</ele><time>2026-04-04T13:13:26.389Z</time></trkpt><trkpt lat="45.2556686" lon="8.3979804"><ele>124.0</ele><time>2026-04-04T13:13:28.395Z</time></trkpt><trkpt lat="45.2557833" lon="8.3980055"><ele>124.0</ele><time>2026-04-04T13:13:30.387Z</time></trkpt><trkpt lat="45.255899" lon="8.3980423"><ele>124.0</ele><time>2026-04-04T13:13:32.389Z</time></trkpt><trkpt lat="45.2560132" lon="8.3980997"><ele>124.0</ele><time>2026-04-04T13:13:34.392Z</time></trkpt><trkpt lat="45.2561147" lon="8.3981715"><ele>124.0</ele><time>2026-04-04T13:13:36.391Z</time></trkpt><trkpt lat="45.2562172" lon="8.3982548"><ele>124.0</ele><time>2026-04-04T13:13:38.397Z</time></trkpt><trkpt lat="45.256312" lon="8.3983384"><ele>124.0</ele><time>2026-04-04T13:13:40.398Z</time></trkpt><trkpt lat="45.2564093" lon="8.398426"><ele>124.25</ele><time>2026-04-04T13:13:42.392Z</time></trkpt><trkpt lat="45.2565005" lon="8.3985155"><ele>124.5</ele><time>2026-04-04T13:13:44.39Z</time></trkpt><trkpt lat="45.2565956" lon="8.3986072"><ele>124.75</ele><time>2026-04-04T13:13:46.405Z</time></trkpt><trkpt lat="45.2566904" lon="8.3987017"><ele>125.0</ele><time>2026-04-04T13:13:48.394Z</time></trkpt><trkpt lat="45.2567801" lon="8.3988027"><ele>125.2</ele><time>2026-04-04T13:13:50.406Z</time></trkpt><trkpt lat="45.2568585" lon="8.3989051"><ele>125.4</ele><time>2026-04-04T13:13:52.405Z</time></trkpt><trkpt lat="45.2569305" lon="8.3990201"><ele>125.6</ele><time>2026-04-04T13:13:54.4Z</time></trkpt><trkpt lat="45.2570016" lon="8.3991339"><ele>125.8</ele><time>2026-04-04T13:13:56.392Z</time></trkpt><trkpt lat="45.2570768" lon="8.3992501"><ele>126.0</ele><time>2026-04-04T13:13:58.401Z</time></trkpt><trkpt lat="45.2571523" lon="8.3993645"><ele>126.0</ele><time>2026-04-04T13:14:00.402Z</time></trkpt><trkpt lat="45.2572247" lon="8.3994867"><ele>126.0</ele><time>2026-04-04T13:14:02.403Z</time></trkpt><trkpt lat="45.2572876" lon="8.3996118"><ele>126.0</ele><time>2026-04-04T13:14:04.396Z</time></trkpt><trkpt lat="45.2573465" lon="8.399743"><ele>126.0</ele><time>2026-04-04T13:14:06.397Z</time></trkpt><trkpt lat="45.2574084" lon="8.399881"><ele>126.0</ele><time>2026-04-04T13:14:08.395Z</time></trkpt><trkpt lat="45.2574734" lon="8.4000153"><ele>125.75</ele><time>2026-04-04T13:14:10.394Z</time></trkpt><trkpt lat="45.257539" lon="8.4001533"><ele>125.5</ele><time>2026-04-04T13:14:12.383Z</time></trkpt><trkpt lat="45.2575985" lon="8.4002858"><ele>125.25</ele><time>2026-04-04T13:14:14.394Z</time></trkpt><trkpt lat="45.2576632" lon="8.4004088"><ele>125.0</ele><time>2026-04-04T13:14:16.407Z</time></trkpt><trkpt lat="45.25775" lon="8.4005179"><ele>125.5</ele><time>2026-04-04T13:14:18.392Z</time></trkpt><trkpt lat="45.2578475" lon="8.4006142"><ele>126.0</ele><time>2026-04-04T13:14:20.39Z</time></trkpt><trkpt lat="45.2579363" lon="8.4007086"><ele>126.5</ele><time>2026-04-04T13:14:22.391Z</time></trkpt><trkpt lat="45.2580392" lon="8.4007948"><ele>127.0</ele><time>2026-04-04T13:14:24.394Z</time></trkpt><trkpt lat="45.2581392" lon="8.400866"><ele>127.0</ele><time>2026-04-04T13:14:26.398Z</time></trkpt><trkpt lat="45.2582507" lon="8.400924"><ele>127.0</ele><time>2026-04-04T13:14:28.398Z</time></trkpt><trkpt lat="45.2583656" lon="8.4009662"><ele>127.0</ele><time>2026-04-04T13:14:30.389Z</time></trkpt><trkpt lat="45.2584763" lon="8.4009942"><ele>127.0</ele><time>2026-04-04T13:14:32.391Z</time></trkpt><trkpt lat="45.2585976" lon="8.4010151"><ele>127.0</ele><time>2026-04-04T13:14:34.389Z</time></trkpt><trkpt lat="45.2587206" lon="8.4010405"><ele>126.99999999999999</ele><time>2026-04-04T13:14:36.39Z</time></trkpt><trkpt lat="45.258839" lon="8.4010622"><ele>126.99999999999999</ele><time>2026-04-04T13:14:38.389Z</time></trkpt><trkpt lat="45.2589581" lon="8.4010827"><ele>127.0</ele><time>2026-04-04T13:14:40.391Z</time></trkpt><trkpt lat="45.2590218" lon="8.4010949"><ele>127.0</ele><time>2026-04-04T13:14:41.394Z</time></trkpt><trkpt lat="45.2591448" lon="8.4011212"><ele>127.0</ele><time>2026-04-04T13:14:43.386Z</time></trkpt><trkpt lat="45.2592619" lon="8.401165"><ele>127.0</ele><time>2026-04-04T13:14:45.387Z</time></trkpt><trkpt lat="45.2593783" lon="8.4012182"><ele>127.0</ele><time>2026-04-04T13:14:47.394Z</time></trkpt><trkpt lat="45.2594945" lon="8.4012964"><ele>127.0</ele><time>2026-04-04T13:14:49.391Z</time></trkpt><trkpt lat="45.259588" lon="8.4014085"><ele>127.0</ele><time>2026-04-04T13:14:51.394Z</time></trkpt><trkpt lat="45.2596601" lon="8.4015502"><ele>126.99999999999999</ele><time>2026-04-04T13:14:53.397Z</time></trkpt><trkpt lat="45.2597079" lon="8.4017051"><ele>126.99999999999999</ele><time>2026-04-04T13:14:55.392Z</time></trkpt><trkpt lat="45.2597191" lon="8.4017934"><ele>127.0</ele><time>2026-04-04T13:14:56.394Z</time></trkpt><trkpt lat="45.2597176" lon="8.4019568"><ele>127.0</ele><time>2026-04-04T13:14:58.402Z</time></trkpt><trkpt lat="45.2597183" lon="8.4020507"><ele>126.6</ele><time>2026-04-04T13:14:59.392Z</time></trkpt><trkpt lat="45.2597272" lon="8.4022214"><ele>126.19999999999999</ele><time>2026-04-04T13:15:01.39Z</time></trkpt><trkpt lat="45.2597604" lon="8.4023994"><ele>125.8</ele><time>2026-04-04T13:15:03.393Z</time></trkpt><trkpt lat="45.2597913" lon="8.4024778"><ele>125.4</ele><time>2026-04-04T13:15:04.39Z</time></trkpt><trkpt lat="45.2598403" lon="8.4026357"><ele>125.0</ele><time>2026-04-04T13:15:06.401Z</time></trkpt><trkpt lat="45.2598928" lon="8.402791"><ele>124.8</ele><time>2026-04-04T13:15:08.395Z</time></trkpt><trkpt lat="45.2599704" lon="8.402931"><ele>124.6</ele><time>2026-04-04T13:15:10.398Z</time></trkpt><trkpt lat="45.2600132" lon="8.4029971"><ele>124.4</ele><time>2026-04-04T13:15:11.389Z</time></trkpt><trkpt lat="45.2601061" lon="8.4030953"><ele>124.2</ele><time>2026-04-04T13:15:13.39Z</time></trkpt><trkpt lat="45.2601919" lon="8.4031933"><ele>124.0</ele><time>2026-04-04T13:15:15.389Z</time></trkpt><trkpt lat="45.2602816" lon="8.4032995"><ele>124.0</ele><time>2026-04-04T13:15:17.396Z</time></trkpt><trkpt lat="45.2603748" lon="8.4034013"><ele>124.0</ele><time>2026-04-04T13:15:19.404Z</time></trkpt><trkpt lat="45.2604711" lon="8.4034759"><ele>124.0</ele><time>2026-04-04T13:15:21.4Z</time></trkpt><trkpt lat="45.2605469" lon="8.4035309"><ele>124.0</ele><time>2026-04-04T13:15:23.398Z</time></trkpt><trkpt lat="45.2606297" lon="8.4035647"><ele>124.0</ele><time>2026-04-04T13:15:25.399Z</time></trkpt><trkpt lat="45.2607296" lon="8.403617"><ele>124.4</ele><time>2026-04-04T13:15:27.389Z</time></trkpt><trkpt lat="45.2608312" lon="8.4036724"><ele>124.80000000000001</ele><time>2026-04-04T13:15:29.396Z</time></trkpt><trkpt lat="45.2609334" lon="8.403734"><ele>125.19999999999999</ele><time>2026-04-04T13:15:31.394Z</time></trkpt><trkpt lat="45.2610362" lon="8.4037977"><ele>125.6</ele><time>2026-04-04T13:15:33.393Z</time></trkpt><trkpt lat="45.2611419" lon="8.4038686"><ele>126.0</ele><time>2026-04-04T13:15:35.393Z</time></trkpt><trkpt lat="45.2612377" lon="8.4039209"><ele>126.16666666666667</ele><time>2026-04-04T13:15:37.39Z</time></trkpt><trkpt lat="45.2613338" lon="8.4039726"><ele>126.33333333333334</ele><time>2026-04-04T13:15:39.391Z</time></trkpt><trkpt lat="45.2614218" lon="8.4040103"><ele>126.5</ele><time>2026-04-04T13:15:41.39Z</time></trkpt><trkpt lat="45.2614971" lon="8.4040489"><ele>126.66666666666667</ele><time>2026-04-04T13:15:43.389Z</time></trkpt><trkpt lat="45.2615616" lon="8.4040402"><ele>126.83333333333334</ele><time>2026-04-04T13:15:45.384Z</time></trkpt><trkpt lat="45.2616195" lon="8.4039335"><ele>127.0</ele><time>2026-04-04T13:15:48.407Z</time></trkpt><trkpt lat="45.2616383" lon="8.4038164"><ele>127.0</ele><time>2026-04-04T13:15:50.395Z</time></trkpt><trkpt lat="45.2616513" lon="8.4036959"><ele>126.99999999999999</ele><time>2026-04-04T13:15:52.39Z</time></trkpt><trkpt lat="45.2616519" lon="8.4035656"><ele>126.99999999999999</ele><time>2026-04-04T13:15:54.391Z</time></trkpt><trkpt lat="45.2616592" lon="8.4034331"><ele>127.0</ele><time>2026-04-04T13:15:56.402Z</time></trkpt><trkpt lat="45.2616756" lon="8.4033014"><ele>127.0</ele><time>2026-04-04T13:15:58.396Z</time></trkpt><trkpt lat="45.261695" lon="8.403164"><ele>127.00000000000001</ele><time>2026-04-04T13:16:00.396Z</time></trkpt><trkpt lat="45.2617044" lon="8.4030353"><ele>127.0</ele><time>2026-04-04T13:16:02.396Z</time></trkpt><trkpt lat="45.2617081" lon="8.4029154"><ele>127.0</ele><time>2026-04-04T13:16:04.395Z</time></trkpt><trkpt lat="45.2617254" lon="8.4028228"><ele>127.0</ele><time>2026-04-04T13:16:06.393Z</time></trkpt><trkpt lat="45.2617879" lon="8.4027754"><ele>127.00000000000001</ele><time>2026-04-04T13:16:08.406Z</time></trkpt><trkpt lat="45.2618758" lon="8.4027893"><ele>127.0</ele><time>2026-04-04T13:16:10.391Z</time></trkpt><trkpt lat="45.2619835" lon="8.4028136"><ele>126.8</ele><time>2026-04-04T13:16:12.394Z</time></trkpt><trkpt lat="45.2620456" lon="8.4028356"><ele>126.6</ele><time>2026-04-04T13:16:13.399Z</time></trkpt><trkpt lat="45.2621502" lon="8.4028747"><ele>126.39999999999999</ele><time>2026-04-04T13:16:15.406Z</time></trkpt><trkpt lat="45.2622538" lon="8.4028939"><ele>126.19999999999999</ele><time>2026-04-04T13:16:17.407Z</time></trkpt><trkpt lat="45.2623612" lon="8.4029357"><ele>126.0</ele><time>2026-04-04T13:16:19.396Z</time></trkpt><trkpt lat="45.2624588" lon="8.4029758"><ele>125.8</ele><time>2026-04-04T13:16:21.397Z</time></trkpt><trkpt lat="45.2625585" lon="8.4030087"><ele>125.6</ele><time>2026-04-04T13:16:23.392Z</time></trkpt><trkpt lat="45.2626564" lon="8.4030425"><ele>125.4</ele><time>2026-04-04T13:16:25.394Z</time></trkpt><trkpt lat="45.2627533" lon="8.4030895"><ele>125.2</ele><time>2026-04-04T13:16:27.403Z</time></trkpt><trkpt lat="45.2628478" lon="8.4031667"><ele>125.0</ele><time>2026-04-04T13:16:29.398Z</time></trkpt><trkpt lat="45.2629302" lon="8.4032424"><ele>125.0</ele><time>2026-04-04T13:16:31.393Z</time></trkpt><trkpt lat="45.263013" lon="8.403338"><ele>125.0</ele><time>2026-04-04T13:16:33.39Z</time></trkpt><trkpt lat="45.2630971" lon="8.4034355"><ele>125.0</ele><time>2026-04-04T13:16:35.387Z</time></trkpt><trkpt lat="45.2631675" lon="8.403542"><ele>125.0</ele><time>2026-04-04T13:16:37.397Z</time></trkpt><trkpt lat="45.263226" lon="8.4036428"><ele>125.0</ele><time>2026-04-04T13:16:39.393Z</time></trkpt><trkpt lat="45.2632784" lon="8.4037208"><ele>124.99999999999999</ele><time>2026-04-04T13:16:41.399Z</time></trkpt><trkpt lat="45.26337" lon="8.4037567"><ele>125.0</ele><time>2026-04-04T13:16:44.395Z</time></trkpt><trkpt lat="45.2634499" lon="8.4037578"><ele>125.0</ele><time>2026-04-04T13:16:46.395Z</time></trkpt><trkpt lat="45.2635434" lon="8.4037826"><ele>125.0</ele><time>2026-04-04T13:16:48.41Z</time></trkpt><trkpt lat="45.2636362" lon="8.4038148"><ele>124.99999999999999</ele><time>2026-04-04T13:16:50.389Z</time></trkpt><trkpt lat="45.2637179" lon="8.4038252"><ele>125.0</ele><time>2026-04-04T13:16:52.389Z</time></trkpt><trkpt lat="45.2638117" lon="8.4038546"><ele>124.99999999999999</ele><time>2026-04-04T13:16:54.389Z</time></trkpt><trkpt lat="45.2638958" lon="8.4038844"><ele>125.0</ele><time>2026-04-04T13:16:56.402Z</time></trkpt><trkpt lat="45.2639558" lon="8.4039592"><ele>125.0</ele><time>2026-04-04T13:16:58.39Z</time></trkpt><trkpt lat="45.2639806" lon="8.4040531"><ele>125.0</ele><time>2026-04-04T13:17:00.392Z</time></trkpt><trkpt lat="45.2639607" lon="8.4041462"><ele>124.99999999999999</ele><time>2026-04-04T13:17:02.392Z</time></trkpt><trkpt lat="45.2639299" lon="8.4042556"><ele>125.0</ele><time>2026-04-04T13:17:04.387Z</time></trkpt><trkpt lat="45.2639002" lon="8.4043762"><ele>125.0</ele><time>2026-04-04T13:17:06.401Z</time></trkpt><trkpt lat="45.2638646" lon="8.4045064"><ele>125.0</ele><time>2026-04-04T13:17:08.394Z</time></trkpt><trkpt lat="45.2638918" lon="8.4046288"><ele>125.0</ele><time>2026-04-04T13:17:10.39Z</time></trkpt><trkpt lat="45.2639547" lon="8.4047229"><ele>125.0</ele><time>2026-04-04T13:17:12.387Z</time></trkpt><trkpt lat="45.2640213" lon="8.4048202"><ele>125.0</ele><time>2026-04-04T13:17:14.392Z</time></trkpt><trkpt lat="45.2640791" lon="8.4049266"><ele>124.6</ele><time>2026-04-04T13:17:16.39Z</time></trkpt><trkpt lat="45.2641283" lon="8.405037"><ele>124.2</ele><time>2026-04-04T13:17:18.396Z</time></trkpt><trkpt lat="45.2641566" lon="8.405163"><ele>123.80000000000001</ele><time>2026-04-04T13:17:20.396Z</time></trkpt><trkpt lat="45.2641867" lon="8.4052917"><ele>123.4</ele><time>2026-04-04T13:17:22.396Z</time></trkpt><trkpt lat="45.2642193" lon="8.4054201"><ele>123.0</ele><time>2026-04-04T13:17:24.406Z</time></trkpt><trkpt lat="45.2642385" lon="8.4055371"><ele>123.0</ele><time>2026-04-04T13:17:26.395Z</time></trkpt><trkpt lat="45.2642584" lon="8.4056585"><ele>123.00000000000001</ele><time>2026-04-04T13:17:28.397Z</time></trkpt><trkpt lat="45.2642787" lon="8.4057956"><ele>123.00000000000001</ele><time>2026-04-04T13:17:30.392Z</time></trkpt><trkpt lat="45.2643032" lon="8.4059318"><ele>123.0</ele><time>2026-04-04T13:17:32.392Z</time></trkpt><trkpt lat="45.2643239" lon="8.4060548"><ele>123.0</ele><time>2026-04-04T13:17:34.398Z</time></trkpt><trkpt lat="45.2643397" lon="8.4061733"><ele>123.0</ele><time>2026-04-04T13:17:36.392Z</time></trkpt><trkpt lat="45.264411" lon="8.4062504"><ele>123.0</ele><time>2026-04-04T13:17:39.394Z</time></trkpt><trkpt lat="45.2644887" lon="8.4062487"><ele>123.0</ele><time>2026-04-04T13:17:41.392Z</time></trkpt><trkpt lat="45.2645556" lon="8.4062462"><ele>123.0</ele><time>2026-04-04T13:17:43.389Z</time></trkpt><trkpt lat="45.2646448" lon="8.4062639"><ele>123.0</ele><time>2026-04-04T13:17:46.391Z</time></trkpt><trkpt lat="45.2647097" lon="8.4062763"><ele>123.0</ele><time>2026-04-04T13:17:48.387Z</time></trkpt><trkpt lat="45.2647746" lon="8.4063053"><ele>123.0</ele><time>2026-04-04T13:17:50.39Z</time></trkpt><trkpt lat="45.264854" lon="8.4063339"><ele>123.0</ele><time>2026-04-04T13:17:52.401Z</time></trkpt><trkpt lat="45.2649418" lon="8.4063704"><ele>123.0</ele><time>2026-04-04T13:17:54.391Z</time></trkpt><trkpt lat="45.2650294" lon="8.4064068"><ele>123.0</ele><time>2026-04-04T13:17:56.395Z</time></trkpt><trkpt lat="45.2651101" lon="8.40644"><ele>123.0</ele><time>2026-04-04T13:17:58.389Z</time></trkpt><trkpt lat="45.2651926" lon="8.4064756"><ele>123.0</ele><time>2026-04-04T13:18:00.386Z</time></trkpt><trkpt lat="45.2652853" lon="8.4064943"><ele>123.0</ele><time>2026-04-04T13:18:02.391Z</time></trkpt><trkpt lat="45.265368" lon="8.4065237"><ele>123.00000000000001</ele><time>2026-04-04T13:18:04.398Z</time></trkpt><trkpt lat="45.2654493" lon="8.4065608"><ele>123.00000000000001</ele><time>2026-04-04T13:18:06.39Z</time></trkpt><trkpt lat="45.2655389" lon="8.4065979"><ele>123.0</ele><time>2026-04-04T13:18:08.392Z</time></trkpt><trkpt lat="45.2656322" lon="8.4066296"><ele>123.0</ele><time>2026-04-04T13:18:10.388Z</time></trkpt><trkpt lat="45.2657269" lon="8.4066682"><ele>122.80000000000001</ele><time>2026-04-04T13:18:12.386Z</time></trkpt><trkpt lat="45.2658198" lon="8.4067111"><ele>122.60000000000001</ele><time>2026-04-04T13:18:14.388Z</time></trkpt><trkpt lat="45.2659189" lon="8.4067511"><ele>122.39999999999999</ele><time>2026-04-04T13:18:16.392Z</time></trkpt><trkpt lat="45.2660172" lon="8.4067843"><ele>122.19999999999999</ele><time>2026-04-04T13:18:18.392Z</time></trkpt><trkpt lat="45.2661164" lon="8.4068248"><ele>122.0</ele><time>2026-04-04T13:18:20.393Z</time></trkpt><trkpt lat="45.2662206" lon="8.4068468"><ele>122.0</ele><time>2026-04-04T13:18:22.397Z</time></trkpt><trkpt lat="45.2663084" lon="8.4068742"><ele>121.99999999999999</ele><time>2026-04-04T13:18:24.395Z</time></trkpt><trkpt lat="45.2663931" lon="8.4069032"><ele>121.99999999999999</ele><time>2026-04-04T13:18:26.397Z</time></trkpt><trkpt lat="45.266487" lon="8.4069351"><ele>122.0</ele><time>2026-04-04T13:18:28.397Z</time></trkpt><trkpt lat="45.2665862" lon="8.406966"><ele>122.0</ele><time>2026-04-04T13:18:30.393Z</time></trkpt><trkpt lat="45.2666874" lon="8.4069928"><ele>122.0</ele><time>2026-04-04T13:18:32.388Z</time></trkpt><trkpt lat="45.2667874" lon="8.4070302"><ele>121.99999999999999</ele><time>2026-04-04T13:18:34.385Z</time></trkpt><trkpt lat="45.2668881" lon="8.4070652"><ele>121.99999999999999</ele><time>2026-04-04T13:18:36.39Z</time></trkpt><trkpt lat="45.2669909" lon="8.4071121"><ele>122.0</ele><time>2026-04-04T13:18:38.393Z</time></trkpt><trkpt lat="45.2670858" lon="8.4071506"><ele>122.0</ele><time>2026-04-04T13:18:40.39Z</time></trkpt><trkpt lat="45.2671903" lon="8.4071956"><ele>122.6</ele><time>2026-04-04T13:18:42.396Z</time></trkpt><trkpt lat="45.2672917" lon="8.4072216"><ele>123.19999999999999</ele><time>2026-04-04T13:18:44.399Z</time></trkpt><trkpt lat="45.2673994" lon="8.4072578"><ele>123.8</ele><time>2026-04-04T13:18:46.389Z</time></trkpt><trkpt lat="45.267503" lon="8.407289"><ele>124.4</ele><time>2026-04-04T13:18:48.384Z</time></trkpt><trkpt lat="45.2676039" lon="8.4073103"><ele>125.0</ele><time>2026-04-04T13:18:50.396Z</time></trkpt><trkpt lat="45.2677042" lon="8.4073402"><ele>125.0</ele><time>2026-04-04T13:18:52.387Z</time></trkpt><trkpt lat="45.2678092" lon="8.407374"><ele>125.0</ele><time>2026-04-04T13:18:54.386Z</time></trkpt><trkpt lat="45.2679175" lon="8.4074066"><ele>125.0</ele><time>2026-04-04T13:18:56.388Z</time></trkpt><trkpt lat="45.2680206" lon="8.4074402"><ele>125.0</ele><time>2026-04-04T13:18:58.391Z</time></trkpt><trkpt lat="45.2681275" lon="8.4074663"><ele>125.0</ele><time>2026-04-04T13:19:00.384Z</time></trkpt><trkpt lat="45.2682334" lon="8.407493"><ele>125.0</ele><time>2026-04-04T13:19:02.39Z</time></trkpt><trkpt lat="45.2683345" lon="8.4075209"><ele>125.0</ele><time>2026-04-04T13:19:04.388Z</time></trkpt><trkpt lat="45.2684392" lon="8.4075385"><ele>125.0</ele><time>2026-04-04T13:19:06.396Z</time></trkpt><trkpt lat="45.2685387" lon="8.4075534"><ele>125.0</ele><time>2026-04-04T13:19:08.39Z</time></trkpt><trkpt lat="45.2686472" lon="8.4075712"><ele>125.0</ele><time>2026-04-04T13:19:10.389Z</time></trkpt><trkpt lat="45.2687533" lon="8.4075926"><ele>125.0</ele><time>2026-04-04T13:19:12.387Z</time></trkpt><trkpt lat="45.2688576" lon="8.4076078"><ele>125.0</ele><time>2026-04-04T13:19:14.4Z</time></trkpt><trkpt lat="45.2689666" lon="8.4076345"><ele>125.0</ele><time>2026-04-04T13:19:16.389Z</time></trkpt><trkpt lat="45.2690696" lon="8.4076511"><ele>125.0</ele><time>2026-04-04T13:19:18.386Z</time></trkpt><trkpt lat="45.2691782" lon="8.4076703"><ele>125.0</ele><time>2026-04-04T13:19:20.387Z</time></trkpt><trkpt lat="45.2692773" lon="8.4076941"><ele>124.8</ele><time>2026-04-04T13:19:22.387Z</time></trkpt><trkpt lat="45.2693816" lon="8.4077171"><ele>124.6</ele><time>2026-04-04T13:19:24.397Z</time></trkpt><trkpt lat="45.2694893" lon="8.4077413"><ele>124.4</ele><time>2026-04-04T13:19:26.395Z</time></trkpt><trkpt lat="45.269594" lon="8.4077677"><ele>124.2</ele><time>2026-04-04T13:19:28.387Z</time></trkpt><trkpt lat="45.2697011" lon="8.4077881"><ele>124.0</ele><time>2026-04-04T13:19:30.391Z</time></trkpt><trkpt lat="45.2698096" lon="8.4078108"><ele>124.0</ele><time>2026-04-04T13:19:32.39Z</time></trkpt><trkpt lat="45.2699173" lon="8.407822"><ele>124.0</ele><time>2026-04-04T13:19:34.388Z</time></trkpt><trkpt lat="45.27002" lon="8.4078346"><ele>124.0</ele><time>2026-04-04T13:19:36.392Z</time></trkpt><trkpt lat="45.270128" lon="8.4078504"><ele>124.0</ele><time>2026-04-04T13:19:38.391Z</time></trkpt><trkpt lat="45.2702333" lon="8.4078555"><ele>124.0</ele><time>2026-04-04T13:19:40.396Z</time></trkpt><trkpt lat="45.2703425" lon="8.4078564"><ele>124.0</ele><time>2026-04-04T13:19:42.388Z</time></trkpt><trkpt lat="45.270449" lon="8.4078568"><ele>124.0</ele><time>2026-04-04T13:19:44.395Z</time></trkpt><trkpt lat="45.2705562" lon="8.4078485"><ele>124.0</ele><time>2026-04-04T13:19:46.408Z</time></trkpt><trkpt lat="45.2706623" lon="8.4078287"><ele>124.0</ele><time>2026-04-04T13:19:48.391Z</time></trkpt><trkpt lat="45.2707689" lon="8.4078069"><ele>124.0</ele><time>2026-04-04T13:19:50.391Z</time></trkpt><trkpt lat="45.2708706" lon="8.4077813"><ele>124.0</ele><time>2026-04-04T13:19:52.39Z</time></trkpt><trkpt lat="45.2709727" lon="8.4077596"><ele>124.0</ele><time>2026-04-04T13:19:54.387Z</time></trkpt><trkpt lat="45.2710636" lon="8.4077385"><ele>124.0</ele><time>2026-04-04T13:19:56.39Z</time></trkpt><trkpt lat="45.2711667" lon="8.4077269"><ele>124.0</ele><time>2026-04-04T13:19:58.389Z</time></trkpt><trkpt lat="45.2712691" lon="8.4077202"><ele>124.0</ele><time>2026-04-04T13:20:00.388Z</time></trkpt><trkpt lat="45.2713768" lon="8.4077167"><ele>124.0</ele><time>2026-04-04T13:20:02.39Z</time></trkpt><trkpt lat="45.2714741" lon="8.4077104"><ele>124.0</ele><time>2026-04-04T13:20:04.395Z</time></trkpt><trkpt lat="45.2715756" lon="8.4077143"><ele>124.0</ele><time>2026-04-04T13:20:06.401Z</time></trkpt><trkpt lat="45.2716739" lon="8.4077162"><ele>124.0</ele><time>2026-04-04T13:20:08.396Z</time></trkpt><trkpt lat="45.2717764" lon="8.4077165"><ele>124.0</ele><time>2026-04-04T13:20:10.391Z</time></trkpt><trkpt lat="45.2718831" lon="8.4077199"><ele>124.0</ele><time>2026-04-04T13:20:12.389Z</time></trkpt><trkpt lat="45.2719864" lon="8.4077366"><ele>124.0</ele><time>2026-04-04T13:20:14.402Z</time></trkpt><trkpt lat="45.2720863" lon="8.4077572"><ele>124.0</ele><time>2026-04-04T13:20:16.395Z</time></trkpt><trkpt lat="45.2721831" lon="8.4077765"><ele>124.0</ele><time>2026-04-04T13:20:18.397Z</time></trkpt><trkpt lat="45.2722807" lon="8.4077976"><ele>124.0</ele><time>2026-04-04T13:20:20.39Z</time></trkpt><trkpt lat="45.2723805" lon="8.4078285"><ele>124.2</ele><time>2026-04-04T13:20:22.391Z</time></trkpt><trkpt lat="45.2724787" lon="8.4078455"><ele>124.4</ele><time>2026-04-04T13:20:24.386Z</time></trkpt><trkpt lat="45.2725889" lon="8.4078692"><ele>124.6</ele><time>2026-04-04T13:20:26.404Z</time></trkpt><trkpt lat="45.2727022" lon="8.4078754"><ele>124.8</ele><time>2026-04-04T13:20:28.387Z</time></trkpt><trkpt lat="45.2728145" lon="8.4078704"><ele>125.0</ele><time>2026-04-04T13:20:30.392Z</time></trkpt><trkpt lat="45.2729253" lon="8.4078523"><ele>125.0</ele><time>2026-04-04T13:20:32.391Z</time></trkpt><trkpt lat="45.2730249" lon="8.4078296"><ele>125.0</ele><time>2026-04-04T13:20:34.396Z</time></trkpt><trkpt lat="45.2731249" lon="8.4078117"><ele>125.0</ele><time>2026-04-04T13:20:36.395Z</time></trkpt><trkpt lat="45.2732231" lon="8.4077882"><ele>125.0</ele><time>2026-04-04T13:20:38.391Z</time></trkpt><trkpt lat="45.2733255" lon="8.4077583"><ele>125.0</ele><time>2026-04-04T13:20:40.391Z</time></trkpt><trkpt lat="45.2734223" lon="8.4077333"><ele>125.0</ele><time>2026-04-04T13:20:42.392Z</time></trkpt><trkpt lat="45.273528" lon="8.4077132"><ele>125.0</ele><time>2026-04-04T13:20:44.391Z</time></trkpt><trkpt lat="45.2736302" lon="8.407698"><ele>125.0</ele><time>2026-04-04T13:20:46.395Z</time></trkpt><trkpt lat="45.2737236" lon="8.4076795"><ele>125.0</ele><time>2026-04-04T13:20:48.405Z</time></trkpt><trkpt lat="45.2738152" lon="8.4076575"><ele>125.0</ele><time>2026-04-04T13:20:50.392Z</time></trkpt><trkpt lat="45.2739086" lon="8.4076342"><ele>124.99999999999999</ele><time>2026-04-04T13:20:52.394Z</time></trkpt><trkpt lat="45.2740017" lon="8.4076093"><ele>125.0</ele><time>2026-04-04T13:20:54.405Z</time></trkpt><trkpt lat="45.2740762" lon="8.4076011"><ele>125.0</ele><time>2026-04-04T13:20:56.395Z</time></trkpt><trkpt lat="45.2741639" lon="8.4075786"><ele>125.0</ele><time>2026-04-04T13:21:00.4Z</time></trkpt><trkpt lat="45.2742308" lon="8.4075586"><ele>124.99999999999999</ele><time>2026-04-04T13:21:02.387Z</time></trkpt><trkpt lat="45.2743063" lon="8.4075389"><ele>125.0</ele><time>2026-04-04T13:21:04.387Z</time></trkpt><trkpt lat="45.2743879" lon="8.4075511"><ele>125.0</ele><time>2026-04-04T13:21:06.388Z</time></trkpt><trkpt lat="45.2744706" lon="8.4075862"><ele>125.0</ele><time>2026-04-04T13:21:08.389Z</time></trkpt><trkpt lat="45.2745476" lon="8.4076539"><ele>125.0</ele><time>2026-04-04T13:21:10.388Z</time></trkpt><trkpt lat="45.2746044" lon="8.407754"><ele>125.0</ele><time>2026-04-04T13:21:12.386Z</time></trkpt><trkpt lat="45.2746547" lon="8.4078659"><ele>125.0</ele><time>2026-04-04T13:21:14.389Z</time></trkpt><trkpt lat="45.2746971" lon="8.4079817"><ele>125.0</ele><time>2026-04-04T13:21:16.386Z</time></trkpt><trkpt lat="45.2747438" lon="8.4081037"><ele>125.0</ele><time>2026-04-04T13:21:18.388Z</time></trkpt><trkpt lat="45.2747937" lon="8.4082195"><ele>125.0</ele><time>2026-04-04T13:21:20.391Z</time></trkpt><trkpt lat="45.2748462" lon="8.4083426"><ele>125.0</ele><time>2026-04-04T13:21:22.4Z</time></trkpt><trkpt lat="45.2748971" lon="8.4084643"><ele>125.0</ele><time>2026-04-04T13:21:24.399Z</time></trkpt><trkpt lat="45.2749501" lon="8.4085808"><ele>125.0</ele><time>2026-04-04T13:21:26.397Z</time></trkpt><trkpt lat="45.2750085" lon="8.4086981"><ele>125.0</ele><time>2026-04-04T13:21:28.404Z</time></trkpt><trkpt lat="45.2750582" lon="8.4088154"><ele>125.0</ele><time>2026-04-04T13:21:30.393Z</time></trkpt><trkpt lat="45.2751098" lon="8.4089291"><ele>125.0</ele><time>2026-04-04T13:21:32.397Z</time></trkpt><trkpt lat="45.2751721" lon="8.4090403"><ele>125.0</ele><time>2026-04-04T13:21:34.397Z</time></trkpt><trkpt lat="45.2752573" lon="8.4091086"><ele>125.0</ele><time>2026-04-04T13:21:36.409Z</time></trkpt><trkpt lat="45.2753579" lon="8.4091165"><ele>125.0</ele><time>2026-04-04T13:21:38.39Z</time></trkpt><trkpt lat="45.2754536" lon="8.4091327"><ele>125.0</ele><time>2026-04-04T13:21:40.392Z</time></trkpt><trkpt lat="45.2755449" lon="8.4091609"><ele>125.0</ele><time>2026-04-04T13:21:42.392Z</time></trkpt><trkpt lat="45.2756356" lon="8.4091833"><ele>125.0</ele><time>2026-04-04T13:21:44.388Z</time></trkpt><trkpt lat="45.2757216" lon="8.409188"><ele>125.16666666666666</ele><time>2026-04-04T13:21:46.388Z</time></trkpt><trkpt lat="45.2758024" lon="8.4091766"><ele>125.33333333333333</ele><time>2026-04-04T13:21:48.386Z</time></trkpt><trkpt lat="45.2758848" lon="8.4091626"><ele>125.5</ele><time>2026-04-04T13:21:50.384Z</time></trkpt><trkpt lat="45.2759655" lon="8.4091332"><ele>125.66666666666666</ele><time>2026-04-04T13:21:52.397Z</time></trkpt><trkpt lat="45.2760431" lon="8.4090932"><ele>125.83333333333333</ele><time>2026-04-04T13:21:54.386Z</time></trkpt><trkpt lat="45.2761173" lon="8.4090457"><ele>126.0</ele><time>2026-04-04T13:21:56.387Z</time></trkpt><trkpt lat="45.276189" lon="8.4089934"><ele>126.0</ele><time>2026-04-04T13:21:58.389Z</time></trkpt><trkpt lat="45.2762551" lon="8.408931"><ele>126.0</ele><time>2026-04-04T13:22:00.385Z</time></trkpt><trkpt lat="45.2763192" lon="8.4088739"><ele>126.0</ele><time>2026-04-04T13:22:02.385Z</time></trkpt><trkpt lat="45.2763855" lon="8.4088189"><ele>126.0</ele><time>2026-04-04T13:22:04.39Z</time></trkpt><trkpt lat="45.2764517" lon="8.4087699"><ele>126.0</ele><time>2026-04-04T13:22:06.396Z</time></trkpt><trkpt lat="45.2765197" lon="8.4087269"><ele>126.0</ele><time>2026-04-04T13:22:08.393Z</time></trkpt><trkpt lat="45.2765914" lon="8.4086884"><ele>126.16666666666667</ele><time>2026-04-04T13:22:10.393Z</time></trkpt><trkpt lat="45.2766659" lon="8.4086582"><ele>126.33333333333334</ele><time>2026-04-04T13:22:12.393Z</time></trkpt><trkpt lat="45.2767405" lon="8.408647"><ele>126.5</ele><time>2026-04-04T13:22:14.39Z</time></trkpt><trkpt lat="45.2768188" lon="8.4086481"><ele>126.66666666666667</ele><time>2026-04-04T13:22:16.391Z</time></trkpt><trkpt lat="45.2768971" lon="8.408659"><ele>126.83333333333334</ele><time>2026-04-04T13:22:18.386Z</time></trkpt><trkpt lat="45.2769741" lon="8.4086842"><ele>127.0</ele><time>2026-04-04T13:22:20.389Z</time></trkpt><trkpt lat="45.2770514" lon="8.4087297"><ele>127.00000000000001</ele><time>2026-04-04T13:22:22.391Z</time></trkpt><trkpt lat="45.2771231" lon="8.4087855"><ele>127.0</ele><time>2026-04-04T13:22:24.392Z</time></trkpt><trkpt lat="45.2771896" lon="8.408855"><ele>127.0</ele><time>2026-04-04T13:22:26.399Z</time></trkpt><trkpt lat="45.277248" lon="8.4089334"><ele>127.0</ele><time>2026-04-04T13:22:28.39Z</time></trkpt><trkpt lat="45.2773032" lon="8.4090136"><ele>127.00000000000001</ele><time>2026-04-04T13:22:30.388Z</time></trkpt><trkpt lat="45.2773589" lon="8.4090927"><ele>127.0</ele><time>2026-04-04T13:22:32.389Z</time></trkpt><trkpt lat="45.2774179" lon="8.4091744"><ele>127.16666666666667</ele><time>2026-04-04T13:22:34.39Z</time></trkpt><trkpt lat="45.2774752" lon="8.4092559"><ele>127.33333333333334</ele><time>2026-04-04T13:22:36.392Z</time></trkpt><trkpt lat="45.277537" lon="8.4093376"><ele>127.5</ele><time>2026-04-04T13:22:38.385Z</time></trkpt><trkpt lat="45.2776022" lon="8.4094212"><ele>127.66666666666666</ele><time>2026-04-04T13:22:40.388Z</time></trkpt><trkpt lat="45.2776634" lon="8.4095127"><ele>127.83333333333333</ele><time>2026-04-04T13:22:42.392Z</time></trkpt><trkpt lat="45.27774" lon="8.4095914"><ele>128.0</ele><time>2026-04-04T13:22:44.403Z</time></trkpt><trkpt lat="45.2778152" lon="8.4096696"><ele>128.0</ele><time>2026-04-04T13:22:46.388Z</time></trkpt><trkpt lat="45.2778983" lon="8.4097439"><ele>128.0</ele><time>2026-04-04T13:22:48.391Z</time></trkpt><trkpt lat="45.2779895" lon="8.4098065"><ele>128.0</ele><time>2026-04-04T13:22:50.396Z</time></trkpt><trkpt lat="45.2780906" lon="8.4098571"><ele>128.0</ele><time>2026-04-04T13:22:52.396Z</time></trkpt><trkpt lat="45.2782092" lon="8.4098922"><ele>128.0</ele><time>2026-04-04T13:22:54.393Z</time></trkpt><trkpt lat="45.2783261" lon="8.4098965"><ele>128.20000000000002</ele><time>2026-04-04T13:22:56.395Z</time></trkpt><trkpt lat="45.2784453" lon="8.4098775"><ele>128.4</ele><time>2026-04-04T13:22:58.393Z</time></trkpt><trkpt lat="45.2785629" lon="8.4098463"><ele>128.60000000000002</ele><time>2026-04-04T13:23:00.399Z</time></trkpt><trkpt lat="45.2786259" lon="8.4098233"><ele>128.8</ele><time>2026-04-04T13:23:01.389Z</time></trkpt><trkpt lat="45.2787421" lon="8.4097836"><ele>129.0</ele><time>2026-04-04T13:23:03.389Z</time></trkpt><trkpt lat="45.2788102" lon="8.4097579"><ele>128.33333333333334</ele><time>2026-04-04T13:23:04.393Z</time></trkpt><trkpt lat="45.2789393" lon="8.4097265"><ele>127.66666666666666</ele><time>2026-04-04T13:23:06.395Z</time></trkpt><trkpt lat="45.2790098" lon="8.4097162"><ele>127.0</ele><time>2026-04-04T13:23:07.391Z</time></trkpt><trkpt lat="45.2790779" lon="8.4097162"><ele>126.33333333333333</ele><time>2026-04-04T13:23:08.392Z</time></trkpt><trkpt lat="45.2791505" lon="8.4097126"><ele>125.66666666666666</ele><time>2026-04-04T13:23:09.387Z</time></trkpt><trkpt lat="45.2792222" lon="8.4097242"><ele>125.0</ele><time>2026-04-04T13:23:10.392Z</time></trkpt><trkpt lat="45.2792877" lon="8.4097327"><ele>125.0</ele><time>2026-04-04T13:23:11.394Z</time></trkpt><trkpt lat="45.2794192" lon="8.4097457"><ele>125.0</ele><time>2026-04-04T13:23:13.405Z</time></trkpt><trkpt lat="45.2795429" lon="8.409768"><ele>125.0</ele><time>2026-04-04T13:23:15.396Z</time></trkpt><trkpt lat="45.2796653" lon="8.4097838"><ele>125.0</ele><time>2026-04-04T13:23:17.398Z</time></trkpt><trkpt lat="45.2797773" lon="8.4097769"><ele>124.8</ele><time>2026-04-04T13:23:19.399Z</time></trkpt><trkpt lat="45.2798844" lon="8.4097444"><ele>124.6</ele><time>2026-04-04T13:23:21.391Z</time></trkpt><trkpt lat="45.2799941" lon="8.4097182"><ele>124.4</ele><time>2026-04-04T13:23:23.388Z</time></trkpt><trkpt lat="45.2800992" lon="8.4097013"><ele>124.2</ele><time>2026-04-04T13:23:25.404Z</time></trkpt><trkpt lat="45.2802072" lon="8.4096958"><ele>124.0</ele><time>2026-04-04T13:23:27.388Z</time></trkpt><trkpt lat="45.2803155" lon="8.4097039"><ele>124.0</ele><time>2026-04-04T13:23:29.39Z</time></trkpt><trkpt lat="45.2804246" lon="8.4097122"><ele>124.0</ele><time>2026-04-04T13:23:31.386Z</time></trkpt><trkpt lat="45.280534" lon="8.4097171"><ele>124.0</ele><time>2026-04-04T13:23:33.392Z</time></trkpt><trkpt lat="45.2806497" lon="8.4097223"><ele>124.0</ele><time>2026-04-04T13:23:35.392Z</time></trkpt><trkpt lat="45.2807614" lon="8.4097374"><ele>124.0</ele><time>2026-04-04T13:23:37.396Z</time></trkpt><trkpt lat="45.2808753" lon="8.4097573"><ele>124.0</ele><time>2026-04-04T13:23:39.388Z</time></trkpt><trkpt lat="45.2809853" lon="8.409776"><ele>124.0</ele><time>2026-04-04T13:23:41.394Z</time></trkpt><trkpt lat="45.2810472" lon="8.4097949"><ele>124.0</ele><time>2026-04-04T13:23:42.4Z</time></trkpt><trkpt lat="45.2811564" lon="8.4098158"><ele>124.0</ele><time>2026-04-04T13:23:44.391Z</time></trkpt><trkpt lat="45.281269" lon="8.409851"><ele>124.0</ele><time>2026-04-04T13:23:46.396Z</time></trkpt><trkpt lat="45.2813821" lon="8.4098905"><ele>123.80000000000001</ele><time>2026-04-04T13:23:48.389Z</time></trkpt><trkpt lat="45.2814927" lon="8.4099217"><ele>123.60000000000001</ele><time>2026-04-04T13:23:50.399Z</time></trkpt><trkpt lat="45.2816054" lon="8.4099493"><ele>123.4</ele><time>2026-04-04T13:23:52.396Z</time></trkpt><trkpt lat="45.2817097" lon="8.4099803"><ele>123.2</ele><time>2026-04-04T13:23:54.39Z</time></trkpt><trkpt lat="45.2818143" lon="8.4100159"><ele>123.0</ele><time>2026-04-04T13:23:56.404Z</time></trkpt><trkpt lat="45.281926" lon="8.410038"><ele>123.0</ele><time>2026-04-04T13:23:58.396Z</time></trkpt><trkpt lat="45.2820333" lon="8.4100672"><ele>123.00000000000001</ele><time>2026-04-04T13:24:00.39Z</time></trkpt><trkpt lat="45.2821379" lon="8.4101015"><ele>123.00000000000001</ele><time>2026-04-04T13:24:02.392Z</time></trkpt><trkpt lat="45.2822491" lon="8.4101314"><ele>123.0</ele><time>2026-04-04T13:24:04.396Z</time></trkpt><trkpt lat="45.2823622" lon="8.4101555"><ele>123.0</ele><time>2026-04-04T13:24:06.393Z</time></trkpt><trkpt lat="45.2824713" lon="8.4101907"><ele>123.25</ele><time>2026-04-04T13:24:08.388Z</time></trkpt><trkpt lat="45.2825829" lon="8.4102221"><ele>123.5</ele><time>2026-04-04T13:24:10.391Z</time></trkpt><trkpt lat="45.2826962" lon="8.4102533"><ele>123.75</ele><time>2026-04-04T13:24:12.394Z</time></trkpt><trkpt lat="45.2828035" lon="8.4102843"><ele>124.0</ele><time>2026-04-04T13:24:14.391Z</time></trkpt><trkpt lat="45.2829201" lon="8.4103178"><ele>124.0</ele><time>2026-04-04T13:24:16.395Z</time></trkpt><trkpt lat="45.2830336" lon="8.4103456"><ele>124.0</ele><time>2026-04-04T13:24:18.392Z</time></trkpt><trkpt lat="45.2831389" lon="8.4103747"><ele>124.0</ele><time>2026-04-04T13:24:20.398Z</time></trkpt><trkpt lat="45.2832478" lon="8.4104069"><ele>124.0</ele><time>2026-04-04T13:24:22.4Z</time></trkpt><trkpt lat="45.2833647" lon="8.4104317"><ele>124.25</ele><time>2026-04-04T13:24:24.406Z</time></trkpt><trkpt lat="45.2834806" lon="8.4104633"><ele>124.5</ele><time>2026-04-04T13:24:26.39Z</time></trkpt><trkpt lat="45.283588" lon="8.4104889"><ele>124.75</ele><time>2026-04-04T13:24:28.396Z</time></trkpt><trkpt lat="45.2837081" lon="8.4105181"><ele>125.0</ele><time>2026-04-04T13:24:30.396Z</time></trkpt><trkpt lat="45.2838179" lon="8.410551"><ele>125.2</ele><time>2026-04-04T13:24:32.386Z</time></trkpt><trkpt lat="45.2839347" lon="8.4105839"><ele>125.4</ele><time>2026-04-04T13:24:34.395Z</time></trkpt><trkpt lat="45.2840435" lon="8.4106182"><ele>125.6</ele><time>2026-04-04T13:24:36.387Z</time></trkpt><trkpt lat="45.2841478" lon="8.4106487"><ele>125.8</ele><time>2026-04-04T13:24:38.397Z</time></trkpt><trkpt lat="45.2842563" lon="8.4106761"><ele>126.0</ele><time>2026-04-04T13:24:40.388Z</time></trkpt><trkpt lat="45.2843654" lon="8.4107035"><ele>126.0</ele><time>2026-04-04T13:24:42.39Z</time></trkpt><trkpt lat="45.2844756" lon="8.4107458"><ele>126.0</ele><time>2026-04-04T13:24:44.39Z</time></trkpt><trkpt lat="45.2845871" lon="8.4107766"><ele>126.0</ele><time>2026-04-04T13:24:46.388Z</time></trkpt><trkpt lat="45.2846949" lon="8.4108054"><ele>126.0</ele><time>2026-04-04T13:24:48.388Z</time></trkpt><trkpt lat="45.2848026" lon="8.4108408"><ele>126.0</ele><time>2026-04-04T13:24:50.388Z</time></trkpt><trkpt lat="45.2849112" lon="8.4108651"><ele>125.8</ele><time>2026-04-04T13:24:52.391Z</time></trkpt><trkpt lat="45.2850157" lon="8.4109012"><ele>125.6</ele><time>2026-04-04T13:24:54.393Z</time></trkpt><trkpt lat="45.285119" lon="8.4109301"><ele>125.4</ele><time>2026-04-04T13:24:56.391Z</time></trkpt><trkpt lat="45.2852138" lon="8.4109786"><ele>125.2</ele><time>2026-04-04T13:24:58.388Z</time></trkpt><trkpt lat="45.2852313" lon="8.4111013"><ele>125.0</ele><time>2026-04-04T13:25:00.388Z</time></trkpt><trkpt lat="45.2852235" lon="8.4112258"><ele>124.83333333333333</ele><time>2026-04-04T13:25:02.393Z</time></trkpt><trkpt lat="45.2852093" lon="8.411358"><ele>124.66666666666666</ele><time>2026-04-04T13:25:04.395Z</time></trkpt><trkpt lat="45.2851924" lon="8.4114782"><ele>124.5</ele><time>2026-04-04T13:25:06.393Z</time></trkpt><trkpt lat="45.2852129" lon="8.4115817"><ele>124.33333333333334</ele><time>2026-04-04T13:25:08.391Z</time></trkpt><trkpt lat="45.2853075" lon="8.4116124"><ele>124.16666666666667</ele><time>2026-04-04T13:25:10.402Z</time></trkpt><trkpt lat="45.2853957" lon="8.4116223"><ele>124.0</ele><time>2026-04-04T13:25:12.392Z</time></trkpt><trkpt lat="45.285479" lon="8.411638"><ele>124.0</ele><time>2026-04-04T13:25:14.409Z</time></trkpt><trkpt lat="45.2855663" lon="8.4116413"><ele>124.0</ele><time>2026-04-04T13:25:16.399Z</time></trkpt><trkpt lat="45.2856545" lon="8.4116574"><ele>124.0</ele><time>2026-04-04T13:25:18.387Z</time></trkpt><trkpt lat="45.2857446" lon="8.4116759"><ele>124.0</ele><time>2026-04-04T13:25:20.398Z</time></trkpt><trkpt lat="45.2858382" lon="8.4116881"><ele>124.0</ele><time>2026-04-04T13:25:22.39Z</time></trkpt><trkpt lat="45.2859332" lon="8.4117092"><ele>124.33333333333334</ele><time>2026-04-04T13:25:24.401Z</time></trkpt><trkpt lat="45.2860246" lon="8.4116846"><ele>124.66666666666667</ele><time>2026-04-04T13:25:26.403Z</time></trkpt><trkpt lat="45.286095" lon="8.4116054"><ele>125.0</ele><time>2026-04-04T13:25:28.388Z</time></trkpt><trkpt lat="45.2861516" lon="8.4115337"><ele>125.33333333333334</ele><time>2026-04-04T13:25:30.392Z</time></trkpt><trkpt lat="45.2862368" lon="8.4114913"><ele>125.66666666666667</ele><time>2026-04-04T13:25:32.395Z</time></trkpt><trkpt lat="45.2863229" lon="8.4114748"><ele>126.0</ele><time>2026-04-04T13:25:34.407Z</time></trkpt><trkpt lat="45.2864143" lon="8.4114626"><ele>126.0</ele><time>2026-04-04T13:25:36.392Z</time></trkpt><trkpt lat="45.2865101" lon="8.4114519"><ele>126.0</ele><time>2026-04-04T13:25:38.389Z</time></trkpt><trkpt lat="45.2866069" lon="8.4114508"><ele>126.0</ele><time>2026-04-04T13:25:40.394Z</time></trkpt><trkpt lat="45.2867087" lon="8.4114383"><ele>126.0</ele><time>2026-04-04T13:25:42.4Z</time></trkpt><trkpt lat="45.2868108" lon="8.4114294"><ele>126.0</ele><time>2026-04-04T13:25:44.392Z</time></trkpt><trkpt lat="45.2869148" lon="8.4114303"><ele>126.0</ele><time>2026-04-04T13:25:46.389Z</time></trkpt><trkpt lat="45.2870193" lon="8.411425"><ele>126.0</ele><time>2026-04-04T13:25:48.393Z</time></trkpt><trkpt lat="45.2871214" lon="8.4114128"><ele>126.0</ele><time>2026-04-04T13:25:50.403Z</time></trkpt><trkpt lat="45.2872236" lon="8.4114019"><ele>126.0</ele><time>2026-04-04T13:25:52.401Z</time></trkpt><trkpt lat="45.2873243" lon="8.4113873"><ele>126.0</ele><time>2026-04-04T13:25:54.405Z</time></trkpt><trkpt lat="45.2874275" lon="8.4113792"><ele>125.8</ele><time>2026-04-04T13:25:56.394Z</time></trkpt><trkpt lat="45.2875352" lon="8.4113702"><ele>125.6</ele><time>2026-04-04T13:25:58.393Z</time></trkpt><trkpt lat="45.2876338" lon="8.4113624"><ele>125.4</ele><time>2026-04-04T13:26:00.392Z</time></trkpt><trkpt lat="45.2877361" lon="8.41136"><ele>125.2</ele><time>2026-04-04T13:26:02.394Z</time></trkpt><trkpt lat="45.2878433" lon="8.4113474"><ele>125.0</ele><time>2026-04-04T13:26:04.387Z</time></trkpt><trkpt lat="45.2879586" lon="8.4113315"><ele>125.0</ele><time>2026-04-04T13:26:06.39Z</time></trkpt><trkpt lat="45.2880716" lon="8.4113325"><ele>125.0</ele><time>2026-04-04T13:26:08.398Z</time></trkpt><trkpt lat="45.2881867" lon="8.4113218"><ele>125.0</ele><time>2026-04-04T13:26:10.404Z</time></trkpt><trkpt lat="45.2882919" lon="8.4113124"><ele>125.0</ele><time>2026-04-04T13:26:12.394Z</time></trkpt><trkpt lat="45.2883955" lon="8.4113021"><ele>125.0</ele><time>2026-04-04T13:26:14.397Z</time></trkpt><trkpt lat="45.2885072" lon="8.4112939"><ele>125.2</ele><time>2026-04-04T13:26:16.39Z</time></trkpt><trkpt lat="45.2886156" lon="8.4112848"><ele>125.4</ele><time>2026-04-04T13:26:18.404Z</time></trkpt><trkpt lat="45.2887238" lon="8.4112774"><ele>125.6</ele><time>2026-04-04T13:26:20.388Z</time></trkpt><trkpt lat="45.2888361" lon="8.4112669"><ele>125.8</ele><time>2026-04-04T13:26:22.396Z</time></trkpt><trkpt lat="45.2889445" lon="8.4112584"><ele>126.0</ele><time>2026-04-04T13:26:24.386Z</time></trkpt><trkpt lat="45.2890531" lon="8.4112481"><ele>126.0</ele><time>2026-04-04T13:26:26.393Z</time></trkpt><trkpt lat="45.2891626" lon="8.4112377"><ele>126.0</ele><time>2026-04-04T13:26:28.392Z</time></trkpt><trkpt lat="45.2892704" lon="8.4112323"><ele>126.0</ele><time>2026-04-04T13:26:30.396Z</time></trkpt><trkpt lat="45.2893819" lon="8.4112215"><ele>126.0</ele><time>2026-04-04T13:26:32.39Z</time></trkpt><trkpt lat="45.2894847" lon="8.4112125"><ele>126.0</ele><time>2026-04-04T13:26:34.387Z</time></trkpt><trkpt lat="45.2895916" lon="8.4112019"><ele>126.0</ele><time>2026-04-04T13:26:36.386Z</time></trkpt><trkpt lat="45.2896972" lon="8.4111942"><ele>126.0</ele><time>2026-04-04T13:26:38.388Z</time></trkpt><trkpt lat="45.2898009" lon="8.4111968"><ele>126.0</ele><time>2026-04-04T13:26:40.388Z</time></trkpt><trkpt lat="45.2898998" lon="8.4111896"><ele>126.0</ele><time>2026-04-04T13:26:42.394Z</time></trkpt><trkpt lat="45.2900033" lon="8.4111811"><ele>126.0</ele><time>2026-04-04T13:26:44.392Z</time></trkpt><trkpt lat="45.2901093" lon="8.4111784"><ele>126.0</ele><time>2026-04-04T13:26:46.392Z</time></trkpt><trkpt lat="45.2902069" lon="8.4111647"><ele>126.0</ele><time>2026-04-04T13:26:48.393Z</time></trkpt><trkpt lat="45.2903164" lon="8.411157"><ele>126.0</ele><time>2026-04-04T13:26:50.39Z</time></trkpt><trkpt lat="45.2904224" lon="8.4111463"><ele>126.0</ele><time>2026-04-04T13:26:52.39Z</time></trkpt><trkpt lat="45.2905346" lon="8.4111342"><ele>126.0</ele><time>2026-04-04T13:26:54.39Z</time></trkpt><trkpt lat="45.2906463" lon="8.4111299"><ele>125.8</ele><time>2026-04-04T13:26:56.392Z</time></trkpt><trkpt lat="45.2907586" lon="8.411125"><ele>125.6</ele><time>2026-04-04T13:26:58.396Z</time></trkpt><trkpt lat="45.2908689" lon="8.4111178"><ele>125.4</ele><time>2026-04-04T13:27:00.388Z</time></trkpt><trkpt lat="45.2909782" lon="8.4111154"><ele>125.2</ele><time>2026-04-04T13:27:02.389Z</time></trkpt><trkpt lat="45.2910875" lon="8.4110995"><ele>125.0</ele><time>2026-04-04T13:27:04.389Z</time></trkpt><trkpt lat="45.2911966" lon="8.4110937"><ele>125.0</ele><time>2026-04-04T13:27:06.389Z</time></trkpt><trkpt lat="45.2913026" lon="8.4110818"><ele>125.0</ele><time>2026-04-04T13:27:08.391Z</time></trkpt><trkpt lat="45.291397" lon="8.4110789"><ele>125.0</ele><time>2026-04-04T13:27:10.389Z</time></trkpt><trkpt lat="45.2915041" lon="8.411072"><ele>125.0</ele><time>2026-04-04T13:27:12.385Z</time></trkpt><trkpt lat="45.2916055" lon="8.4110602"><ele>125.0</ele><time>2026-04-04T13:27:14.388Z</time></trkpt><trkpt lat="45.2916994" lon="8.4110525"><ele>124.99999999999999</ele><time>2026-04-04T13:27:16.388Z</time></trkpt><trkpt lat="45.2917939" lon="8.4110485"><ele>125.0</ele><time>2026-04-04T13:27:18.384Z</time></trkpt><trkpt lat="45.2918886" lon="8.4110401"><ele>125.0</ele><time>2026-04-04T13:27:20.391Z</time></trkpt><trkpt lat="45.2919736" lon="8.4110421"><ele>125.0</ele><time>2026-04-04T13:27:22.386Z</time></trkpt><trkpt lat="45.2920619" lon="8.4110305"><ele>124.99999999999999</ele><time>2026-04-04T13:27:24.392Z</time></trkpt><trkpt lat="45.2921263" lon="8.4110311"><ele>125.0</ele><time>2026-04-04T13:27:26.387Z</time></trkpt><trkpt lat="45.292193" lon="8.41103"><ele>124.99999999999999</ele><time>2026-04-04T13:28:13.394Z</time></trkpt><trkpt lat="45.292256" lon="8.4110207"><ele>125.0</ele><time>2026-04-04T13:28:16.386Z</time></trkpt><trkpt lat="45.2923345" lon="8.4110131"><ele>125.0</ele><time>2026-04-04T13:28:19.388Z</time></trkpt><trkpt lat="45.2924241" lon="8.4110096"><ele>125.0</ele><time>2026-04-04T13:28:22.391Z</time></trkpt><trkpt lat="45.2924902" lon="8.4110062"><ele>124.99999999999999</ele><time>2026-04-04T13:28:24.388Z</time></trkpt><trkpt lat="45.2925568" lon="8.411001"><ele>125.0</ele><time>2026-04-04T13:28:26.384Z</time></trkpt><trkpt lat="45.2926474" lon="8.4109944"><ele>124.99999999999999</ele><time>2026-04-04T13:28:29.394Z</time></trkpt><trkpt lat="45.2927409" lon="8.4109858"><ele>125.0</ele><time>2026-04-04T13:28:32.385Z</time></trkpt><trkpt lat="45.2928087" lon="8.4109844"><ele>125.0</ele><time>2026-04-04T13:28:34.389Z</time></trkpt><trkpt lat="45.2928791" lon="8.4109787"><ele>125.0</ele><time>2026-04-04T13:28:36.391Z</time></trkpt><trkpt lat="45.2929511" lon="8.4109717"><ele>124.99999999999999</ele><time>2026-04-04T13:28:38.387Z</time></trkpt><trkpt lat="45.2930253" lon="8.4109715"><ele>125.0</ele><time>2026-04-04T13:28:40.389Z</time></trkpt><trkpt lat="45.2931027" lon="8.4109685"><ele>125.16666666666666</ele><time>2026-04-04T13:28:42.388Z</time></trkpt><trkpt lat="45.2931789" lon="8.4109706"><ele>125.33333333333333</ele><time>2026-04-04T13:28:44.39Z</time></trkpt><trkpt lat="45.2932592" lon="8.410965"><ele>125.5</ele><time>2026-04-04T13:28:46.387Z</time></trkpt><trkpt lat="45.2933362" lon="8.4109598"><ele>125.66666666666666</ele><time>2026-04-04T13:28:48.387Z</time></trkpt><trkpt lat="45.2934125" lon="8.410952"><ele>125.83333333333333</ele><time>2026-04-04T13:28:50.388Z</time></trkpt><trkpt lat="45.2934858" lon="8.4109473"><ele>126.0</ele><time>2026-04-04T13:28:52.407Z</time></trkpt><trkpt lat="45.2935578" lon="8.4109435"><ele>126.0</ele><time>2026-04-04T13:28:54.387Z</time></trkpt><trkpt lat="45.2936298" lon="8.4109391"><ele>126.0</ele><time>2026-04-04T13:28:56.396Z</time></trkpt><trkpt lat="45.2937104" lon="8.4109303"><ele>126.0</ele><time>2026-04-04T13:28:58.403Z</time></trkpt><trkpt lat="45.2937933" lon="8.4109204"><ele>126.0</ele><time>2026-04-04T13:29:00.385Z</time></trkpt><trkpt lat="45.2938785" lon="8.4109065"><ele>126.0</ele><time>2026-04-04T13:29:02.388Z</time></trkpt><trkpt lat="45.2939625" lon="8.4108982"><ele>126.0</ele><time>2026-04-04T13:29:04.388Z</time></trkpt><trkpt lat="45.2940471" lon="8.4108984"><ele>125.83333333333333</ele><time>2026-04-04T13:29:06.385Z</time></trkpt><trkpt lat="45.2941309" lon="8.4108868"><ele>125.66666666666666</ele><time>2026-04-04T13:29:08.387Z</time></trkpt><trkpt lat="45.2942172" lon="8.4108781"><ele>125.5</ele><time>2026-04-04T13:29:10.389Z</time></trkpt><trkpt lat="45.294305" lon="8.4108753"><ele>125.33333333333333</ele><time>2026-04-04T13:29:12.386Z</time></trkpt><trkpt lat="45.2943852" lon="8.4108919"><ele>125.16666666666666</ele><time>2026-04-04T13:29:14.385Z</time></trkpt><trkpt lat="45.2944657" lon="8.4108971"><ele>125.0</ele><time>2026-04-04T13:29:16.391Z</time></trkpt><trkpt lat="45.2945512" lon="8.4109009"><ele>124.99999999999999</ele><time>2026-04-04T13:29:18.392Z</time></trkpt><trkpt lat="45.2946352" lon="8.4108993"><ele>125.0</ele><time>2026-04-04T13:29:20.391Z</time></trkpt><trkpt lat="45.2947131" lon="8.4108949"><ele>125.0</ele><time>2026-04-04T13:29:22.394Z</time></trkpt><trkpt lat="45.2947867" lon="8.4109028"><ele>125.0</ele><time>2026-04-04T13:29:24.387Z</time></trkpt><trkpt lat="45.2948613" lon="8.4108982"><ele>124.99999999999999</ele><time>2026-04-04T13:29:26.388Z</time></trkpt><trkpt lat="45.2949459" lon="8.4108986"><ele>125.0</ele><time>2026-04-04T13:29:28.389Z</time></trkpt><trkpt lat="45.2950272" lon="8.4108982"><ele>124.83333333333333</ele><time>2026-04-04T13:29:30.391Z</time></trkpt><trkpt lat="45.2951085" lon="8.4109056"><ele>124.66666666666666</ele><time>2026-04-04T13:29:32.388Z</time></trkpt><trkpt lat="45.2951871" lon="8.4109133"><ele>124.5</ele><time>2026-04-04T13:29:34.386Z</time></trkpt><trkpt lat="45.2952661" lon="8.410916"><ele>124.33333333333334</ele><time>2026-04-04T13:29:36.395Z</time></trkpt><trkpt lat="45.2953408" lon="8.4108878"><ele>124.16666666666667</ele><time>2026-04-04T13:29:38.395Z</time></trkpt><trkpt lat="45.2954091" lon="8.4108225"><ele>124.0</ele><time>2026-04-04T13:29:40.388Z</time></trkpt><trkpt lat="45.2954773" lon="8.4107554"><ele>124.00000000000001</ele><time>2026-04-04T13:29:42.39Z</time></trkpt><trkpt lat="45.2955509" lon="8.4106999"><ele>124.0</ele><time>2026-04-04T13:29:44.389Z</time></trkpt><trkpt lat="45.2956246" lon="8.4106505"><ele>124.0</ele><time>2026-04-04T13:29:46.389Z</time></trkpt><trkpt lat="45.2956911" lon="8.4105838"><ele>124.0</ele><time>2026-04-04T13:29:48.389Z</time></trkpt><trkpt lat="45.2957479" lon="8.410506"><ele>124.00000000000001</ele><time>2026-04-04T13:29:50.389Z</time></trkpt><trkpt lat="45.2957907" lon="8.4104277"><ele>124.0</ele><time>2026-04-04T13:29:52.386Z</time></trkpt><trkpt lat="45.2957989" lon="8.4103293"><ele>124.16666666666667</ele><time>2026-04-04T13:29:54.388Z</time></trkpt><trkpt lat="45.2957919" lon="8.4102179"><ele>124.33333333333334</ele><time>2026-04-04T13:29:56.391Z</time></trkpt><trkpt lat="45.2958447" lon="8.4101359"><ele>124.5</ele><time>2026-04-04T13:29:58.39Z</time></trkpt><trkpt lat="45.295915" lon="8.4100716"><ele>124.66666666666666</ele><time>2026-04-04T13:30:00.387Z</time></trkpt><trkpt lat="45.2959904" lon="8.4100098"><ele>124.83333333333333</ele><time>2026-04-04T13:30:02.392Z</time></trkpt><trkpt lat="45.2960686" lon="8.4099536"><ele>125.0</ele><time>2026-04-04T13:30:04.402Z</time></trkpt><trkpt lat="45.2961457" lon="8.4098937"><ele>125.0</ele><time>2026-04-04T13:30:06.403Z</time></trkpt><trkpt lat="45.2962279" lon="8.4098327"><ele>125.0</ele><time>2026-04-04T13:30:08.389Z</time></trkpt><trkpt lat="45.2963218" lon="8.4097824"><ele>125.0</ele><time>2026-04-04T13:30:10.389Z</time></trkpt><trkpt lat="45.2964052" lon="8.409717"><ele>125.0</ele><time>2026-04-04T13:30:12.39Z</time></trkpt><trkpt lat="45.2964922" lon="8.4096492"><ele>125.0</ele><time>2026-04-04T13:30:14.402Z</time></trkpt><trkpt lat="45.2965845" lon="8.4095693"><ele>125.0</ele><time>2026-04-04T13:30:16.392Z</time></trkpt><trkpt lat="45.2966768" lon="8.4095013"><ele>125.0</ele><time>2026-04-04T13:30:18.386Z</time></trkpt><trkpt lat="45.2967634" lon="8.4094197"><ele>125.0</ele><time>2026-04-04T13:30:20.389Z</time></trkpt><trkpt lat="45.296849" lon="8.4093397"><ele>125.0</ele><time>2026-04-04T13:30:22.393Z</time></trkpt><trkpt lat="45.2969417" lon="8.4092722"><ele>125.0</ele><time>2026-04-04T13:30:24.387Z</time></trkpt><trkpt lat="45.2970318" lon="8.409196"><ele>125.0</ele><time>2026-04-04T13:30:26.386Z</time></trkpt><trkpt lat="45.2971267" lon="8.4091208"><ele>125.0</ele><time>2026-04-04T13:30:28.39Z</time></trkpt><trkpt lat="45.2972175" lon="8.4090486"><ele>125.0</ele><time>2026-04-04T13:30:30.386Z</time></trkpt><trkpt lat="45.2973101" lon="8.4089734"><ele>125.0</ele><time>2026-04-04T13:30:32.391Z</time></trkpt><trkpt lat="45.2974046" lon="8.4088946"><ele>125.0</ele><time>2026-04-04T13:30:34.392Z</time></trkpt><trkpt lat="45.2974942" lon="8.408815"><ele>125.0</ele><time>2026-04-04T13:30:36.384Z</time></trkpt><trkpt lat="45.2975901" lon="8.408746"><ele>125.0</ele><time>2026-04-04T13:30:38.392Z</time></trkpt><trkpt lat="45.2976839" lon="8.4086964"><ele>125.0</ele><time>2026-04-04T13:30:40.384Z</time></trkpt><trkpt lat="45.2977488" lon="8.4086135"><ele>125.0</ele><time>2026-04-04T13:30:42.388Z</time></trkpt><trkpt lat="45.297821" lon="8.4085333"><ele>125.0</ele><time>2026-04-04T13:30:44.388Z</time></trkpt><trkpt lat="45.2978828" lon="8.4084438"><ele>125.0</ele><time>2026-04-04T13:30:46.399Z</time></trkpt><trkpt lat="45.2979361" lon="8.4083077"><ele>125.0</ele><time>2026-04-04T13:30:48.406Z</time></trkpt><trkpt lat="45.2979708" lon="8.408165"><ele>125.0</ele><time>2026-04-04T13:30:50.387Z</time></trkpt><trkpt lat="45.2980156" lon="8.4080326"><ele>125.0</ele><time>2026-04-04T13:30:52.385Z</time></trkpt><trkpt lat="45.2980584" lon="8.4078797"><ele>125.0</ele><time>2026-04-04T13:30:54.396Z</time></trkpt><trkpt lat="45.2980963" lon="8.407739"><ele>124.8</ele><time>2026-04-04T13:30:56.382Z</time></trkpt><trkpt lat="45.2981343" lon="8.4076009"><ele>124.6</ele><time>2026-04-04T13:30:58.383Z</time></trkpt><trkpt lat="45.2981772" lon="8.4074647"><ele>124.4</ele><time>2026-04-04T13:31:00.39Z</time></trkpt><trkpt lat="45.2982163" lon="8.407322"><ele>124.2</ele><time>2026-04-04T13:31:02.39Z</time></trkpt><trkpt lat="45.2982538" lon="8.4071756"><ele>124.0</ele><time>2026-04-04T13:31:04.394Z</time></trkpt><trkpt lat="45.2982964" lon="8.4070222"><ele>124.0</ele><time>2026-04-04T13:31:06.39Z</time></trkpt><trkpt lat="45.2983399" lon="8.4068651"><ele>124.0</ele><time>2026-04-04T13:31:08.385Z</time></trkpt><trkpt lat="45.2983883" lon="8.4067178"><ele>124.0</ele><time>2026-04-04T13:31:10.389Z</time></trkpt><trkpt lat="45.2984366" lon="8.4065549"><ele>124.0</ele><time>2026-04-04T13:31:12.397Z</time></trkpt><trkpt lat="45.29848" lon="8.4063979"><ele>124.0</ele><time>2026-04-04T13:31:14.393Z</time></trkpt><trkpt lat="45.2985263" lon="8.4062384"><ele>124.0</ele><time>2026-04-04T13:31:16.41Z</time></trkpt><trkpt lat="45.2985707" lon="8.4060864"><ele>124.0</ele><time>2026-04-04T13:31:18.394Z</time></trkpt><trkpt lat="45.2986146" lon="8.4059295"><ele>124.0</ele><time>2026-04-04T13:31:20.396Z</time></trkpt><trkpt lat="45.2986629" lon="8.4057895"><ele>124.0</ele><time>2026-04-04T13:31:22.392Z</time></trkpt><trkpt lat="45.2987132" lon="8.4056539"><ele>124.0</ele><time>2026-04-04T13:31:24.394Z</time></trkpt><trkpt lat="45.2987635" lon="8.4055454"><ele>124.0</ele><time>2026-04-04T13:31:26.393Z</time></trkpt><trkpt lat="45.2988366" lon="8.405523"><ele>124.0</ele><time>2026-04-04T13:31:28.39Z</time></trkpt><trkpt lat="45.2989173" lon="8.4055744"><ele>124.0</ele><time>2026-04-04T13:31:30.395Z</time></trkpt><trkpt lat="45.2990019" lon="8.4056234"><ele>124.4</ele><time>2026-04-04T13:31:32.388Z</time></trkpt><trkpt lat="45.2990935" lon="8.4056834"><ele>124.80000000000001</ele><time>2026-04-04T13:31:34.389Z</time></trkpt><trkpt lat="45.299184" lon="8.4057328"><ele>125.19999999999999</ele><time>2026-04-04T13:31:36.394Z</time></trkpt><trkpt lat="45.2992715" lon="8.40579"><ele>125.6</ele><time>2026-04-04T13:31:38.388Z</time></trkpt><trkpt lat="45.2993623" lon="8.4058408"><ele>126.0</ele><time>2026-04-04T13:31:40.39Z</time></trkpt><trkpt lat="45.299461" lon="8.4058974"><ele>126.0</ele><time>2026-04-04T13:31:42.394Z</time></trkpt><trkpt lat="45.2995595" lon="8.4059506"><ele>126.0</ele><time>2026-04-04T13:31:44.39Z</time></trkpt><trkpt lat="45.2996527" lon="8.4060139"><ele>126.0</ele><time>2026-04-04T13:31:46.388Z</time></trkpt><trkpt lat="45.2997547" lon="8.4060721"><ele>126.0</ele><time>2026-04-04T13:31:48.39Z</time></trkpt><trkpt lat="45.2998522" lon="8.4061267"><ele>126.0</ele><time>2026-04-04T13:31:50.398Z</time></trkpt><trkpt lat="45.2999555" lon="8.4061847"><ele>126.19999999999999</ele><time>2026-04-04T13:31:52.387Z</time></trkpt><trkpt lat="45.3000553" lon="8.4062414"><ele>126.39999999999999</ele><time>2026-04-04T13:31:54.392Z</time></trkpt><trkpt lat="45.3001537" lon="8.4062973"><ele>126.6</ele><time>2026-04-04T13:31:56.4Z</time></trkpt><trkpt lat="45.3002543" lon="8.4063555"><ele>126.8</ele><time>2026-04-04T13:31:58.391Z</time></trkpt><trkpt lat="45.3003573" lon="8.4064159"><ele>127.0</ele><time>2026-04-04T13:32:00.389Z</time></trkpt><trkpt lat="45.3004538" lon="8.4064797"><ele>127.19999999999999</ele><time>2026-04-04T13:32:02.389Z</time></trkpt><trkpt lat="45.3005508" lon="8.406536"><ele>127.39999999999999</ele><time>2026-04-04T13:32:04.39Z</time></trkpt><trkpt lat="45.3006458" lon="8.4065848"><ele>127.60000000000001</ele><time>2026-04-04T13:32:06.387Z</time></trkpt><trkpt lat="45.3007285" lon="8.4066385"><ele>127.80000000000001</ele><time>2026-04-04T13:32:08.39Z</time></trkpt><trkpt lat="45.3008041" lon="8.4066783"><ele>128.0</ele><time>2026-04-04T13:32:10.388Z</time></trkpt><trkpt lat="45.3008819" lon="8.4067166"><ele>128.0</ele><time>2026-04-04T13:32:12.385Z</time></trkpt><trkpt lat="45.3009751" lon="8.406711"><ele>128.0</ele><time>2026-04-04T13:32:14.388Z</time></trkpt><trkpt lat="45.301055" lon="8.4066451"><ele>128.0</ele><time>2026-04-04T13:32:16.387Z</time></trkpt><trkpt lat="45.3011189" lon="8.4065409"><ele>128.0</ele><time>2026-04-04T13:32:18.388Z</time></trkpt><trkpt lat="45.3011837" lon="8.406431"><ele>128.0</ele><time>2026-04-04T13:32:20.387Z</time></trkpt><trkpt lat="45.301249" lon="8.406311"><ele>128.0</ele><time>2026-04-04T13:32:22.385Z</time></trkpt><trkpt lat="45.3013164" lon="8.4061913"><ele>128.0</ele><time>2026-04-04T13:32:24.389Z</time></trkpt><trkpt lat="45.3013826" lon="8.4060697"><ele>128.0</ele><time>2026-04-04T13:32:26.395Z</time></trkpt><trkpt lat="45.3014522" lon="8.4059439"><ele>128.0</ele><time>2026-04-04T13:32:28.384Z</time></trkpt><trkpt lat="45.3015289" lon="8.4058202"><ele>128.0</ele><time>2026-04-04T13:32:30.393Z</time></trkpt><trkpt lat="45.3016044" lon="8.4056965"><ele>128.0</ele><time>2026-04-04T13:32:32.386Z</time></trkpt><trkpt lat="45.3016777" lon="8.4055618"><ele>128.0</ele><time>2026-04-04T13:32:34.385Z</time></trkpt><trkpt lat="45.3017558" lon="8.405433"><ele>128.0</ele><time>2026-04-04T13:32:36.384Z</time></trkpt><trkpt lat="45.3018326" lon="8.4052993"><ele>128.0</ele><time>2026-04-04T13:32:38.396Z</time></trkpt><trkpt lat="45.3019115" lon="8.4051689"><ele>128.0</ele><time>2026-04-04T13:32:40.388Z</time></trkpt><trkpt lat="45.3019869" lon="8.40503"><ele>128.0</ele><time>2026-04-04T13:32:42.387Z</time></trkpt><trkpt lat="45.3020717" lon="8.4049041"><ele>128.0</ele><time>2026-04-04T13:32:44.39Z</time></trkpt><trkpt lat="45.3021473" lon="8.4047653"><ele>128.0</ele><time>2026-04-04T13:32:46.392Z</time></trkpt><trkpt lat="45.3021871" lon="8.4046958"><ele>128.0</ele><time>2026-04-04T13:32:47.392Z</time></trkpt><trkpt lat="45.3022627" lon="8.4045651"><ele>128.0</ele><time>2026-04-04T13:32:49.387Z</time></trkpt><trkpt lat="45.3023351" lon="8.4044255"><ele>128.0</ele><time>2026-04-04T13:32:51.391Z</time></trkpt><trkpt lat="45.3024119" lon="8.4042882"><ele>128.0</ele><time>2026-04-04T13:32:53.386Z</time></trkpt><trkpt lat="45.3024862" lon="8.4041551"><ele>128.0</ele><time>2026-04-04T13:32:55.39Z</time></trkpt><trkpt lat="45.3025596" lon="8.4040176"><ele>128.0</ele><time>2026-04-04T13:32:57.391Z</time></trkpt><trkpt lat="45.3026026" lon="8.4039514"><ele>128.0</ele><time>2026-04-04T13:32:58.4Z</time></trkpt><trkpt lat="45.3026777" lon="8.4038148"><ele>128.0</ele><time>2026-04-04T13:33:00.388Z</time></trkpt><trkpt lat="45.3027519" lon="8.4036821"><ele>128.0</ele><time>2026-04-04T13:33:02.391Z</time></trkpt><trkpt lat="45.3028249" lon="8.4035509"><ele>128.0</ele><time>2026-04-04T13:33:04.387Z</time></trkpt><trkpt lat="45.3029053" lon="8.4034234"><ele>128.0</ele><time>2026-04-04T13:33:06.388Z</time></trkpt><trkpt lat="45.3029806" lon="8.4032875"><ele>128.0</ele><time>2026-04-04T13:33:08.39Z</time></trkpt><trkpt lat="45.3030535" lon="8.4031525"><ele>128.0</ele><time>2026-04-04T13:33:10.39Z</time></trkpt><trkpt lat="45.3031311" lon="8.4030105"><ele>128.0</ele><time>2026-04-04T13:33:12.393Z</time></trkpt><trkpt lat="45.3032085" lon="8.4028746"><ele>127.83333333333333</ele><time>2026-04-04T13:33:14.391Z</time></trkpt><trkpt lat="45.3032469" lon="8.4028035"><ele>127.66666666666666</ele><time>2026-04-04T13:33:15.389Z</time></trkpt><trkpt lat="45.3032844" lon="8.4027294"><ele>127.5</ele><time>2026-04-04T13:33:16.391Z</time></trkpt><trkpt lat="45.3033626" lon="8.4025862"><ele>127.33333333333334</ele><time>2026-04-04T13:33:18.39Z</time></trkpt><trkpt lat="45.3034445" lon="8.4024471"><ele>127.16666666666667</ele><time>2026-04-04T13:33:20.383Z</time></trkpt><trkpt lat="45.3034859" lon="8.4023772"><ele>127.0</ele><time>2026-04-04T13:33:21.392Z</time></trkpt><trkpt lat="45.3035725" lon="8.4022388"><ele>127.19999999999999</ele><time>2026-04-04T13:33:23.391Z</time></trkpt><trkpt lat="45.3036485" lon="8.402099"><ele>127.39999999999999</ele><time>2026-04-04T13:33:25.39Z</time></trkpt><trkpt lat="45.3036894" lon="8.4020291"><ele>127.60000000000001</ele><time>2026-04-04T13:33:26.384Z</time></trkpt><trkpt lat="45.303761" lon="8.4018918"><ele>127.80000000000001</ele><time>2026-04-04T13:33:28.385Z</time></trkpt><trkpt lat="45.3038342" lon="8.4017588"><ele>128.0</ele><time>2026-04-04T13:33:30.387Z</time></trkpt><trkpt lat="45.3038762" lon="8.4016915"><ele>127.99999999999999</ele><time>2026-04-04T13:33:31.393Z</time></trkpt><trkpt lat="45.3039563" lon="8.4015551"><ele>128.0</ele><time>2026-04-04T13:33:33.387Z</time></trkpt><trkpt lat="45.3040006" lon="8.4014856"><ele>128.0</ele><time>2026-04-04T13:33:34.389Z</time></trkpt><trkpt lat="45.3040425" lon="8.4014182"><ele>128.0</ele><time>2026-04-04T13:33:35.393Z</time></trkpt><trkpt lat="45.3041162" lon="8.4012816"><ele>127.99999999999999</ele><time>2026-04-04T13:33:37.389Z</time></trkpt><trkpt lat="45.3041566" lon="8.4012091"><ele>128.0</ele><time>2026-04-04T13:33:38.391Z</time></trkpt><trkpt lat="45.3041954" lon="8.4011378"><ele>127.99999999999999</ele><time>2026-04-04T13:33:39.388Z</time></trkpt><trkpt lat="45.3042739" lon="8.4009989"><ele>128.0</ele><time>2026-04-04T13:33:41.388Z</time></trkpt><trkpt lat="45.3043148" lon="8.4009305"><ele>128.0</ele><time>2026-04-04T13:33:42.394Z</time></trkpt><trkpt lat="45.3043547" lon="8.4008574"><ele>128.0</ele><time>2026-04-04T13:33:43.385Z</time></trkpt><trkpt lat="45.3044376" lon="8.4007187"><ele>127.99999999999999</ele><time>2026-04-04T13:33:45.384Z</time></trkpt><trkpt lat="45.3044807" lon="8.4006519"><ele>128.0</ele><time>2026-04-04T13:33:46.4Z</time></trkpt><trkpt lat="45.3045567" lon="8.4005136"><ele>128.25</ele><time>2026-04-04T13:33:48.396Z</time></trkpt><trkpt lat="45.3046305" lon="8.4003781"><ele>128.5</ele><time>2026-04-04T13:33:50.387Z</time></trkpt><trkpt lat="45.3047098" lon="8.4002436"><ele>128.75</ele><time>2026-04-04T13:33:52.385Z</time></trkpt><trkpt lat="45.3047804" lon="8.4001094"><ele>129.0</ele><time>2026-04-04T13:33:54.397Z</time></trkpt><trkpt lat="45.304858" lon="8.3999759"><ele>129.0</ele><time>2026-04-04T13:33:56.401Z</time></trkpt><trkpt lat="45.3049307" lon="8.3998472"><ele>129.0</ele><time>2026-04-04T13:33:58.402Z</time></trkpt><trkpt lat="45.3050013" lon="8.3997097"><ele>129.0</ele><time>2026-04-04T13:34:00.389Z</time></trkpt><trkpt lat="45.3050719" lon="8.3995808"><ele>129.0</ele><time>2026-04-04T13:34:02.386Z</time></trkpt><trkpt lat="45.305145" lon="8.3994462"><ele>129.0</ele><time>2026-04-04T13:34:04.388Z</time></trkpt><trkpt lat="45.3052158" lon="8.3993138"><ele>129.0</ele><time>2026-04-04T13:34:06.387Z</time></trkpt><trkpt lat="45.3052906" lon="8.3991846"><ele>129.0</ele><time>2026-04-04T13:34:08.4Z</time></trkpt><trkpt lat="45.3053679" lon="8.3990628"><ele>129.0</ele><time>2026-04-04T13:34:10.387Z</time></trkpt><trkpt lat="45.3054421" lon="8.3989475"><ele>129.0</ele><time>2026-04-04T13:34:12.387Z</time></trkpt><trkpt lat="45.3055102" lon="8.398834"><ele>129.0</ele><time>2026-04-04T13:34:14.397Z</time></trkpt><trkpt lat="45.3055733" lon="8.398728"><ele>129.0</ele><time>2026-04-04T13:34:16.391Z</time></trkpt><trkpt lat="45.3056257" lon="8.3986435"><ele>129.0</ele><time>2026-04-04T13:34:18.394Z</time></trkpt><trkpt lat="45.3056813" lon="8.3985861"><ele>129.0</ele><time>2026-04-04T13:34:21.385Z</time></trkpt><trkpt lat="45.3056684" lon="8.3984888"><ele>129.0</ele><time>2026-04-04T13:35:10.387Z</time></trkpt><trkpt lat="45.3057313" lon="8.3984516"><ele>128.99999999999997</ele><time>2026-04-04T13:35:14.383Z</time></trkpt><trkpt lat="45.3058022" lon="8.3984811"><ele>129.0</ele><time>2026-04-04T13:35:18.388Z</time></trkpt><trkpt lat="45.3058619" lon="8.3985416"><ele>129.0</ele><time>2026-04-04T13:35:21.387Z</time></trkpt><trkpt lat="45.3059303" lon="8.3986203"><ele>129.0</ele><time>2026-04-04T13:35:24.386Z</time></trkpt><trkpt lat="45.3059809" lon="8.3986804"><ele>129.0</ele><time>2026-04-04T13:35:26.384Z</time></trkpt><trkpt lat="45.3060372" lon="8.3987436"><ele>128.99999999999997</ele><time>2026-04-04T13:35:28.386Z</time></trkpt><trkpt lat="45.306097" lon="8.3988115"><ele>129.0</ele><time>2026-04-04T13:35:30.389Z</time></trkpt><trkpt lat="45.3061617" lon="8.3988805"><ele>129.0</ele><time>2026-04-04T13:35:32.389Z</time></trkpt><trkpt lat="45.3062258" lon="8.3989554"><ele>129.0</ele><time>2026-04-04T13:35:34.388Z</time></trkpt><trkpt lat="45.3062933" lon="8.3990257"><ele>129.0</ele><time>2026-04-04T13:35:36.388Z</time></trkpt><trkpt lat="45.3063604" lon="8.399096"><ele>129.0</ele><time>2026-04-04T13:35:38.386Z</time></trkpt><trkpt lat="45.3064223" lon="8.39917"><ele>129.0</ele><time>2026-04-04T13:35:40.387Z</time></trkpt><trkpt lat="45.3064797" lon="8.3992451"><ele>129.0</ele><time>2026-04-04T13:35:42.388Z</time></trkpt><trkpt lat="45.3065391" lon="8.3993164"><ele>129.2</ele><time>2026-04-04T13:35:44.391Z</time></trkpt><trkpt lat="45.3065992" lon="8.3993865"><ele>129.4</ele><time>2026-04-04T13:35:46.396Z</time></trkpt><trkpt lat="45.3066701" lon="8.3994545"><ele>129.6</ele><time>2026-04-04T13:35:48.384Z</time></trkpt><trkpt lat="45.3067501" lon="8.3995271"><ele>129.8</ele><time>2026-04-04T13:35:50.385Z</time></trkpt><trkpt lat="45.3068316" lon="8.3996015"><ele>130.0</ele><time>2026-04-04T13:35:52.388Z</time></trkpt><trkpt lat="45.3069103" lon="8.3996782"><ele>130.0</ele><time>2026-04-04T13:35:54.395Z</time></trkpt><trkpt lat="45.3069975" lon="8.3997594"><ele>130.0</ele><time>2026-04-04T13:35:56.393Z</time></trkpt><trkpt lat="45.3070786" lon="8.3998529"><ele>130.0</ele><time>2026-04-04T13:35:58.385Z</time></trkpt><trkpt lat="45.3071622" lon="8.3999557"><ele>130.0</ele><time>2026-04-04T13:36:00.389Z</time></trkpt><trkpt lat="45.3072437" lon="8.4000505"><ele>130.0</ele><time>2026-04-04T13:36:02.382Z</time></trkpt><trkpt lat="45.3073378" lon="8.400139"><ele>129.8</ele><time>2026-04-04T13:36:04.389Z</time></trkpt><trkpt lat="45.3074237" lon="8.4002409"><ele>129.6</ele><time>2026-04-04T13:36:06.391Z</time></trkpt><trkpt lat="45.3075075" lon="8.4003409"><ele>129.4</ele><time>2026-04-04T13:36:08.383Z</time></trkpt><trkpt lat="45.3075931" lon="8.4004306"><ele>129.2</ele><time>2026-04-04T13:36:10.389Z</time></trkpt><trkpt lat="45.3076696" lon="8.4005069"><ele>129.0</ele><time>2026-04-04T13:36:12.384Z</time></trkpt><trkpt lat="45.3077291" lon="8.400589"><ele>129.0</ele><time>2026-04-04T13:36:14.385Z</time></trkpt><trkpt lat="45.3077898" lon="8.4006661"><ele>129.0</ele><time>2026-04-04T13:36:16.381Z</time></trkpt><trkpt lat="45.3078646" lon="8.4007379"><ele>129.0</ele><time>2026-04-04T13:36:18.385Z</time></trkpt><trkpt lat="45.3079332" lon="8.4008108"><ele>129.0</ele><time>2026-04-04T13:36:20.384Z</time></trkpt><trkpt lat="45.3079982" lon="8.4008902"><ele>129.0</ele><time>2026-04-04T13:36:22.387Z</time></trkpt><trkpt lat="45.3080683" lon="8.4009682"><ele>129.0</ele><time>2026-04-04T13:36:24.384Z</time></trkpt><trkpt lat="45.3081369" lon="8.401044"><ele>129.14285714285714</ele><time>2026-04-04T13:36:26.392Z</time></trkpt><trkpt lat="45.3081986" lon="8.4011159"><ele>129.28571428571428</ele><time>2026-04-04T13:36:28.384Z</time></trkpt><trkpt lat="45.3082562" lon="8.4011761"><ele>129.42857142857144</ele><time>2026-04-04T13:36:30.391Z</time></trkpt><trkpt lat="45.3083128" lon="8.4012353"><ele>129.57142857142856</ele><time>2026-04-04T13:36:32.389Z</time></trkpt><trkpt lat="45.3083673" lon="8.4012911"><ele>129.71428571428572</ele><time>2026-04-04T13:36:34.384Z</time></trkpt><trkpt lat="45.3084182" lon="8.4013457"><ele>129.85714285714286</ele><time>2026-04-04T13:36:36.391Z</time></trkpt><trkpt lat="45.3084676" lon="8.4014023"><ele>130.0</ele><time>2026-04-04T13:36:38.387Z</time></trkpt><trkpt lat="45.3085435" lon="8.401483"><ele>129.66666666666669</ele><time>2026-04-04T13:36:41.388Z</time></trkpt><trkpt lat="45.3085953" lon="8.4015423"><ele>129.33333333333334</ele><time>2026-04-04T13:36:43.385Z</time></trkpt><trkpt lat="45.3086534" lon="8.4016107"><ele>129.0</ele><time>2026-04-04T13:36:45.385Z</time></trkpt><trkpt lat="45.3087208" lon="8.4016786"><ele>128.66666666666666</ele><time>2026-04-04T13:36:47.392Z</time></trkpt><trkpt lat="45.3087936" lon="8.4017657"><ele>128.33333333333331</ele><time>2026-04-04T13:36:49.389Z</time></trkpt><trkpt lat="45.3088697" lon="8.4018501"><ele>128.0</ele><time>2026-04-04T13:36:51.396Z</time></trkpt><trkpt lat="45.308943" lon="8.4019537"><ele>128.0</ele><time>2026-04-04T13:36:53.385Z</time></trkpt><trkpt lat="45.3090279" lon="8.4020603"><ele>128.0</ele><time>2026-04-04T13:36:55.412Z</time></trkpt><trkpt lat="45.3091298" lon="8.4021696"><ele>128.0</ele><time>2026-04-04T13:36:57.389Z</time></trkpt><trkpt lat="45.3091825" lon="8.4022273"><ele>128.0</ele><time>2026-04-04T13:36:58.393Z</time></trkpt><trkpt lat="45.3092413" lon="8.4022894"><ele>128.0</ele><time>2026-04-04T13:36:59.392Z</time></trkpt><trkpt lat="45.3092969" lon="8.4023625"><ele>127.99999999999999</ele><time>2026-04-04T13:37:00.395Z</time></trkpt><trkpt lat="45.3093486" lon="8.4024426"><ele>128.0</ele><time>2026-04-04T13:37:01.393Z</time></trkpt><trkpt lat="45.3093842" lon="8.4025368"><ele>128.0</ele><time>2026-04-04T13:37:02.39Z</time></trkpt><trkpt lat="45.30941" lon="8.4026459"><ele>128.0</ele><time>2026-04-04T13:37:03.383Z</time></trkpt><trkpt lat="45.3094197" lon="8.4027639"><ele>127.99999999999999</ele><time>2026-04-04T13:37:04.387Z</time></trkpt><trkpt lat="45.3094157" lon="8.40288"><ele>128.0</ele><time>2026-04-04T13:37:05.391Z</time></trkpt><trkpt lat="45.3093953" lon="8.4029887"><ele>127.99999999999999</ele><time>2026-04-04T13:37:06.388Z</time></trkpt><trkpt lat="45.3093582" lon="8.4030851"><ele>128.0</ele><time>2026-04-04T13:37:07.392Z</time></trkpt><trkpt lat="45.3093061" lon="8.4031675"><ele>128.0</ele><time>2026-04-04T13:37:08.39Z</time></trkpt><trkpt lat="45.3092416" lon="8.403227"><ele>128.0</ele><time>2026-04-04T13:37:09.386Z</time></trkpt><trkpt lat="45.3091706" lon="8.4032707"><ele>127.99999999999999</ele><time>2026-04-04T13:37:10.39Z</time></trkpt><trkpt lat="45.3090972" lon="8.4032921"><ele>128.0</ele><time>2026-04-04T13:37:11.388Z</time></trkpt><trkpt lat="45.3090252" lon="8.4032983"><ele>127.99999999999999</ele><time>2026-04-04T13:37:12.389Z</time></trkpt><trkpt lat="45.3089613" lon="8.4032832"><ele>128.0</ele><time>2026-04-04T13:37:13.387Z</time></trkpt><trkpt lat="45.3088989" lon="8.4032527"><ele>128.0</ele><time>2026-04-04T13:37:14.388Z</time></trkpt><trkpt lat="45.3088407" lon="8.4032039"><ele>128.0</ele><time>2026-04-04T13:37:15.393Z</time></trkpt><trkpt lat="45.308786" lon="8.4031511"><ele>127.99999999999999</ele><time>2026-04-04T13:37:16.393Z</time></trkpt><trkpt lat="45.3086847" lon="8.4030415"><ele>128.0</ele><time>2026-04-04T13:37:18.384Z</time></trkpt><trkpt lat="45.3086314" lon="8.4029872"><ele>127.80000000000001</ele><time>2026-04-04T13:37:19.392Z</time></trkpt><trkpt lat="45.3085846" lon="8.4029272"><ele>127.60000000000001</ele><time>2026-04-04T13:37:20.389Z</time></trkpt><trkpt lat="45.3084891" lon="8.4028237"><ele>127.39999999999999</ele><time>2026-04-04T13:37:22.385Z</time></trkpt><trkpt lat="45.3083977" lon="8.4027209"><ele>127.19999999999999</ele><time>2026-04-04T13:37:24.39Z</time></trkpt><trkpt lat="45.3083158" lon="8.4026156"><ele>127.0</ele><time>2026-04-04T13:37:26.39Z</time></trkpt><trkpt lat="45.3082352" lon="8.4025095"><ele>127.0</ele><time>2026-04-04T13:37:28.383Z</time></trkpt><trkpt lat="45.308173" lon="8.4023828"><ele>126.99999999999999</ele><time>2026-04-04T13:37:30.388Z</time></trkpt><trkpt lat="45.308143" lon="8.402235"><ele>126.99999999999999</ele><time>2026-04-04T13:37:32.385Z</time></trkpt><trkpt lat="45.3081447" lon="8.4020861"><ele>127.0</ele><time>2026-04-04T13:37:34.384Z</time></trkpt><trkpt lat="45.3081858" lon="8.4019413"><ele>127.0</ele><time>2026-04-04T13:37:36.39Z</time></trkpt><trkpt lat="45.3082548" lon="8.4018141"><ele>127.0</ele><time>2026-04-04T13:37:38.392Z</time></trkpt><trkpt lat="45.3083465" lon="8.4017233"><ele>126.99999999999999</ele><time>2026-04-04T13:37:40.385Z</time></trkpt><trkpt lat="45.3084408" lon="8.401644"><ele>126.99999999999999</ele><time>2026-04-04T13:37:42.387Z</time></trkpt><trkpt lat="45.3085263" lon="8.4015526"><ele>127.0</ele><time>2026-04-04T13:37:44.387Z</time></trkpt><trkpt lat="45.3086217" lon="8.4014601"><ele>127.0</ele><time>2026-04-04T13:37:46.385Z</time></trkpt><trkpt lat="45.3087262" lon="8.401378"><ele>127.75</ele><time>2026-04-04T13:37:48.388Z</time></trkpt><trkpt lat="45.3088293" lon="8.4012984"><ele>128.5</ele><time>2026-04-04T13:37:50.391Z</time></trkpt><trkpt lat="45.3089333" lon="8.401216"><ele>129.25</ele><time>2026-04-04T13:37:52.386Z</time></trkpt><trkpt lat="45.309041" lon="8.4011308"><ele>130.0</ele><time>2026-04-04T13:37:54.388Z</time></trkpt><trkpt lat="45.3091429" lon="8.4010446"><ele>130.0</ele><time>2026-04-04T13:37:56.39Z</time></trkpt><trkpt lat="45.3092418" lon="8.4009667"><ele>130.0</ele><time>2026-04-04T13:37:58.384Z</time></trkpt><trkpt lat="45.3093326" lon="8.4008842"><ele>130.0</ele><time>2026-04-04T13:38:00.39Z</time></trkpt><trkpt lat="45.3094284" lon="8.400796"><ele>130.0</ele><time>2026-04-04T13:38:02.39Z</time></trkpt><trkpt lat="45.3095244" lon="8.4007195"><ele>130.0</ele><time>2026-04-04T13:38:04.386Z</time></trkpt><trkpt lat="45.309623" lon="8.4006427"><ele>130.0</ele><time>2026-04-04T13:38:06.389Z</time></trkpt><trkpt lat="45.309716" lon="8.4005638"><ele>130.0</ele><time>2026-04-04T13:38:08.389Z</time></trkpt><trkpt lat="45.3098158" lon="8.4004836"><ele>130.0</ele><time>2026-04-04T13:38:10.393Z</time></trkpt><trkpt lat="45.309903" lon="8.4004"><ele>130.0</ele><time>2026-04-04T13:38:12.388Z</time></trkpt><trkpt lat="45.3099962" lon="8.4003195"><ele>130.0</ele><time>2026-04-04T13:38:14.387Z</time></trkpt><trkpt lat="45.3100898" lon="8.4002461"><ele>129.4</ele><time>2026-04-04T13:38:16.389Z</time></trkpt><trkpt lat="45.3101774" lon="8.4001711"><ele>128.8</ele><time>2026-04-04T13:38:18.386Z</time></trkpt><trkpt lat="45.3102678" lon="8.4000906"><ele>128.2</ele><time>2026-04-04T13:38:20.398Z</time></trkpt><trkpt lat="45.3103514" lon="8.4000176"><ele>127.6</ele><time>2026-04-04T13:38:22.388Z</time></trkpt><trkpt lat="45.3104302" lon="8.3999462"><ele>127.0</ele><time>2026-04-04T13:38:24.387Z</time></trkpt><trkpt lat="45.3104899" lon="8.3999028"><ele>127.00000000000001</ele><time>2026-04-04T13:38:26.385Z</time></trkpt><trkpt lat="45.3105437" lon="8.3998336"><ele>127.0</ele><time>2026-04-04T13:38:29.392Z</time></trkpt><trkpt lat="45.3105022" lon="8.3997437"><ele>127.0</ele><time>2026-04-04T13:38:32.384Z</time></trkpt><trkpt lat="45.3104097" lon="8.3997163"><ele>127.0</ele><time>2026-04-04T13:38:35.391Z</time></trkpt><trkpt lat="45.3103387" lon="8.3997344"><ele>127.00000000000001</ele><time>2026-04-04T13:38:37.388Z</time></trkpt><trkpt lat="45.3102621" lon="8.3997252"><ele>127.0</ele><time>2026-04-04T13:38:39.387Z</time></trkpt><trkpt lat="45.3102087" lon="8.3996601"><ele>127.0</ele><time>2026-04-04T13:38:41.394Z</time></trkpt><trkpt lat="45.3101208" lon="8.3996649"><ele>126.99999999999999</ele><time>2026-04-04T13:38:44.39Z</time></trkpt><trkpt lat="45.3100134" lon="8.3997893"><ele>126.99999999999999</ele><time>2026-04-04T13:44:22.389Z</time></trkpt><trkpt lat="45.3100548" lon="8.3998601"><ele>127.0</ele><time>2026-04-04T13:44:26.389Z</time></trkpt><trkpt lat="45.3101373" lon="8.3998699"><ele>127.0</ele><time>2026-04-04T13:44:30.387Z</time></trkpt><trkpt lat="45.3102066" lon="8.3998187"><ele>127.00000000000001</ele><time>2026-04-04T13:44:33.385Z</time></trkpt><trkpt lat="45.3102867" lon="8.3997883"><ele>127.0</ele><time>2026-04-04T13:44:36.384Z</time></trkpt><trkpt lat="45.3103529" lon="8.3997574"><ele>127.0</ele><time>2026-04-04T13:44:39.393Z</time></trkpt><trkpt lat="45.3104082" lon="8.3998449"><ele>127.0</ele><time>2026-04-04T13:44:56.383Z</time></trkpt><trkpt lat="45.3104884" lon="8.3998395"><ele>127.00000000000001</ele><time>2026-04-04T13:44:59.391Z</time></trkpt><trkpt lat="45.310569" lon="8.3997769"><ele>127.0</ele><time>2026-04-04T13:45:02.394Z</time></trkpt><trkpt lat="45.3106259" lon="8.399728"><ele>127.00000000000001</ele><time>2026-04-04T13:45:04.386Z</time></trkpt><trkpt lat="45.3106857" lon="8.3996779"><ele>127.0</ele><time>2026-04-04T13:45:06.387Z</time></trkpt><trkpt lat="45.3107488" lon="8.3996248"><ele>127.0</ele><time>2026-04-04T13:45:08.388Z</time></trkpt><trkpt lat="45.3108193" lon="8.3995674"><ele>127.0</ele><time>2026-04-04T13:45:10.393Z</time></trkpt><trkpt lat="45.3108931" lon="8.3995042"><ele>127.00000000000001</ele><time>2026-04-04T13:45:12.383Z</time></trkpt><trkpt lat="45.310971" lon="8.3994363"><ele>127.0</ele><time>2026-04-04T13:45:14.383Z</time></trkpt><trkpt lat="45.3110545" lon="8.3993683"><ele>127.0</ele><time>2026-04-04T13:45:16.388Z</time></trkpt><trkpt lat="45.3111461" lon="8.3992998"><ele>126.99999999999999</ele><time>2026-04-04T13:45:18.387Z</time></trkpt><trkpt lat="45.3112381" lon="8.399227"><ele>126.99999999999999</ele><time>2026-04-04T13:45:20.386Z</time></trkpt><trkpt lat="45.3113251" lon="8.3991475"><ele>127.0</ele><time>2026-04-04T13:45:22.398Z</time></trkpt><trkpt lat="45.3114145" lon="8.3990701"><ele>127.0</ele><time>2026-04-04T13:45:24.387Z</time></trkpt><trkpt lat="45.3115068" lon="8.3989933"><ele>127.0</ele><time>2026-04-04T13:45:26.393Z</time></trkpt><trkpt lat="45.3116036" lon="8.3989117"><ele>127.0</ele><time>2026-04-04T13:45:28.389Z</time></trkpt><trkpt lat="45.3117026" lon="8.3988296"><ele>127.0</ele><time>2026-04-04T13:45:30.382Z</time></trkpt><trkpt lat="45.3118056" lon="8.398747"><ele>127.0</ele><time>2026-04-04T13:45:32.385Z</time></trkpt><trkpt lat="45.3118991" lon="8.3986706"><ele>127.0</ele><time>2026-04-04T13:45:34.391Z</time></trkpt><trkpt lat="45.3119947" lon="8.3985909"><ele>126.99999999999999</ele><time>2026-04-04T13:45:36.386Z</time></trkpt><trkpt lat="45.3120916" lon="8.3985087"><ele>126.99999999999999</ele><time>2026-04-04T13:45:38.4Z</time></trkpt><trkpt lat="45.3121824" lon="8.3984265"><ele>127.0</ele><time>2026-04-04T13:45:40.388Z</time></trkpt><trkpt lat="45.3122738" lon="8.3983477"><ele>127.0</ele><time>2026-04-04T13:45:42.39Z</time></trkpt><trkpt lat="45.3123668" lon="8.3982665"><ele>127.0</ele><time>2026-04-04T13:45:44.391Z</time></trkpt><trkpt lat="45.3124569" lon="8.3981855"><ele>126.99999999999999</ele><time>2026-04-04T13:45:46.386Z</time></trkpt><trkpt lat="45.3125547" lon="8.3981048"><ele>126.99999999999999</ele><time>2026-04-04T13:45:48.383Z</time></trkpt><trkpt lat="45.3126468" lon="8.3980222"><ele>127.0</ele><time>2026-04-04T13:45:50.389Z</time></trkpt><trkpt lat="45.3127422" lon="8.3979387"><ele>127.0</ele><time>2026-04-04T13:45:52.386Z</time></trkpt><trkpt lat="45.3128436" lon="8.397859"><ele>127.0</ele><time>2026-04-04T13:45:54.385Z</time></trkpt><trkpt lat="45.3129411" lon="8.3977813"><ele>126.99999999999999</ele><time>2026-04-04T13:45:56.388Z</time></trkpt><trkpt lat="45.3130348" lon="8.3977022"><ele>126.99999999999999</ele><time>2026-04-04T13:45:58.394Z</time></trkpt><trkpt lat="45.3131232" lon="8.3976247"><ele>127.0</ele><time>2026-04-04T13:46:00.386Z</time></trkpt><trkpt lat="45.3132141" lon="8.397543"><ele>127.0</ele><time>2026-04-04T13:46:02.392Z</time></trkpt><trkpt lat="45.3133033" lon="8.3974655"><ele>127.0</ele><time>2026-04-04T13:46:04.383Z</time></trkpt><trkpt lat="45.3134027" lon="8.3973889"><ele>126.99999999999999</ele><time>2026-04-04T13:46:06.387Z</time></trkpt><trkpt lat="45.3134911" lon="8.3973098"><ele>126.99999999999999</ele><time>2026-04-04T13:46:08.388Z</time></trkpt><trkpt lat="45.3135882" lon="8.3972282"><ele>127.0</ele><time>2026-04-04T13:46:10.392Z</time></trkpt><trkpt lat="45.3136762" lon="8.397149"><ele>127.0</ele><time>2026-04-04T13:46:12.388Z</time></trkpt><trkpt lat="45.3137716" lon="8.3970665"><ele>126.8</ele><time>2026-04-04T13:46:14.39Z</time></trkpt><trkpt lat="45.3138608" lon="8.3969908"><ele>126.6</ele><time>2026-04-04T13:46:16.389Z</time></trkpt><trkpt lat="45.3139435" lon="8.3969156"><ele>126.39999999999999</ele><time>2026-04-04T13:46:18.388Z</time></trkpt><trkpt lat="45.3140315" lon="8.3968431"><ele>126.19999999999999</ele><time>2026-04-04T13:46:20.384Z</time></trkpt><trkpt lat="45.3141216" lon="8.3967664"><ele>126.0</ele><time>2026-04-04T13:46:22.396Z</time></trkpt><trkpt lat="45.3142055" lon="8.3966872"><ele>126.0</ele><time>2026-04-04T13:46:24.389Z</time></trkpt><trkpt lat="45.314293" lon="8.396614"><ele>126.0</ele><time>2026-04-04T13:46:26.387Z</time></trkpt><trkpt lat="45.3143826" lon="8.3965388"><ele>126.0</ele><time>2026-04-04T13:46:28.387Z</time></trkpt><trkpt lat="45.3144826" lon="8.39646"><ele>126.0</ele><time>2026-04-04T13:46:30.393Z</time></trkpt><trkpt lat="45.3145718" lon="8.3963916"><ele>126.0</ele><time>2026-04-04T13:46:32.389Z</time></trkpt><trkpt lat="45.3146597" lon="8.3963163"><ele>126.19999999999999</ele><time>2026-04-04T13:46:34.387Z</time></trkpt><trkpt lat="45.3147452" lon="8.3962447"><ele>126.39999999999999</ele><time>2026-04-04T13:46:36.39Z</time></trkpt><trkpt lat="45.3148339" lon="8.3961723"><ele>126.6</ele><time>2026-04-04T13:46:38.389Z</time></trkpt><trkpt lat="45.3149207" lon="8.3960987"><ele>126.8</ele><time>2026-04-04T13:46:40.388Z</time></trkpt><trkpt lat="45.315006" lon="8.3960236"><ele>127.0</ele><time>2026-04-04T13:46:42.394Z</time></trkpt><trkpt lat="45.3150952" lon="8.3959468"><ele>127.0</ele><time>2026-04-04T13:46:44.391Z</time></trkpt><trkpt lat="45.3151807" lon="8.3958768"><ele>126.99999999999999</ele><time>2026-04-04T13:46:46.391Z</time></trkpt><trkpt lat="45.3152648" lon="8.3957988"><ele>126.99999999999999</ele><time>2026-04-04T13:46:48.385Z</time></trkpt><trkpt lat="45.3153577" lon="8.3957247"><ele>127.0</ele><time>2026-04-04T13:46:50.387Z</time></trkpt><trkpt lat="45.3154392" lon="8.3956448"><ele>127.0</ele><time>2026-04-04T13:46:52.399Z</time></trkpt><trkpt lat="45.3155209" lon="8.3955724"><ele>127.6</ele><time>2026-04-04T13:46:54.388Z</time></trkpt><trkpt lat="45.3156084" lon="8.3954969"><ele>128.2</ele><time>2026-04-04T13:46:56.387Z</time></trkpt><trkpt lat="45.3156943" lon="8.3954328"><ele>128.8</ele><time>2026-04-04T13:46:58.383Z</time></trkpt><trkpt lat="45.3157744" lon="8.3953645"><ele>129.4</ele><time>2026-04-04T13:47:00.385Z</time></trkpt><trkpt lat="45.3158603" lon="8.3952918"><ele>130.0</ele><time>2026-04-04T13:47:02.388Z</time></trkpt><trkpt lat="45.3159425" lon="8.395222"><ele>130.0</ele><time>2026-04-04T13:47:04.386Z</time></trkpt><trkpt lat="45.3160216" lon="8.3951501"><ele>130.0</ele><time>2026-04-04T13:47:06.392Z</time></trkpt><trkpt lat="45.3160978" lon="8.3950715"><ele>130.0</ele><time>2026-04-04T13:47:08.388Z</time></trkpt><trkpt lat="45.3161803" lon="8.3950028"><ele>130.0</ele><time>2026-04-04T13:47:10.39Z</time></trkpt><trkpt lat="45.3162663" lon="8.3949302"><ele>130.0</ele><time>2026-04-04T13:47:12.387Z</time></trkpt><trkpt lat="45.3163448" lon="8.394863"><ele>130.16666666666669</ele><time>2026-04-04T13:47:14.383Z</time></trkpt><trkpt lat="45.3164289" lon="8.3947989"><ele>130.33333333333334</ele><time>2026-04-04T13:47:16.39Z</time></trkpt><trkpt lat="45.3165107" lon="8.3947424"><ele>130.5</ele><time>2026-04-04T13:47:18.381Z</time></trkpt><trkpt lat="45.3165978" lon="8.3947127"><ele>130.66666666666666</ele><time>2026-04-04T13:47:20.388Z</time></trkpt><trkpt lat="45.3166659" lon="8.394714"><ele>130.83333333333331</ele><time>2026-04-04T13:47:23.391Z</time></trkpt><trkpt lat="45.3167391" lon="8.3947289"><ele>131.0</ele><time>2026-04-04T13:47:26.392Z</time></trkpt><trkpt lat="45.3168117" lon="8.3947371"><ele>131.0</ele><time>2026-04-04T13:47:28.391Z</time></trkpt><trkpt lat="45.3168904" lon="8.3947079"><ele>131.0</ele><time>2026-04-04T13:47:30.391Z</time></trkpt><trkpt lat="45.3169596" lon="8.3946372"><ele>131.0</ele><time>2026-04-04T13:47:32.39Z</time></trkpt><trkpt lat="45.3170164" lon="8.3945472"><ele>131.0</ele><time>2026-04-04T13:47:34.385Z</time></trkpt><trkpt lat="45.3170566" lon="8.3944386"><ele>131.0</ele><time>2026-04-04T13:47:36.386Z</time></trkpt><trkpt lat="45.3170909" lon="8.3943196"><ele>131.0</ele><time>2026-04-04T13:47:38.384Z</time></trkpt><trkpt lat="45.3171546" lon="8.3942061"><ele>131.2</ele><time>2026-04-04T13:47:40.384Z</time></trkpt><trkpt lat="45.3172275" lon="8.3941087"><ele>131.39999999999998</ele><time>2026-04-04T13:47:42.397Z</time></trkpt><trkpt lat="45.317311" lon="8.3940134"><ele>131.6</ele><time>2026-04-04T13:47:44.389Z</time></trkpt><trkpt lat="45.3174036" lon="8.3939345"><ele>131.79999999999998</ele><time>2026-04-04T13:47:46.385Z</time></trkpt><trkpt lat="45.3174996" lon="8.393857"><ele>132.0</ele><time>2026-04-04T13:47:48.389Z</time></trkpt><trkpt lat="45.3175917" lon="8.3937794"><ele>131.2</ele><time>2026-04-04T13:47:50.385Z</time></trkpt><trkpt lat="45.3176806" lon="8.3937023"><ele>130.39999999999998</ele><time>2026-04-04T13:47:52.39Z</time></trkpt><trkpt lat="45.3177736" lon="8.3936264"><ele>129.60000000000002</ele><time>2026-04-04T13:47:54.389Z</time></trkpt><trkpt lat="45.3178642" lon="8.3935492"><ele>128.8</ele><time>2026-04-04T13:47:56.385Z</time></trkpt><trkpt lat="45.3179559" lon="8.3934714"><ele>128.0</ele><time>2026-04-04T13:47:58.387Z</time></trkpt><trkpt lat="45.3180482" lon="8.3933999"><ele>128.6</ele><time>2026-04-04T13:48:00.386Z</time></trkpt><trkpt lat="45.3181414" lon="8.3933273"><ele>129.20000000000002</ele><time>2026-04-04T13:48:02.388Z</time></trkpt><trkpt lat="45.318232" lon="8.3932538"><ele>129.8</ele><time>2026-04-04T13:48:04.392Z</time></trkpt><trkpt lat="45.3183219" lon="8.3931779"><ele>130.4</ele><time>2026-04-04T13:48:06.39Z</time></trkpt><trkpt lat="45.3184151" lon="8.3931005"><ele>131.0</ele><time>2026-04-04T13:48:08.385Z</time></trkpt><trkpt lat="45.3185009" lon="8.3930214"><ele>131.0</ele><time>2026-04-04T13:48:10.392Z</time></trkpt><trkpt lat="45.3185881" lon="8.3929516"><ele>131.0</ele><time>2026-04-04T13:48:12.389Z</time></trkpt><trkpt lat="45.3186681" lon="8.3928744"><ele>131.0</ele><time>2026-04-04T13:48:14.387Z</time></trkpt><trkpt lat="45.3187591" lon="8.3928012"><ele>131.0</ele><time>2026-04-04T13:48:16.384Z</time></trkpt><trkpt lat="45.318845" lon="8.3927238"><ele>131.0</ele><time>2026-04-04T13:48:18.386Z</time></trkpt><trkpt lat="45.3189294" lon="8.3926478"><ele>131.0</ele><time>2026-04-04T13:48:20.379Z</time></trkpt><trkpt lat="45.3190218" lon="8.3925743"><ele>131.0</ele><time>2026-04-04T13:48:22.392Z</time></trkpt><trkpt lat="45.3191069" lon="8.3925026"><ele>131.0</ele><time>2026-04-04T13:48:24.393Z</time></trkpt><trkpt lat="45.3191915" lon="8.3924301"><ele>131.0</ele><time>2026-04-04T13:48:26.392Z</time></trkpt><trkpt lat="45.3192746" lon="8.3923554"><ele>131.0</ele><time>2026-04-04T13:48:28.388Z</time></trkpt><trkpt lat="45.3193525" lon="8.3922849"><ele>131.0</ele><time>2026-04-04T13:48:30.388Z</time></trkpt><trkpt lat="45.3194404" lon="8.3922151"><ele>131.0</ele><time>2026-04-04T13:48:32.384Z</time></trkpt><trkpt lat="45.3195269" lon="8.3921424"><ele>131.0</ele><time>2026-04-04T13:48:34.387Z</time></trkpt><trkpt lat="45.3196136" lon="8.3920701"><ele>131.0</ele><time>2026-04-04T13:48:36.382Z</time></trkpt><trkpt lat="45.3196969" lon="8.3919971"><ele>131.0</ele><time>2026-04-04T13:48:38.381Z</time></trkpt><trkpt lat="45.3197847" lon="8.3919291"><ele>130.8</ele><time>2026-04-04T13:48:40.383Z</time></trkpt><trkpt lat="45.3198665" lon="8.3918673"><ele>130.6</ele><time>2026-04-04T13:48:42.382Z</time></trkpt><trkpt lat="45.3199497" lon="8.3917922"><ele>130.4</ele><time>2026-04-04T13:48:44.388Z</time></trkpt><trkpt lat="45.3200332" lon="8.3917205"><ele>130.2</ele><time>2026-04-04T13:48:46.384Z</time></trkpt><trkpt lat="45.3201115" lon="8.3916518"><ele>130.0</ele><time>2026-04-04T13:48:48.385Z</time></trkpt><trkpt lat="45.3201933" lon="8.3915774"><ele>130.0</ele><time>2026-04-04T13:48:50.385Z</time></trkpt><trkpt lat="45.3202712" lon="8.3915059"><ele>130.0</ele><time>2026-04-04T13:48:52.387Z</time></trkpt><trkpt lat="45.3203528" lon="8.3914406"><ele>130.0</ele><time>2026-04-04T13:48:54.387Z</time></trkpt><trkpt lat="45.3204322" lon="8.39137"><ele>130.0</ele><time>2026-04-04T13:48:56.385Z</time></trkpt><trkpt lat="45.3205109" lon="8.3913018"><ele>130.0</ele><time>2026-04-04T13:48:58.387Z</time></trkpt><trkpt lat="45.3205912" lon="8.3912269"><ele>130.4</ele><time>2026-04-04T13:49:00.383Z</time></trkpt><trkpt lat="45.3206705" lon="8.39116"><ele>130.8</ele><time>2026-04-04T13:49:02.389Z</time></trkpt><trkpt lat="45.3207507" lon="8.3910912"><ele>131.2</ele><time>2026-04-04T13:49:04.384Z</time></trkpt><trkpt lat="45.3208299" lon="8.3910157"><ele>131.6</ele><time>2026-04-04T13:49:06.39Z</time></trkpt><trkpt lat="45.3209148" lon="8.3909489"><ele>132.0</ele><time>2026-04-04T13:49:08.388Z</time></trkpt><trkpt lat="45.3209958" lon="8.3908793"><ele>132.0</ele><time>2026-04-04T13:49:10.393Z</time></trkpt><trkpt lat="45.321075" lon="8.39081"><ele>132.0</ele><time>2026-04-04T13:49:12.391Z</time></trkpt><trkpt lat="45.3211557" lon="8.3907379"><ele>132.0</ele><time>2026-04-04T13:49:14.39Z</time></trkpt><trkpt lat="45.3212346" lon="8.3906687"><ele>132.0</ele><time>2026-04-04T13:49:16.388Z</time></trkpt><trkpt lat="45.3213215" lon="8.3906001"><ele>132.0</ele><time>2026-04-04T13:49:18.384Z</time></trkpt><trkpt lat="45.321398" lon="8.3905298"><ele>132.2</ele><time>2026-04-04T13:49:20.384Z</time></trkpt><trkpt lat="45.3214795" lon="8.3904632"><ele>132.39999999999998</ele><time>2026-04-04T13:49:22.382Z</time></trkpt><trkpt lat="45.3215624" lon="8.3903959"><ele>132.60000000000002</ele><time>2026-04-04T13:49:24.384Z</time></trkpt><trkpt lat="45.3216436" lon="8.3903244"><ele>132.8</ele><time>2026-04-04T13:49:26.389Z</time></trkpt><trkpt lat="45.3217273" lon="8.3902487"><ele>133.0</ele><time>2026-04-04T13:49:28.386Z</time></trkpt><trkpt lat="45.3218118" lon="8.390184"><ele>133.0</ele><time>2026-04-04T13:49:30.388Z</time></trkpt><trkpt lat="45.321892" lon="8.3901204"><ele>133.0</ele><time>2026-04-04T13:49:32.389Z</time></trkpt><trkpt lat="45.3219724" lon="8.3900501"><ele>133.0</ele><time>2026-04-04T13:49:34.387Z</time></trkpt><trkpt lat="45.322055" lon="8.3899781"><ele>133.0</ele><time>2026-04-04T13:49:36.389Z</time></trkpt><trkpt lat="45.3221371" lon="8.3899039"><ele>133.0</ele><time>2026-04-04T13:49:38.388Z</time></trkpt><trkpt lat="45.3222225" lon="8.3898344"><ele>132.8</ele><time>2026-04-04T13:49:40.39Z</time></trkpt><trkpt lat="45.3223035" lon="8.3897643"><ele>132.60000000000002</ele><time>2026-04-04T13:49:42.384Z</time></trkpt><trkpt lat="45.3223802" lon="8.389692"><ele>132.39999999999998</ele><time>2026-04-04T13:49:44.385Z</time></trkpt><trkpt lat="45.3224584" lon="8.3896266"><ele>132.2</ele><time>2026-04-04T13:49:46.392Z</time></trkpt><trkpt lat="45.3225391" lon="8.3895517"><ele>132.0</ele><time>2026-04-04T13:49:48.386Z</time></trkpt><trkpt lat="45.3226213" lon="8.3894793"><ele>132.0</ele><time>2026-04-04T13:49:50.385Z</time></trkpt><trkpt lat="45.322705" lon="8.3894023"><ele>132.0</ele><time>2026-04-04T13:49:52.39Z</time></trkpt><trkpt lat="45.3227889" lon="8.3893267"><ele>132.0</ele><time>2026-04-04T13:49:54.392Z</time></trkpt><trkpt lat="45.3228672" lon="8.3892445"><ele>132.0</ele><time>2026-04-04T13:49:56.388Z</time></trkpt><trkpt lat="45.3229417" lon="8.3891614"><ele>132.0</ele><time>2026-04-04T13:49:58.393Z</time></trkpt><trkpt lat="45.3230222" lon="8.3890804"><ele>132.0</ele><time>2026-04-04T13:50:00.384Z</time></trkpt><trkpt lat="45.3230966" lon="8.388993"><ele>132.0</ele><time>2026-04-04T13:50:02.389Z</time></trkpt><trkpt lat="45.3231656" lon="8.3889001"><ele>132.0</ele><time>2026-04-04T13:50:04.386Z</time></trkpt><trkpt lat="45.3232408" lon="8.3888097"><ele>132.0</ele><time>2026-04-04T13:50:06.391Z</time></trkpt><trkpt lat="45.3233107" lon="8.3887182"><ele>132.0</ele><time>2026-04-04T13:50:08.383Z</time></trkpt><trkpt lat="45.3233826" lon="8.3886301"><ele>132.0</ele><time>2026-04-04T13:50:10.389Z</time></trkpt><trkpt lat="45.3234523" lon="8.3885448"><ele>132.0</ele><time>2026-04-04T13:50:12.383Z</time></trkpt><trkpt lat="45.3235257" lon="8.3884566"><ele>132.0</ele><time>2026-04-04T13:50:14.382Z</time></trkpt><trkpt lat="45.3235982" lon="8.3883693"><ele>132.0</ele><time>2026-04-04T13:50:16.388Z</time></trkpt><trkpt lat="45.3236742" lon="8.3882883"><ele>132.0</ele><time>2026-04-04T13:50:18.381Z</time></trkpt><trkpt lat="45.3237524" lon="8.3882625"><ele>132.0</ele><time>2026-04-04T13:50:20.389Z</time></trkpt><trkpt lat="45.3238319" lon="8.3883074"><ele>132.0</ele><time>2026-04-04T13:50:22.386Z</time></trkpt><trkpt lat="45.3239016" lon="8.3883777"><ele>132.0</ele><time>2026-04-04T13:50:24.398Z</time></trkpt><trkpt lat="45.3239895" lon="8.388427"><ele>132.0</ele><time>2026-04-04T13:50:26.384Z</time></trkpt><trkpt lat="45.3240847" lon="8.3884454"><ele>132.0</ele><time>2026-04-04T13:50:28.383Z</time></trkpt><trkpt lat="45.3241797" lon="8.3884181"><ele>132.2</ele><time>2026-04-04T13:50:30.389Z</time></trkpt><trkpt lat="45.3242679" lon="8.3883603"><ele>132.39999999999998</ele><time>2026-04-04T13:50:32.388Z</time></trkpt><trkpt lat="45.3243422" lon="8.3882646"><ele>132.60000000000002</ele><time>2026-04-04T13:50:34.386Z</time></trkpt><trkpt lat="45.3244285" lon="8.3881783"><ele>132.8</ele><time>2026-04-04T13:50:36.385Z</time></trkpt><trkpt lat="45.3245354" lon="8.3881573"><ele>133.0</ele><time>2026-04-04T13:50:38.391Z</time></trkpt><trkpt lat="45.3246386" lon="8.3881799"><ele>133.20000000000002</ele><time>2026-04-04T13:50:40.389Z</time></trkpt><trkpt lat="45.3247438" lon="8.3882123"><ele>133.4</ele><time>2026-04-04T13:50:42.39Z</time></trkpt><trkpt lat="45.3248456" lon="8.3882515"><ele>133.60000000000002</ele><time>2026-04-04T13:50:44.388Z</time></trkpt><trkpt lat="45.324945" lon="8.3882946"><ele>133.8</ele><time>2026-04-04T13:50:46.388Z</time></trkpt><trkpt lat="45.3250464" lon="8.3883336"><ele>134.0</ele><time>2026-04-04T13:50:48.388Z</time></trkpt><trkpt lat="45.3251476" lon="8.3883706"><ele>134.0</ele><time>2026-04-04T13:50:50.392Z</time></trkpt><trkpt lat="45.3252468" lon="8.3884079"><ele>134.0</ele><time>2026-04-04T13:50:52.388Z</time></trkpt><trkpt lat="45.3253422" lon="8.3884436"><ele>134.0</ele><time>2026-04-04T13:50:54.387Z</time></trkpt><trkpt lat="45.3254406" lon="8.3884775"><ele>134.0</ele><time>2026-04-04T13:50:56.389Z</time></trkpt><trkpt lat="45.3255389" lon="8.3885088"><ele>134.0</ele><time>2026-04-04T13:50:58.383Z</time></trkpt><trkpt lat="45.3256328" lon="8.388544"><ele>133.2</ele><time>2026-04-04T13:51:00.39Z</time></trkpt><trkpt lat="45.3257275" lon="8.3885771"><ele>132.4</ele><time>2026-04-04T13:51:02.389Z</time></trkpt><trkpt lat="45.3258234" lon="8.3886118"><ele>131.6</ele><time>2026-04-04T13:51:04.384Z</time></trkpt><trkpt lat="45.3259135" lon="8.3886442"><ele>130.8</ele><time>2026-04-04T13:51:06.389Z</time></trkpt><trkpt lat="45.3260057" lon="8.3886767"><ele>130.0</ele><time>2026-04-04T13:51:08.389Z</time></trkpt><trkpt lat="45.3260959" lon="8.3887077"><ele>130.0</ele><time>2026-04-04T13:51:10.395Z</time></trkpt><trkpt lat="45.3261874" lon="8.3887365"><ele>130.0</ele><time>2026-04-04T13:51:12.384Z</time></trkpt><trkpt lat="45.3262799" lon="8.3887678"><ele>130.0</ele><time>2026-04-04T13:51:14.387Z</time></trkpt><trkpt lat="45.3263671" lon="8.3888035"><ele>130.0</ele><time>2026-04-04T13:51:16.39Z</time></trkpt><trkpt lat="45.326452" lon="8.3888375"><ele>130.0</ele><time>2026-04-04T13:51:18.386Z</time></trkpt><trkpt lat="45.3265304" lon="8.3888634"><ele>130.0</ele><time>2026-04-04T13:51:20.389Z</time></trkpt><trkpt lat="45.3266036" lon="8.3888884"><ele>130.00000000000003</ele><time>2026-04-04T13:51:22.386Z</time></trkpt><trkpt lat="45.3266738" lon="8.3889169"><ele>130.0</ele><time>2026-04-04T13:51:24.385Z</time></trkpt><trkpt lat="45.3267477" lon="8.3889437"><ele>130.0</ele><time>2026-04-04T13:51:26.382Z</time></trkpt><trkpt lat="45.3268204" lon="8.3889689"><ele>130.0</ele><time>2026-04-04T13:51:28.387Z</time></trkpt><trkpt lat="45.3268856" lon="8.388992"><ele>130.0</ele><time>2026-04-04T13:51:30.387Z</time></trkpt><trkpt lat="45.3269477" lon="8.3890101"><ele>130.00000000000003</ele><time>2026-04-04T13:51:32.388Z</time></trkpt><trkpt lat="45.3270099" lon="8.3890318"><ele>130.0</ele><time>2026-04-04T13:51:34.386Z</time></trkpt><trkpt lat="45.3270721" lon="8.3890527"><ele>130.0</ele><time>2026-04-04T13:51:36.385Z</time></trkpt><trkpt lat="45.3271368" lon="8.3890732"><ele>130.0</ele><time>2026-04-04T13:51:38.384Z</time></trkpt><trkpt lat="45.3271997" lon="8.3890941"><ele>130.0</ele><time>2026-04-04T13:51:40.387Z</time></trkpt><trkpt lat="45.3272918" lon="8.3891323"><ele>130.0</ele><time>2026-04-04T13:51:43.386Z</time></trkpt><trkpt lat="45.3273545" lon="8.3891566"><ele>130.0</ele><time>2026-04-04T13:51:45.39Z</time></trkpt><trkpt lat="45.327445" lon="8.3891879"><ele>130.0</ele><time>2026-04-04T13:51:48.383Z</time></trkpt><trkpt lat="45.3275308" lon="8.3892194"><ele>130.33333333333334</ele><time>2026-04-04T13:51:51.381Z</time></trkpt><trkpt lat="45.327619" lon="8.3892438"><ele>130.66666666666669</ele><time>2026-04-04T13:51:54.38Z</time></trkpt><trkpt lat="45.3277011" lon="8.3892745"><ele>131.0</ele><time>2026-04-04T13:51:57.385Z</time></trkpt><trkpt lat="45.3277868" lon="8.3893072"><ele>131.33333333333334</ele><time>2026-04-04T13:52:00.382Z</time></trkpt><trkpt lat="45.327875" lon="8.389345"><ele>131.66666666666666</ele><time>2026-04-04T13:52:03.383Z</time></trkpt><trkpt lat="45.3279367" lon="8.3893651"><ele>132.0</ele><time>2026-04-04T13:52:05.383Z</time></trkpt><trkpt lat="45.3279998" lon="8.3893861"><ele>132.14285714285714</ele><time>2026-04-04T13:52:07.384Z</time></trkpt><trkpt lat="45.3280631" lon="8.3894107"><ele>132.28571428571428</ele><time>2026-04-04T13:52:09.386Z</time></trkpt><trkpt lat="45.3281256" lon="8.3894342"><ele>132.42857142857144</ele><time>2026-04-04T13:52:11.38Z</time></trkpt><trkpt lat="45.3281892" lon="8.3894572"><ele>132.57142857142856</ele><time>2026-04-04T13:52:13.38Z</time></trkpt><trkpt lat="45.3282545" lon="8.3894833"><ele>132.71428571428572</ele><time>2026-04-04T13:52:15.385Z</time></trkpt><trkpt lat="45.3283224" lon="8.3895099"><ele>132.85714285714286</ele><time>2026-04-04T13:52:17.384Z</time></trkpt><trkpt lat="45.328391" lon="8.3895338"><ele>133.0</ele><time>2026-04-04T13:52:19.385Z</time></trkpt><trkpt lat="45.3284607" lon="8.3895573"><ele>133.0</ele><time>2026-04-04T13:52:21.387Z</time></trkpt><trkpt lat="45.3285323" lon="8.3895826"><ele>133.0</ele><time>2026-04-04T13:52:23.391Z</time></trkpt><trkpt lat="45.328604" lon="8.3896072"><ele>133.0</ele><time>2026-04-04T13:52:25.383Z</time></trkpt><trkpt lat="45.3286754" lon="8.3896331"><ele>133.0</ele><time>2026-04-04T13:52:27.387Z</time></trkpt><trkpt lat="45.3287527" lon="8.3896587"><ele>133.0</ele><time>2026-04-04T13:52:29.383Z</time></trkpt><trkpt lat="45.3288309" lon="8.3896851"><ele>133.0</ele><time>2026-04-04T13:52:31.387Z</time></trkpt><trkpt lat="45.3289106" lon="8.3897127"><ele>132.83333333333334</ele><time>2026-04-04T13:52:33.385Z</time></trkpt><trkpt lat="45.3289926" lon="8.3897426"><ele>132.66666666666669</ele><time>2026-04-04T13:52:35.39Z</time></trkpt><trkpt lat="45.3290776" lon="8.3897728"><ele>132.5</ele><time>2026-04-04T13:52:37.387Z</time></trkpt><trkpt lat="45.3291673" lon="8.389804"><ele>132.33333333333334</ele><time>2026-04-04T13:52:39.384Z</time></trkpt><trkpt lat="45.3292571" lon="8.3898354"><ele>132.16666666666666</ele><time>2026-04-04T13:52:41.389Z</time></trkpt><trkpt lat="45.3293439" lon="8.3898695"><ele>132.0</ele><time>2026-04-04T13:52:43.393Z</time></trkpt><trkpt lat="45.3294402" lon="8.3899017"><ele>132.0</ele><time>2026-04-04T13:52:45.387Z</time></trkpt><trkpt lat="45.3295357" lon="8.3899403"><ele>132.0</ele><time>2026-04-04T13:52:47.382Z</time></trkpt><trkpt lat="45.3296414" lon="8.3899783"><ele>132.0</ele><time>2026-04-04T13:52:49.391Z</time></trkpt><trkpt lat="45.329751" lon="8.3900166"><ele>132.0</ele><time>2026-04-04T13:52:51.391Z</time></trkpt><trkpt lat="45.3298616" lon="8.3900554"><ele>132.0</ele><time>2026-04-04T13:52:53.385Z</time></trkpt><trkpt lat="45.3299785" lon="8.3900988"><ele>131.5</ele><time>2026-04-04T13:52:55.384Z</time></trkpt><trkpt lat="45.3300397" lon="8.3901212"><ele>131.0</ele><time>2026-04-04T13:52:56.385Z</time></trkpt><trkpt lat="45.3301653" lon="8.3901597"><ele>130.5</ele><time>2026-04-04T13:52:58.384Z</time></trkpt><trkpt lat="45.3302295" lon="8.3901828"><ele>130.0</ele><time>2026-04-04T13:52:59.386Z</time></trkpt><trkpt lat="45.3302943" lon="8.3902072"><ele>129.5</ele><time>2026-04-04T13:53:00.385Z</time></trkpt><trkpt lat="45.3303609" lon="8.390233"><ele>129.0</ele><time>2026-04-04T13:53:01.386Z</time></trkpt><trkpt lat="45.3304283" lon="8.3902581"><ele>128.99999999999997</ele><time>2026-04-04T13:53:02.384Z</time></trkpt><trkpt lat="45.3304976" lon="8.3902817"><ele>129.0</ele><time>2026-04-04T13:53:03.39Z</time></trkpt><trkpt lat="45.3305663" lon="8.3903074"><ele>129.0</ele><time>2026-04-04T13:53:04.385Z</time></trkpt><trkpt lat="45.3306389" lon="8.390329"><ele>129.0</ele><time>2026-04-04T13:53:05.394Z</time></trkpt><trkpt lat="45.3307048" lon="8.3903577"><ele>129.0</ele><time>2026-04-04T13:53:06.383Z</time></trkpt><trkpt lat="45.3307743" lon="8.3903796"><ele>128.99999999999997</ele><time>2026-04-04T13:53:07.385Z</time></trkpt><trkpt lat="45.3308474" lon="8.3904039"><ele>129.0</ele><time>2026-04-04T13:53:08.388Z</time></trkpt><trkpt lat="45.3309198" lon="8.3904285"><ele>128.85714285714283</ele><time>2026-04-04T13:53:09.387Z</time></trkpt><trkpt lat="45.3309889" lon="8.3904541"><ele>128.71428571428572</ele><time>2026-04-04T13:53:10.39Z</time></trkpt><trkpt lat="45.331058" lon="8.3904838"><ele>128.57142857142856</ele><time>2026-04-04T13:53:11.385Z</time></trkpt><trkpt lat="45.3311292" lon="8.3905087"><ele>128.42857142857142</ele><time>2026-04-04T13:53:12.386Z</time></trkpt><trkpt lat="45.331199" lon="8.3905343"><ele>128.28571428571428</ele><time>2026-04-04T13:53:13.382Z</time></trkpt><trkpt lat="45.3312683" lon="8.3905566"><ele>128.14285714285714</ele><time>2026-04-04T13:53:14.392Z</time></trkpt><trkpt lat="45.3313378" lon="8.3905845"><ele>128.0</ele><time>2026-04-04T13:53:15.379Z</time></trkpt><trkpt lat="45.3314071" lon="8.3906095"><ele>128.28571428571428</ele><time>2026-04-04T13:53:16.388Z</time></trkpt><trkpt lat="45.3314753" lon="8.39063"><ele>128.57142857142856</ele><time>2026-04-04T13:53:17.381Z</time></trkpt><trkpt lat="45.3315397" lon="8.3906537"><ele>128.85714285714286</ele><time>2026-04-04T13:53:18.39Z</time></trkpt><trkpt lat="45.3316065" lon="8.3906747"><ele>129.14285714285714</ele><time>2026-04-04T13:53:19.386Z</time></trkpt><trkpt lat="45.3316734" lon="8.3907015"><ele>129.42857142857144</ele><time>2026-04-04T13:53:20.386Z</time></trkpt><trkpt lat="45.3317376" lon="8.3907268"><ele>129.71428571428572</ele><time>2026-04-04T13:53:21.384Z</time></trkpt><trkpt lat="45.3317999" lon="8.3907444"><ele>130.0</ele><time>2026-04-04T13:53:22.395Z</time></trkpt><trkpt lat="45.3318629" lon="8.3907671"><ele>130.0</ele><time>2026-04-04T13:53:23.383Z</time></trkpt><trkpt lat="45.3319858" lon="8.3908106"><ele>130.0</ele><time>2026-04-04T13:53:25.381Z</time></trkpt><trkpt lat="45.3320486" lon="8.3908319"><ele>130.0</ele><time>2026-04-04T13:53:26.388Z</time></trkpt><trkpt lat="45.3321098" lon="8.3908537"><ele>130.0</ele><time>2026-04-04T13:53:27.383Z</time></trkpt><trkpt lat="45.332172" lon="8.3908741"><ele>130.0</ele><time>2026-04-04T13:53:28.387Z</time></trkpt><trkpt lat="45.3322901" lon="8.3909118"><ele>130.0</ele><time>2026-04-04T13:53:30.381Z</time></trkpt><trkpt lat="45.3324051" lon="8.3909527"><ele>129.75</ele><time>2026-04-04T13:53:32.382Z</time></trkpt><trkpt lat="45.3325176" lon="8.3909933"><ele>129.5</ele><time>2026-04-04T13:53:34.386Z</time></trkpt><trkpt lat="45.3326318" lon="8.391029"><ele>129.25</ele><time>2026-04-04T13:53:36.385Z</time></trkpt><trkpt lat="45.3327452" lon="8.391068"><ele>129.0</ele><time>2026-04-04T13:53:38.385Z</time></trkpt><trkpt lat="45.332856" lon="8.3911044"><ele>129.0</ele><time>2026-04-04T13:53:40.394Z</time></trkpt><trkpt lat="45.332967" lon="8.3911463"><ele>129.0</ele><time>2026-04-04T13:53:42.393Z</time></trkpt><trkpt lat="45.3330778" lon="8.3911867"><ele>129.0</ele><time>2026-04-04T13:53:44.383Z</time></trkpt><trkpt lat="45.3331874" lon="8.3912277"><ele>129.0</ele><time>2026-04-04T13:53:46.382Z</time></trkpt><trkpt lat="45.3333008" lon="8.391271"><ele>129.0</ele><time>2026-04-04T13:53:48.384Z</time></trkpt><trkpt lat="45.3334145" lon="8.3913104"><ele>129.0</ele><time>2026-04-04T13:53:50.386Z</time></trkpt><trkpt lat="45.3335234" lon="8.3913512"><ele>129.0</ele><time>2026-04-04T13:53:52.385Z</time></trkpt><trkpt lat="45.3336348" lon="8.3913865"><ele>129.0</ele><time>2026-04-04T13:53:54.391Z</time></trkpt><trkpt lat="45.33375" lon="8.3914297"><ele>129.0</ele><time>2026-04-04T13:53:56.388Z</time></trkpt><trkpt lat="45.3338646" lon="8.3914687"><ele>129.0</ele><time>2026-04-04T13:53:58.388Z</time></trkpt><trkpt lat="45.3339816" lon="8.3915095"><ele>129.0</ele><time>2026-04-04T13:54:00.384Z</time></trkpt><trkpt lat="45.3340972" lon="8.3915495"><ele>129.0</ele><time>2026-04-04T13:54:02.384Z</time></trkpt><trkpt lat="45.3342026" lon="8.3916259"><ele>129.25</ele><time>2026-04-04T13:54:04.386Z</time></trkpt><trkpt lat="45.3342704" lon="8.3917586"><ele>129.5</ele><time>2026-04-04T13:54:06.389Z</time></trkpt><trkpt lat="45.3343545" lon="8.3918782"><ele>129.75</ele><time>2026-04-04T13:54:08.382Z</time></trkpt><trkpt lat="45.3344629" lon="8.39194"><ele>130.0</ele><time>2026-04-04T13:54:10.379Z</time></trkpt><trkpt lat="45.334578" lon="8.3919116"><ele>130.0</ele><time>2026-04-04T13:54:12.38Z</time></trkpt><trkpt lat="45.3346769" lon="8.3918455"><ele>130.0</ele><time>2026-04-04T13:54:14.385Z</time></trkpt><trkpt lat="45.3347881" lon="8.391816"><ele>130.0</ele><time>2026-04-04T13:54:16.384Z</time></trkpt><trkpt lat="45.3349071" lon="8.3918425"><ele>130.0</ele><time>2026-04-04T13:54:18.388Z</time></trkpt><trkpt lat="45.3350266" lon="8.3918883"><ele>129.5</ele><time>2026-04-04T13:54:20.394Z</time></trkpt><trkpt lat="45.3351455" lon="8.3919307"><ele>129.0</ele><time>2026-04-04T13:54:22.386Z</time></trkpt><trkpt lat="45.3352658" lon="8.3919713"><ele>128.5</ele><time>2026-04-04T13:54:24.392Z</time></trkpt><trkpt lat="45.3353873" lon="8.3920129"><ele>128.0</ele><time>2026-04-04T13:54:26.387Z</time></trkpt><trkpt lat="45.3355068" lon="8.3920565"><ele>127.80000000000001</ele><time>2026-04-04T13:54:28.384Z</time></trkpt><trkpt lat="45.3356302" lon="8.3920998"><ele>127.60000000000001</ele><time>2026-04-04T13:54:30.387Z</time></trkpt><trkpt lat="45.3357531" lon="8.3921462"><ele>127.39999999999999</ele><time>2026-04-04T13:54:32.384Z</time></trkpt><trkpt lat="45.3358136" lon="8.3921722"><ele>127.19999999999999</ele><time>2026-04-04T13:54:33.384Z</time></trkpt><trkpt lat="45.3359377" lon="8.3922124"><ele>127.0</ele><time>2026-04-04T13:54:35.388Z</time></trkpt><trkpt lat="45.3360008" lon="8.3922329"><ele>127.33333333333334</ele><time>2026-04-04T13:54:36.389Z</time></trkpt><trkpt lat="45.3360631" lon="8.3922561"><ele>127.66666666666667</ele><time>2026-04-04T13:54:37.386Z</time></trkpt><trkpt lat="45.3361261" lon="8.392281"><ele>128.0</ele><time>2026-04-04T13:54:38.384Z</time></trkpt><trkpt lat="45.3361878" lon="8.3922991"><ele>128.33333333333334</ele><time>2026-04-04T13:54:39.386Z</time></trkpt><trkpt lat="45.3362528" lon="8.3923168"><ele>128.66666666666666</ele><time>2026-04-04T13:54:40.388Z</time></trkpt><trkpt lat="45.3363161" lon="8.3923382"><ele>129.0</ele><time>2026-04-04T13:54:41.388Z</time></trkpt><trkpt lat="45.3364381" lon="8.3923849"><ele>129.14285714285714</ele><time>2026-04-04T13:54:43.384Z</time></trkpt><trkpt lat="45.3365022" lon="8.3924059"><ele>129.28571428571428</ele><time>2026-04-04T13:54:44.392Z</time></trkpt><trkpt lat="45.3365654" lon="8.3924285"><ele>129.42857142857144</ele><time>2026-04-04T13:54:45.391Z</time></trkpt><trkpt lat="45.3366259" lon="8.3924544"><ele>129.57142857142856</ele><time>2026-04-04T13:54:46.393Z</time></trkpt><trkpt lat="45.3366882" lon="8.3924801"><ele>129.71428571428572</ele><time>2026-04-04T13:54:47.384Z</time></trkpt><trkpt lat="45.3367504" lon="8.3924985"><ele>129.85714285714286</ele><time>2026-04-04T13:54:48.391Z</time></trkpt><trkpt lat="45.3368121" lon="8.3925232"><ele>130.0</ele><time>2026-04-04T13:54:49.386Z</time></trkpt><trkpt lat="45.3369315" lon="8.3925708"><ele>130.0</ele><time>2026-04-04T13:54:51.388Z</time></trkpt><trkpt lat="45.3370547" lon="8.3926165"><ele>130.0</ele><time>2026-04-04T13:54:53.384Z</time></trkpt><trkpt lat="45.3371752" lon="8.3926581"><ele>130.0</ele><time>2026-04-04T13:54:55.387Z</time></trkpt><trkpt lat="45.337295" lon="8.392698"><ele>130.0</ele><time>2026-04-04T13:54:57.384Z</time></trkpt><trkpt lat="45.3374133" lon="8.3927435"><ele>130.25</ele><time>2026-04-04T13:54:59.384Z</time></trkpt><trkpt lat="45.3375305" lon="8.3927865"><ele>130.5</ele><time>2026-04-04T13:55:01.381Z</time></trkpt><trkpt lat="45.3376486" lon="8.3928287"><ele>130.75</ele><time>2026-04-04T13:55:03.388Z</time></trkpt><trkpt lat="45.337771" lon="8.3928685"><ele>131.0</ele><time>2026-04-04T13:55:05.382Z</time></trkpt><trkpt lat="45.3378905" lon="8.3929124"><ele>131.0</ele><time>2026-04-04T13:55:07.389Z</time></trkpt><trkpt lat="45.33801" lon="8.3929553"><ele>131.0</ele><time>2026-04-04T13:55:09.382Z</time></trkpt><trkpt lat="45.3381291" lon="8.3929972"><ele>131.0</ele><time>2026-04-04T13:55:11.385Z</time></trkpt><trkpt lat="45.3382452" lon="8.3930329"><ele>131.0</ele><time>2026-04-04T13:55:13.394Z</time></trkpt><trkpt lat="45.3383621" lon="8.3930769"><ele>131.0</ele><time>2026-04-04T13:55:15.385Z</time></trkpt><trkpt lat="45.3384231" lon="8.3930999"><ele>131.0</ele><time>2026-04-04T13:55:16.385Z</time></trkpt><trkpt lat="45.3385403" lon="8.3931386"><ele>131.0</ele><time>2026-04-04T13:55:18.382Z</time></trkpt><trkpt lat="45.3386573" lon="8.3931798"><ele>131.0</ele><time>2026-04-04T13:55:20.383Z</time></trkpt><trkpt lat="45.3387751" lon="8.3932193"><ele>131.0</ele><time>2026-04-04T13:55:22.382Z</time></trkpt><trkpt lat="45.3388935" lon="8.3932637"><ele>131.0</ele><time>2026-04-04T13:55:24.386Z</time></trkpt><trkpt lat="45.3390104" lon="8.3933022"><ele>131.0</ele><time>2026-04-04T13:55:26.392Z</time></trkpt><trkpt lat="45.3391238" lon="8.393342"><ele>131.0</ele><time>2026-04-04T13:55:28.388Z</time></trkpt><trkpt lat="45.3392403" lon="8.3933866"><ele>131.0</ele><time>2026-04-04T13:55:30.39Z</time></trkpt><trkpt lat="45.3393515" lon="8.3934267"><ele>131.0</ele><time>2026-04-04T13:55:32.387Z</time></trkpt><trkpt lat="45.3394618" lon="8.3934655"><ele>131.0</ele><time>2026-04-04T13:55:34.389Z</time></trkpt><trkpt lat="45.3395703" lon="8.3935142"><ele>131.0</ele><time>2026-04-04T13:55:36.383Z</time></trkpt><trkpt lat="45.3396816" lon="8.3935556"><ele>131.0</ele><time>2026-04-04T13:55:38.388Z</time></trkpt><trkpt lat="45.339793" lon="8.3935948"><ele>130.8</ele><time>2026-04-04T13:55:40.39Z</time></trkpt><trkpt lat="45.3399018" lon="8.3936268"><ele>130.6</ele><time>2026-04-04T13:55:42.387Z</time></trkpt><trkpt lat="45.340009" lon="8.3936624"><ele>130.4</ele><time>2026-04-04T13:55:44.393Z</time></trkpt><trkpt lat="45.3401189" lon="8.3937061"><ele>130.2</ele><time>2026-04-04T13:55:46.388Z</time></trkpt><trkpt lat="45.3402263" lon="8.3937487"><ele>130.0</ele><time>2026-04-04T13:55:48.401Z</time></trkpt><trkpt lat="45.3403315" lon="8.3937915"><ele>130.0</ele><time>2026-04-04T13:55:50.386Z</time></trkpt><trkpt lat="45.3404359" lon="8.3938366"><ele>130.0</ele><time>2026-04-04T13:55:52.387Z</time></trkpt><trkpt lat="45.3405392" lon="8.3938725"><ele>130.0</ele><time>2026-04-04T13:55:54.389Z</time></trkpt><trkpt lat="45.3406426" lon="8.3939164"><ele>130.0</ele><time>2026-04-04T13:55:56.386Z</time></trkpt><trkpt lat="45.3407178" lon="8.3940183"><ele>130.0</ele><time>2026-04-04T13:55:58.387Z</time></trkpt><trkpt lat="45.3407257" lon="8.3941594"><ele>130.0</ele><time>2026-04-04T13:56:00.393Z</time></trkpt><trkpt lat="45.3406771" lon="8.3942837"><ele>130.0</ele><time>2026-04-04T13:56:02.381Z</time></trkpt><trkpt lat="45.3406276" lon="8.3944175"><ele>130.0</ele><time>2026-04-04T13:56:04.38Z</time></trkpt><trkpt lat="45.3405818" lon="8.3945415"><ele>130.0</ele><time>2026-04-04T13:56:06.384Z</time></trkpt><trkpt lat="45.3405373" lon="8.39466"><ele>130.0</ele><time>2026-04-04T13:56:08.382Z</time></trkpt><trkpt lat="45.3404781" lon="8.3947796"><ele>130.2</ele><time>2026-04-04T13:56:10.386Z</time></trkpt><trkpt lat="45.3404312" lon="8.394894"><ele>130.4</ele><time>2026-04-04T13:56:12.382Z</time></trkpt><trkpt lat="45.3403838" lon="8.3950141"><ele>130.6</ele><time>2026-04-04T13:56:14.383Z</time></trkpt><trkpt lat="45.3403366" lon="8.3951273"><ele>130.8</ele><time>2026-04-04T13:56:16.393Z</time></trkpt><trkpt lat="45.3402855" lon="8.3952517"><ele>131.0</ele><time>2026-04-04T13:56:18.388Z</time></trkpt><trkpt lat="45.3402393" lon="8.3953706"><ele>131.0</ele><time>2026-04-04T13:56:20.383Z</time></trkpt><trkpt lat="45.3401911" lon="8.3954839"><ele>131.0</ele><time>2026-04-04T13:56:22.39Z</time></trkpt><trkpt lat="45.3401406" lon="8.3955909"><ele>131.0</ele><time>2026-04-04T13:56:24.386Z</time></trkpt><trkpt lat="45.3400938" lon="8.3957068"><ele>131.0</ele><time>2026-04-04T13:56:26.395Z</time></trkpt><trkpt lat="45.3400358" lon="8.3958142"><ele>131.0</ele><time>2026-04-04T13:56:28.388Z</time></trkpt><trkpt lat="45.3399862" lon="8.3959349"><ele>131.0</ele><time>2026-04-04T13:56:30.387Z</time></trkpt><trkpt lat="45.3399403" lon="8.3960558"><ele>131.0</ele><time>2026-04-04T13:56:32.39Z</time></trkpt><trkpt lat="45.3398884" lon="8.3961824"><ele>131.0</ele><time>2026-04-04T13:56:34.389Z</time></trkpt><trkpt lat="45.3398341" lon="8.3962963"><ele>131.0</ele><time>2026-04-04T13:56:36.386Z</time></trkpt><trkpt lat="45.3397784" lon="8.3964073"><ele>131.0</ele><time>2026-04-04T13:56:38.394Z</time></trkpt><trkpt lat="45.3397313" lon="8.3965374"><ele>131.2</ele><time>2026-04-04T13:56:40.393Z</time></trkpt><trkpt lat="45.3396911" lon="8.3966446"><ele>131.39999999999998</ele><time>2026-04-04T13:56:42.388Z</time></trkpt><trkpt lat="45.3396423" lon="8.3967638"><ele>131.6</ele><time>2026-04-04T13:56:44.385Z</time></trkpt><trkpt lat="45.3396025" lon="8.396882"><ele>131.79999999999998</ele><time>2026-04-04T13:56:46.385Z</time></trkpt><trkpt lat="45.3395537" lon="8.396988"><ele>132.0</ele><time>2026-04-04T13:56:48.381Z</time></trkpt><trkpt lat="45.3395091" lon="8.3971085"><ele>132.0</ele><time>2026-04-04T13:56:50.382Z</time></trkpt><trkpt lat="45.3394628" lon="8.3972199"><ele>132.0</ele><time>2026-04-04T13:56:52.386Z</time></trkpt><trkpt lat="45.3394227" lon="8.3973009"><ele>132.0</ele><time>2026-04-04T13:56:55.386Z</time></trkpt><trkpt lat="45.3393996" lon="8.3973987"><ele>132.0</ele><time>2026-04-04T13:56:59.383Z</time></trkpt><trkpt lat="45.3393493" lon="8.3974864"><ele>132.0</ele><time>2026-04-04T13:57:01.38Z</time></trkpt><trkpt lat="45.3393258" lon="8.3976035"><ele>132.0</ele><time>2026-04-04T13:57:03.383Z</time></trkpt><trkpt lat="45.3392861" lon="8.3977147"><ele>132.0</ele><time>2026-04-04T13:57:05.38Z</time></trkpt><trkpt lat="45.3392473" lon="8.3978325"><ele>132.0</ele><time>2026-04-04T13:57:07.386Z</time></trkpt><trkpt lat="45.3392199" lon="8.3979506"><ele>132.0</ele><time>2026-04-04T13:57:09.385Z</time></trkpt><trkpt lat="45.3391856" lon="8.3980765"><ele>132.0</ele><time>2026-04-04T13:57:11.385Z</time></trkpt><trkpt lat="45.3391438" lon="8.398199"><ele>132.0</ele><time>2026-04-04T13:57:13.384Z</time></trkpt><trkpt lat="45.3391005" lon="8.3983217"><ele>131.79999999999998</ele><time>2026-04-04T13:57:15.383Z</time></trkpt><trkpt lat="45.339068" lon="8.3984601"><ele>131.6</ele><time>2026-04-04T13:57:17.384Z</time></trkpt><trkpt lat="45.3390408" lon="8.3985919"><ele>131.39999999999998</ele><time>2026-04-04T13:57:19.391Z</time></trkpt><trkpt lat="45.3390148" lon="8.3987323"><ele>131.2</ele><time>2026-04-04T13:57:21.385Z</time></trkpt><trkpt lat="45.3389851" lon="8.3988774"><ele>131.0</ele><time>2026-04-04T13:57:23.387Z</time></trkpt><trkpt lat="45.3389576" lon="8.3990218"><ele>131.0</ele><time>2026-04-04T13:57:25.386Z</time></trkpt><trkpt lat="45.3389194" lon="8.3991641"><ele>131.0</ele><time>2026-04-04T13:57:27.385Z</time></trkpt><trkpt lat="45.3388722" lon="8.399298"><ele>131.0</ele><time>2026-04-04T13:57:29.384Z</time></trkpt><trkpt lat="45.3388204" lon="8.3994256"><ele>131.0</ele><time>2026-04-04T13:57:31.385Z</time></trkpt><trkpt lat="45.3387648" lon="8.3995512"><ele>131.0</ele><time>2026-04-04T13:57:33.387Z</time></trkpt><trkpt lat="45.3387198" lon="8.3996776"><ele>130.8</ele><time>2026-04-04T13:57:35.38Z</time></trkpt><trkpt lat="45.3386652" lon="8.399809"><ele>130.6</ele><time>2026-04-04T13:57:37.384Z</time></trkpt><trkpt lat="45.338616" lon="8.3999452"><ele>130.4</ele><time>2026-04-04T13:57:39.383Z</time></trkpt><trkpt lat="45.3385598" lon="8.4000761"><ele>130.2</ele><time>2026-04-04T13:57:41.387Z</time></trkpt><trkpt lat="45.3384881" lon="8.4001905"><ele>130.0</ele><time>2026-04-04T13:57:43.381Z</time></trkpt><trkpt lat="45.3384164" lon="8.4002947"><ele>130.0</ele><time>2026-04-04T13:57:45.387Z</time></trkpt><trkpt lat="45.3383464" lon="8.4004091"><ele>130.0</ele><time>2026-04-04T13:57:47.382Z</time></trkpt><trkpt lat="45.3382781" lon="8.400505"><ele>130.0</ele><time>2026-04-04T13:57:49.382Z</time></trkpt><trkpt lat="45.3381968" lon="8.4006065"><ele>130.0</ele><time>2026-04-04T13:57:51.392Z</time></trkpt><trkpt lat="45.3381108" lon="8.4006812"><ele>130.0</ele><time>2026-04-04T13:57:53.386Z</time></trkpt><trkpt lat="45.3380242" lon="8.4007516"><ele>130.0</ele><time>2026-04-04T13:57:55.388Z</time></trkpt><trkpt lat="45.3379287" lon="8.4008175"><ele>130.0</ele><time>2026-04-04T13:57:57.386Z</time></trkpt><trkpt lat="45.3378628" lon="8.4009005"><ele>130.0</ele><time>2026-04-04T13:57:59.387Z</time></trkpt><trkpt lat="45.3378067" lon="8.4010259"><ele>130.0</ele><time>2026-04-04T13:58:01.387Z</time></trkpt><trkpt lat="45.3377827" lon="8.4011697"><ele>130.0</ele><time>2026-04-04T13:58:03.385Z</time></trkpt><trkpt lat="45.3377739" lon="8.4013213"><ele>130.0</ele><time>2026-04-04T13:58:05.386Z</time></trkpt><trkpt lat="45.3377844" lon="8.4014682"><ele>130.0</ele><time>2026-04-04T13:58:07.39Z</time></trkpt><trkpt lat="45.3377928" lon="8.4016146"><ele>130.0</ele><time>2026-04-04T13:58:09.389Z</time></trkpt><trkpt lat="45.3377944" lon="8.4017444"><ele>130.0</ele><time>2026-04-04T13:58:11.383Z</time></trkpt><trkpt lat="45.3377955" lon="8.4018831"><ele>130.0</ele><time>2026-04-04T13:58:13.387Z</time></trkpt><trkpt lat="45.3377977" lon="8.4020102"><ele>130.0</ele><time>2026-04-04T13:58:15.384Z</time></trkpt><trkpt lat="45.3378131" lon="8.4021386"><ele>130.0</ele><time>2026-04-04T13:58:17.396Z</time></trkpt><trkpt lat="45.3378206" lon="8.4022757"><ele>130.0</ele><time>2026-04-04T13:58:19.383Z</time></trkpt><trkpt lat="45.33783" lon="8.4024038"><ele>130.0</ele><time>2026-04-04T13:58:21.389Z</time></trkpt><trkpt lat="45.3378205" lon="8.4025358"><ele>130.0</ele><time>2026-04-04T13:58:23.385Z</time></trkpt><trkpt lat="45.3378187" lon="8.4026749"><ele>130.2</ele><time>2026-04-04T13:58:25.38Z</time></trkpt><trkpt lat="45.337788" lon="8.4028146"><ele>130.4</ele><time>2026-04-04T13:58:27.385Z</time></trkpt><trkpt lat="45.3377473" lon="8.4029313"><ele>130.6</ele><time>2026-04-04T13:58:29.39Z</time></trkpt><trkpt lat="45.3377081" lon="8.4030626"><ele>130.8</ele><time>2026-04-04T13:58:31.387Z</time></trkpt><trkpt lat="45.33766" lon="8.4031858"><ele>131.0</ele><time>2026-04-04T13:58:33.384Z</time></trkpt><trkpt lat="45.3376114" lon="8.403307"><ele>131.0</ele><time>2026-04-04T13:58:35.383Z</time></trkpt><trkpt lat="45.3375785" lon="8.4034315"><ele>131.0</ele><time>2026-04-04T13:58:37.387Z</time></trkpt><trkpt lat="45.3375309" lon="8.4035566"><ele>131.0</ele><time>2026-04-04T13:58:39.389Z</time></trkpt><trkpt lat="45.3374917" lon="8.4036584"><ele>131.0</ele><time>2026-04-04T13:58:41.394Z</time></trkpt><trkpt lat="45.3374528" lon="8.4037792"><ele>131.0</ele><time>2026-04-04T13:58:43.386Z</time></trkpt><trkpt lat="45.3374128" lon="8.4039103"><ele>131.0</ele><time>2026-04-04T13:58:45.387Z</time></trkpt><trkpt lat="45.3373965" lon="8.404021"><ele>131.0</ele><time>2026-04-04T13:58:47.388Z</time></trkpt><trkpt lat="45.337356" lon="8.4041029"><ele>131.0</ele><time>2026-04-04T13:58:49.38Z</time></trkpt><trkpt lat="45.3372801" lon="8.4040977"><ele>131.0</ele><time>2026-04-04T13:58:51.384Z</time></trkpt><trkpt lat="45.3371947" lon="8.4040459"><ele>131.0</ele><time>2026-04-04T13:58:53.387Z</time></trkpt><trkpt lat="45.3371098" lon="8.4039806"><ele>131.0</ele><time>2026-04-04T13:58:55.387Z</time></trkpt><trkpt lat="45.337023" lon="8.4039183"><ele>131.0</ele><time>2026-04-04T13:58:57.383Z</time></trkpt><trkpt lat="45.336949" lon="8.4038511"><ele>131.0</ele><time>2026-04-04T13:58:59.392Z</time></trkpt><trkpt lat="45.3368682" lon="8.403786"><ele>131.0</ele><time>2026-04-04T13:59:01.387Z</time></trkpt><trkpt lat="45.3367777" lon="8.4037175"><ele>131.0</ele><time>2026-04-04T13:59:03.388Z</time></trkpt><trkpt lat="45.3366983" lon="8.4036586"><ele>131.0</ele><time>2026-04-04T13:59:05.392Z</time></trkpt><trkpt lat="45.3366047" lon="8.4035995"><ele>131.0</ele><time>2026-04-04T13:59:07.391Z</time></trkpt><trkpt lat="45.3365188" lon="8.4035479"><ele>131.0</ele><time>2026-04-04T13:59:09.384Z</time></trkpt><trkpt lat="45.3364314" lon="8.4034932"><ele>131.0</ele><time>2026-04-04T13:59:11.385Z</time></trkpt><trkpt lat="45.3363431" lon="8.4034379"><ele>131.0</ele><time>2026-04-04T13:59:13.382Z</time></trkpt><trkpt lat="45.3362578" lon="8.4033864"><ele>131.0</ele><time>2026-04-04T13:59:15.391Z</time></trkpt><trkpt lat="45.3361787" lon="8.4033247"><ele>131.16666666666666</ele><time>2026-04-04T13:59:17.382Z</time></trkpt><trkpt lat="45.3361054" lon="8.4033438"><ele>131.33333333333331</ele><time>2026-04-04T13:59:19.385Z</time></trkpt><trkpt lat="45.3360855" lon="8.4034659"><ele>131.5</ele><time>2026-04-04T13:59:21.383Z</time></trkpt><trkpt lat="45.336071" lon="8.4035803"><ele>131.66666666666666</ele><time>2026-04-04T13:59:23.383Z</time></trkpt><trkpt lat="45.3360229" lon="8.403676"><ele>131.83333333333334</ele><time>2026-04-04T13:59:25.391Z</time></trkpt><trkpt lat="45.3359384" lon="8.4036856"><ele>132.0</ele><time>2026-04-04T13:59:27.389Z</time></trkpt><trkpt lat="45.3358522" lon="8.4036572"><ele>132.0</ele><time>2026-04-04T13:59:29.384Z</time></trkpt><trkpt lat="45.335762" lon="8.403631"><ele>132.0</ele><time>2026-04-04T13:59:31.38Z</time></trkpt><trkpt lat="45.3356733" lon="8.4036104"><ele>132.0</ele><time>2026-04-04T13:59:33.385Z</time></trkpt><trkpt lat="45.3355867" lon="8.4035929"><ele>132.0</ele><time>2026-04-04T13:59:35.378Z</time></trkpt><trkpt lat="45.3354992" lon="8.4035723"><ele>132.0</ele><time>2026-04-04T13:59:37.385Z</time></trkpt><trkpt lat="45.3354135" lon="8.4035584"><ele>132.0</ele><time>2026-04-04T13:59:39.387Z</time></trkpt><trkpt lat="45.3353309" lon="8.4035489"><ele>131.71428571428572</ele><time>2026-04-04T13:59:41.383Z</time></trkpt><trkpt lat="45.3352551" lon="8.4035321"><ele>131.42857142857144</ele><time>2026-04-04T13:59:43.384Z</time></trkpt><trkpt lat="45.3351905" lon="8.4035087"><ele>131.14285714285717</ele><time>2026-04-04T13:59:45.392Z</time></trkpt><trkpt lat="45.3351094" lon="8.4035113"><ele>130.85714285714286</ele><time>2026-04-04T13:59:53.386Z</time></trkpt><trkpt lat="45.3350712" lon="8.4035922"><ele>130.57142857142858</ele><time>2026-04-04T13:59:56.386Z</time></trkpt><trkpt lat="45.3350518" lon="8.4037174"><ele>130.2857142857143</ele><time>2026-04-04T13:59:59.378Z</time></trkpt><trkpt lat="45.3350229" lon="8.4038"><ele>130.0</ele><time>2026-04-04T14:00:01.378Z</time></trkpt><trkpt lat="45.3349532" lon="8.403819"><ele>130.0</ele><time>2026-04-04T14:00:03.383Z</time></trkpt><trkpt lat="45.3349532" lon="8.403819"><ele>130.0</ele><time>2026-04-04T14:00:03.383Z</time></trkpt></trkseg></trk></gpx>